<?xml version="1.0" encoding="UTF-8" standalone="no" ?>
<gpx xmlns="http://www.topografix.com/GPX/1/1" xmlns:xsi="http://www.w3.org/2001/XMLSchema-instance" xsi:schemaLocation="http://www.topografix.com/GPX/1/1 http://www.topografix.com/GPX/1/1/gpx.xsd" version="1.1" creator="VisuGPX - https://www.visugpx.com">
  <metadata>
    <name>VC-2023-03-25-01</name>
  </metadata>
  <trk>
    <name><![CDATA[VC-2023-03-25-01]]></name>
    <extensions>
      <line xmlns="http://www.topografix.com/GPX/gpx_style/0/2">
        <width>4</width>
      </line>
    </extensions>
    <trkseg>
      <trkpt lat="42.91897" lon="1.83617">
        <ele>567.7</ele>
        <time>2023-03-25T17:18:50.000Z</time>
      </trkpt>
      <trkpt lat="42.91899" lon="1.83616">
        <ele>567.7</ele>
        <time>2023-03-25T17:18:51.000Z</time>
      </trkpt>
      <trkpt lat="42.91904" lon="1.83613">
        <ele>567.8</ele>
        <time>2023-03-25T17:18:54.000Z</time>
      </trkpt>
      <trkpt lat="42.91908" lon="1.83608">
        <ele>567.8</ele>
        <time>2023-03-25T17:18:57.000Z</time>
      </trkpt>
      <trkpt lat="42.91912" lon="1.83601">
        <ele>567.8</ele>
        <time>2023-03-25T17:19:00.000Z</time>
      </trkpt>
      <trkpt lat="42.91914" lon="1.83594">
        <ele>567.9</ele>
        <time>2023-03-25T17:19:03.000Z</time>
      </trkpt>
      <trkpt lat="42.91918" lon="1.83589">
        <ele>567.9</ele>
        <time>2023-03-25T17:19:05.000Z</time>
      </trkpt>
      <trkpt lat="42.91921" lon="1.83584">
        <ele>568.1</ele>
        <time>2023-03-25T17:19:07.000Z</time>
      </trkpt>
      <trkpt lat="42.91925" lon="1.8358">
        <ele>568.2</ele>
        <time>2023-03-25T17:19:09.000Z</time>
      </trkpt>
      <trkpt lat="42.9193" lon="1.83581">
        <ele>568.3</ele>
        <time>2023-03-25T17:19:11.000Z</time>
      </trkpt>
      <trkpt lat="42.91936" lon="1.83586">
        <ele>568.2</ele>
        <time>2023-03-25T17:19:13.000Z</time>
      </trkpt>
      <trkpt lat="42.9194" lon="1.83592">
        <ele>568.1</ele>
        <time>2023-03-25T17:19:15.000Z</time>
      </trkpt>
      <trkpt lat="42.91945" lon="1.83597">
        <ele>568.1</ele>
        <time>2023-03-25T17:19:17.000Z</time>
      </trkpt>
      <trkpt lat="42.9195" lon="1.83602">
        <ele>568</ele>
        <time>2023-03-25T17:19:19.000Z</time>
      </trkpt>
      <trkpt lat="42.91956" lon="1.83609">
        <ele>567.9</ele>
        <time>2023-03-25T17:19:21.000Z</time>
      </trkpt>
      <trkpt lat="42.91963" lon="1.83615">
        <ele>567.8</ele>
        <time>2023-03-25T17:19:23.000Z</time>
      </trkpt>
      <trkpt lat="42.91971" lon="1.83622">
        <ele>567.6</ele>
        <time>2023-03-25T17:19:25.000Z</time>
      </trkpt>
      <trkpt lat="42.91975" lon="1.83626">
        <ele>567.5</ele>
        <time>2023-03-25T17:19:26.000Z</time>
      </trkpt>
      <trkpt lat="42.91979" lon="1.8363">
        <ele>567.4</ele>
        <time>2023-03-25T17:19:27.000Z</time>
      </trkpt>
      <trkpt lat="42.91983" lon="1.83633">
        <ele>567.3</ele>
        <time>2023-03-25T17:19:28.000Z</time>
      </trkpt>
      <trkpt lat="42.91987" lon="1.83637">
        <ele>567.1</ele>
        <time>2023-03-25T17:19:29.000Z</time>
      </trkpt>
      <trkpt lat="42.91992" lon="1.83642">
        <ele>567</ele>
        <time>2023-03-25T17:19:30.000Z</time>
      </trkpt>
      <trkpt lat="42.91996" lon="1.83646">
        <ele>566.8</ele>
        <time>2023-03-25T17:19:31.000Z</time>
      </trkpt>
      <trkpt lat="42.92" lon="1.8365">
        <ele>566.6</ele>
        <time>2023-03-25T17:19:32.000Z</time>
      </trkpt>
      <trkpt lat="42.92005" lon="1.83655">
        <ele>566.4</ele>
        <time>2023-03-25T17:19:33.000Z</time>
      </trkpt>
      <trkpt lat="42.9201" lon="1.8366">
        <ele>566.2</ele>
        <time>2023-03-25T17:19:34.000Z</time>
      </trkpt>
      <trkpt lat="42.92015" lon="1.83664">
        <ele>565.9</ele>
        <time>2023-03-25T17:19:35.000Z</time>
      </trkpt>
      <trkpt lat="42.92019" lon="1.83669">
        <ele>565.8</ele>
        <time>2023-03-25T17:19:36.000Z</time>
      </trkpt>
      <trkpt lat="42.92023" lon="1.83673">
        <ele>565.6</ele>
        <time>2023-03-25T17:19:37.000Z</time>
      </trkpt>
      <trkpt lat="42.92028" lon="1.83678">
        <ele>565.5</ele>
        <time>2023-03-25T17:19:38.000Z</time>
      </trkpt>
      <trkpt lat="42.92032" lon="1.83683">
        <ele>565.4</ele>
        <time>2023-03-25T17:19:39.000Z</time>
      </trkpt>
      <trkpt lat="42.92037" lon="1.83688">
        <ele>565.2</ele>
        <time>2023-03-25T17:19:40.000Z</time>
      </trkpt>
      <trkpt lat="42.92041" lon="1.83694">
        <ele>565</ele>
        <time>2023-03-25T17:19:41.000Z</time>
      </trkpt>
      <trkpt lat="42.92046" lon="1.83698">
        <ele>564.9</ele>
        <time>2023-03-25T17:19:42.000Z</time>
      </trkpt>
      <trkpt lat="42.9205" lon="1.83703">
        <ele>564.7</ele>
        <time>2023-03-25T17:19:43.000Z</time>
      </trkpt>
      <trkpt lat="42.92055" lon="1.83708">
        <ele>564.5</ele>
        <time>2023-03-25T17:19:44.000Z</time>
      </trkpt>
      <trkpt lat="42.9206" lon="1.83713">
        <ele>564.3</ele>
        <time>2023-03-25T17:19:45.000Z</time>
      </trkpt>
      <trkpt lat="42.92064" lon="1.83719">
        <ele>564.2</ele>
        <time>2023-03-25T17:19:46.000Z</time>
      </trkpt>
      <trkpt lat="42.92069" lon="1.83724">
        <ele>563.9</ele>
        <time>2023-03-25T17:19:47.000Z</time>
      </trkpt>
      <trkpt lat="42.92074" lon="1.83729">
        <ele>563.7</ele>
        <time>2023-03-25T17:19:48.000Z</time>
      </trkpt>
      <trkpt lat="42.92079" lon="1.83734">
        <ele>563.5</ele>
        <time>2023-03-25T17:19:49.000Z</time>
      </trkpt>
      <trkpt lat="42.92084" lon="1.83739">
        <ele>563.3</ele>
        <time>2023-03-25T17:19:50.000Z</time>
      </trkpt>
      <trkpt lat="42.9209" lon="1.83744">
        <ele>563.1</ele>
        <time>2023-03-25T17:19:51.000Z</time>
      </trkpt>
      <trkpt lat="42.92096" lon="1.83748">
        <ele>562.9</ele>
        <time>2023-03-25T17:19:52.000Z</time>
      </trkpt>
      <trkpt lat="42.92102" lon="1.83752">
        <ele>562.8</ele>
        <time>2023-03-25T17:19:53.000Z</time>
      </trkpt>
      <trkpt lat="42.92107" lon="1.83756">
        <ele>562.7</ele>
        <time>2023-03-25T17:19:54.000Z</time>
      </trkpt>
      <trkpt lat="42.92113" lon="1.83761">
        <ele>562.6</ele>
        <time>2023-03-25T17:19:55.000Z</time>
      </trkpt>
      <trkpt lat="42.92119" lon="1.83764">
        <ele>562.6</ele>
        <time>2023-03-25T17:19:56.000Z</time>
      </trkpt>
      <trkpt lat="42.92125" lon="1.83768">
        <ele>562.5</ele>
        <time>2023-03-25T17:19:57.000Z</time>
      </trkpt>
      <trkpt lat="42.92131" lon="1.83772">
        <ele>562.4</ele>
        <time>2023-03-25T17:19:58.000Z</time>
      </trkpt>
      <trkpt lat="42.92137" lon="1.83775">
        <ele>562.4</ele>
        <time>2023-03-25T17:19:59.000Z</time>
      </trkpt>
      <trkpt lat="42.92143" lon="1.83779">
        <ele>562.3</ele>
        <time>2023-03-25T17:20:00.000Z</time>
      </trkpt>
      <trkpt lat="42.92149" lon="1.83784">
        <ele>562.2</ele>
        <time>2023-03-25T17:20:01.000Z</time>
      </trkpt>
      <trkpt lat="42.92155" lon="1.83788">
        <ele>562.1</ele>
        <time>2023-03-25T17:20:02.000Z</time>
      </trkpt>
      <trkpt lat="42.9216" lon="1.83792">
        <ele>562.1</ele>
        <time>2023-03-25T17:20:03.000Z</time>
      </trkpt>
      <trkpt lat="42.92166" lon="1.83796">
        <ele>562</ele>
        <time>2023-03-25T17:20:04.000Z</time>
      </trkpt>
      <trkpt lat="42.92172" lon="1.838">
        <ele>561.8</ele>
        <time>2023-03-25T17:20:05.000Z</time>
      </trkpt>
      <trkpt lat="42.92177" lon="1.83804">
        <ele>561.7</ele>
        <time>2023-03-25T17:20:06.000Z</time>
      </trkpt>
      <trkpt lat="42.92183" lon="1.83808">
        <ele>561.5</ele>
        <time>2023-03-25T17:20:07.000Z</time>
      </trkpt>
      <trkpt lat="42.92189" lon="1.83811">
        <ele>561.3</ele>
        <time>2023-03-25T17:20:08.000Z</time>
      </trkpt>
      <trkpt lat="42.92196" lon="1.83813">
        <ele>561.1</ele>
        <time>2023-03-25T17:20:09.000Z</time>
      </trkpt>
      <trkpt lat="42.92202" lon="1.83817">
        <ele>561</ele>
        <time>2023-03-25T17:20:10.000Z</time>
      </trkpt>
      <trkpt lat="42.92208" lon="1.8382">
        <ele>560.8</ele>
        <time>2023-03-25T17:20:11.000Z</time>
      </trkpt>
      <trkpt lat="42.92215" lon="1.83823">
        <ele>560.7</ele>
        <time>2023-03-25T17:20:12.000Z</time>
      </trkpt>
      <trkpt lat="42.92222" lon="1.83826">
        <ele>560.5</ele>
        <time>2023-03-25T17:20:13.000Z</time>
      </trkpt>
      <trkpt lat="42.92229" lon="1.83829">
        <ele>560.4</ele>
        <time>2023-03-25T17:20:14.000Z</time>
      </trkpt>
      <trkpt lat="42.92236" lon="1.83832">
        <ele>560.3</ele>
        <time>2023-03-25T17:20:15.000Z</time>
      </trkpt>
      <trkpt lat="42.92242" lon="1.83834">
        <ele>560.2</ele>
        <time>2023-03-25T17:20:16.000Z</time>
      </trkpt>
      <trkpt lat="42.92249" lon="1.83837">
        <ele>560</ele>
        <time>2023-03-25T17:20:17.000Z</time>
      </trkpt>
      <trkpt lat="42.92256" lon="1.8384">
        <ele>559.8</ele>
        <time>2023-03-25T17:20:18.000Z</time>
      </trkpt>
      <trkpt lat="42.92263" lon="1.83843">
        <ele>559.6</ele>
        <time>2023-03-25T17:20:19.000Z</time>
      </trkpt>
      <trkpt lat="42.9227" lon="1.83847">
        <ele>559.3</ele>
        <time>2023-03-25T17:20:20.000Z</time>
      </trkpt>
      <trkpt lat="42.92277" lon="1.8385">
        <ele>559.1</ele>
        <time>2023-03-25T17:20:21.000Z</time>
      </trkpt>
      <trkpt lat="42.92283" lon="1.83854">
        <ele>558.9</ele>
        <time>2023-03-25T17:20:22.000Z</time>
      </trkpt>
      <trkpt lat="42.9229" lon="1.83857">
        <ele>558.6</ele>
        <time>2023-03-25T17:20:23.000Z</time>
      </trkpt>
      <trkpt lat="42.92297" lon="1.8386">
        <ele>558.4</ele>
        <time>2023-03-25T17:20:24.000Z</time>
      </trkpt>
      <trkpt lat="42.92303" lon="1.83863">
        <ele>558.1</ele>
        <time>2023-03-25T17:20:25.000Z</time>
      </trkpt>
      <trkpt lat="42.9231" lon="1.83866">
        <ele>557.9</ele>
        <time>2023-03-25T17:20:26.000Z</time>
      </trkpt>
      <trkpt lat="42.92317" lon="1.83869">
        <ele>557.6</ele>
        <time>2023-03-25T17:20:27.000Z</time>
      </trkpt>
      <trkpt lat="42.92323" lon="1.83872">
        <ele>557.4</ele>
        <time>2023-03-25T17:20:28.000Z</time>
      </trkpt>
      <trkpt lat="42.92329" lon="1.83876">
        <ele>557.1</ele>
        <time>2023-03-25T17:20:29.000Z</time>
      </trkpt>
      <trkpt lat="42.92336" lon="1.8388">
        <ele>556.8</ele>
        <time>2023-03-25T17:20:30.000Z</time>
      </trkpt>
      <trkpt lat="42.92342" lon="1.83884">
        <ele>556.6</ele>
        <time>2023-03-25T17:20:31.000Z</time>
      </trkpt>
      <trkpt lat="42.92348" lon="1.83888">
        <ele>556.3</ele>
        <time>2023-03-25T17:20:32.000Z</time>
      </trkpt>
      <trkpt lat="42.92354" lon="1.83893">
        <ele>556</ele>
        <time>2023-03-25T17:20:33.000Z</time>
      </trkpt>
      <trkpt lat="42.92361" lon="1.83898">
        <ele>555.7</ele>
        <time>2023-03-25T17:20:34.000Z</time>
      </trkpt>
      <trkpt lat="42.92367" lon="1.83904">
        <ele>555.4</ele>
        <time>2023-03-25T17:20:35.000Z</time>
      </trkpt>
      <trkpt lat="42.92374" lon="1.83909">
        <ele>555.2</ele>
        <time>2023-03-25T17:20:36.000Z</time>
      </trkpt>
      <trkpt lat="42.92381" lon="1.83915">
        <ele>554.9</ele>
        <time>2023-03-25T17:20:37.000Z</time>
      </trkpt>
      <trkpt lat="42.92388" lon="1.8392">
        <ele>554.6</ele>
        <time>2023-03-25T17:20:38.000Z</time>
      </trkpt>
      <trkpt lat="42.92394" lon="1.83924">
        <ele>554.3</ele>
        <time>2023-03-25T17:20:39.000Z</time>
      </trkpt>
      <trkpt lat="42.92398" lon="1.83927">
        <ele>554.1</ele>
        <time>2023-03-25T17:20:40.000Z</time>
      </trkpt>
      <trkpt lat="42.92403" lon="1.83929">
        <ele>553.9</ele>
        <time>2023-03-25T17:20:42.000Z</time>
      </trkpt>
      <trkpt lat="42.92409" lon="1.83928">
        <ele>553.8</ele>
        <time>2023-03-25T17:20:47.000Z</time>
      </trkpt>
      <trkpt lat="42.92413" lon="1.83921">
        <ele>554</ele>
        <time>2023-03-25T17:20:49.000Z</time>
      </trkpt>
      <trkpt lat="42.92417" lon="1.83913">
        <ele>554</ele>
        <time>2023-03-25T17:20:51.000Z</time>
      </trkpt>
      <trkpt lat="42.9242" lon="1.83904">
        <ele>554.1</ele>
        <time>2023-03-25T17:20:53.000Z</time>
      </trkpt>
      <trkpt lat="42.92422" lon="1.83894">
        <ele>554.1</ele>
        <time>2023-03-25T17:20:55.000Z</time>
      </trkpt>
      <trkpt lat="42.92424" lon="1.83882">
        <ele>554.3</ele>
        <time>2023-03-25T17:20:57.000Z</time>
      </trkpt>
      <trkpt lat="42.92425" lon="1.83871">
        <ele>554.4</ele>
        <time>2023-03-25T17:20:59.000Z</time>
      </trkpt>
      <trkpt lat="42.92427" lon="1.83859">
        <ele>554.5</ele>
        <time>2023-03-25T17:21:01.000Z</time>
      </trkpt>
      <trkpt lat="42.92428" lon="1.83847">
        <ele>554.6</ele>
        <time>2023-03-25T17:21:03.000Z</time>
      </trkpt>
      <trkpt lat="42.9243" lon="1.83835">
        <ele>554.7</ele>
        <time>2023-03-25T17:21:05.000Z</time>
      </trkpt>
      <trkpt lat="42.92431" lon="1.83828">
        <ele>554.7</ele>
        <time>2023-03-25T17:21:06.000Z</time>
      </trkpt>
      <trkpt lat="42.92431" lon="1.83822">
        <ele>554.8</ele>
        <time>2023-03-25T17:21:07.000Z</time>
      </trkpt>
      <trkpt lat="42.92432" lon="1.83815">
        <ele>554.9</ele>
        <time>2023-03-25T17:21:08.000Z</time>
      </trkpt>
      <trkpt lat="42.92434" lon="1.83803">
        <ele>555.1</ele>
        <time>2023-03-25T17:21:10.000Z</time>
      </trkpt>
      <trkpt lat="42.92435" lon="1.83797">
        <ele>555.2</ele>
        <time>2023-03-25T17:21:11.000Z</time>
      </trkpt>
      <trkpt lat="42.92435" lon="1.83791">
        <ele>555.3</ele>
        <time>2023-03-25T17:21:12.000Z</time>
      </trkpt>
      <trkpt lat="42.92434" lon="1.83784">
        <ele>555.4</ele>
        <time>2023-03-25T17:21:13.000Z</time>
      </trkpt>
      <trkpt lat="42.92434" lon="1.83778">
        <ele>555.5</ele>
        <time>2023-03-25T17:21:14.000Z</time>
      </trkpt>
      <trkpt lat="42.92432" lon="1.83772">
        <ele>555.7</ele>
        <time>2023-03-25T17:21:15.000Z</time>
      </trkpt>
      <trkpt lat="42.9243" lon="1.83766">
        <ele>555.8</ele>
        <time>2023-03-25T17:21:16.000Z</time>
      </trkpt>
      <trkpt lat="42.92426" lon="1.83755">
        <ele>555.9</ele>
        <time>2023-03-25T17:21:18.000Z</time>
      </trkpt>
      <trkpt lat="42.92426" lon="1.83744">
        <ele>556.1</ele>
        <time>2023-03-25T17:21:20.000Z</time>
      </trkpt>
      <trkpt lat="42.9243" lon="1.83736">
        <ele>556.3</ele>
        <time>2023-03-25T17:21:22.000Z</time>
      </trkpt>
      <trkpt lat="42.92435" lon="1.83734">
        <ele>556.4</ele>
        <time>2023-03-25T17:21:23.000Z</time>
      </trkpt>
      <trkpt lat="42.9244" lon="1.83734">
        <ele>556.3</ele>
        <time>2023-03-25T17:21:24.000Z</time>
      </trkpt>
      <trkpt lat="42.92446" lon="1.83736">
        <ele>556.3</ele>
        <time>2023-03-25T17:21:25.000Z</time>
      </trkpt>
      <trkpt lat="42.92451" lon="1.8374">
        <ele>556.2</ele>
        <time>2023-03-25T17:21:26.000Z</time>
      </trkpt>
      <trkpt lat="42.92455" lon="1.83745">
        <ele>556.1</ele>
        <time>2023-03-25T17:21:27.000Z</time>
      </trkpt>
      <trkpt lat="42.9246" lon="1.83751">
        <ele>556</ele>
        <time>2023-03-25T17:21:28.000Z</time>
      </trkpt>
      <trkpt lat="42.92465" lon="1.83757">
        <ele>555.8</ele>
        <time>2023-03-25T17:21:29.000Z</time>
      </trkpt>
      <trkpt lat="42.9247" lon="1.83763">
        <ele>555.6</ele>
        <time>2023-03-25T17:21:30.000Z</time>
      </trkpt>
      <trkpt lat="42.92475" lon="1.8377">
        <ele>555.4</ele>
        <time>2023-03-25T17:21:31.000Z</time>
      </trkpt>
      <trkpt lat="42.9248" lon="1.83776">
        <ele>555.2</ele>
        <time>2023-03-25T17:21:32.000Z</time>
      </trkpt>
      <trkpt lat="42.92486" lon="1.83783">
        <ele>555</ele>
        <time>2023-03-25T17:21:33.000Z</time>
      </trkpt>
      <trkpt lat="42.92491" lon="1.8379">
        <ele>554.7</ele>
        <time>2023-03-25T17:21:34.000Z</time>
      </trkpt>
      <trkpt lat="42.92497" lon="1.83796">
        <ele>554.4</ele>
        <time>2023-03-25T17:21:35.000Z</time>
      </trkpt>
      <trkpt lat="42.92503" lon="1.83802">
        <ele>554.1</ele>
        <time>2023-03-25T17:21:36.000Z</time>
      </trkpt>
      <trkpt lat="42.92509" lon="1.83808">
        <ele>553.7</ele>
        <time>2023-03-25T17:21:37.000Z</time>
      </trkpt>
      <trkpt lat="42.92515" lon="1.83814">
        <ele>553.4</ele>
        <time>2023-03-25T17:21:38.000Z</time>
      </trkpt>
      <trkpt lat="42.92519" lon="1.83819">
        <ele>553.2</ele>
        <time>2023-03-25T17:21:39.000Z</time>
      </trkpt>
      <trkpt lat="42.92522" lon="1.83823">
        <ele>553</ele>
        <time>2023-03-25T17:21:40.000Z</time>
      </trkpt>
      <trkpt lat="42.92528" lon="1.83831">
        <ele>552.7</ele>
        <time>2023-03-25T17:21:42.000Z</time>
      </trkpt>
      <trkpt lat="42.92536" lon="1.8383">
        <ele>552.6</ele>
        <time>2023-03-25T17:21:44.000Z</time>
      </trkpt>
      <trkpt lat="42.9254" lon="1.83828">
        <ele>552.6</ele>
        <time>2023-03-25T17:21:45.000Z</time>
      </trkpt>
      <trkpt lat="42.92546" lon="1.83827">
        <ele>552.5</ele>
        <time>2023-03-25T17:21:46.000Z</time>
      </trkpt>
      <trkpt lat="42.92551" lon="1.83828">
        <ele>552.4</ele>
        <time>2023-03-25T17:21:47.000Z</time>
      </trkpt>
      <trkpt lat="42.92556" lon="1.83829">
        <ele>552.3</ele>
        <time>2023-03-25T17:21:48.000Z</time>
      </trkpt>
      <trkpt lat="42.92561" lon="1.83831">
        <ele>552.3</ele>
        <time>2023-03-25T17:21:49.000Z</time>
      </trkpt>
      <trkpt lat="42.92566" lon="1.83832">
        <ele>552.2</ele>
        <time>2023-03-25T17:21:50.000Z</time>
      </trkpt>
      <trkpt lat="42.92572" lon="1.83834">
        <ele>552.1</ele>
        <time>2023-03-25T17:21:51.000Z</time>
      </trkpt>
      <trkpt lat="42.92578" lon="1.83835">
        <ele>552</ele>
        <time>2023-03-25T17:21:52.000Z</time>
      </trkpt>
      <trkpt lat="42.92584" lon="1.83837">
        <ele>551.9</ele>
        <time>2023-03-25T17:21:53.000Z</time>
      </trkpt>
      <trkpt lat="42.9259" lon="1.83839">
        <ele>551.6</ele>
        <time>2023-03-25T17:21:54.000Z</time>
      </trkpt>
      <trkpt lat="42.92597" lon="1.83841">
        <ele>551.3</ele>
        <time>2023-03-25T17:21:55.000Z</time>
      </trkpt>
      <trkpt lat="42.92604" lon="1.83842">
        <ele>551</ele>
        <time>2023-03-25T17:21:56.000Z</time>
      </trkpt>
      <trkpt lat="42.9261" lon="1.83844">
        <ele>550.8</ele>
        <time>2023-03-25T17:21:57.000Z</time>
      </trkpt>
      <trkpt lat="42.92617" lon="1.83846">
        <ele>550.5</ele>
        <time>2023-03-25T17:21:58.000Z</time>
      </trkpt>
      <trkpt lat="42.92624" lon="1.83847">
        <ele>550.2</ele>
        <time>2023-03-25T17:21:59.000Z</time>
      </trkpt>
      <trkpt lat="42.92631" lon="1.8385">
        <ele>549.9</ele>
        <time>2023-03-25T17:22:00.000Z</time>
      </trkpt>
      <trkpt lat="42.92638" lon="1.83852">
        <ele>549.6</ele>
        <time>2023-03-25T17:22:01.000Z</time>
      </trkpt>
      <trkpt lat="42.92646" lon="1.83855">
        <ele>549.2</ele>
        <time>2023-03-25T17:22:02.000Z</time>
      </trkpt>
      <trkpt lat="42.92653" lon="1.83858">
        <ele>548.9</ele>
        <time>2023-03-25T17:22:03.000Z</time>
      </trkpt>
      <trkpt lat="42.92661" lon="1.8386">
        <ele>548.6</ele>
        <time>2023-03-25T17:22:04.000Z</time>
      </trkpt>
      <trkpt lat="42.92668" lon="1.83862">
        <ele>548.3</ele>
        <time>2023-03-25T17:22:05.000Z</time>
      </trkpt>
      <trkpt lat="42.92676" lon="1.83865">
        <ele>548.2</ele>
        <time>2023-03-25T17:22:06.000Z</time>
      </trkpt>
      <trkpt lat="42.92683" lon="1.83868">
        <ele>548.1</ele>
        <time>2023-03-25T17:22:07.000Z</time>
      </trkpt>
      <trkpt lat="42.92691" lon="1.83871">
        <ele>548</ele>
        <time>2023-03-25T17:22:08.000Z</time>
      </trkpt>
      <trkpt lat="42.92699" lon="1.83874">
        <ele>547.8</ele>
        <time>2023-03-25T17:22:09.000Z</time>
      </trkpt>
      <trkpt lat="42.92707" lon="1.83876">
        <ele>547.7</ele>
        <time>2023-03-25T17:22:10.000Z</time>
      </trkpt>
      <trkpt lat="42.92715" lon="1.83878">
        <ele>547.7</ele>
        <time>2023-03-25T17:22:11.000Z</time>
      </trkpt>
      <trkpt lat="42.92723" lon="1.83881">
        <ele>547.6</ele>
        <time>2023-03-25T17:22:12.000Z</time>
      </trkpt>
      <trkpt lat="42.9273" lon="1.83882">
        <ele>547.5</ele>
        <time>2023-03-25T17:22:13.000Z</time>
      </trkpt>
      <trkpt lat="42.92737" lon="1.83884">
        <ele>547.5</ele>
        <time>2023-03-25T17:22:14.000Z</time>
      </trkpt>
      <trkpt lat="42.92744" lon="1.83886">
        <ele>547.4</ele>
        <time>2023-03-25T17:22:15.000Z</time>
      </trkpt>
      <trkpt lat="42.92751" lon="1.83887">
        <ele>547.3</ele>
        <time>2023-03-25T17:22:16.000Z</time>
      </trkpt>
      <trkpt lat="42.92759" lon="1.8389">
        <ele>547.1</ele>
        <time>2023-03-25T17:22:17.000Z</time>
      </trkpt>
      <trkpt lat="42.92767" lon="1.83892">
        <ele>546.8</ele>
        <time>2023-03-25T17:22:18.000Z</time>
      </trkpt>
      <trkpt lat="42.92775" lon="1.83894">
        <ele>546.6</ele>
        <time>2023-03-25T17:22:19.000Z</time>
      </trkpt>
      <trkpt lat="42.92782" lon="1.83897">
        <ele>546.4</ele>
        <time>2023-03-25T17:22:20.000Z</time>
      </trkpt>
      <trkpt lat="42.9279" lon="1.83899">
        <ele>546.1</ele>
        <time>2023-03-25T17:22:21.000Z</time>
      </trkpt>
      <trkpt lat="42.92798" lon="1.83902">
        <ele>545.9</ele>
        <time>2023-03-25T17:22:22.000Z</time>
      </trkpt>
      <trkpt lat="42.92806" lon="1.83904">
        <ele>545.7</ele>
        <time>2023-03-25T17:22:23.000Z</time>
      </trkpt>
      <trkpt lat="42.92814" lon="1.83906">
        <ele>545.5</ele>
        <time>2023-03-25T17:22:24.000Z</time>
      </trkpt>
      <trkpt lat="42.92823" lon="1.83909">
        <ele>545.3</ele>
        <time>2023-03-25T17:22:25.000Z</time>
      </trkpt>
      <trkpt lat="42.9283" lon="1.83912">
        <ele>545.1</ele>
        <time>2023-03-25T17:22:26.000Z</time>
      </trkpt>
      <trkpt lat="42.92838" lon="1.83914">
        <ele>544.8</ele>
        <time>2023-03-25T17:22:27.000Z</time>
      </trkpt>
      <trkpt lat="42.92846" lon="1.83917">
        <ele>544.4</ele>
        <time>2023-03-25T17:22:28.000Z</time>
      </trkpt>
      <trkpt lat="42.92854" lon="1.83919">
        <ele>544</ele>
        <time>2023-03-25T17:22:29.000Z</time>
      </trkpt>
      <trkpt lat="42.92861" lon="1.83921">
        <ele>543.6</ele>
        <time>2023-03-25T17:22:30.000Z</time>
      </trkpt>
      <trkpt lat="42.92867" lon="1.83923">
        <ele>543.3</ele>
        <time>2023-03-25T17:22:31.000Z</time>
      </trkpt>
      <trkpt lat="42.92872" lon="1.83925">
        <ele>543.1</ele>
        <time>2023-03-25T17:22:32.000Z</time>
      </trkpt>
      <trkpt lat="42.92878" lon="1.83927">
        <ele>542.8</ele>
        <time>2023-03-25T17:22:34.000Z</time>
      </trkpt>
      <trkpt lat="42.92885" lon="1.83929">
        <ele>542.5</ele>
        <time>2023-03-25T17:22:37.000Z</time>
      </trkpt>
      <trkpt lat="42.92893" lon="1.83931">
        <ele>542.2</ele>
        <time>2023-03-25T17:22:39.000Z</time>
      </trkpt>
      <trkpt lat="42.92898" lon="1.83932">
        <ele>541.9</ele>
        <time>2023-03-25T17:22:40.000Z</time>
      </trkpt>
      <trkpt lat="42.92903" lon="1.83933">
        <ele>541.7</ele>
        <time>2023-03-25T17:22:41.000Z</time>
      </trkpt>
      <trkpt lat="42.92909" lon="1.83935">
        <ele>541.5</ele>
        <time>2023-03-25T17:22:42.000Z</time>
      </trkpt>
      <trkpt lat="42.92914" lon="1.83936">
        <ele>541.3</ele>
        <time>2023-03-25T17:22:43.000Z</time>
      </trkpt>
      <trkpt lat="42.92919" lon="1.83938">
        <ele>541.2</ele>
        <time>2023-03-25T17:22:44.000Z</time>
      </trkpt>
      <trkpt lat="42.92925" lon="1.83941">
        <ele>541.1</ele>
        <time>2023-03-25T17:22:45.000Z</time>
      </trkpt>
      <trkpt lat="42.92931" lon="1.83943">
        <ele>541</ele>
        <time>2023-03-25T17:22:46.000Z</time>
      </trkpt>
      <trkpt lat="42.92938" lon="1.83945">
        <ele>540.8</ele>
        <time>2023-03-25T17:22:47.000Z</time>
      </trkpt>
      <trkpt lat="42.92944" lon="1.83947">
        <ele>540.7</ele>
        <time>2023-03-25T17:22:48.000Z</time>
      </trkpt>
      <trkpt lat="42.92951" lon="1.83949">
        <ele>540.6</ele>
        <time>2023-03-25T17:22:49.000Z</time>
      </trkpt>
      <trkpt lat="42.92958" lon="1.83951">
        <ele>540.4</ele>
        <time>2023-03-25T17:22:50.000Z</time>
      </trkpt>
      <trkpt lat="42.92964" lon="1.83953">
        <ele>540.3</ele>
        <time>2023-03-25T17:22:51.000Z</time>
      </trkpt>
      <trkpt lat="42.92971" lon="1.83955">
        <ele>540.1</ele>
        <time>2023-03-25T17:22:52.000Z</time>
      </trkpt>
      <trkpt lat="42.92978" lon="1.83957">
        <ele>540</ele>
        <time>2023-03-25T17:22:53.000Z</time>
      </trkpt>
      <trkpt lat="42.92985" lon="1.83959">
        <ele>539.9</ele>
        <time>2023-03-25T17:22:54.000Z</time>
      </trkpt>
      <trkpt lat="42.92992" lon="1.83962">
        <ele>539.7</ele>
        <time>2023-03-25T17:22:55.000Z</time>
      </trkpt>
      <trkpt lat="42.92999" lon="1.83964">
        <ele>539.6</ele>
        <time>2023-03-25T17:22:56.000Z</time>
      </trkpt>
      <trkpt lat="42.93006" lon="1.83966">
        <ele>539.2</ele>
        <time>2023-03-25T17:22:57.000Z</time>
      </trkpt>
      <trkpt lat="42.93014" lon="1.83969">
        <ele>538.9</ele>
        <time>2023-03-25T17:22:58.000Z</time>
      </trkpt>
      <trkpt lat="42.93021" lon="1.83971">
        <ele>538.6</ele>
        <time>2023-03-25T17:22:59.000Z</time>
      </trkpt>
      <trkpt lat="42.93028" lon="1.83973">
        <ele>538.2</ele>
        <time>2023-03-25T17:23:00.000Z</time>
      </trkpt>
      <trkpt lat="42.93035" lon="1.83974">
        <ele>537.9</ele>
        <time>2023-03-25T17:23:01.000Z</time>
      </trkpt>
      <trkpt lat="42.93042" lon="1.83975">
        <ele>537.5</ele>
        <time>2023-03-25T17:23:02.000Z</time>
      </trkpt>
      <trkpt lat="42.93049" lon="1.83974">
        <ele>537.1</ele>
        <time>2023-03-25T17:23:03.000Z</time>
      </trkpt>
      <trkpt lat="42.93056" lon="1.83974">
        <ele>536.8</ele>
        <time>2023-03-25T17:23:04.000Z</time>
      </trkpt>
      <trkpt lat="42.93063" lon="1.83973">
        <ele>536.4</ele>
        <time>2023-03-25T17:23:05.000Z</time>
      </trkpt>
      <trkpt lat="42.9307" lon="1.83971">
        <ele>536</ele>
        <time>2023-03-25T17:23:06.000Z</time>
      </trkpt>
      <trkpt lat="42.93078" lon="1.83969">
        <ele>535.6</ele>
        <time>2023-03-25T17:23:07.000Z</time>
      </trkpt>
      <trkpt lat="42.93085" lon="1.83966">
        <ele>535.2</ele>
        <time>2023-03-25T17:23:08.000Z</time>
      </trkpt>
      <trkpt lat="42.93093" lon="1.83963">
        <ele>535</ele>
        <time>2023-03-25T17:23:09.000Z</time>
      </trkpt>
      <trkpt lat="42.93101" lon="1.8396">
        <ele>534.9</ele>
        <time>2023-03-25T17:23:10.000Z</time>
      </trkpt>
      <trkpt lat="42.9311" lon="1.83957">
        <ele>534.8</ele>
        <time>2023-03-25T17:23:11.000Z</time>
      </trkpt>
      <trkpt lat="42.93119" lon="1.83954">
        <ele>534.7</ele>
        <time>2023-03-25T17:23:12.000Z</time>
      </trkpt>
      <trkpt lat="42.93129" lon="1.83951">
        <ele>534.7</ele>
        <time>2023-03-25T17:23:13.000Z</time>
      </trkpt>
      <trkpt lat="42.93139" lon="1.83947">
        <ele>534.7</ele>
        <time>2023-03-25T17:23:14.000Z</time>
      </trkpt>
      <trkpt lat="42.9315" lon="1.83944">
        <ele>534.7</ele>
        <time>2023-03-25T17:23:15.000Z</time>
      </trkpt>
      <trkpt lat="42.93161" lon="1.83941">
        <ele>534.7</ele>
        <time>2023-03-25T17:23:16.000Z</time>
      </trkpt>
      <trkpt lat="42.93172" lon="1.83937">
        <ele>534.9</ele>
        <time>2023-03-25T17:23:17.000Z</time>
      </trkpt>
      <trkpt lat="42.93184" lon="1.83934">
        <ele>535.3</ele>
        <time>2023-03-25T17:23:18.000Z</time>
      </trkpt>
      <trkpt lat="42.93195" lon="1.83931">
        <ele>535.6</ele>
        <time>2023-03-25T17:23:19.000Z</time>
      </trkpt>
      <trkpt lat="42.93206" lon="1.83927">
        <ele>535.9</ele>
        <time>2023-03-25T17:23:20.000Z</time>
      </trkpt>
      <trkpt lat="42.93217" lon="1.83924">
        <ele>536.2</ele>
        <time>2023-03-25T17:23:21.000Z</time>
      </trkpt>
      <trkpt lat="42.93228" lon="1.83919">
        <ele>536.5</ele>
        <time>2023-03-25T17:23:22.000Z</time>
      </trkpt>
      <trkpt lat="42.93238" lon="1.83916">
        <ele>536.7</ele>
        <time>2023-03-25T17:23:23.000Z</time>
      </trkpt>
      <trkpt lat="42.93249" lon="1.83912">
        <ele>537</ele>
        <time>2023-03-25T17:23:24.000Z</time>
      </trkpt>
      <trkpt lat="42.93259" lon="1.83908">
        <ele>537.6</ele>
        <time>2023-03-25T17:23:25.000Z</time>
      </trkpt>
      <trkpt lat="42.93269" lon="1.83905">
        <ele>538.3</ele>
        <time>2023-03-25T17:23:26.000Z</time>
      </trkpt>
      <trkpt lat="42.93278" lon="1.83902">
        <ele>538.9</ele>
        <time>2023-03-25T17:23:27.000Z</time>
      </trkpt>
      <trkpt lat="42.93287" lon="1.83899">
        <ele>539.5</ele>
        <time>2023-03-25T17:23:28.000Z</time>
      </trkpt>
      <trkpt lat="42.93296" lon="1.83896">
        <ele>540</ele>
        <time>2023-03-25T17:23:29.000Z</time>
      </trkpt>
      <trkpt lat="42.93304" lon="1.83893">
        <ele>540.5</ele>
        <time>2023-03-25T17:23:30.000Z</time>
      </trkpt>
      <trkpt lat="42.93311" lon="1.83891">
        <ele>540.9</ele>
        <time>2023-03-25T17:23:31.000Z</time>
      </trkpt>
      <trkpt lat="42.93317" lon="1.83889">
        <ele>541.3</ele>
        <time>2023-03-25T17:23:32.000Z</time>
      </trkpt>
      <trkpt lat="42.93324" lon="1.83888">
        <ele>541.7</ele>
        <time>2023-03-25T17:23:33.000Z</time>
      </trkpt>
      <trkpt lat="42.9333" lon="1.83889">
        <ele>542.1</ele>
        <time>2023-03-25T17:23:34.000Z</time>
      </trkpt>
      <trkpt lat="42.93335" lon="1.83892">
        <ele>542.6</ele>
        <time>2023-03-25T17:23:35.000Z</time>
      </trkpt>
      <trkpt lat="42.93338" lon="1.83898">
        <ele>543.5</ele>
        <time>2023-03-25T17:23:36.000Z</time>
      </trkpt>
      <trkpt lat="42.93342" lon="1.83903">
        <ele>544.3</ele>
        <time>2023-03-25T17:23:37.000Z</time>
      </trkpt>
      <trkpt lat="42.93347" lon="1.83905">
        <ele>545.2</ele>
        <time>2023-03-25T17:23:38.000Z</time>
      </trkpt>
      <trkpt lat="42.93352" lon="1.83903">
        <ele>546.1</ele>
        <time>2023-03-25T17:23:39.000Z</time>
      </trkpt>
      <trkpt lat="42.93356" lon="1.83899">
        <ele>546.6</ele>
        <time>2023-03-25T17:23:40.000Z</time>
      </trkpt>
      <trkpt lat="42.93359" lon="1.83889">
        <ele>546.8</ele>
        <time>2023-03-25T17:23:42.000Z</time>
      </trkpt>
      <trkpt lat="42.93363" lon="1.83879">
        <ele>546.9</ele>
        <time>2023-03-25T17:23:44.000Z</time>
      </trkpt>
      <trkpt lat="42.93365" lon="1.83869">
        <ele>546.9</ele>
        <time>2023-03-25T17:23:46.000Z</time>
      </trkpt>
      <trkpt lat="42.93369" lon="1.83859">
        <ele>547</ele>
        <time>2023-03-25T17:23:48.000Z</time>
      </trkpt>
      <trkpt lat="42.93372" lon="1.83849">
        <ele>547</ele>
        <time>2023-03-25T17:23:50.000Z</time>
      </trkpt>
      <trkpt lat="42.93376" lon="1.83839">
        <ele>546.9</ele>
        <time>2023-03-25T17:23:52.000Z</time>
      </trkpt>
      <trkpt lat="42.93379" lon="1.83829">
        <ele>547</ele>
        <time>2023-03-25T17:23:54.000Z</time>
      </trkpt>
      <trkpt lat="42.93382" lon="1.8382">
        <ele>547.4</ele>
        <time>2023-03-25T17:23:56.000Z</time>
      </trkpt>
      <trkpt lat="42.93384" lon="1.8381">
        <ele>547.5</ele>
        <time>2023-03-25T17:23:58.000Z</time>
      </trkpt>
      <trkpt lat="42.93386" lon="1.838">
        <ele>547.8</ele>
        <time>2023-03-25T17:24:00.000Z</time>
      </trkpt>
      <trkpt lat="42.9339" lon="1.8379">
        <ele>548.1</ele>
        <time>2023-03-25T17:24:02.000Z</time>
      </trkpt>
      <trkpt lat="42.93393" lon="1.8378">
        <ele>548.3</ele>
        <time>2023-03-25T17:24:04.000Z</time>
      </trkpt>
      <trkpt lat="42.93396" lon="1.83768">
        <ele>548.5</ele>
        <time>2023-03-25T17:24:06.000Z</time>
      </trkpt>
      <trkpt lat="42.93397" lon="1.83762">
        <ele>548.5</ele>
        <time>2023-03-25T17:24:07.000Z</time>
      </trkpt>
      <trkpt lat="42.93402" lon="1.83751">
        <ele>548.8</ele>
        <time>2023-03-25T17:24:09.000Z</time>
      </trkpt>
      <trkpt lat="42.93405" lon="1.8374">
        <ele>548.9</ele>
        <time>2023-03-25T17:24:11.000Z</time>
      </trkpt>
      <trkpt lat="42.93407" lon="1.83734">
        <ele>549</ele>
        <time>2023-03-25T17:24:12.000Z</time>
      </trkpt>
      <trkpt lat="42.93412" lon="1.83724">
        <ele>549.2</ele>
        <time>2023-03-25T17:24:14.000Z</time>
      </trkpt>
      <trkpt lat="42.93414" lon="1.83718">
        <ele>549.4</ele>
        <time>2023-03-25T17:24:15.000Z</time>
      </trkpt>
      <trkpt lat="42.93416" lon="1.83712">
        <ele>549.5</ele>
        <time>2023-03-25T17:24:16.000Z</time>
      </trkpt>
      <trkpt lat="42.93421" lon="1.83701">
        <ele>550.5</ele>
        <time>2023-03-25T17:24:18.000Z</time>
      </trkpt>
      <trkpt lat="42.93423" lon="1.83696">
        <ele>551.2</ele>
        <time>2023-03-25T17:24:19.000Z</time>
      </trkpt>
      <trkpt lat="42.93426" lon="1.8369">
        <ele>551.8</ele>
        <time>2023-03-25T17:24:20.000Z</time>
      </trkpt>
      <trkpt lat="42.93429" lon="1.83685">
        <ele>552.5</ele>
        <time>2023-03-25T17:24:21.000Z</time>
      </trkpt>
      <trkpt lat="42.93432" lon="1.83679">
        <ele>553.2</ele>
        <time>2023-03-25T17:24:22.000Z</time>
      </trkpt>
      <trkpt lat="42.93435" lon="1.83674">
        <ele>554</ele>
        <time>2023-03-25T17:24:23.000Z</time>
      </trkpt>
      <trkpt lat="42.93438" lon="1.83669">
        <ele>554.8</ele>
        <time>2023-03-25T17:24:24.000Z</time>
      </trkpt>
      <trkpt lat="42.93442" lon="1.83664">
        <ele>555.4</ele>
        <time>2023-03-25T17:24:25.000Z</time>
      </trkpt>
      <trkpt lat="42.93445" lon="1.83659">
        <ele>555.9</ele>
        <time>2023-03-25T17:24:26.000Z</time>
      </trkpt>
      <trkpt lat="42.93448" lon="1.83653">
        <ele>556.4</ele>
        <time>2023-03-25T17:24:27.000Z</time>
      </trkpt>
      <trkpt lat="42.93451" lon="1.83648">
        <ele>556.8</ele>
        <time>2023-03-25T17:24:28.000Z</time>
      </trkpt>
      <trkpt lat="42.93453" lon="1.83642">
        <ele>557</ele>
        <time>2023-03-25T17:24:29.000Z</time>
      </trkpt>
      <trkpt lat="42.93456" lon="1.83637">
        <ele>557.5</ele>
        <time>2023-03-25T17:24:30.000Z</time>
      </trkpt>
      <trkpt lat="42.93458" lon="1.83631">
        <ele>557.6</ele>
        <time>2023-03-25T17:24:31.000Z</time>
      </trkpt>
      <trkpt lat="42.93461" lon="1.83626">
        <ele>557.9</ele>
        <time>2023-03-25T17:24:32.000Z</time>
      </trkpt>
      <trkpt lat="42.93464" lon="1.8362">
        <ele>558.2</ele>
        <time>2023-03-25T17:24:33.000Z</time>
      </trkpt>
      <trkpt lat="42.93466" lon="1.83614">
        <ele>558.4</ele>
        <time>2023-03-25T17:24:34.000Z</time>
      </trkpt>
      <trkpt lat="42.9347" lon="1.83608">
        <ele>558.9</ele>
        <time>2023-03-25T17:24:35.000Z</time>
      </trkpt>
      <trkpt lat="42.93473" lon="1.83603">
        <ele>559.3</ele>
        <time>2023-03-25T17:24:36.000Z</time>
      </trkpt>
      <trkpt lat="42.93477" lon="1.83598">
        <ele>559.9</ele>
        <time>2023-03-25T17:24:37.000Z</time>
      </trkpt>
      <trkpt lat="42.93481" lon="1.83592">
        <ele>560.2</ele>
        <time>2023-03-25T17:24:38.000Z</time>
      </trkpt>
      <trkpt lat="42.93484" lon="1.83587">
        <ele>560.6</ele>
        <time>2023-03-25T17:24:39.000Z</time>
      </trkpt>
      <trkpt lat="42.93487" lon="1.83581">
        <ele>560.8</ele>
        <time>2023-03-25T17:24:40.000Z</time>
      </trkpt>
      <trkpt lat="42.93489" lon="1.83575">
        <ele>561</ele>
        <time>2023-03-25T17:24:41.000Z</time>
      </trkpt>
      <trkpt lat="42.93492" lon="1.8357">
        <ele>561.3</ele>
        <time>2023-03-25T17:24:42.000Z</time>
      </trkpt>
      <trkpt lat="42.93495" lon="1.83564">
        <ele>561.6</ele>
        <time>2023-03-25T17:24:43.000Z</time>
      </trkpt>
      <trkpt lat="42.93497" lon="1.83559">
        <ele>561.9</ele>
        <time>2023-03-25T17:24:44.000Z</time>
      </trkpt>
      <trkpt lat="42.935" lon="1.83553">
        <ele>562.2</ele>
        <time>2023-03-25T17:24:45.000Z</time>
      </trkpt>
      <trkpt lat="42.93503" lon="1.83548">
        <ele>562.8</ele>
        <time>2023-03-25T17:24:46.000Z</time>
      </trkpt>
      <trkpt lat="42.93507" lon="1.83543">
        <ele>563.6</ele>
        <time>2023-03-25T17:24:47.000Z</time>
      </trkpt>
      <trkpt lat="42.9351" lon="1.83538">
        <ele>564.2</ele>
        <time>2023-03-25T17:24:48.000Z</time>
      </trkpt>
      <trkpt lat="42.93512" lon="1.83532">
        <ele>564.7</ele>
        <time>2023-03-25T17:24:49.000Z</time>
      </trkpt>
      <trkpt lat="42.93515" lon="1.83527">
        <ele>565.3</ele>
        <time>2023-03-25T17:24:50.000Z</time>
      </trkpt>
      <trkpt lat="42.93519" lon="1.83522">
        <ele>565.9</ele>
        <time>2023-03-25T17:24:51.000Z</time>
      </trkpt>
      <trkpt lat="42.93521" lon="1.83517">
        <ele>566.4</ele>
        <time>2023-03-25T17:24:52.000Z</time>
      </trkpt>
      <trkpt lat="42.93526" lon="1.83507">
        <ele>566.9</ele>
        <time>2023-03-25T17:24:54.000Z</time>
      </trkpt>
      <trkpt lat="42.93531" lon="1.83497">
        <ele>567.4</ele>
        <time>2023-03-25T17:24:56.000Z</time>
      </trkpt>
      <trkpt lat="42.93533" lon="1.83492">
        <ele>567.5</ele>
        <time>2023-03-25T17:24:57.000Z</time>
      </trkpt>
      <trkpt lat="42.93537" lon="1.83481">
        <ele>567.5</ele>
        <time>2023-03-25T17:24:59.000Z</time>
      </trkpt>
      <trkpt lat="42.93541" lon="1.8347">
        <ele>567.6</ele>
        <time>2023-03-25T17:25:01.000Z</time>
      </trkpt>
      <trkpt lat="42.93545" lon="1.8346">
        <ele>567.5</ele>
        <time>2023-03-25T17:25:03.000Z</time>
      </trkpt>
      <trkpt lat="42.93548" lon="1.8345">
        <ele>567.3</ele>
        <time>2023-03-25T17:25:05.000Z</time>
      </trkpt>
      <trkpt lat="42.93551" lon="1.83441">
        <ele>566.8</ele>
        <time>2023-03-25T17:25:07.000Z</time>
      </trkpt>
      <trkpt lat="42.93555" lon="1.83431">
        <ele>566.7</ele>
        <time>2023-03-25T17:25:09.000Z</time>
      </trkpt>
      <trkpt lat="42.93559" lon="1.83421">
        <ele>566.5</ele>
        <time>2023-03-25T17:25:11.000Z</time>
      </trkpt>
      <trkpt lat="42.93562" lon="1.83411">
        <ele>566.5</ele>
        <time>2023-03-25T17:25:13.000Z</time>
      </trkpt>
      <trkpt lat="42.93566" lon="1.83403">
        <ele>567</ele>
        <time>2023-03-25T17:25:15.000Z</time>
      </trkpt>
      <trkpt lat="42.93569" lon="1.83394">
        <ele>567.1</ele>
        <time>2023-03-25T17:25:17.000Z</time>
      </trkpt>
      <trkpt lat="42.93573" lon="1.83385">
        <ele>567.4</ele>
        <time>2023-03-25T17:25:19.000Z</time>
      </trkpt>
      <trkpt lat="42.93576" lon="1.83377">
        <ele>567.6</ele>
        <time>2023-03-25T17:25:21.000Z</time>
      </trkpt>
      <trkpt lat="42.9358" lon="1.83369">
        <ele>567.9</ele>
        <time>2023-03-25T17:25:23.000Z</time>
      </trkpt>
      <trkpt lat="42.93584" lon="1.83361">
        <ele>568.1</ele>
        <time>2023-03-25T17:25:25.000Z</time>
      </trkpt>
      <trkpt lat="42.93587" lon="1.83353">
        <ele>568.8</ele>
        <time>2023-03-25T17:25:27.000Z</time>
      </trkpt>
      <trkpt lat="42.93592" lon="1.83345">
        <ele>569.9</ele>
        <time>2023-03-25T17:25:29.000Z</time>
      </trkpt>
      <trkpt lat="42.93595" lon="1.83336">
        <ele>570.5</ele>
        <time>2023-03-25T17:25:31.000Z</time>
      </trkpt>
      <trkpt lat="42.936" lon="1.83328">
        <ele>571.4</ele>
        <time>2023-03-25T17:25:33.000Z</time>
      </trkpt>
      <trkpt lat="42.93603" lon="1.8332">
        <ele>572.1</ele>
        <time>2023-03-25T17:25:35.000Z</time>
      </trkpt>
      <trkpt lat="42.93606" lon="1.83313">
        <ele>572.6</ele>
        <time>2023-03-25T17:25:37.000Z</time>
      </trkpt>
      <trkpt lat="42.93609" lon="1.83305">
        <ele>572.8</ele>
        <time>2023-03-25T17:25:39.000Z</time>
      </trkpt>
      <trkpt lat="42.93612" lon="1.83297">
        <ele>573.2</ele>
        <time>2023-03-25T17:25:41.000Z</time>
      </trkpt>
      <trkpt lat="42.93615" lon="1.83289">
        <ele>573.8</ele>
        <time>2023-03-25T17:25:43.000Z</time>
      </trkpt>
      <trkpt lat="42.93619" lon="1.83282">
        <ele>574.2</ele>
        <time>2023-03-25T17:25:45.000Z</time>
      </trkpt>
      <trkpt lat="42.93622" lon="1.83275">
        <ele>574.7</ele>
        <time>2023-03-25T17:25:47.000Z</time>
      </trkpt>
      <trkpt lat="42.93626" lon="1.83268">
        <ele>575.2</ele>
        <time>2023-03-25T17:25:49.000Z</time>
      </trkpt>
      <trkpt lat="42.93629" lon="1.8326">
        <ele>575.7</ele>
        <time>2023-03-25T17:25:51.000Z</time>
      </trkpt>
      <trkpt lat="42.93632" lon="1.83253">
        <ele>576.1</ele>
        <time>2023-03-25T17:25:53.000Z</time>
      </trkpt>
      <trkpt lat="42.93635" lon="1.83245">
        <ele>576.4</ele>
        <time>2023-03-25T17:25:55.000Z</time>
      </trkpt>
      <trkpt lat="42.9364" lon="1.83237">
        <ele>577.2</ele>
        <time>2023-03-25T17:25:57.000Z</time>
      </trkpt>
      <trkpt lat="42.93645" lon="1.83231">
        <ele>578.1</ele>
        <time>2023-03-25T17:25:59.000Z</time>
      </trkpt>
      <trkpt lat="42.93649" lon="1.83223">
        <ele>578.6</ele>
        <time>2023-03-25T17:26:01.000Z</time>
      </trkpt>
      <trkpt lat="42.93652" lon="1.83216">
        <ele>579</ele>
        <time>2023-03-25T17:26:03.000Z</time>
      </trkpt>
      <trkpt lat="42.93655" lon="1.83209">
        <ele>579.2</ele>
        <time>2023-03-25T17:26:05.000Z</time>
      </trkpt>
      <trkpt lat="42.93658" lon="1.83201">
        <ele>579.2</ele>
        <time>2023-03-25T17:26:07.000Z</time>
      </trkpt>
      <trkpt lat="42.93661" lon="1.83194">
        <ele>579.3</ele>
        <time>2023-03-25T17:26:09.000Z</time>
      </trkpt>
      <trkpt lat="42.93665" lon="1.83186">
        <ele>579.6</ele>
        <time>2023-03-25T17:26:11.000Z</time>
      </trkpt>
      <trkpt lat="42.93667" lon="1.83179">
        <ele>579.5</ele>
        <time>2023-03-25T17:26:13.000Z</time>
      </trkpt>
      <trkpt lat="42.93671" lon="1.83172">
        <ele>580.1</ele>
        <time>2023-03-25T17:26:15.000Z</time>
      </trkpt>
      <trkpt lat="42.93674" lon="1.83165">
        <ele>580.4</ele>
        <time>2023-03-25T17:26:17.000Z</time>
      </trkpt>
      <trkpt lat="42.93678" lon="1.83157">
        <ele>580.8</ele>
        <time>2023-03-25T17:26:19.000Z</time>
      </trkpt>
      <trkpt lat="42.93681" lon="1.83149">
        <ele>581.1</ele>
        <time>2023-03-25T17:26:21.000Z</time>
      </trkpt>
      <trkpt lat="42.93684" lon="1.83142">
        <ele>581.5</ele>
        <time>2023-03-25T17:26:23.000Z</time>
      </trkpt>
      <trkpt lat="42.93687" lon="1.83134">
        <ele>581.7</ele>
        <time>2023-03-25T17:26:25.000Z</time>
      </trkpt>
      <trkpt lat="42.9369" lon="1.83127">
        <ele>581.7</ele>
        <time>2023-03-25T17:26:27.000Z</time>
      </trkpt>
      <trkpt lat="42.93693" lon="1.83119">
        <ele>581.8</ele>
        <time>2023-03-25T17:26:29.000Z</time>
      </trkpt>
      <trkpt lat="42.93696" lon="1.83111">
        <ele>582</ele>
        <time>2023-03-25T17:26:31.000Z</time>
      </trkpt>
      <trkpt lat="42.937" lon="1.83104">
        <ele>582.6</ele>
        <time>2023-03-25T17:26:33.000Z</time>
      </trkpt>
      <trkpt lat="42.93704" lon="1.83097">
        <ele>583.1</ele>
        <time>2023-03-25T17:26:35.000Z</time>
      </trkpt>
      <trkpt lat="42.93708" lon="1.8309">
        <ele>583.8</ele>
        <time>2023-03-25T17:26:37.000Z</time>
      </trkpt>
      <trkpt lat="42.93713" lon="1.83083">
        <ele>584.4</ele>
        <time>2023-03-25T17:26:39.000Z</time>
      </trkpt>
      <trkpt lat="42.93717" lon="1.83077">
        <ele>585.5</ele>
        <time>2023-03-25T17:26:41.000Z</time>
      </trkpt>
      <trkpt lat="42.93722" lon="1.8307">
        <ele>586.7</ele>
        <time>2023-03-25T17:26:43.000Z</time>
      </trkpt>
      <trkpt lat="42.93726" lon="1.83063">
        <ele>587.6</ele>
        <time>2023-03-25T17:26:45.000Z</time>
      </trkpt>
      <trkpt lat="42.93729" lon="1.83055">
        <ele>588</ele>
        <time>2023-03-25T17:26:47.000Z</time>
      </trkpt>
      <trkpt lat="42.93733" lon="1.83047">
        <ele>588.6</ele>
        <time>2023-03-25T17:26:49.000Z</time>
      </trkpt>
      <trkpt lat="42.93737" lon="1.8304">
        <ele>589.1</ele>
        <time>2023-03-25T17:26:51.000Z</time>
      </trkpt>
      <trkpt lat="42.93739" lon="1.83032">
        <ele>589.1</ele>
        <time>2023-03-25T17:26:53.000Z</time>
      </trkpt>
      <trkpt lat="42.93741" lon="1.83023">
        <ele>589.2</ele>
        <time>2023-03-25T17:26:55.000Z</time>
      </trkpt>
      <trkpt lat="42.93743" lon="1.83014">
        <ele>589.1</ele>
        <time>2023-03-25T17:26:57.000Z</time>
      </trkpt>
      <trkpt lat="42.93744" lon="1.83004">
        <ele>588.7</ele>
        <time>2023-03-25T17:26:59.000Z</time>
      </trkpt>
      <trkpt lat="42.93745" lon="1.82995">
        <ele>588.5</ele>
        <time>2023-03-25T17:27:01.000Z</time>
      </trkpt>
      <trkpt lat="42.93746" lon="1.82986">
        <ele>588.5</ele>
        <time>2023-03-25T17:27:03.000Z</time>
      </trkpt>
      <trkpt lat="42.93747" lon="1.82977">
        <ele>588.6</ele>
        <time>2023-03-25T17:27:05.000Z</time>
      </trkpt>
      <trkpt lat="42.93748" lon="1.82969">
        <ele>588.7</ele>
        <time>2023-03-25T17:27:07.000Z</time>
      </trkpt>
      <trkpt lat="42.93749" lon="1.82961">
        <ele>588.7</ele>
        <time>2023-03-25T17:27:09.000Z</time>
      </trkpt>
      <trkpt lat="42.93751" lon="1.82952">
        <ele>589.2</ele>
        <time>2023-03-25T17:27:11.000Z</time>
      </trkpt>
      <trkpt lat="42.93753" lon="1.82944">
        <ele>589.6</ele>
        <time>2023-03-25T17:27:13.000Z</time>
      </trkpt>
      <trkpt lat="42.93754" lon="1.82936">
        <ele>590</ele>
        <time>2023-03-25T17:27:15.000Z</time>
      </trkpt>
      <trkpt lat="42.93755" lon="1.82928">
        <ele>590.2</ele>
        <time>2023-03-25T17:27:17.000Z</time>
      </trkpt>
      <trkpt lat="42.93757" lon="1.8292">
        <ele>590.6</ele>
        <time>2023-03-25T17:27:19.000Z</time>
      </trkpt>
      <trkpt lat="42.93758" lon="1.82911">
        <ele>590.8</ele>
        <time>2023-03-25T17:27:21.000Z</time>
      </trkpt>
      <trkpt lat="42.9376" lon="1.82903">
        <ele>590.9</ele>
        <time>2023-03-25T17:27:23.000Z</time>
      </trkpt>
      <trkpt lat="42.93761" lon="1.82895">
        <ele>591.3</ele>
        <time>2023-03-25T17:27:25.000Z</time>
      </trkpt>
      <trkpt lat="42.93762" lon="1.82886">
        <ele>591.6</ele>
        <time>2023-03-25T17:27:27.000Z</time>
      </trkpt>
      <trkpt lat="42.93764" lon="1.82878">
        <ele>591.8</ele>
        <time>2023-03-25T17:27:29.000Z</time>
      </trkpt>
      <trkpt lat="42.93765" lon="1.8287">
        <ele>592.2</ele>
        <time>2023-03-25T17:27:31.000Z</time>
      </trkpt>
      <trkpt lat="42.93767" lon="1.82861">
        <ele>592.5</ele>
        <time>2023-03-25T17:27:33.000Z</time>
      </trkpt>
      <trkpt lat="42.93768" lon="1.82853">
        <ele>592.9</ele>
        <time>2023-03-25T17:27:35.000Z</time>
      </trkpt>
      <trkpt lat="42.9377" lon="1.82844">
        <ele>593.2</ele>
        <time>2023-03-25T17:27:37.000Z</time>
      </trkpt>
      <trkpt lat="42.93771" lon="1.82835">
        <ele>593.3</ele>
        <time>2023-03-25T17:27:39.000Z</time>
      </trkpt>
      <trkpt lat="42.93772" lon="1.82826">
        <ele>593</ele>
        <time>2023-03-25T17:27:41.000Z</time>
      </trkpt>
      <trkpt lat="42.93773" lon="1.82816">
        <ele>592.9</ele>
        <time>2023-03-25T17:27:43.000Z</time>
      </trkpt>
      <trkpt lat="42.93774" lon="1.82807">
        <ele>592.8</ele>
        <time>2023-03-25T17:27:45.000Z</time>
      </trkpt>
      <trkpt lat="42.93776" lon="1.82797">
        <ele>592.6</ele>
        <time>2023-03-25T17:27:47.000Z</time>
      </trkpt>
      <trkpt lat="42.93777" lon="1.82788">
        <ele>592.5</ele>
        <time>2023-03-25T17:27:49.000Z</time>
      </trkpt>
      <trkpt lat="42.9378" lon="1.82779">
        <ele>592.9</ele>
        <time>2023-03-25T17:27:51.000Z</time>
      </trkpt>
      <trkpt lat="42.93783" lon="1.8277">
        <ele>593.2</ele>
        <time>2023-03-25T17:27:53.000Z</time>
      </trkpt>
      <trkpt lat="42.93784" lon="1.82761">
        <ele>593.2</ele>
        <time>2023-03-25T17:27:55.000Z</time>
      </trkpt>
      <trkpt lat="42.93786" lon="1.82751">
        <ele>592.9</ele>
        <time>2023-03-25T17:27:57.000Z</time>
      </trkpt>
      <trkpt lat="42.93788" lon="1.82742">
        <ele>593.1</ele>
        <time>2023-03-25T17:27:59.000Z</time>
      </trkpt>
      <trkpt lat="42.9379" lon="1.82733">
        <ele>593.2</ele>
        <time>2023-03-25T17:28:01.000Z</time>
      </trkpt>
      <trkpt lat="42.93793" lon="1.82724">
        <ele>593.1</ele>
        <time>2023-03-25T17:28:03.000Z</time>
      </trkpt>
      <trkpt lat="42.93795" lon="1.82715">
        <ele>593.2</ele>
        <time>2023-03-25T17:28:05.000Z</time>
      </trkpt>
      <trkpt lat="42.93798" lon="1.82707">
        <ele>593.3</ele>
        <time>2023-03-25T17:28:07.000Z</time>
      </trkpt>
      <trkpt lat="42.93801" lon="1.82698">
        <ele>593.6</ele>
        <time>2023-03-25T17:28:09.000Z</time>
      </trkpt>
      <trkpt lat="42.93805" lon="1.8269">
        <ele>593.8</ele>
        <time>2023-03-25T17:28:11.000Z</time>
      </trkpt>
      <trkpt lat="42.93808" lon="1.82681">
        <ele>594.1</ele>
        <time>2023-03-25T17:28:13.000Z</time>
      </trkpt>
      <trkpt lat="42.93812" lon="1.82673">
        <ele>594.5</ele>
        <time>2023-03-25T17:28:15.000Z</time>
      </trkpt>
      <trkpt lat="42.93817" lon="1.82665">
        <ele>595.1</ele>
        <time>2023-03-25T17:28:17.000Z</time>
      </trkpt>
      <trkpt lat="42.93821" lon="1.82657">
        <ele>595.8</ele>
        <time>2023-03-25T17:28:19.000Z</time>
      </trkpt>
      <trkpt lat="42.93825" lon="1.82649">
        <ele>596.3</ele>
        <time>2023-03-25T17:28:21.000Z</time>
      </trkpt>
      <trkpt lat="42.93829" lon="1.82641">
        <ele>597</ele>
        <time>2023-03-25T17:28:23.000Z</time>
      </trkpt>
      <trkpt lat="42.93833" lon="1.82632">
        <ele>597.5</ele>
        <time>2023-03-25T17:28:25.000Z</time>
      </trkpt>
      <trkpt lat="42.93837" lon="1.82624">
        <ele>598.3</ele>
        <time>2023-03-25T17:28:27.000Z</time>
      </trkpt>
      <trkpt lat="42.93841" lon="1.82616">
        <ele>599.3</ele>
        <time>2023-03-25T17:28:29.000Z</time>
      </trkpt>
      <trkpt lat="42.93845" lon="1.82608">
        <ele>600.4</ele>
        <time>2023-03-25T17:28:31.000Z</time>
      </trkpt>
      <trkpt lat="42.9385" lon="1.826">
        <ele>601.5</ele>
        <time>2023-03-25T17:28:33.000Z</time>
      </trkpt>
      <trkpt lat="42.93853" lon="1.82593">
        <ele>602.4</ele>
        <time>2023-03-25T17:28:35.000Z</time>
      </trkpt>
      <trkpt lat="42.93857" lon="1.82585">
        <ele>603.3</ele>
        <time>2023-03-25T17:28:37.000Z</time>
      </trkpt>
      <trkpt lat="42.9386" lon="1.82576">
        <ele>604.1</ele>
        <time>2023-03-25T17:28:39.000Z</time>
      </trkpt>
      <trkpt lat="42.93862" lon="1.82566">
        <ele>604.3</ele>
        <time>2023-03-25T17:28:41.000Z</time>
      </trkpt>
      <trkpt lat="42.93863" lon="1.82557">
        <ele>604.3</ele>
        <time>2023-03-25T17:28:43.000Z</time>
      </trkpt>
      <trkpt lat="42.93863" lon="1.82547">
        <ele>603.9</ele>
        <time>2023-03-25T17:28:45.000Z</time>
      </trkpt>
      <trkpt lat="42.93864" lon="1.82538">
        <ele>603.8</ele>
        <time>2023-03-25T17:28:47.000Z</time>
      </trkpt>
      <trkpt lat="42.93865" lon="1.82528">
        <ele>604</ele>
        <time>2023-03-25T17:28:49.000Z</time>
      </trkpt>
      <trkpt lat="42.93866" lon="1.82518">
        <ele>604.1</ele>
        <time>2023-03-25T17:28:51.000Z</time>
      </trkpt>
      <trkpt lat="42.93868" lon="1.8251">
        <ele>604.3</ele>
        <time>2023-03-25T17:28:53.000Z</time>
      </trkpt>
      <trkpt lat="42.9387" lon="1.82501">
        <ele>604.7</ele>
        <time>2023-03-25T17:28:55.000Z</time>
      </trkpt>
      <trkpt lat="42.93873" lon="1.82492">
        <ele>605.2</ele>
        <time>2023-03-25T17:28:57.000Z</time>
      </trkpt>
      <trkpt lat="42.93874" lon="1.82482">
        <ele>605.2</ele>
        <time>2023-03-25T17:28:59.000Z</time>
      </trkpt>
      <trkpt lat="42.93876" lon="1.82473">
        <ele>605.2</ele>
        <time>2023-03-25T17:29:01.000Z</time>
      </trkpt>
      <trkpt lat="42.93878" lon="1.82464">
        <ele>605.3</ele>
        <time>2023-03-25T17:29:03.000Z</time>
      </trkpt>
      <trkpt lat="42.93879" lon="1.82455">
        <ele>605.3</ele>
        <time>2023-03-25T17:29:05.000Z</time>
      </trkpt>
      <trkpt lat="42.93881" lon="1.82445">
        <ele>605.2</ele>
        <time>2023-03-25T17:29:07.000Z</time>
      </trkpt>
      <trkpt lat="42.93882" lon="1.82436">
        <ele>605</ele>
        <time>2023-03-25T17:29:09.000Z</time>
      </trkpt>
      <trkpt lat="42.93884" lon="1.82426">
        <ele>604.9</ele>
        <time>2023-03-25T17:29:11.000Z</time>
      </trkpt>
      <trkpt lat="42.93886" lon="1.82416">
        <ele>605.1</ele>
        <time>2023-03-25T17:29:13.000Z</time>
      </trkpt>
      <trkpt lat="42.93889" lon="1.82406">
        <ele>605.4</ele>
        <time>2023-03-25T17:29:15.000Z</time>
      </trkpt>
      <trkpt lat="42.93891" lon="1.82397">
        <ele>605.5</ele>
        <time>2023-03-25T17:29:17.000Z</time>
      </trkpt>
      <trkpt lat="42.93894" lon="1.82389">
        <ele>605.8</ele>
        <time>2023-03-25T17:29:19.000Z</time>
      </trkpt>
      <trkpt lat="42.93896" lon="1.8238">
        <ele>605.9</ele>
        <time>2023-03-25T17:29:21.000Z</time>
      </trkpt>
      <trkpt lat="42.93898" lon="1.8237">
        <ele>605.8</ele>
        <time>2023-03-25T17:29:23.000Z</time>
      </trkpt>
      <trkpt lat="42.939" lon="1.8236">
        <ele>605.5</ele>
        <time>2023-03-25T17:29:25.000Z</time>
      </trkpt>
      <trkpt lat="42.93902" lon="1.8235">
        <ele>605.4</ele>
        <time>2023-03-25T17:29:27.000Z</time>
      </trkpt>
      <trkpt lat="42.93903" lon="1.82341">
        <ele>605</ele>
        <time>2023-03-25T17:29:29.000Z</time>
      </trkpt>
      <trkpt lat="42.93905" lon="1.82331">
        <ele>604.9</ele>
        <time>2023-03-25T17:29:31.000Z</time>
      </trkpt>
      <trkpt lat="42.93907" lon="1.82321">
        <ele>604.8</ele>
        <time>2023-03-25T17:29:33.000Z</time>
      </trkpt>
      <trkpt lat="42.93908" lon="1.82311">
        <ele>604.6</ele>
        <time>2023-03-25T17:29:35.000Z</time>
      </trkpt>
      <trkpt lat="42.9391" lon="1.82301">
        <ele>604.5</ele>
        <time>2023-03-25T17:29:37.000Z</time>
      </trkpt>
      <trkpt lat="42.93912" lon="1.82292">
        <ele>604.5</ele>
        <time>2023-03-25T17:29:39.000Z</time>
      </trkpt>
      <trkpt lat="42.93914" lon="1.82282">
        <ele>604.4</ele>
        <time>2023-03-25T17:29:41.000Z</time>
      </trkpt>
      <trkpt lat="42.93917" lon="1.82273">
        <ele>604.6</ele>
        <time>2023-03-25T17:29:43.000Z</time>
      </trkpt>
      <trkpt lat="42.9392" lon="1.82265">
        <ele>605.2</ele>
        <time>2023-03-25T17:29:45.000Z</time>
      </trkpt>
      <trkpt lat="42.93922" lon="1.82255">
        <ele>605.3</ele>
        <time>2023-03-25T17:29:47.000Z</time>
      </trkpt>
      <trkpt lat="42.93924" lon="1.82245">
        <ele>605.7</ele>
        <time>2023-03-25T17:29:49.000Z</time>
      </trkpt>
      <trkpt lat="42.93926" lon="1.82235">
        <ele>605.8</ele>
        <time>2023-03-25T17:29:51.000Z</time>
      </trkpt>
      <trkpt lat="42.93928" lon="1.82226">
        <ele>605.9</ele>
        <time>2023-03-25T17:29:53.000Z</time>
      </trkpt>
      <trkpt lat="42.9393" lon="1.82216">
        <ele>606.2</ele>
        <time>2023-03-25T17:29:55.000Z</time>
      </trkpt>
      <trkpt lat="42.93931" lon="1.82207">
        <ele>606.1</ele>
        <time>2023-03-25T17:29:57.000Z</time>
      </trkpt>
      <trkpt lat="42.93931" lon="1.82197">
        <ele>605.7</ele>
        <time>2023-03-25T17:29:59.000Z</time>
      </trkpt>
      <trkpt lat="42.93931" lon="1.82187">
        <ele>605</ele>
        <time>2023-03-25T17:30:01.000Z</time>
      </trkpt>
      <trkpt lat="42.93931" lon="1.82177">
        <ele>604.4</ele>
        <time>2023-03-25T17:30:03.000Z</time>
      </trkpt>
      <trkpt lat="42.9393" lon="1.82167">
        <ele>603.5</ele>
        <time>2023-03-25T17:30:05.000Z</time>
      </trkpt>
      <trkpt lat="42.93928" lon="1.82157">
        <ele>602.6</ele>
        <time>2023-03-25T17:30:07.000Z</time>
      </trkpt>
      <trkpt lat="42.93927" lon="1.82147">
        <ele>601.8</ele>
        <time>2023-03-25T17:30:09.000Z</time>
      </trkpt>
      <trkpt lat="42.93927" lon="1.82137">
        <ele>601.3</ele>
        <time>2023-03-25T17:30:11.000Z</time>
      </trkpt>
      <trkpt lat="42.93927" lon="1.82126">
        <ele>600.9</ele>
        <time>2023-03-25T17:30:13.000Z</time>
      </trkpt>
      <trkpt lat="42.93928" lon="1.82117">
        <ele>600.7</ele>
        <time>2023-03-25T17:30:15.000Z</time>
      </trkpt>
      <trkpt lat="42.93929" lon="1.82107">
        <ele>600.7</ele>
        <time>2023-03-25T17:30:17.000Z</time>
      </trkpt>
      <trkpt lat="42.93931" lon="1.82096">
        <ele>600.7</ele>
        <time>2023-03-25T17:30:19.000Z</time>
      </trkpt>
      <trkpt lat="42.93933" lon="1.82085">
        <ele>600.7</ele>
        <time>2023-03-25T17:30:21.000Z</time>
      </trkpt>
      <trkpt lat="42.93934" lon="1.82074">
        <ele>600.3</ele>
        <time>2023-03-25T17:30:23.000Z</time>
      </trkpt>
      <trkpt lat="42.93936" lon="1.82064">
        <ele>599.8</ele>
        <time>2023-03-25T17:30:25.000Z</time>
      </trkpt>
      <trkpt lat="42.93937" lon="1.82053">
        <ele>599.4</ele>
        <time>2023-03-25T17:30:27.000Z</time>
      </trkpt>
      <trkpt lat="42.93939" lon="1.82043">
        <ele>598.9</ele>
        <time>2023-03-25T17:30:29.000Z</time>
      </trkpt>
      <trkpt lat="42.9394" lon="1.82032">
        <ele>598.5</ele>
        <time>2023-03-25T17:30:31.000Z</time>
      </trkpt>
      <trkpt lat="42.93942" lon="1.82022">
        <ele>598.2</ele>
        <time>2023-03-25T17:30:33.000Z</time>
      </trkpt>
      <trkpt lat="42.93944" lon="1.8201">
        <ele>597.8</ele>
        <time>2023-03-25T17:30:35.000Z</time>
      </trkpt>
      <trkpt lat="42.93946" lon="1.82">
        <ele>597.4</ele>
        <time>2023-03-25T17:30:37.000Z</time>
      </trkpt>
      <trkpt lat="42.93948" lon="1.81989">
        <ele>597.3</ele>
        <time>2023-03-25T17:30:39.000Z</time>
      </trkpt>
      <trkpt lat="42.9395" lon="1.81978">
        <ele>597.1</ele>
        <time>2023-03-25T17:30:41.000Z</time>
      </trkpt>
      <trkpt lat="42.93952" lon="1.81968">
        <ele>596.7</ele>
        <time>2023-03-25T17:30:43.000Z</time>
      </trkpt>
      <trkpt lat="42.93954" lon="1.81957">
        <ele>596.4</ele>
        <time>2023-03-25T17:30:45.000Z</time>
      </trkpt>
      <trkpt lat="42.93955" lon="1.81948">
        <ele>595.9</ele>
        <time>2023-03-25T17:30:47.000Z</time>
      </trkpt>
      <trkpt lat="42.93956" lon="1.81938">
        <ele>595.7</ele>
        <time>2023-03-25T17:30:49.000Z</time>
      </trkpt>
      <trkpt lat="42.93958" lon="1.81928">
        <ele>595.2</ele>
        <time>2023-03-25T17:30:51.000Z</time>
      </trkpt>
      <trkpt lat="42.93959" lon="1.81918">
        <ele>594.8</ele>
        <time>2023-03-25T17:30:53.000Z</time>
      </trkpt>
      <trkpt lat="42.93961" lon="1.81908">
        <ele>594.8</ele>
        <time>2023-03-25T17:30:55.000Z</time>
      </trkpt>
      <trkpt lat="42.93963" lon="1.81897">
        <ele>594.9</ele>
        <time>2023-03-25T17:30:57.000Z</time>
      </trkpt>
      <trkpt lat="42.93965" lon="1.81886">
        <ele>594.9</ele>
        <time>2023-03-25T17:30:59.000Z</time>
      </trkpt>
      <trkpt lat="42.93966" lon="1.81875">
        <ele>595.1</ele>
        <time>2023-03-25T17:31:01.000Z</time>
      </trkpt>
      <trkpt lat="42.93968" lon="1.81865">
        <ele>595.2</ele>
        <time>2023-03-25T17:31:03.000Z</time>
      </trkpt>
      <trkpt lat="42.9397" lon="1.81854">
        <ele>595.2</ele>
        <time>2023-03-25T17:31:05.000Z</time>
      </trkpt>
      <trkpt lat="42.93972" lon="1.81843">
        <ele>595.3</ele>
        <time>2023-03-25T17:31:07.000Z</time>
      </trkpt>
      <trkpt lat="42.93974" lon="1.81832">
        <ele>595.4</ele>
        <time>2023-03-25T17:31:09.000Z</time>
      </trkpt>
      <trkpt lat="42.93976" lon="1.81822">
        <ele>595.7</ele>
        <time>2023-03-25T17:31:11.000Z</time>
      </trkpt>
      <trkpt lat="42.93978" lon="1.81812">
        <ele>596.1</ele>
        <time>2023-03-25T17:31:13.000Z</time>
      </trkpt>
      <trkpt lat="42.9398" lon="1.81801">
        <ele>596.5</ele>
        <time>2023-03-25T17:31:15.000Z</time>
      </trkpt>
      <trkpt lat="42.93983" lon="1.81791">
        <ele>596.9</ele>
        <time>2023-03-25T17:31:17.000Z</time>
      </trkpt>
      <trkpt lat="42.93985" lon="1.8178">
        <ele>597.3</ele>
        <time>2023-03-25T17:31:19.000Z</time>
      </trkpt>
      <trkpt lat="42.93988" lon="1.8177">
        <ele>597.8</ele>
        <time>2023-03-25T17:31:21.000Z</time>
      </trkpt>
      <trkpt lat="42.93991" lon="1.8176">
        <ele>598.3</ele>
        <time>2023-03-25T17:31:23.000Z</time>
      </trkpt>
      <trkpt lat="42.93993" lon="1.81751">
        <ele>598.6</ele>
        <time>2023-03-25T17:31:25.000Z</time>
      </trkpt>
      <trkpt lat="42.93996" lon="1.81741">
        <ele>598.7</ele>
        <time>2023-03-25T17:31:27.000Z</time>
      </trkpt>
      <trkpt lat="42.93998" lon="1.81732">
        <ele>598.7</ele>
        <time>2023-03-25T17:31:29.000Z</time>
      </trkpt>
      <trkpt lat="42.94001" lon="1.81722">
        <ele>598.8</ele>
        <time>2023-03-25T17:31:31.000Z</time>
      </trkpt>
      <trkpt lat="42.94003" lon="1.81712">
        <ele>598.9</ele>
        <time>2023-03-25T17:31:33.000Z</time>
      </trkpt>
      <trkpt lat="42.94006" lon="1.81701">
        <ele>598.9</ele>
        <time>2023-03-25T17:31:35.000Z</time>
      </trkpt>
      <trkpt lat="42.94008" lon="1.81692">
        <ele>598.9</ele>
        <time>2023-03-25T17:31:37.000Z</time>
      </trkpt>
      <trkpt lat="42.9401" lon="1.81682">
        <ele>598.9</ele>
        <time>2023-03-25T17:31:39.000Z</time>
      </trkpt>
      <trkpt lat="42.94013" lon="1.81673">
        <ele>598.9</ele>
        <time>2023-03-25T17:31:41.000Z</time>
      </trkpt>
      <trkpt lat="42.94015" lon="1.81663">
        <ele>598.9</ele>
        <time>2023-03-25T17:31:43.000Z</time>
      </trkpt>
      <trkpt lat="42.94017" lon="1.81653">
        <ele>598.7</ele>
        <time>2023-03-25T17:31:45.000Z</time>
      </trkpt>
      <trkpt lat="42.94019" lon="1.81643">
        <ele>598.5</ele>
        <time>2023-03-25T17:31:47.000Z</time>
      </trkpt>
      <trkpt lat="42.94022" lon="1.81634">
        <ele>598.4</ele>
        <time>2023-03-25T17:31:49.000Z</time>
      </trkpt>
      <trkpt lat="42.94024" lon="1.81624">
        <ele>598.4</ele>
        <time>2023-03-25T17:31:51.000Z</time>
      </trkpt>
      <trkpt lat="42.94027" lon="1.81614">
        <ele>598.4</ele>
        <time>2023-03-25T17:31:53.000Z</time>
      </trkpt>
      <trkpt lat="42.94029" lon="1.81604">
        <ele>598.2</ele>
        <time>2023-03-25T17:31:55.000Z</time>
      </trkpt>
      <trkpt lat="42.94032" lon="1.81595">
        <ele>598.1</ele>
        <time>2023-03-25T17:31:57.000Z</time>
      </trkpt>
      <trkpt lat="42.94034" lon="1.81585">
        <ele>598</ele>
        <time>2023-03-25T17:31:59.000Z</time>
      </trkpt>
      <trkpt lat="42.94036" lon="1.81575">
        <ele>598</ele>
        <time>2023-03-25T17:32:01.000Z</time>
      </trkpt>
      <trkpt lat="42.94039" lon="1.81565">
        <ele>598</ele>
        <time>2023-03-25T17:32:03.000Z</time>
      </trkpt>
      <trkpt lat="42.94041" lon="1.81555">
        <ele>598.1</ele>
        <time>2023-03-25T17:32:05.000Z</time>
      </trkpt>
      <trkpt lat="42.94044" lon="1.81545">
        <ele>598.1</ele>
        <time>2023-03-25T17:32:07.000Z</time>
      </trkpt>
      <trkpt lat="42.94047" lon="1.81535">
        <ele>598.1</ele>
        <time>2023-03-25T17:32:09.000Z</time>
      </trkpt>
      <trkpt lat="42.94049" lon="1.81524">
        <ele>598</ele>
        <time>2023-03-25T17:32:11.000Z</time>
      </trkpt>
      <trkpt lat="42.94051" lon="1.81514">
        <ele>597.9</ele>
        <time>2023-03-25T17:32:13.000Z</time>
      </trkpt>
      <trkpt lat="42.94054" lon="1.81503">
        <ele>597.9</ele>
        <time>2023-03-25T17:32:15.000Z</time>
      </trkpt>
      <trkpt lat="42.94058" lon="1.81492">
        <ele>597.9</ele>
        <time>2023-03-25T17:32:17.000Z</time>
      </trkpt>
      <trkpt lat="42.94061" lon="1.8148">
        <ele>597.8</ele>
        <time>2023-03-25T17:32:19.000Z</time>
      </trkpt>
      <trkpt lat="42.94062" lon="1.81474">
        <ele>597.8</ele>
        <time>2023-03-25T17:32:20.000Z</time>
      </trkpt>
      <trkpt lat="42.94066" lon="1.81462">
        <ele>597.8</ele>
        <time>2023-03-25T17:32:22.000Z</time>
      </trkpt>
      <trkpt lat="42.94068" lon="1.81456">
        <ele>597.7</ele>
        <time>2023-03-25T17:32:23.000Z</time>
      </trkpt>
      <trkpt lat="42.9407" lon="1.8145">
        <ele>597.7</ele>
        <time>2023-03-25T17:32:24.000Z</time>
      </trkpt>
      <trkpt lat="42.94072" lon="1.81444">
        <ele>597.7</ele>
        <time>2023-03-25T17:32:25.000Z</time>
      </trkpt>
      <trkpt lat="42.94073" lon="1.81438">
        <ele>597.7</ele>
        <time>2023-03-25T17:32:26.000Z</time>
      </trkpt>
      <trkpt lat="42.94075" lon="1.81431">
        <ele>597.6</ele>
        <time>2023-03-25T17:32:27.000Z</time>
      </trkpt>
      <trkpt lat="42.94077" lon="1.81424">
        <ele>597.4</ele>
        <time>2023-03-25T17:32:28.000Z</time>
      </trkpt>
      <trkpt lat="42.94079" lon="1.81417">
        <ele>597.3</ele>
        <time>2023-03-25T17:32:29.000Z</time>
      </trkpt>
      <trkpt lat="42.94081" lon="1.8141">
        <ele>597.3</ele>
        <time>2023-03-25T17:32:30.000Z</time>
      </trkpt>
      <trkpt lat="42.94083" lon="1.81403">
        <ele>597.1</ele>
        <time>2023-03-25T17:32:31.000Z</time>
      </trkpt>
      <trkpt lat="42.94085" lon="1.81396">
        <ele>597.1</ele>
        <time>2023-03-25T17:32:32.000Z</time>
      </trkpt>
      <trkpt lat="42.94088" lon="1.81389">
        <ele>597.2</ele>
        <time>2023-03-25T17:32:33.000Z</time>
      </trkpt>
      <trkpt lat="42.9409" lon="1.81382">
        <ele>597.2</ele>
        <time>2023-03-25T17:32:34.000Z</time>
      </trkpt>
      <trkpt lat="42.94092" lon="1.81375">
        <ele>597.2</ele>
        <time>2023-03-25T17:32:35.000Z</time>
      </trkpt>
      <trkpt lat="42.94095" lon="1.81367">
        <ele>597.3</ele>
        <time>2023-03-25T17:32:36.000Z</time>
      </trkpt>
      <trkpt lat="42.94097" lon="1.8136">
        <ele>597.1</ele>
        <time>2023-03-25T17:32:37.000Z</time>
      </trkpt>
      <trkpt lat="42.94099" lon="1.81352">
        <ele>597</ele>
        <time>2023-03-25T17:32:38.000Z</time>
      </trkpt>
      <trkpt lat="42.94101" lon="1.81345">
        <ele>597</ele>
        <time>2023-03-25T17:32:39.000Z</time>
      </trkpt>
      <trkpt lat="42.94104" lon="1.81337">
        <ele>597</ele>
        <time>2023-03-25T17:32:40.000Z</time>
      </trkpt>
      <trkpt lat="42.94107" lon="1.8133">
        <ele>597</ele>
        <time>2023-03-25T17:32:41.000Z</time>
      </trkpt>
      <trkpt lat="42.94109" lon="1.81322">
        <ele>597.1</ele>
        <time>2023-03-25T17:32:42.000Z</time>
      </trkpt>
      <trkpt lat="42.94112" lon="1.81315">
        <ele>597.2</ele>
        <time>2023-03-25T17:32:43.000Z</time>
      </trkpt>
      <trkpt lat="42.94114" lon="1.81308">
        <ele>597.3</ele>
        <time>2023-03-25T17:32:44.000Z</time>
      </trkpt>
      <trkpt lat="42.94117" lon="1.81301">
        <ele>597.4</ele>
        <time>2023-03-25T17:32:45.000Z</time>
      </trkpt>
      <trkpt lat="42.94119" lon="1.81294">
        <ele>597.5</ele>
        <time>2023-03-25T17:32:46.000Z</time>
      </trkpt>
      <trkpt lat="42.94121" lon="1.81286">
        <ele>597.6</ele>
        <time>2023-03-25T17:32:47.000Z</time>
      </trkpt>
      <trkpt lat="42.94124" lon="1.81279">
        <ele>597.6</ele>
        <time>2023-03-25T17:32:48.000Z</time>
      </trkpt>
      <trkpt lat="42.94126" lon="1.81273">
        <ele>597.7</ele>
        <time>2023-03-25T17:32:49.000Z</time>
      </trkpt>
      <trkpt lat="42.94128" lon="1.81266">
        <ele>597.8</ele>
        <time>2023-03-25T17:32:50.000Z</time>
      </trkpt>
      <trkpt lat="42.94131" lon="1.8126">
        <ele>598</ele>
        <time>2023-03-25T17:32:51.000Z</time>
      </trkpt>
      <trkpt lat="42.94133" lon="1.81253">
        <ele>598.1</ele>
        <time>2023-03-25T17:32:52.000Z</time>
      </trkpt>
      <trkpt lat="42.94135" lon="1.81247">
        <ele>598</ele>
        <time>2023-03-25T17:32:53.000Z</time>
      </trkpt>
      <trkpt lat="42.94137" lon="1.8124">
        <ele>597.9</ele>
        <time>2023-03-25T17:32:54.000Z</time>
      </trkpt>
      <trkpt lat="42.94139" lon="1.81234">
        <ele>597.7</ele>
        <time>2023-03-25T17:32:55.000Z</time>
      </trkpt>
      <trkpt lat="42.94141" lon="1.81226">
        <ele>597.4</ele>
        <time>2023-03-25T17:32:56.000Z</time>
      </trkpt>
      <trkpt lat="42.94143" lon="1.81219">
        <ele>597.3</ele>
        <time>2023-03-25T17:32:57.000Z</time>
      </trkpt>
      <trkpt lat="42.94145" lon="1.81212">
        <ele>597</ele>
        <time>2023-03-25T17:32:58.000Z</time>
      </trkpt>
      <trkpt lat="42.94147" lon="1.81204">
        <ele>596.7</ele>
        <time>2023-03-25T17:32:59.000Z</time>
      </trkpt>
      <trkpt lat="42.94148" lon="1.81197">
        <ele>596.5</ele>
        <time>2023-03-25T17:33:00.000Z</time>
      </trkpt>
      <trkpt lat="42.9415" lon="1.81189">
        <ele>596.1</ele>
        <time>2023-03-25T17:33:01.000Z</time>
      </trkpt>
      <trkpt lat="42.94151" lon="1.81181">
        <ele>595.7</ele>
        <time>2023-03-25T17:33:02.000Z</time>
      </trkpt>
      <trkpt lat="42.94153" lon="1.81172">
        <ele>595.2</ele>
        <time>2023-03-25T17:33:03.000Z</time>
      </trkpt>
      <trkpt lat="42.94154" lon="1.81163">
        <ele>594.9</ele>
        <time>2023-03-25T17:33:04.000Z</time>
      </trkpt>
      <trkpt lat="42.94156" lon="1.81154">
        <ele>594.7</ele>
        <time>2023-03-25T17:33:05.000Z</time>
      </trkpt>
      <trkpt lat="42.94157" lon="1.81144">
        <ele>594.5</ele>
        <time>2023-03-25T17:33:06.000Z</time>
      </trkpt>
      <trkpt lat="42.94159" lon="1.81134">
        <ele>594.3</ele>
        <time>2023-03-25T17:33:07.000Z</time>
      </trkpt>
      <trkpt lat="42.94161" lon="1.81125">
        <ele>594.1</ele>
        <time>2023-03-25T17:33:08.000Z</time>
      </trkpt>
      <trkpt lat="42.94163" lon="1.81114">
        <ele>593.9</ele>
        <time>2023-03-25T17:33:09.000Z</time>
      </trkpt>
      <trkpt lat="42.94164" lon="1.81104">
        <ele>593.6</ele>
        <time>2023-03-25T17:33:10.000Z</time>
      </trkpt>
      <trkpt lat="42.94166" lon="1.81093">
        <ele>593.3</ele>
        <time>2023-03-25T17:33:11.000Z</time>
      </trkpt>
      <trkpt lat="42.94168" lon="1.81083">
        <ele>593.2</ele>
        <time>2023-03-25T17:33:12.000Z</time>
      </trkpt>
      <trkpt lat="42.94169" lon="1.81071">
        <ele>593.2</ele>
        <time>2023-03-25T17:33:13.000Z</time>
      </trkpt>
      <trkpt lat="42.9417" lon="1.81059">
        <ele>593.3</ele>
        <time>2023-03-25T17:33:14.000Z</time>
      </trkpt>
      <trkpt lat="42.94171" lon="1.81047">
        <ele>593.3</ele>
        <time>2023-03-25T17:33:15.000Z</time>
      </trkpt>
      <trkpt lat="42.94173" lon="1.81034">
        <ele>593.4</ele>
        <time>2023-03-25T17:33:16.000Z</time>
      </trkpt>
      <trkpt lat="42.94175" lon="1.81021">
        <ele>593.5</ele>
        <time>2023-03-25T17:33:17.000Z</time>
      </trkpt>
      <trkpt lat="42.94177" lon="1.81008">
        <ele>593.6</ele>
        <time>2023-03-25T17:33:18.000Z</time>
      </trkpt>
      <trkpt lat="42.94179" lon="1.80995">
        <ele>593.8</ele>
        <time>2023-03-25T17:33:19.000Z</time>
      </trkpt>
      <trkpt lat="42.94181" lon="1.80982">
        <ele>594</ele>
        <time>2023-03-25T17:33:20.000Z</time>
      </trkpt>
      <trkpt lat="42.94183" lon="1.80968">
        <ele>594.3</ele>
        <time>2023-03-25T17:33:21.000Z</time>
      </trkpt>
      <trkpt lat="42.94185" lon="1.80954">
        <ele>594.5</ele>
        <time>2023-03-25T17:33:22.000Z</time>
      </trkpt>
      <trkpt lat="42.94187" lon="1.80941">
        <ele>594.7</ele>
        <time>2023-03-25T17:33:23.000Z</time>
      </trkpt>
      <trkpt lat="42.9419" lon="1.80927">
        <ele>595</ele>
        <time>2023-03-25T17:33:24.000Z</time>
      </trkpt>
      <trkpt lat="42.94192" lon="1.80913">
        <ele>594.9</ele>
        <time>2023-03-25T17:33:25.000Z</time>
      </trkpt>
      <trkpt lat="42.94195" lon="1.80899">
        <ele>594.4</ele>
        <time>2023-03-25T17:33:26.000Z</time>
      </trkpt>
      <trkpt lat="42.94198" lon="1.80885">
        <ele>593.8</ele>
        <time>2023-03-25T17:33:27.000Z</time>
      </trkpt>
      <trkpt lat="42.94201" lon="1.80871">
        <ele>593.3</ele>
        <time>2023-03-25T17:33:28.000Z</time>
      </trkpt>
      <trkpt lat="42.94204" lon="1.80857">
        <ele>592.7</ele>
        <time>2023-03-25T17:33:29.000Z</time>
      </trkpt>
      <trkpt lat="42.94207" lon="1.80843">
        <ele>592</ele>
        <time>2023-03-25T17:33:30.000Z</time>
      </trkpt>
      <trkpt lat="42.94209" lon="1.80829">
        <ele>591.4</ele>
        <time>2023-03-25T17:33:31.000Z</time>
      </trkpt>
      <trkpt lat="42.94212" lon="1.80815">
        <ele>591.2</ele>
        <time>2023-03-25T17:33:32.000Z</time>
      </trkpt>
      <trkpt lat="42.94214" lon="1.80801">
        <ele>590.8</ele>
        <time>2023-03-25T17:33:33.000Z</time>
      </trkpt>
      <trkpt lat="42.94217" lon="1.80787">
        <ele>590.5</ele>
        <time>2023-03-25T17:33:34.000Z</time>
      </trkpt>
      <trkpt lat="42.9422" lon="1.80773">
        <ele>590.3</ele>
        <time>2023-03-25T17:33:35.000Z</time>
      </trkpt>
      <trkpt lat="42.94222" lon="1.80759">
        <ele>590.1</ele>
        <time>2023-03-25T17:33:36.000Z</time>
      </trkpt>
      <trkpt lat="42.94225" lon="1.80745">
        <ele>590.2</ele>
        <time>2023-03-25T17:33:37.000Z</time>
      </trkpt>
      <trkpt lat="42.94228" lon="1.8073">
        <ele>590.7</ele>
        <time>2023-03-25T17:33:38.000Z</time>
      </trkpt>
      <trkpt lat="42.94231" lon="1.80716">
        <ele>591.3</ele>
        <time>2023-03-25T17:33:39.000Z</time>
      </trkpt>
      <trkpt lat="42.94234" lon="1.80701">
        <ele>592.1</ele>
        <time>2023-03-25T17:33:40.000Z</time>
      </trkpt>
      <trkpt lat="42.94236" lon="1.80687">
        <ele>592.6</ele>
        <time>2023-03-25T17:33:41.000Z</time>
      </trkpt>
      <trkpt lat="42.94238" lon="1.80672">
        <ele>593</ele>
        <time>2023-03-25T17:33:42.000Z</time>
      </trkpt>
      <trkpt lat="42.94238" lon="1.80657">
        <ele>592.8</ele>
        <time>2023-03-25T17:33:43.000Z</time>
      </trkpt>
      <trkpt lat="42.94239" lon="1.80642">
        <ele>592.4</ele>
        <time>2023-03-25T17:33:44.000Z</time>
      </trkpt>
      <trkpt lat="42.94238" lon="1.80627">
        <ele>591.9</ele>
        <time>2023-03-25T17:33:45.000Z</time>
      </trkpt>
      <trkpt lat="42.94238" lon="1.80612">
        <ele>591.3</ele>
        <time>2023-03-25T17:33:46.000Z</time>
      </trkpt>
      <trkpt lat="42.94238" lon="1.80597">
        <ele>590.8</ele>
        <time>2023-03-25T17:33:47.000Z</time>
      </trkpt>
      <trkpt lat="42.94238" lon="1.80582">
        <ele>590.3</ele>
        <time>2023-03-25T17:33:48.000Z</time>
      </trkpt>
      <trkpt lat="42.94237" lon="1.80567">
        <ele>589.3</ele>
        <time>2023-03-25T17:33:49.000Z</time>
      </trkpt>
      <trkpt lat="42.94237" lon="1.80553">
        <ele>588.5</ele>
        <time>2023-03-25T17:33:50.000Z</time>
      </trkpt>
      <trkpt lat="42.94238" lon="1.80538">
        <ele>587.9</ele>
        <time>2023-03-25T17:33:51.000Z</time>
      </trkpt>
      <trkpt lat="42.9424" lon="1.80523">
        <ele>587.3</ele>
        <time>2023-03-25T17:33:52.000Z</time>
      </trkpt>
      <trkpt lat="42.94241" lon="1.80509">
        <ele>586.7</ele>
        <time>2023-03-25T17:33:53.000Z</time>
      </trkpt>
      <trkpt lat="42.94242" lon="1.80494">
        <ele>586</ele>
        <time>2023-03-25T17:33:54.000Z</time>
      </trkpt>
      <trkpt lat="42.94244" lon="1.80479">
        <ele>585.3</ele>
        <time>2023-03-25T17:33:55.000Z</time>
      </trkpt>
      <trkpt lat="42.94245" lon="1.80465">
        <ele>584.6</ele>
        <time>2023-03-25T17:33:56.000Z</time>
      </trkpt>
      <trkpt lat="42.94247" lon="1.8045">
        <ele>583.9</ele>
        <time>2023-03-25T17:33:57.000Z</time>
      </trkpt>
      <trkpt lat="42.9425" lon="1.80436">
        <ele>583.3</ele>
        <time>2023-03-25T17:33:58.000Z</time>
      </trkpt>
      <trkpt lat="42.94252" lon="1.80422">
        <ele>582.9</ele>
        <time>2023-03-25T17:33:59.000Z</time>
      </trkpt>
      <trkpt lat="42.94254" lon="1.80408">
        <ele>582.6</ele>
        <time>2023-03-25T17:34:00.000Z</time>
      </trkpt>
      <trkpt lat="42.94257" lon="1.80393">
        <ele>582.2</ele>
        <time>2023-03-25T17:34:01.000Z</time>
      </trkpt>
      <trkpt lat="42.9426" lon="1.80379">
        <ele>582</ele>
        <time>2023-03-25T17:34:02.000Z</time>
      </trkpt>
      <trkpt lat="42.94263" lon="1.80365">
        <ele>581.8</ele>
        <time>2023-03-25T17:34:03.000Z</time>
      </trkpt>
      <trkpt lat="42.94267" lon="1.80351">
        <ele>581.8</ele>
        <time>2023-03-25T17:34:04.000Z</time>
      </trkpt>
      <trkpt lat="42.9427" lon="1.80337">
        <ele>582</ele>
        <time>2023-03-25T17:34:05.000Z</time>
      </trkpt>
      <trkpt lat="42.94275" lon="1.80324">
        <ele>582.4</ele>
        <time>2023-03-25T17:34:06.000Z</time>
      </trkpt>
      <trkpt lat="42.9428" lon="1.8031">
        <ele>583</ele>
        <time>2023-03-25T17:34:07.000Z</time>
      </trkpt>
      <trkpt lat="42.94284" lon="1.80297">
        <ele>583.6</ele>
        <time>2023-03-25T17:34:08.000Z</time>
      </trkpt>
      <trkpt lat="42.94289" lon="1.80283">
        <ele>584</ele>
        <time>2023-03-25T17:34:09.000Z</time>
      </trkpt>
      <trkpt lat="42.94293" lon="1.80269">
        <ele>584.2</ele>
        <time>2023-03-25T17:34:10.000Z</time>
      </trkpt>
      <trkpt lat="42.94297" lon="1.80255">
        <ele>584.3</ele>
        <time>2023-03-25T17:34:11.000Z</time>
      </trkpt>
      <trkpt lat="42.943" lon="1.8024">
        <ele>584.7</ele>
        <time>2023-03-25T17:34:12.000Z</time>
      </trkpt>
      <trkpt lat="42.94303" lon="1.80226">
        <ele>585.1</ele>
        <time>2023-03-25T17:34:13.000Z</time>
      </trkpt>
      <trkpt lat="42.94306" lon="1.80211">
        <ele>585.4</ele>
        <time>2023-03-25T17:34:14.000Z</time>
      </trkpt>
      <trkpt lat="42.94309" lon="1.80196">
        <ele>585.8</ele>
        <time>2023-03-25T17:34:15.000Z</time>
      </trkpt>
      <trkpt lat="42.94311" lon="1.80181">
        <ele>585.9</ele>
        <time>2023-03-25T17:34:16.000Z</time>
      </trkpt>
      <trkpt lat="42.94312" lon="1.80166">
        <ele>585.8</ele>
        <time>2023-03-25T17:34:17.000Z</time>
      </trkpt>
      <trkpt lat="42.94313" lon="1.80151">
        <ele>585.2</ele>
        <time>2023-03-25T17:34:18.000Z</time>
      </trkpt>
      <trkpt lat="42.94312" lon="1.80136">
        <ele>584.4</ele>
        <time>2023-03-25T17:34:19.000Z</time>
      </trkpt>
      <trkpt lat="42.94312" lon="1.80122">
        <ele>583.6</ele>
        <time>2023-03-25T17:34:20.000Z</time>
      </trkpt>
      <trkpt lat="42.94312" lon="1.80107">
        <ele>582.9</ele>
        <time>2023-03-25T17:34:21.000Z</time>
      </trkpt>
      <trkpt lat="42.94313" lon="1.80092">
        <ele>582.4</ele>
        <time>2023-03-25T17:34:22.000Z</time>
      </trkpt>
      <trkpt lat="42.94314" lon="1.80078">
        <ele>582</ele>
        <time>2023-03-25T17:34:23.000Z</time>
      </trkpt>
      <trkpt lat="42.94316" lon="1.80063">
        <ele>581.3</ele>
        <time>2023-03-25T17:34:24.000Z</time>
      </trkpt>
      <trkpt lat="42.94318" lon="1.80049">
        <ele>580.7</ele>
        <time>2023-03-25T17:34:25.000Z</time>
      </trkpt>
      <trkpt lat="42.94321" lon="1.80035">
        <ele>580.1</ele>
        <time>2023-03-25T17:34:26.000Z</time>
      </trkpt>
      <trkpt lat="42.94323" lon="1.8002">
        <ele>579.4</ele>
        <time>2023-03-25T17:34:27.000Z</time>
      </trkpt>
      <trkpt lat="42.94325" lon="1.80005">
        <ele>578.6</ele>
        <time>2023-03-25T17:34:28.000Z</time>
      </trkpt>
      <trkpt lat="42.94327" lon="1.7999">
        <ele>577.7</ele>
        <time>2023-03-25T17:34:29.000Z</time>
      </trkpt>
      <trkpt lat="42.94329" lon="1.79976">
        <ele>576.8</ele>
        <time>2023-03-25T17:34:30.000Z</time>
      </trkpt>
      <trkpt lat="42.94331" lon="1.79961">
        <ele>575.7</ele>
        <time>2023-03-25T17:34:31.000Z</time>
      </trkpt>
      <trkpt lat="42.94333" lon="1.79946">
        <ele>574.6</ele>
        <time>2023-03-25T17:34:32.000Z</time>
      </trkpt>
      <trkpt lat="42.94335" lon="1.79931">
        <ele>573.7</ele>
        <time>2023-03-25T17:34:33.000Z</time>
      </trkpt>
      <trkpt lat="42.94338" lon="1.79916">
        <ele>573.3</ele>
        <time>2023-03-25T17:34:34.000Z</time>
      </trkpt>
      <trkpt lat="42.94342" lon="1.79901">
        <ele>573.1</ele>
        <time>2023-03-25T17:34:35.000Z</time>
      </trkpt>
      <trkpt lat="42.94346" lon="1.79887">
        <ele>573.1</ele>
        <time>2023-03-25T17:34:36.000Z</time>
      </trkpt>
      <trkpt lat="42.9435" lon="1.79872">
        <ele>573.3</ele>
        <time>2023-03-25T17:34:37.000Z</time>
      </trkpt>
      <trkpt lat="42.94355" lon="1.79858">
        <ele>573.4</ele>
        <time>2023-03-25T17:34:38.000Z</time>
      </trkpt>
      <trkpt lat="42.94359" lon="1.79843">
        <ele>573.4</ele>
        <time>2023-03-25T17:34:39.000Z</time>
      </trkpt>
      <trkpt lat="42.94362" lon="1.79827">
        <ele>573</ele>
        <time>2023-03-25T17:34:40.000Z</time>
      </trkpt>
      <trkpt lat="42.94365" lon="1.79812">
        <ele>572.6</ele>
        <time>2023-03-25T17:34:41.000Z</time>
      </trkpt>
      <trkpt lat="42.94367" lon="1.79796">
        <ele>571.9</ele>
        <time>2023-03-25T17:34:42.000Z</time>
      </trkpt>
      <trkpt lat="42.94369" lon="1.7978">
        <ele>571.3</ele>
        <time>2023-03-25T17:34:43.000Z</time>
      </trkpt>
      <trkpt lat="42.94371" lon="1.79764">
        <ele>570.6</ele>
        <time>2023-03-25T17:34:44.000Z</time>
      </trkpt>
      <trkpt lat="42.94373" lon="1.79749">
        <ele>569.8</ele>
        <time>2023-03-25T17:34:45.000Z</time>
      </trkpt>
      <trkpt lat="42.94374" lon="1.79733">
        <ele>569.6</ele>
        <time>2023-03-25T17:34:46.000Z</time>
      </trkpt>
      <trkpt lat="42.94374" lon="1.79717">
        <ele>569.3</ele>
        <time>2023-03-25T17:34:47.000Z</time>
      </trkpt>
      <trkpt lat="42.94375" lon="1.79702">
        <ele>568.9</ele>
        <time>2023-03-25T17:34:48.000Z</time>
      </trkpt>
      <trkpt lat="42.94375" lon="1.79686">
        <ele>568.5</ele>
        <time>2023-03-25T17:34:49.000Z</time>
      </trkpt>
      <trkpt lat="42.94375" lon="1.79671">
        <ele>568</ele>
        <time>2023-03-25T17:34:50.000Z</time>
      </trkpt>
      <trkpt lat="42.94374" lon="1.79655">
        <ele>567.4</ele>
        <time>2023-03-25T17:34:51.000Z</time>
      </trkpt>
      <trkpt lat="42.94372" lon="1.7964">
        <ele>566.5</ele>
        <time>2023-03-25T17:34:52.000Z</time>
      </trkpt>
      <trkpt lat="42.9437" lon="1.79625">
        <ele>565.6</ele>
        <time>2023-03-25T17:34:53.000Z</time>
      </trkpt>
      <trkpt lat="42.94368" lon="1.7961">
        <ele>564.6</ele>
        <time>2023-03-25T17:34:54.000Z</time>
      </trkpt>
      <trkpt lat="42.94367" lon="1.79595">
        <ele>564</ele>
        <time>2023-03-25T17:34:55.000Z</time>
      </trkpt>
      <trkpt lat="42.94367" lon="1.7958">
        <ele>563.4</ele>
        <time>2023-03-25T17:34:56.000Z</time>
      </trkpt>
      <trkpt lat="42.9437" lon="1.79566">
        <ele>562.5</ele>
        <time>2023-03-25T17:34:57.000Z</time>
      </trkpt>
      <trkpt lat="42.94374" lon="1.79553">
        <ele>562.6</ele>
        <time>2023-03-25T17:34:58.000Z</time>
      </trkpt>
      <trkpt lat="42.94381" lon="1.79542">
        <ele>563.8</ele>
        <time>2023-03-25T17:34:59.000Z</time>
      </trkpt>
      <trkpt lat="42.94389" lon="1.79531">
        <ele>565.8</ele>
        <time>2023-03-25T17:35:00.000Z</time>
      </trkpt>
      <trkpt lat="42.94399" lon="1.79523">
        <ele>568.5</ele>
        <time>2023-03-25T17:35:01.000Z</time>
      </trkpt>
      <trkpt lat="42.94408" lon="1.79515">
        <ele>571.5</ele>
        <time>2023-03-25T17:35:02.000Z</time>
      </trkpt>
      <trkpt lat="42.94417" lon="1.79508">
        <ele>574.6</ele>
        <time>2023-03-25T17:35:03.000Z</time>
      </trkpt>
      <trkpt lat="42.94426" lon="1.79499">
        <ele>576.9</ele>
        <time>2023-03-25T17:35:04.000Z</time>
      </trkpt>
      <trkpt lat="42.94432" lon="1.79487">
        <ele>578.1</ele>
        <time>2023-03-25T17:35:05.000Z</time>
      </trkpt>
      <trkpt lat="42.94437" lon="1.79473">
        <ele>578.9</ele>
        <time>2023-03-25T17:35:06.000Z</time>
      </trkpt>
      <trkpt lat="42.94441" lon="1.79457">
        <ele>579.1</ele>
        <time>2023-03-25T17:35:07.000Z</time>
      </trkpt>
      <trkpt lat="42.94443" lon="1.79441">
        <ele>578.8</ele>
        <time>2023-03-25T17:35:08.000Z</time>
      </trkpt>
      <trkpt lat="42.94446" lon="1.79426">
        <ele>578.5</ele>
        <time>2023-03-25T17:35:09.000Z</time>
      </trkpt>
      <trkpt lat="42.94449" lon="1.79409">
        <ele>578.2</ele>
        <time>2023-03-25T17:35:10.000Z</time>
      </trkpt>
      <trkpt lat="42.94452" lon="1.79393">
        <ele>577.7</ele>
        <time>2023-03-25T17:35:11.000Z</time>
      </trkpt>
      <trkpt lat="42.94455" lon="1.79377">
        <ele>577.6</ele>
        <time>2023-03-25T17:35:12.000Z</time>
      </trkpt>
      <trkpt lat="42.94458" lon="1.79361">
        <ele>577.6</ele>
        <time>2023-03-25T17:35:13.000Z</time>
      </trkpt>
      <trkpt lat="42.94462" lon="1.79345">
        <ele>577.9</ele>
        <time>2023-03-25T17:35:14.000Z</time>
      </trkpt>
      <trkpt lat="42.94466" lon="1.7933">
        <ele>577.6</ele>
        <time>2023-03-25T17:35:15.000Z</time>
      </trkpt>
      <trkpt lat="42.94471" lon="1.79315">
        <ele>576</ele>
        <time>2023-03-25T17:35:16.000Z</time>
      </trkpt>
      <trkpt lat="42.94476" lon="1.79299">
        <ele>574.9</ele>
        <time>2023-03-25T17:35:17.000Z</time>
      </trkpt>
      <trkpt lat="42.94481" lon="1.79285">
        <ele>573.4</ele>
        <time>2023-03-25T17:35:18.000Z</time>
      </trkpt>
      <trkpt lat="42.94486" lon="1.7927">
        <ele>572.3</ele>
        <time>2023-03-25T17:35:19.000Z</time>
      </trkpt>
      <trkpt lat="42.94492" lon="1.79256">
        <ele>571.7</ele>
        <time>2023-03-25T17:35:20.000Z</time>
      </trkpt>
      <trkpt lat="42.945" lon="1.79244">
        <ele>571.4</ele>
        <time>2023-03-25T17:35:21.000Z</time>
      </trkpt>
      <trkpt lat="42.94508" lon="1.79233">
        <ele>570.8</ele>
        <time>2023-03-25T17:35:22.000Z</time>
      </trkpt>
      <trkpt lat="42.94517" lon="1.79223">
        <ele>571.1</ele>
        <time>2023-03-25T17:35:23.000Z</time>
      </trkpt>
      <trkpt lat="42.94525" lon="1.79212">
        <ele>570.3</ele>
        <time>2023-03-25T17:35:24.000Z</time>
      </trkpt>
      <trkpt lat="42.94534" lon="1.79201">
        <ele>570.1</ele>
        <time>2023-03-25T17:35:25.000Z</time>
      </trkpt>
      <trkpt lat="42.94543" lon="1.7919">
        <ele>569.7</ele>
        <time>2023-03-25T17:35:26.000Z</time>
      </trkpt>
      <trkpt lat="42.94552" lon="1.79179">
        <ele>568.8</ele>
        <time>2023-03-25T17:35:27.000Z</time>
      </trkpt>
      <trkpt lat="42.9456" lon="1.79168">
        <ele>568.2</ele>
        <time>2023-03-25T17:35:28.000Z</time>
      </trkpt>
      <trkpt lat="42.94569" lon="1.79157">
        <ele>567</ele>
        <time>2023-03-25T17:35:29.000Z</time>
      </trkpt>
      <trkpt lat="42.94579" lon="1.79145">
        <ele>565.7</ele>
        <time>2023-03-25T17:35:30.000Z</time>
      </trkpt>
      <trkpt lat="42.94588" lon="1.79134">
        <ele>563.7</ele>
        <time>2023-03-25T17:35:31.000Z</time>
      </trkpt>
      <trkpt lat="42.94599" lon="1.79123">
        <ele>560.1</ele>
        <time>2023-03-25T17:35:32.000Z</time>
      </trkpt>
      <trkpt lat="42.94608" lon="1.79111">
        <ele>556.2</ele>
        <time>2023-03-25T17:35:33.000Z</time>
      </trkpt>
      <trkpt lat="42.94617" lon="1.791">
        <ele>552</ele>
        <time>2023-03-25T17:35:34.000Z</time>
      </trkpt>
      <trkpt lat="42.94626" lon="1.79087">
        <ele>547.5</ele>
        <time>2023-03-25T17:35:35.000Z</time>
      </trkpt>
      <trkpt lat="42.94634" lon="1.79074">
        <ele>545.3</ele>
        <time>2023-03-25T17:35:36.000Z</time>
      </trkpt>
      <trkpt lat="42.9464" lon="1.79059">
        <ele>544.6</ele>
        <time>2023-03-25T17:35:37.000Z</time>
      </trkpt>
      <trkpt lat="42.94646" lon="1.79044">
        <ele>543.9</ele>
        <time>2023-03-25T17:35:38.000Z</time>
      </trkpt>
      <trkpt lat="42.94651" lon="1.79029">
        <ele>543.3</ele>
        <time>2023-03-25T17:35:39.000Z</time>
      </trkpt>
      <trkpt lat="42.94656" lon="1.79014">
        <ele>543.1</ele>
        <time>2023-03-25T17:35:40.000Z</time>
      </trkpt>
      <trkpt lat="42.94662" lon="1.79001">
        <ele>543.1</ele>
        <time>2023-03-25T17:35:41.000Z</time>
      </trkpt>
      <trkpt lat="42.94671" lon="1.78989">
        <ele>541.9</ele>
        <time>2023-03-25T17:35:42.000Z</time>
      </trkpt>
      <trkpt lat="42.9468" lon="1.78979">
        <ele>540.9</ele>
        <time>2023-03-25T17:35:43.000Z</time>
      </trkpt>
      <trkpt lat="42.94689" lon="1.7897">
        <ele>540</ele>
        <time>2023-03-25T17:35:44.000Z</time>
      </trkpt>
      <trkpt lat="42.94698" lon="1.78962">
        <ele>539.3</ele>
        <time>2023-03-25T17:35:45.000Z</time>
      </trkpt>
      <trkpt lat="42.94708" lon="1.78954">
        <ele>539</ele>
        <time>2023-03-25T17:35:46.000Z</time>
      </trkpt>
      <trkpt lat="42.94718" lon="1.78945">
        <ele>538.9</ele>
        <time>2023-03-25T17:35:47.000Z</time>
      </trkpt>
      <trkpt lat="42.94728" lon="1.78937">
        <ele>538.7</ele>
        <time>2023-03-25T17:35:48.000Z</time>
      </trkpt>
      <trkpt lat="42.94738" lon="1.78928">
        <ele>538.9</ele>
        <time>2023-03-25T17:35:49.000Z</time>
      </trkpt>
      <trkpt lat="42.94748" lon="1.7892">
        <ele>539.1</ele>
        <time>2023-03-25T17:35:50.000Z</time>
      </trkpt>
      <trkpt lat="42.94758" lon="1.78911">
        <ele>539</ele>
        <time>2023-03-25T17:35:51.000Z</time>
      </trkpt>
      <trkpt lat="42.94768" lon="1.78902">
        <ele>538.7</ele>
        <time>2023-03-25T17:35:52.000Z</time>
      </trkpt>
      <trkpt lat="42.94778" lon="1.78894">
        <ele>538.6</ele>
        <time>2023-03-25T17:35:53.000Z</time>
      </trkpt>
      <trkpt lat="42.94788" lon="1.78887">
        <ele>538.7</ele>
        <time>2023-03-25T17:35:54.000Z</time>
      </trkpt>
      <trkpt lat="42.94799" lon="1.7888">
        <ele>538.5</ele>
        <time>2023-03-25T17:35:55.000Z</time>
      </trkpt>
      <trkpt lat="42.94808" lon="1.78872">
        <ele>538.3</ele>
        <time>2023-03-25T17:35:56.000Z</time>
      </trkpt>
      <trkpt lat="42.94816" lon="1.78862">
        <ele>537.5</ele>
        <time>2023-03-25T17:35:57.000Z</time>
      </trkpt>
      <trkpt lat="42.94822" lon="1.78849">
        <ele>535.5</ele>
        <time>2023-03-25T17:35:58.000Z</time>
      </trkpt>
      <trkpt lat="42.94826" lon="1.78833">
        <ele>533.2</ele>
        <time>2023-03-25T17:35:59.000Z</time>
      </trkpt>
      <trkpt lat="42.94828" lon="1.78818">
        <ele>532.2</ele>
        <time>2023-03-25T17:36:00.000Z</time>
      </trkpt>
      <trkpt lat="42.9483" lon="1.78804">
        <ele>531.1</ele>
        <time>2023-03-25T17:36:01.000Z</time>
      </trkpt>
      <trkpt lat="42.9483" lon="1.7879">
        <ele>530</ele>
        <time>2023-03-25T17:36:02.000Z</time>
      </trkpt>
      <trkpt lat="42.9483" lon="1.78777">
        <ele>528.8</ele>
        <time>2023-03-25T17:36:03.000Z</time>
      </trkpt>
      <trkpt lat="42.94828" lon="1.78764">
        <ele>527.6</ele>
        <time>2023-03-25T17:36:04.000Z</time>
      </trkpt>
      <trkpt lat="42.94824" lon="1.78753">
        <ele>526.2</ele>
        <time>2023-03-25T17:36:05.000Z</time>
      </trkpt>
      <trkpt lat="42.94819" lon="1.78742">
        <ele>525.1</ele>
        <time>2023-03-25T17:36:06.000Z</time>
      </trkpt>
      <trkpt lat="42.94814" lon="1.78732">
        <ele>524.2</ele>
        <time>2023-03-25T17:36:07.000Z</time>
      </trkpt>
      <trkpt lat="42.9481" lon="1.78722">
        <ele>523.4</ele>
        <time>2023-03-25T17:36:08.000Z</time>
      </trkpt>
      <trkpt lat="42.94804" lon="1.78713">
        <ele>522.5</ele>
        <time>2023-03-25T17:36:09.000Z</time>
      </trkpt>
      <trkpt lat="42.94797" lon="1.78707">
        <ele>521.7</ele>
        <time>2023-03-25T17:36:10.000Z</time>
      </trkpt>
      <trkpt lat="42.94789" lon="1.78701">
        <ele>520.8</ele>
        <time>2023-03-25T17:36:11.000Z</time>
      </trkpt>
      <trkpt lat="42.94783" lon="1.78694">
        <ele>520.1</ele>
        <time>2023-03-25T17:36:12.000Z</time>
      </trkpt>
      <trkpt lat="42.94779" lon="1.78685">
        <ele>519.5</ele>
        <time>2023-03-25T17:36:13.000Z</time>
      </trkpt>
      <trkpt lat="42.94777" lon="1.78676">
        <ele>519.2</ele>
        <time>2023-03-25T17:36:14.000Z</time>
      </trkpt>
      <trkpt lat="42.94777" lon="1.78665">
        <ele>518.8</ele>
        <time>2023-03-25T17:36:15.000Z</time>
      </trkpt>
      <trkpt lat="42.94777" lon="1.78654">
        <ele>517.4</ele>
        <time>2023-03-25T17:36:16.000Z</time>
      </trkpt>
      <trkpt lat="42.94777" lon="1.78643">
        <ele>516</ele>
        <time>2023-03-25T17:36:17.000Z</time>
      </trkpt>
      <trkpt lat="42.9478" lon="1.78632">
        <ele>514.9</ele>
        <time>2023-03-25T17:36:18.000Z</time>
      </trkpt>
      <trkpt lat="42.94783" lon="1.78623">
        <ele>514.1</ele>
        <time>2023-03-25T17:36:19.000Z</time>
      </trkpt>
      <trkpt lat="42.94789" lon="1.78614">
        <ele>513.4</ele>
        <time>2023-03-25T17:36:20.000Z</time>
      </trkpt>
      <trkpt lat="42.94795" lon="1.78608">
        <ele>513</ele>
        <time>2023-03-25T17:36:21.000Z</time>
      </trkpt>
      <trkpt lat="42.94803" lon="1.78602">
        <ele>513</ele>
        <time>2023-03-25T17:36:22.000Z</time>
      </trkpt>
      <trkpt lat="42.94811" lon="1.78596">
        <ele>513</ele>
        <time>2023-03-25T17:36:23.000Z</time>
      </trkpt>
      <trkpt lat="42.94819" lon="1.78592">
        <ele>512.9</ele>
        <time>2023-03-25T17:36:24.000Z</time>
      </trkpt>
      <trkpt lat="42.94827" lon="1.78586">
        <ele>512.8</ele>
        <time>2023-03-25T17:36:25.000Z</time>
      </trkpt>
      <trkpt lat="42.94835" lon="1.78581">
        <ele>512.6</ele>
        <time>2023-03-25T17:36:26.000Z</time>
      </trkpt>
      <trkpt lat="42.94842" lon="1.78576">
        <ele>511.8</ele>
        <time>2023-03-25T17:36:27.000Z</time>
      </trkpt>
      <trkpt lat="42.9485" lon="1.78573">
        <ele>511.4</ele>
        <time>2023-03-25T17:36:28.000Z</time>
      </trkpt>
      <trkpt lat="42.94859" lon="1.78568">
        <ele>511</ele>
        <time>2023-03-25T17:36:29.000Z</time>
      </trkpt>
      <trkpt lat="42.94867" lon="1.78564">
        <ele>510.7</ele>
        <time>2023-03-25T17:36:30.000Z</time>
      </trkpt>
      <trkpt lat="42.94875" lon="1.78559">
        <ele>510.1</ele>
        <time>2023-03-25T17:36:31.000Z</time>
      </trkpt>
      <trkpt lat="42.94883" lon="1.78554">
        <ele>509.6</ele>
        <time>2023-03-25T17:36:32.000Z</time>
      </trkpt>
      <trkpt lat="42.94891" lon="1.78547">
        <ele>509</ele>
        <time>2023-03-25T17:36:33.000Z</time>
      </trkpt>
      <trkpt lat="42.949" lon="1.78539">
        <ele>508.3</ele>
        <time>2023-03-25T17:36:34.000Z</time>
      </trkpt>
      <trkpt lat="42.94909" lon="1.78531">
        <ele>507.5</ele>
        <time>2023-03-25T17:36:35.000Z</time>
      </trkpt>
      <trkpt lat="42.94918" lon="1.78523">
        <ele>506.8</ele>
        <time>2023-03-25T17:36:36.000Z</time>
      </trkpt>
      <trkpt lat="42.94928" lon="1.78516">
        <ele>504.6</ele>
        <time>2023-03-25T17:36:37.000Z</time>
      </trkpt>
      <trkpt lat="42.94938" lon="1.78511">
        <ele>502.4</ele>
        <time>2023-03-25T17:36:38.000Z</time>
      </trkpt>
      <trkpt lat="42.9495" lon="1.78507">
        <ele>500.5</ele>
        <time>2023-03-25T17:36:39.000Z</time>
      </trkpt>
      <trkpt lat="42.94961" lon="1.78503">
        <ele>498.5</ele>
        <time>2023-03-25T17:36:40.000Z</time>
      </trkpt>
      <trkpt lat="42.94972" lon="1.78499">
        <ele>496.5</ele>
        <time>2023-03-25T17:36:41.000Z</time>
      </trkpt>
      <trkpt lat="42.94983" lon="1.78495">
        <ele>494.3</ele>
        <time>2023-03-25T17:36:42.000Z</time>
      </trkpt>
      <trkpt lat="42.94994" lon="1.78491">
        <ele>492.3</ele>
        <time>2023-03-25T17:36:43.000Z</time>
      </trkpt>
      <trkpt lat="42.95005" lon="1.78489">
        <ele>491.2</ele>
        <time>2023-03-25T17:36:44.000Z</time>
      </trkpt>
      <trkpt lat="42.95014" lon="1.7849">
        <ele>491.3</ele>
        <time>2023-03-25T17:36:45.000Z</time>
      </trkpt>
      <trkpt lat="42.95022" lon="1.78496">
        <ele>492.2</ele>
        <time>2023-03-25T17:36:46.000Z</time>
      </trkpt>
      <trkpt lat="42.95029" lon="1.78506">
        <ele>493.2</ele>
        <time>2023-03-25T17:36:47.000Z</time>
      </trkpt>
      <trkpt lat="42.95035" lon="1.78518">
        <ele>494.4</ele>
        <time>2023-03-25T17:36:48.000Z</time>
      </trkpt>
      <trkpt lat="42.95039" lon="1.7853">
        <ele>495.8</ele>
        <time>2023-03-25T17:36:49.000Z</time>
      </trkpt>
      <trkpt lat="42.95045" lon="1.78542">
        <ele>497</ele>
        <time>2023-03-25T17:36:50.000Z</time>
      </trkpt>
      <trkpt lat="42.95051" lon="1.78552">
        <ele>498</ele>
        <time>2023-03-25T17:36:51.000Z</time>
      </trkpt>
      <trkpt lat="42.95059" lon="1.7856">
        <ele>498.8</ele>
        <time>2023-03-25T17:36:52.000Z</time>
      </trkpt>
      <trkpt lat="42.95069" lon="1.78565">
        <ele>499.2</ele>
        <time>2023-03-25T17:36:53.000Z</time>
      </trkpt>
      <trkpt lat="42.95079" lon="1.78568">
        <ele>499.4</ele>
        <time>2023-03-25T17:36:54.000Z</time>
      </trkpt>
      <trkpt lat="42.95089" lon="1.78568">
        <ele>500.6</ele>
        <time>2023-03-25T17:36:55.000Z</time>
      </trkpt>
      <trkpt lat="42.95099" lon="1.78566">
        <ele>502.7</ele>
        <time>2023-03-25T17:36:56.000Z</time>
      </trkpt>
      <trkpt lat="42.95109" lon="1.78564">
        <ele>504.9</ele>
        <time>2023-03-25T17:36:57.000Z</time>
      </trkpt>
      <trkpt lat="42.95119" lon="1.7856">
        <ele>506.8</ele>
        <time>2023-03-25T17:36:58.000Z</time>
      </trkpt>
      <trkpt lat="42.9513" lon="1.78554">
        <ele>508.5</ele>
        <time>2023-03-25T17:36:59.000Z</time>
      </trkpt>
      <trkpt lat="42.9514" lon="1.78546">
        <ele>509.8</ele>
        <time>2023-03-25T17:37:00.000Z</time>
      </trkpt>
      <trkpt lat="42.95149" lon="1.78538">
        <ele>511.1</ele>
        <time>2023-03-25T17:37:01.000Z</time>
      </trkpt>
      <trkpt lat="42.95158" lon="1.78529">
        <ele>511.9</ele>
        <time>2023-03-25T17:37:02.000Z</time>
      </trkpt>
      <trkpt lat="42.95166" lon="1.78519">
        <ele>512.3</ele>
        <time>2023-03-25T17:37:03.000Z</time>
      </trkpt>
      <trkpt lat="42.95172" lon="1.78506">
        <ele>510.8</ele>
        <time>2023-03-25T17:37:04.000Z</time>
      </trkpt>
      <trkpt lat="42.95177" lon="1.78492">
        <ele>509</ele>
        <time>2023-03-25T17:37:05.000Z</time>
      </trkpt>
      <trkpt lat="42.9518" lon="1.78477">
        <ele>506.8</ele>
        <time>2023-03-25T17:37:06.000Z</time>
      </trkpt>
      <trkpt lat="42.95183" lon="1.78463">
        <ele>504.8</ele>
        <time>2023-03-25T17:37:07.000Z</time>
      </trkpt>
      <trkpt lat="42.95186" lon="1.78448">
        <ele>502.5</ele>
        <time>2023-03-25T17:37:08.000Z</time>
      </trkpt>
      <trkpt lat="42.95189" lon="1.78433">
        <ele>500.5</ele>
        <time>2023-03-25T17:37:09.000Z</time>
      </trkpt>
      <trkpt lat="42.95192" lon="1.78419">
        <ele>498.5</ele>
        <time>2023-03-25T17:37:10.000Z</time>
      </trkpt>
      <trkpt lat="42.95197" lon="1.78405">
        <ele>497.1</ele>
        <time>2023-03-25T17:37:11.000Z</time>
      </trkpt>
      <trkpt lat="42.95202" lon="1.78392">
        <ele>495.9</ele>
        <time>2023-03-25T17:37:12.000Z</time>
      </trkpt>
      <trkpt lat="42.95208" lon="1.7838">
        <ele>494.6</ele>
        <time>2023-03-25T17:37:13.000Z</time>
      </trkpt>
      <trkpt lat="42.95215" lon="1.78368">
        <ele>493.6</ele>
        <time>2023-03-25T17:37:14.000Z</time>
      </trkpt>
      <trkpt lat="42.95222" lon="1.78357">
        <ele>492.5</ele>
        <time>2023-03-25T17:37:15.000Z</time>
      </trkpt>
      <trkpt lat="42.9523" lon="1.78346">
        <ele>491.7</ele>
        <time>2023-03-25T17:37:16.000Z</time>
      </trkpt>
      <trkpt lat="42.95238" lon="1.78337">
        <ele>491.1</ele>
        <time>2023-03-25T17:37:17.000Z</time>
      </trkpt>
      <trkpt lat="42.95247" lon="1.7833">
        <ele>490.6</ele>
        <time>2023-03-25T17:37:18.000Z</time>
      </trkpt>
      <trkpt lat="42.95256" lon="1.78324">
        <ele>490.5</ele>
        <time>2023-03-25T17:37:19.000Z</time>
      </trkpt>
      <trkpt lat="42.95265" lon="1.78317">
        <ele>490.4</ele>
        <time>2023-03-25T17:37:20.000Z</time>
      </trkpt>
      <trkpt lat="42.95275" lon="1.7831">
        <ele>490.3</ele>
        <time>2023-03-25T17:37:21.000Z</time>
      </trkpt>
      <trkpt lat="42.95284" lon="1.78303">
        <ele>490</ele>
        <time>2023-03-25T17:37:22.000Z</time>
      </trkpt>
      <trkpt lat="42.95293" lon="1.78295">
        <ele>489.6</ele>
        <time>2023-03-25T17:37:23.000Z</time>
      </trkpt>
      <trkpt lat="42.95302" lon="1.78288">
        <ele>489.1</ele>
        <time>2023-03-25T17:37:24.000Z</time>
      </trkpt>
      <trkpt lat="42.95311" lon="1.78279">
        <ele>488.6</ele>
        <time>2023-03-25T17:37:25.000Z</time>
      </trkpt>
      <trkpt lat="42.95319" lon="1.78269">
        <ele>487.7</ele>
        <time>2023-03-25T17:37:26.000Z</time>
      </trkpt>
      <trkpt lat="42.95327" lon="1.78257">
        <ele>486.6</ele>
        <time>2023-03-25T17:37:27.000Z</time>
      </trkpt>
      <trkpt lat="42.95334" lon="1.78244">
        <ele>485.3</ele>
        <time>2023-03-25T17:37:28.000Z</time>
      </trkpt>
      <trkpt lat="42.9534" lon="1.78232">
        <ele>484.5</ele>
        <time>2023-03-25T17:37:29.000Z</time>
      </trkpt>
      <trkpt lat="42.95346" lon="1.7822">
        <ele>483.7</ele>
        <time>2023-03-25T17:37:30.000Z</time>
      </trkpt>
      <trkpt lat="42.95354" lon="1.78209">
        <ele>483.1</ele>
        <time>2023-03-25T17:37:31.000Z</time>
      </trkpt>
      <trkpt lat="42.95362" lon="1.782">
        <ele>482.6</ele>
        <time>2023-03-25T17:37:32.000Z</time>
      </trkpt>
      <trkpt lat="42.95373" lon="1.78195">
        <ele>482.6</ele>
        <time>2023-03-25T17:37:33.000Z</time>
      </trkpt>
      <trkpt lat="42.95384" lon="1.78193">
        <ele>483.2</ele>
        <time>2023-03-25T17:37:34.000Z</time>
      </trkpt>
      <trkpt lat="42.95396" lon="1.78193">
        <ele>484</ele>
        <time>2023-03-25T17:37:35.000Z</time>
      </trkpt>
      <trkpt lat="42.95408" lon="1.78194">
        <ele>485</ele>
        <time>2023-03-25T17:37:36.000Z</time>
      </trkpt>
      <trkpt lat="42.95419" lon="1.78194">
        <ele>486.1</ele>
        <time>2023-03-25T17:37:37.000Z</time>
      </trkpt>
      <trkpt lat="42.9543" lon="1.78194">
        <ele>488.5</ele>
        <time>2023-03-25T17:37:38.000Z</time>
      </trkpt>
      <trkpt lat="42.95442" lon="1.78192">
        <ele>490.5</ele>
        <time>2023-03-25T17:37:39.000Z</time>
      </trkpt>
      <trkpt lat="42.95452" lon="1.78188">
        <ele>492.3</ele>
        <time>2023-03-25T17:37:40.000Z</time>
      </trkpt>
      <trkpt lat="42.95462" lon="1.78181">
        <ele>493.5</ele>
        <time>2023-03-25T17:37:41.000Z</time>
      </trkpt>
      <trkpt lat="42.95471" lon="1.78171">
        <ele>494.5</ele>
        <time>2023-03-25T17:37:42.000Z</time>
      </trkpt>
      <trkpt lat="42.95479" lon="1.78161">
        <ele>495</ele>
        <time>2023-03-25T17:37:43.000Z</time>
      </trkpt>
      <trkpt lat="42.95487" lon="1.7815">
        <ele>495.4</ele>
        <time>2023-03-25T17:37:44.000Z</time>
      </trkpt>
      <trkpt lat="42.95494" lon="1.78138">
        <ele>495.5</ele>
        <time>2023-03-25T17:37:45.000Z</time>
      </trkpt>
      <trkpt lat="42.95501" lon="1.78126">
        <ele>495.1</ele>
        <time>2023-03-25T17:37:46.000Z</time>
      </trkpt>
      <trkpt lat="42.95508" lon="1.78113">
        <ele>493.6</ele>
        <time>2023-03-25T17:37:47.000Z</time>
      </trkpt>
      <trkpt lat="42.95514" lon="1.78099">
        <ele>492.1</ele>
        <time>2023-03-25T17:37:48.000Z</time>
      </trkpt>
      <trkpt lat="42.9552" lon="1.78085">
        <ele>490.4</ele>
        <time>2023-03-25T17:37:49.000Z</time>
      </trkpt>
      <trkpt lat="42.95525" lon="1.7807">
        <ele>488.3</ele>
        <time>2023-03-25T17:37:50.000Z</time>
      </trkpt>
      <trkpt lat="42.95531" lon="1.78056">
        <ele>486.3</ele>
        <time>2023-03-25T17:37:51.000Z</time>
      </trkpt>
      <trkpt lat="42.95538" lon="1.78041">
        <ele>484.7</ele>
        <time>2023-03-25T17:37:52.000Z</time>
      </trkpt>
      <trkpt lat="42.95546" lon="1.78027">
        <ele>483.6</ele>
        <time>2023-03-25T17:37:53.000Z</time>
      </trkpt>
      <trkpt lat="42.95553" lon="1.78014">
        <ele>482.5</ele>
        <time>2023-03-25T17:37:54.000Z</time>
      </trkpt>
      <trkpt lat="42.9556" lon="1.77999">
        <ele>481.6</ele>
        <time>2023-03-25T17:37:55.000Z</time>
      </trkpt>
      <trkpt lat="42.95567" lon="1.77984">
        <ele>480.5</ele>
        <time>2023-03-25T17:37:56.000Z</time>
      </trkpt>
      <trkpt lat="42.95573" lon="1.77969">
        <ele>479.5</ele>
        <time>2023-03-25T17:37:57.000Z</time>
      </trkpt>
      <trkpt lat="42.95578" lon="1.77953">
        <ele>477.9</ele>
        <time>2023-03-25T17:37:58.000Z</time>
      </trkpt>
      <trkpt lat="42.95583" lon="1.77937">
        <ele>476.5</ele>
        <time>2023-03-25T17:37:59.000Z</time>
      </trkpt>
      <trkpt lat="42.95588" lon="1.7792">
        <ele>474.5</ele>
        <time>2023-03-25T17:38:00.000Z</time>
      </trkpt>
      <trkpt lat="42.95592" lon="1.77904">
        <ele>472.4</ele>
        <time>2023-03-25T17:38:01.000Z</time>
      </trkpt>
      <trkpt lat="42.95595" lon="1.77887">
        <ele>470.2</ele>
        <time>2023-03-25T17:38:02.000Z</time>
      </trkpt>
      <trkpt lat="42.956" lon="1.77871">
        <ele>467.9</ele>
        <time>2023-03-25T17:38:03.000Z</time>
      </trkpt>
      <trkpt lat="42.95605" lon="1.77856">
        <ele>466.2</ele>
        <time>2023-03-25T17:38:04.000Z</time>
      </trkpt>
      <trkpt lat="42.95613" lon="1.77843">
        <ele>464.7</ele>
        <time>2023-03-25T17:38:05.000Z</time>
      </trkpt>
      <trkpt lat="42.95622" lon="1.77833">
        <ele>463.8</ele>
        <time>2023-03-25T17:38:06.000Z</time>
      </trkpt>
      <trkpt lat="42.95632" lon="1.77824">
        <ele>463.4</ele>
        <time>2023-03-25T17:38:07.000Z</time>
      </trkpt>
      <trkpt lat="42.95643" lon="1.77816">
        <ele>463.3</ele>
        <time>2023-03-25T17:38:08.000Z</time>
      </trkpt>
      <trkpt lat="42.95653" lon="1.77807">
        <ele>463.1</ele>
        <time>2023-03-25T17:38:09.000Z</time>
      </trkpt>
      <trkpt lat="42.95663" lon="1.77797">
        <ele>462.6</ele>
        <time>2023-03-25T17:38:10.000Z</time>
      </trkpt>
      <trkpt lat="42.95671" lon="1.77783">
        <ele>462.3</ele>
        <time>2023-03-25T17:38:11.000Z</time>
      </trkpt>
      <trkpt lat="42.95679" lon="1.77769">
        <ele>462</ele>
        <time>2023-03-25T17:38:12.000Z</time>
      </trkpt>
      <trkpt lat="42.95685" lon="1.77753">
        <ele>461.5</ele>
        <time>2023-03-25T17:38:13.000Z</time>
      </trkpt>
      <trkpt lat="42.95692" lon="1.77738">
        <ele>460.5</ele>
        <time>2023-03-25T17:38:14.000Z</time>
      </trkpt>
      <trkpt lat="42.95698" lon="1.77723">
        <ele>459.1</ele>
        <time>2023-03-25T17:38:15.000Z</time>
      </trkpt>
      <trkpt lat="42.95706" lon="1.7771">
        <ele>458.2</ele>
        <time>2023-03-25T17:38:16.000Z</time>
      </trkpt>
      <trkpt lat="42.95715" lon="1.77698">
        <ele>457.4</ele>
        <time>2023-03-25T17:38:17.000Z</time>
      </trkpt>
      <trkpt lat="42.95726" lon="1.77689">
        <ele>457.2</ele>
        <time>2023-03-25T17:38:18.000Z</time>
      </trkpt>
      <trkpt lat="42.95737" lon="1.77683">
        <ele>457.3</ele>
        <time>2023-03-25T17:38:19.000Z</time>
      </trkpt>
      <trkpt lat="42.95749" lon="1.77677">
        <ele>457.5</ele>
        <time>2023-03-25T17:38:20.000Z</time>
      </trkpt>
      <trkpt lat="42.95761" lon="1.77672">
        <ele>457.7</ele>
        <time>2023-03-25T17:38:21.000Z</time>
      </trkpt>
      <trkpt lat="42.95772" lon="1.77667">
        <ele>457.9</ele>
        <time>2023-03-25T17:38:22.000Z</time>
      </trkpt>
      <trkpt lat="42.95784" lon="1.77661">
        <ele>458.2</ele>
        <time>2023-03-25T17:38:23.000Z</time>
      </trkpt>
      <trkpt lat="42.95796" lon="1.77655">
        <ele>458.3</ele>
        <time>2023-03-25T17:38:24.000Z</time>
      </trkpt>
      <trkpt lat="42.95808" lon="1.77647">
        <ele>458.2</ele>
        <time>2023-03-25T17:38:25.000Z</time>
      </trkpt>
      <trkpt lat="42.95819" lon="1.77636">
        <ele>457.4</ele>
        <time>2023-03-25T17:38:26.000Z</time>
      </trkpt>
      <trkpt lat="42.95829" lon="1.77624">
        <ele>456.5</ele>
        <time>2023-03-25T17:38:27.000Z</time>
      </trkpt>
      <trkpt lat="42.95838" lon="1.77611">
        <ele>454.9</ele>
        <time>2023-03-25T17:38:28.000Z</time>
      </trkpt>
      <trkpt lat="42.95849" lon="1.77599">
        <ele>453.4</ele>
        <time>2023-03-25T17:38:29.000Z</time>
      </trkpt>
      <trkpt lat="42.95859" lon="1.77588">
        <ele>452.1</ele>
        <time>2023-03-25T17:38:30.000Z</time>
      </trkpt>
      <trkpt lat="42.9587" lon="1.77577">
        <ele>451.3</ele>
        <time>2023-03-25T17:38:31.000Z</time>
      </trkpt>
      <trkpt lat="42.95881" lon="1.77566">
        <ele>450.6</ele>
        <time>2023-03-25T17:38:32.000Z</time>
      </trkpt>
      <trkpt lat="42.95892" lon="1.77556">
        <ele>450.3</ele>
        <time>2023-03-25T17:38:33.000Z</time>
      </trkpt>
      <trkpt lat="42.95903" lon="1.77545">
        <ele>449.9</ele>
        <time>2023-03-25T17:38:34.000Z</time>
      </trkpt>
      <trkpt lat="42.95913" lon="1.77535">
        <ele>449.8</ele>
        <time>2023-03-25T17:38:35.000Z</time>
      </trkpt>
      <trkpt lat="42.95924" lon="1.77525">
        <ele>449.2</ele>
        <time>2023-03-25T17:38:36.000Z</time>
      </trkpt>
      <trkpt lat="42.95934" lon="1.77516">
        <ele>448.4</ele>
        <time>2023-03-25T17:38:37.000Z</time>
      </trkpt>
      <trkpt lat="42.95944" lon="1.77508">
        <ele>447.9</ele>
        <time>2023-03-25T17:38:38.000Z</time>
      </trkpt>
      <trkpt lat="42.95953" lon="1.77501">
        <ele>447.6</ele>
        <time>2023-03-25T17:38:39.000Z</time>
      </trkpt>
      <trkpt lat="42.95962" lon="1.77493">
        <ele>447</ele>
        <time>2023-03-25T17:38:40.000Z</time>
      </trkpt>
      <trkpt lat="42.95971" lon="1.77483">
        <ele>446.5</ele>
        <time>2023-03-25T17:38:41.000Z</time>
      </trkpt>
      <trkpt lat="42.95978" lon="1.77471">
        <ele>446</ele>
        <time>2023-03-25T17:38:42.000Z</time>
      </trkpt>
      <trkpt lat="42.95983" lon="1.77458">
        <ele>445.3</ele>
        <time>2023-03-25T17:38:43.000Z</time>
      </trkpt>
      <trkpt lat="42.95985" lon="1.77443">
        <ele>444.7</ele>
        <time>2023-03-25T17:38:44.000Z</time>
      </trkpt>
      <trkpt lat="42.95986" lon="1.77429">
        <ele>444.2</ele>
        <time>2023-03-25T17:38:45.000Z</time>
      </trkpt>
      <trkpt lat="42.95987" lon="1.77415">
        <ele>443.9</ele>
        <time>2023-03-25T17:38:46.000Z</time>
      </trkpt>
      <trkpt lat="42.95987" lon="1.77401">
        <ele>444.7</ele>
        <time>2023-03-25T17:38:47.000Z</time>
      </trkpt>
      <trkpt lat="42.95988" lon="1.77387">
        <ele>445.7</ele>
        <time>2023-03-25T17:38:48.000Z</time>
      </trkpt>
      <trkpt lat="42.95989" lon="1.77374">
        <ele>446.7</ele>
        <time>2023-03-25T17:38:49.000Z</time>
      </trkpt>
      <trkpt lat="42.95991" lon="1.77361">
        <ele>447.7</ele>
        <time>2023-03-25T17:38:50.000Z</time>
      </trkpt>
      <trkpt lat="42.95992" lon="1.77349">
        <ele>448.8</ele>
        <time>2023-03-25T17:38:51.000Z</time>
      </trkpt>
      <trkpt lat="42.95993" lon="1.77338">
        <ele>449.6</ele>
        <time>2023-03-25T17:38:52.000Z</time>
      </trkpt>
      <trkpt lat="42.95994" lon="1.7733">
        <ele>451.1</ele>
        <time>2023-03-25T17:38:53.000Z</time>
      </trkpt>
      <trkpt lat="42.95994" lon="1.77323">
        <ele>453.1</ele>
        <time>2023-03-25T17:38:54.000Z</time>
      </trkpt>
      <trkpt lat="42.95999" lon="1.77314">
        <ele>456</ele>
        <time>2023-03-25T17:38:56.000Z</time>
      </trkpt>
      <trkpt lat="42.96005" lon="1.77314">
        <ele>456.8</ele>
        <time>2023-03-25T17:38:57.000Z</time>
      </trkpt>
      <trkpt lat="42.96012" lon="1.77316">
        <ele>456.5</ele>
        <time>2023-03-25T17:38:58.000Z</time>
      </trkpt>
      <trkpt lat="42.96018" lon="1.77318">
        <ele>456.3</ele>
        <time>2023-03-25T17:38:59.000Z</time>
      </trkpt>
      <trkpt lat="42.96023" lon="1.77322">
        <ele>455.6</ele>
        <time>2023-03-25T17:39:00.000Z</time>
      </trkpt>
      <trkpt lat="42.96029" lon="1.77327">
        <ele>455</ele>
        <time>2023-03-25T17:39:01.000Z</time>
      </trkpt>
      <trkpt lat="42.96035" lon="1.77332">
        <ele>454.1</ele>
        <time>2023-03-25T17:39:02.000Z</time>
      </trkpt>
      <trkpt lat="42.9604" lon="1.77337">
        <ele>453.6</ele>
        <time>2023-03-25T17:39:03.000Z</time>
      </trkpt>
      <trkpt lat="42.96046" lon="1.77343">
        <ele>453.1</ele>
        <time>2023-03-25T17:39:04.000Z</time>
      </trkpt>
      <trkpt lat="42.96052" lon="1.77349">
        <ele>452.8</ele>
        <time>2023-03-25T17:39:05.000Z</time>
      </trkpt>
      <trkpt lat="42.96058" lon="1.77355">
        <ele>452.2</ele>
        <time>2023-03-25T17:39:06.000Z</time>
      </trkpt>
      <trkpt lat="42.96065" lon="1.77361">
        <ele>451.6</ele>
        <time>2023-03-25T17:39:07.000Z</time>
      </trkpt>
      <trkpt lat="42.96071" lon="1.77367">
        <ele>450.9</ele>
        <time>2023-03-25T17:39:08.000Z</time>
      </trkpt>
      <trkpt lat="42.96078" lon="1.77374">
        <ele>450.1</ele>
        <time>2023-03-25T17:39:09.000Z</time>
      </trkpt>
      <trkpt lat="42.96085" lon="1.77381">
        <ele>449.2</ele>
        <time>2023-03-25T17:39:10.000Z</time>
      </trkpt>
      <trkpt lat="42.96092" lon="1.77388">
        <ele>448.2</ele>
        <time>2023-03-25T17:39:11.000Z</time>
      </trkpt>
      <trkpt lat="42.96098" lon="1.77396">
        <ele>447.4</ele>
        <time>2023-03-25T17:39:12.000Z</time>
      </trkpt>
      <trkpt lat="42.96105" lon="1.77404">
        <ele>446</ele>
        <time>2023-03-25T17:39:13.000Z</time>
      </trkpt>
      <trkpt lat="42.96112" lon="1.77413">
        <ele>444.4</ele>
        <time>2023-03-25T17:39:14.000Z</time>
      </trkpt>
      <trkpt lat="42.96118" lon="1.77423">
        <ele>443.2</ele>
        <time>2023-03-25T17:39:15.000Z</time>
      </trkpt>
      <trkpt lat="42.96122" lon="1.77435">
        <ele>441.5</ele>
        <time>2023-03-25T17:39:16.000Z</time>
      </trkpt>
      <trkpt lat="42.96125" lon="1.77449">
        <ele>439.7</ele>
        <time>2023-03-25T17:39:17.000Z</time>
      </trkpt>
      <trkpt lat="42.96127" lon="1.77463">
        <ele>437.6</ele>
        <time>2023-03-25T17:39:18.000Z</time>
      </trkpt>
      <trkpt lat="42.96128" lon="1.77478">
        <ele>435.4</ele>
        <time>2023-03-25T17:39:19.000Z</time>
      </trkpt>
      <trkpt lat="42.9613" lon="1.77493">
        <ele>433</ele>
        <time>2023-03-25T17:39:20.000Z</time>
      </trkpt>
      <trkpt lat="42.96132" lon="1.77508">
        <ele>431.2</ele>
        <time>2023-03-25T17:39:21.000Z</time>
      </trkpt>
      <trkpt lat="42.96134" lon="1.77522">
        <ele>429.7</ele>
        <time>2023-03-25T17:39:22.000Z</time>
      </trkpt>
      <trkpt lat="42.96137" lon="1.77536">
        <ele>428</ele>
        <time>2023-03-25T17:39:23.000Z</time>
      </trkpt>
      <trkpt lat="42.96141" lon="1.7755">
        <ele>426.4</ele>
        <time>2023-03-25T17:39:24.000Z</time>
      </trkpt>
      <trkpt lat="42.96145" lon="1.77564">
        <ele>424.5</ele>
        <time>2023-03-25T17:39:25.000Z</time>
      </trkpt>
      <trkpt lat="42.9615" lon="1.77577">
        <ele>422.6</ele>
        <time>2023-03-25T17:39:26.000Z</time>
      </trkpt>
      <trkpt lat="42.96155" lon="1.7759">
        <ele>420.9</ele>
        <time>2023-03-25T17:39:27.000Z</time>
      </trkpt>
      <trkpt lat="42.9616" lon="1.77601">
        <ele>419.6</ele>
        <time>2023-03-25T17:39:28.000Z</time>
      </trkpt>
      <trkpt lat="42.96166" lon="1.77609">
        <ele>418.3</ele>
        <time>2023-03-25T17:39:29.000Z</time>
      </trkpt>
      <trkpt lat="42.96174" lon="1.77614">
        <ele>417.1</ele>
        <time>2023-03-25T17:39:30.000Z</time>
      </trkpt>
      <trkpt lat="42.96181" lon="1.77618">
        <ele>416</ele>
        <time>2023-03-25T17:39:31.000Z</time>
      </trkpt>
      <trkpt lat="42.9619" lon="1.7762">
        <ele>415.1</ele>
        <time>2023-03-25T17:39:32.000Z</time>
      </trkpt>
      <trkpt lat="42.962" lon="1.77621">
        <ele>414.1</ele>
        <time>2023-03-25T17:39:33.000Z</time>
      </trkpt>
      <trkpt lat="42.9621" lon="1.77621">
        <ele>413.1</ele>
        <time>2023-03-25T17:39:34.000Z</time>
      </trkpt>
      <trkpt lat="42.9622" lon="1.77622">
        <ele>412.1</ele>
        <time>2023-03-25T17:39:35.000Z</time>
      </trkpt>
      <trkpt lat="42.9623" lon="1.77623">
        <ele>411</ele>
        <time>2023-03-25T17:39:36.000Z</time>
      </trkpt>
      <trkpt lat="42.9624" lon="1.77623">
        <ele>410</ele>
        <time>2023-03-25T17:39:37.000Z</time>
      </trkpt>
      <trkpt lat="42.9625" lon="1.77623">
        <ele>409.1</ele>
        <time>2023-03-25T17:39:38.000Z</time>
      </trkpt>
      <trkpt lat="42.96261" lon="1.77622">
        <ele>410.9</ele>
        <time>2023-03-25T17:39:39.000Z</time>
      </trkpt>
      <trkpt lat="42.96271" lon="1.77618">
        <ele>412.4</ele>
        <time>2023-03-25T17:39:40.000Z</time>
      </trkpt>
      <trkpt lat="42.9628" lon="1.77611">
        <ele>413.5</ele>
        <time>2023-03-25T17:39:41.000Z</time>
      </trkpt>
      <trkpt lat="42.96288" lon="1.776">
        <ele>413.9</ele>
        <time>2023-03-25T17:39:42.000Z</time>
      </trkpt>
      <trkpt lat="42.96295" lon="1.77587">
        <ele>413.6</ele>
        <time>2023-03-25T17:39:43.000Z</time>
      </trkpt>
      <trkpt lat="42.96301" lon="1.77574">
        <ele>413</ele>
        <time>2023-03-25T17:39:44.000Z</time>
      </trkpt>
      <trkpt lat="42.96306" lon="1.7756">
        <ele>412.1</ele>
        <time>2023-03-25T17:39:45.000Z</time>
      </trkpt>
      <trkpt lat="42.9631" lon="1.77546">
        <ele>410.8</ele>
        <time>2023-03-25T17:39:46.000Z</time>
      </trkpt>
      <trkpt lat="42.96315" lon="1.77533">
        <ele>409.3</ele>
        <time>2023-03-25T17:39:47.000Z</time>
      </trkpt>
      <trkpt lat="42.96321" lon="1.77521">
        <ele>407.4</ele>
        <time>2023-03-25T17:39:48.000Z</time>
      </trkpt>
      <trkpt lat="42.96327" lon="1.77509">
        <ele>405.1</ele>
        <time>2023-03-25T17:39:49.000Z</time>
      </trkpt>
      <trkpt lat="42.96334" lon="1.77497">
        <ele>403.4</ele>
        <time>2023-03-25T17:39:50.000Z</time>
      </trkpt>
      <trkpt lat="42.96341" lon="1.77487">
        <ele>406.4</ele>
        <time>2023-03-25T17:39:51.000Z</time>
      </trkpt>
      <trkpt lat="42.96348" lon="1.77476">
        <ele>408.7</ele>
        <time>2023-03-25T17:39:52.000Z</time>
      </trkpt>
      <trkpt lat="42.96355" lon="1.77466">
        <ele>410.4</ele>
        <time>2023-03-25T17:39:53.000Z</time>
      </trkpt>
      <trkpt lat="42.96361" lon="1.77454">
        <ele>411.4</ele>
        <time>2023-03-25T17:39:54.000Z</time>
      </trkpt>
      <trkpt lat="42.96368" lon="1.77442">
        <ele>411.5</ele>
        <time>2023-03-25T17:39:55.000Z</time>
      </trkpt>
      <trkpt lat="42.96374" lon="1.77429">
        <ele>410.7</ele>
        <time>2023-03-25T17:39:56.000Z</time>
      </trkpt>
      <trkpt lat="42.96381" lon="1.77417">
        <ele>409.6</ele>
        <time>2023-03-25T17:39:57.000Z</time>
      </trkpt>
      <trkpt lat="42.96388" lon="1.77405">
        <ele>411.7</ele>
        <time>2023-03-25T17:39:58.000Z</time>
      </trkpt>
      <trkpt lat="42.96396" lon="1.77394">
        <ele>412.7</ele>
        <time>2023-03-25T17:39:59.000Z</time>
      </trkpt>
      <trkpt lat="42.96404" lon="1.77384">
        <ele>412.9</ele>
        <time>2023-03-25T17:40:00.000Z</time>
      </trkpt>
      <trkpt lat="42.96414" lon="1.77374">
        <ele>412.2</ele>
        <time>2023-03-25T17:40:01.000Z</time>
      </trkpt>
      <trkpt lat="42.96425" lon="1.77367">
        <ele>412</ele>
        <time>2023-03-25T17:40:02.000Z</time>
      </trkpt>
      <trkpt lat="42.96435" lon="1.7736">
        <ele>411.8</ele>
        <time>2023-03-25T17:40:03.000Z</time>
      </trkpt>
      <trkpt lat="42.96446" lon="1.77354">
        <ele>411.3</ele>
        <time>2023-03-25T17:40:04.000Z</time>
      </trkpt>
      <trkpt lat="42.96457" lon="1.77348">
        <ele>410.5</ele>
        <time>2023-03-25T17:40:05.000Z</time>
      </trkpt>
      <trkpt lat="42.96467" lon="1.77341">
        <ele>409</ele>
        <time>2023-03-25T17:40:06.000Z</time>
      </trkpt>
      <trkpt lat="42.96477" lon="1.77333">
        <ele>407.8</ele>
        <time>2023-03-25T17:40:07.000Z</time>
      </trkpt>
      <trkpt lat="42.96487" lon="1.77325">
        <ele>409.5</ele>
        <time>2023-03-25T17:40:08.000Z</time>
      </trkpt>
      <trkpt lat="42.96498" lon="1.77317">
        <ele>410.9</ele>
        <time>2023-03-25T17:40:09.000Z</time>
      </trkpt>
      <trkpt lat="42.96509" lon="1.7731">
        <ele>411.4</ele>
        <time>2023-03-25T17:40:10.000Z</time>
      </trkpt>
      <trkpt lat="42.96523" lon="1.77304">
        <ele>411.2</ele>
        <time>2023-03-25T17:40:11.000Z</time>
      </trkpt>
      <trkpt lat="42.96535" lon="1.77301">
        <ele>410.3</ele>
        <time>2023-03-25T17:40:12.000Z</time>
      </trkpt>
      <trkpt lat="42.96548" lon="1.77299">
        <ele>408.8</ele>
        <time>2023-03-25T17:40:13.000Z</time>
      </trkpt>
      <trkpt lat="42.9656" lon="1.77302">
        <ele>406.6</ele>
        <time>2023-03-25T17:40:14.000Z</time>
      </trkpt>
      <trkpt lat="42.96572" lon="1.77305">
        <ele>404.3</ele>
        <time>2023-03-25T17:40:15.000Z</time>
      </trkpt>
      <trkpt lat="42.96583" lon="1.77308">
        <ele>402.4</ele>
        <time>2023-03-25T17:40:16.000Z</time>
      </trkpt>
      <trkpt lat="42.96595" lon="1.77306">
        <ele>402.3</ele>
        <time>2023-03-25T17:40:17.000Z</time>
      </trkpt>
      <trkpt lat="42.96605" lon="1.77301">
        <ele>402.4</ele>
        <time>2023-03-25T17:40:18.000Z</time>
      </trkpt>
      <trkpt lat="42.96616" lon="1.77294">
        <ele>402.2</ele>
        <time>2023-03-25T17:40:19.000Z</time>
      </trkpt>
      <trkpt lat="42.96626" lon="1.77289">
        <ele>401.8</ele>
        <time>2023-03-25T17:40:20.000Z</time>
      </trkpt>
      <trkpt lat="42.96634" lon="1.77287">
        <ele>401.2</ele>
        <time>2023-03-25T17:40:21.000Z</time>
      </trkpt>
      <trkpt lat="42.96643" lon="1.77287">
        <ele>400.5</ele>
        <time>2023-03-25T17:40:22.000Z</time>
      </trkpt>
      <trkpt lat="42.9665" lon="1.77293">
        <ele>400.1</ele>
        <time>2023-03-25T17:40:23.000Z</time>
      </trkpt>
      <trkpt lat="42.96655" lon="1.77302">
        <ele>400.2</ele>
        <time>2023-03-25T17:40:24.000Z</time>
      </trkpt>
      <trkpt lat="42.96659" lon="1.77313">
        <ele>400.6</ele>
        <time>2023-03-25T17:40:25.000Z</time>
      </trkpt>
      <trkpt lat="42.96661" lon="1.77326">
        <ele>401.3</ele>
        <time>2023-03-25T17:40:26.000Z</time>
      </trkpt>
      <trkpt lat="42.96663" lon="1.77339">
        <ele>403.7</ele>
        <time>2023-03-25T17:40:27.000Z</time>
      </trkpt>
      <trkpt lat="42.96665" lon="1.77351">
        <ele>408</ele>
        <time>2023-03-25T17:40:28.000Z</time>
      </trkpt>
      <trkpt lat="42.96669" lon="1.77362">
        <ele>412.4</ele>
        <time>2023-03-25T17:40:29.000Z</time>
      </trkpt>
      <trkpt lat="42.96675" lon="1.7737">
        <ele>415.3</ele>
        <time>2023-03-25T17:40:30.000Z</time>
      </trkpt>
      <trkpt lat="42.96684" lon="1.77374">
        <ele>416.8</ele>
        <time>2023-03-25T17:40:31.000Z</time>
      </trkpt>
      <trkpt lat="42.96693" lon="1.77374">
        <ele>416.9</ele>
        <time>2023-03-25T17:40:32.000Z</time>
      </trkpt>
      <trkpt lat="42.96702" lon="1.77371">
        <ele>416</ele>
        <time>2023-03-25T17:40:33.000Z</time>
      </trkpt>
      <trkpt lat="42.96711" lon="1.77364">
        <ele>414.5</ele>
        <time>2023-03-25T17:40:34.000Z</time>
      </trkpt>
      <trkpt lat="42.96719" lon="1.77356">
        <ele>412.9</ele>
        <time>2023-03-25T17:40:35.000Z</time>
      </trkpt>
      <trkpt lat="42.96727" lon="1.77346">
        <ele>411.4</ele>
        <time>2023-03-25T17:40:36.000Z</time>
      </trkpt>
      <trkpt lat="42.96735" lon="1.77337">
        <ele>410.1</ele>
        <time>2023-03-25T17:40:37.000Z</time>
      </trkpt>
      <trkpt lat="42.96743" lon="1.77328">
        <ele>409</ele>
        <time>2023-03-25T17:40:38.000Z</time>
      </trkpt>
      <trkpt lat="42.96751" lon="1.77319">
        <ele>407.8</ele>
        <time>2023-03-25T17:40:39.000Z</time>
      </trkpt>
      <trkpt lat="42.96759" lon="1.77309">
        <ele>404.9</ele>
        <time>2023-03-25T17:40:40.000Z</time>
      </trkpt>
      <trkpt lat="42.96767" lon="1.77299">
        <ele>402.1</ele>
        <time>2023-03-25T17:40:41.000Z</time>
      </trkpt>
      <trkpt lat="42.96774" lon="1.7729">
        <ele>399.4</ele>
        <time>2023-03-25T17:40:42.000Z</time>
      </trkpt>
      <trkpt lat="42.96782" lon="1.77281">
        <ele>396.9</ele>
        <time>2023-03-25T17:40:43.000Z</time>
      </trkpt>
      <trkpt lat="42.9679" lon="1.77272">
        <ele>394.7</ele>
        <time>2023-03-25T17:40:44.000Z</time>
      </trkpt>
      <trkpt lat="42.96798" lon="1.77263">
        <ele>392.6</ele>
        <time>2023-03-25T17:40:45.000Z</time>
      </trkpt>
      <trkpt lat="42.96806" lon="1.77254">
        <ele>390.7</ele>
        <time>2023-03-25T17:40:46.000Z</time>
      </trkpt>
      <trkpt lat="42.96814" lon="1.77246">
        <ele>389.6</ele>
        <time>2023-03-25T17:40:47.000Z</time>
      </trkpt>
      <trkpt lat="42.96824" lon="1.7724">
        <ele>388.8</ele>
        <time>2023-03-25T17:40:48.000Z</time>
      </trkpt>
      <trkpt lat="42.96834" lon="1.77237">
        <ele>388</ele>
        <time>2023-03-25T17:40:49.000Z</time>
      </trkpt>
      <trkpt lat="42.96844" lon="1.77237">
        <ele>387.5</ele>
        <time>2023-03-25T17:40:50.000Z</time>
      </trkpt>
      <trkpt lat="42.96853" lon="1.7724">
        <ele>387.1</ele>
        <time>2023-03-25T17:40:51.000Z</time>
      </trkpt>
      <trkpt lat="42.96862" lon="1.77245">
        <ele>386.7</ele>
        <time>2023-03-25T17:40:52.000Z</time>
      </trkpt>
      <trkpt lat="42.96871" lon="1.7725">
        <ele>386.2</ele>
        <time>2023-03-25T17:40:53.000Z</time>
      </trkpt>
      <trkpt lat="42.9688" lon="1.77253">
        <ele>386</ele>
        <time>2023-03-25T17:40:54.000Z</time>
      </trkpt>
      <trkpt lat="42.96889" lon="1.77254">
        <ele>385.7</ele>
        <time>2023-03-25T17:40:55.000Z</time>
      </trkpt>
      <trkpt lat="42.96899" lon="1.77255">
        <ele>385.3</ele>
        <time>2023-03-25T17:40:56.000Z</time>
      </trkpt>
      <trkpt lat="42.96908" lon="1.77256">
        <ele>384.9</ele>
        <time>2023-03-25T17:40:57.000Z</time>
      </trkpt>
      <trkpt lat="42.96917" lon="1.77257">
        <ele>384.5</ele>
        <time>2023-03-25T17:40:58.000Z</time>
      </trkpt>
      <trkpt lat="42.96927" lon="1.77257">
        <ele>384.4</ele>
        <time>2023-03-25T17:40:59.000Z</time>
      </trkpt>
      <trkpt lat="42.96937" lon="1.77258">
        <ele>384.3</ele>
        <time>2023-03-25T17:41:00.000Z</time>
      </trkpt>
      <trkpt lat="42.96947" lon="1.77258">
        <ele>384.3</ele>
        <time>2023-03-25T17:41:01.000Z</time>
      </trkpt>
      <trkpt lat="42.96955" lon="1.77259">
        <ele>384.2</ele>
        <time>2023-03-25T17:41:02.000Z</time>
      </trkpt>
      <trkpt lat="42.96964" lon="1.7726">
        <ele>384.2</ele>
        <time>2023-03-25T17:41:03.000Z</time>
      </trkpt>
      <trkpt lat="42.96973" lon="1.7726">
        <ele>384.1</ele>
        <time>2023-03-25T17:41:04.000Z</time>
      </trkpt>
      <trkpt lat="42.96982" lon="1.77261">
        <ele>384.1</ele>
        <time>2023-03-25T17:41:05.000Z</time>
      </trkpt>
      <trkpt lat="42.96991" lon="1.77261">
        <ele>384</ele>
        <time>2023-03-25T17:41:06.000Z</time>
      </trkpt>
      <trkpt lat="42.96999" lon="1.77261">
        <ele>383.9</ele>
        <time>2023-03-25T17:41:07.000Z</time>
      </trkpt>
      <trkpt lat="42.97008" lon="1.77261">
        <ele>383.7</ele>
        <time>2023-03-25T17:41:08.000Z</time>
      </trkpt>
      <trkpt lat="42.97016" lon="1.77261">
        <ele>383.5</ele>
        <time>2023-03-25T17:41:09.000Z</time>
      </trkpt>
      <trkpt lat="42.97024" lon="1.77262">
        <ele>383.4</ele>
        <time>2023-03-25T17:41:10.000Z</time>
      </trkpt>
      <trkpt lat="42.97033" lon="1.77262">
        <ele>383.1</ele>
        <time>2023-03-25T17:41:11.000Z</time>
      </trkpt>
      <trkpt lat="42.97041" lon="1.77262">
        <ele>382.9</ele>
        <time>2023-03-25T17:41:12.000Z</time>
      </trkpt>
      <trkpt lat="42.97049" lon="1.77262">
        <ele>382.7</ele>
        <time>2023-03-25T17:41:13.000Z</time>
      </trkpt>
      <trkpt lat="42.97056" lon="1.77262">
        <ele>382.5</ele>
        <time>2023-03-25T17:41:14.000Z</time>
      </trkpt>
      <trkpt lat="42.97064" lon="1.77262">
        <ele>382.3</ele>
        <time>2023-03-25T17:41:15.000Z</time>
      </trkpt>
      <trkpt lat="42.97072" lon="1.77264">
        <ele>382.3</ele>
        <time>2023-03-25T17:41:16.000Z</time>
      </trkpt>
      <trkpt lat="42.97079" lon="1.77268">
        <ele>382.3</ele>
        <time>2023-03-25T17:41:17.000Z</time>
      </trkpt>
      <trkpt lat="42.97085" lon="1.77275">
        <ele>382.7</ele>
        <time>2023-03-25T17:41:18.000Z</time>
      </trkpt>
      <trkpt lat="42.9709" lon="1.77282">
        <ele>383.2</ele>
        <time>2023-03-25T17:41:19.000Z</time>
      </trkpt>
      <trkpt lat="42.97095" lon="1.77291">
        <ele>383.7</ele>
        <time>2023-03-25T17:41:20.000Z</time>
      </trkpt>
      <trkpt lat="42.97099" lon="1.77299">
        <ele>384.2</ele>
        <time>2023-03-25T17:41:21.000Z</time>
      </trkpt>
      <trkpt lat="42.97104" lon="1.77307">
        <ele>384.8</ele>
        <time>2023-03-25T17:41:22.000Z</time>
      </trkpt>
      <trkpt lat="42.97109" lon="1.77316">
        <ele>385.3</ele>
        <time>2023-03-25T17:41:23.000Z</time>
      </trkpt>
      <trkpt lat="42.97114" lon="1.77323">
        <ele>385.8</ele>
        <time>2023-03-25T17:41:24.000Z</time>
      </trkpt>
      <trkpt lat="42.9712" lon="1.77331">
        <ele>386.4</ele>
        <time>2023-03-25T17:41:25.000Z</time>
      </trkpt>
      <trkpt lat="42.97125" lon="1.77338">
        <ele>387.1</ele>
        <time>2023-03-25T17:41:26.000Z</time>
      </trkpt>
      <trkpt lat="42.9713" lon="1.77345">
        <ele>388.2</ele>
        <time>2023-03-25T17:41:27.000Z</time>
      </trkpt>
      <trkpt lat="42.97135" lon="1.77352">
        <ele>389.1</ele>
        <time>2023-03-25T17:41:28.000Z</time>
      </trkpt>
      <trkpt lat="42.97141" lon="1.77359">
        <ele>390.1</ele>
        <time>2023-03-25T17:41:29.000Z</time>
      </trkpt>
      <trkpt lat="42.97147" lon="1.77365">
        <ele>391</ele>
        <time>2023-03-25T17:41:30.000Z</time>
      </trkpt>
      <trkpt lat="42.97152" lon="1.77371">
        <ele>391.8</ele>
        <time>2023-03-25T17:41:31.000Z</time>
      </trkpt>
      <trkpt lat="42.97158" lon="1.77376">
        <ele>392.8</ele>
        <time>2023-03-25T17:41:32.000Z</time>
      </trkpt>
      <trkpt lat="42.97164" lon="1.77381">
        <ele>393.3</ele>
        <time>2023-03-25T17:41:33.000Z</time>
      </trkpt>
      <trkpt lat="42.9717" lon="1.77385">
        <ele>394.1</ele>
        <time>2023-03-25T17:41:34.000Z</time>
      </trkpt>
      <trkpt lat="42.97176" lon="1.77387">
        <ele>394.8</ele>
        <time>2023-03-25T17:41:35.000Z</time>
      </trkpt>
      <trkpt lat="42.97184" lon="1.77389">
        <ele>395.5</ele>
        <time>2023-03-25T17:41:36.000Z</time>
      </trkpt>
      <trkpt lat="42.9719" lon="1.7739">
        <ele>396.1</ele>
        <time>2023-03-25T17:41:37.000Z</time>
      </trkpt>
      <trkpt lat="42.97197" lon="1.7739">
        <ele>396.4</ele>
        <time>2023-03-25T17:41:38.000Z</time>
      </trkpt>
      <trkpt lat="42.97204" lon="1.7739">
        <ele>396.8</ele>
        <time>2023-03-25T17:41:39.000Z</time>
      </trkpt>
      <trkpt lat="42.97211" lon="1.77389">
        <ele>397</ele>
        <time>2023-03-25T17:41:40.000Z</time>
      </trkpt>
      <trkpt lat="42.97216" lon="1.77388">
        <ele>397.3</ele>
        <time>2023-03-25T17:41:41.000Z</time>
      </trkpt>
      <trkpt lat="42.97222" lon="1.77388">
        <ele>397.3</ele>
        <time>2023-03-25T17:41:42.000Z</time>
      </trkpt>
      <trkpt lat="42.97227" lon="1.77387">
        <ele>397.3</ele>
        <time>2023-03-25T17:41:43.000Z</time>
      </trkpt>
      <trkpt lat="42.97234" lon="1.77386">
        <ele>397.6</ele>
        <time>2023-03-25T17:41:44.000Z</time>
      </trkpt>
      <trkpt lat="42.9724" lon="1.77384">
        <ele>397.7</ele>
        <time>2023-03-25T17:41:45.000Z</time>
      </trkpt>
      <trkpt lat="42.97248" lon="1.77384">
        <ele>397.8</ele>
        <time>2023-03-25T17:41:46.000Z</time>
      </trkpt>
      <trkpt lat="42.97254" lon="1.77383">
        <ele>397.5</ele>
        <time>2023-03-25T17:41:47.000Z</time>
      </trkpt>
      <trkpt lat="42.97261" lon="1.77382">
        <ele>397.5</ele>
        <time>2023-03-25T17:41:48.000Z</time>
      </trkpt>
      <trkpt lat="42.97268" lon="1.77381">
        <ele>397.1</ele>
        <time>2023-03-25T17:41:49.000Z</time>
      </trkpt>
      <trkpt lat="42.97275" lon="1.7738">
        <ele>396.8</ele>
        <time>2023-03-25T17:41:50.000Z</time>
      </trkpt>
      <trkpt lat="42.97282" lon="1.77379">
        <ele>396.5</ele>
        <time>2023-03-25T17:41:51.000Z</time>
      </trkpt>
      <trkpt lat="42.97289" lon="1.77377">
        <ele>396.2</ele>
        <time>2023-03-25T17:41:52.000Z</time>
      </trkpt>
      <trkpt lat="42.97295" lon="1.77376">
        <ele>396</ele>
        <time>2023-03-25T17:41:53.000Z</time>
      </trkpt>
      <trkpt lat="42.97302" lon="1.77375">
        <ele>396</ele>
        <time>2023-03-25T17:41:54.000Z</time>
      </trkpt>
      <trkpt lat="42.97308" lon="1.77374">
        <ele>395.8</ele>
        <time>2023-03-25T17:41:55.000Z</time>
      </trkpt>
      <trkpt lat="42.97315" lon="1.77372">
        <ele>395.4</ele>
        <time>2023-03-25T17:41:56.000Z</time>
      </trkpt>
      <trkpt lat="42.97322" lon="1.7737">
        <ele>395.3</ele>
        <time>2023-03-25T17:41:57.000Z</time>
      </trkpt>
      <trkpt lat="42.97329" lon="1.77367">
        <ele>394.8</ele>
        <time>2023-03-25T17:41:58.000Z</time>
      </trkpt>
      <trkpt lat="42.97336" lon="1.77364">
        <ele>394.3</ele>
        <time>2023-03-25T17:41:59.000Z</time>
      </trkpt>
      <trkpt lat="42.97342" lon="1.77361">
        <ele>393.2</ele>
        <time>2023-03-25T17:42:00.000Z</time>
      </trkpt>
      <trkpt lat="42.97348" lon="1.77358">
        <ele>392</ele>
        <time>2023-03-25T17:42:01.000Z</time>
      </trkpt>
      <trkpt lat="42.97354" lon="1.77354">
        <ele>391</ele>
        <time>2023-03-25T17:42:02.000Z</time>
      </trkpt>
      <trkpt lat="42.97361" lon="1.7735">
        <ele>389.8</ele>
        <time>2023-03-25T17:42:03.000Z</time>
      </trkpt>
      <trkpt lat="42.97367" lon="1.77346">
        <ele>388.7</ele>
        <time>2023-03-25T17:42:04.000Z</time>
      </trkpt>
      <trkpt lat="42.97372" lon="1.77342">
        <ele>387.9</ele>
        <time>2023-03-25T17:42:05.000Z</time>
      </trkpt>
      <trkpt lat="42.97378" lon="1.77337">
        <ele>387</ele>
        <time>2023-03-25T17:42:06.000Z</time>
      </trkpt>
      <trkpt lat="42.97384" lon="1.77333">
        <ele>386.1</ele>
        <time>2023-03-25T17:42:07.000Z</time>
      </trkpt>
      <trkpt lat="42.97391" lon="1.77328">
        <ele>385.3</ele>
        <time>2023-03-25T17:42:08.000Z</time>
      </trkpt>
      <trkpt lat="42.97397" lon="1.77323">
        <ele>384.5</ele>
        <time>2023-03-25T17:42:09.000Z</time>
      </trkpt>
      <trkpt lat="42.97404" lon="1.77319">
        <ele>383.9</ele>
        <time>2023-03-25T17:42:10.000Z</time>
      </trkpt>
      <trkpt lat="42.97409" lon="1.77314">
        <ele>383.3</ele>
        <time>2023-03-25T17:42:11.000Z</time>
      </trkpt>
      <trkpt lat="42.97415" lon="1.7731">
        <ele>382.8</ele>
        <time>2023-03-25T17:42:12.000Z</time>
      </trkpt>
      <trkpt lat="42.97421" lon="1.77306">
        <ele>382.1</ele>
        <time>2023-03-25T17:42:13.000Z</time>
      </trkpt>
      <trkpt lat="42.97427" lon="1.77303">
        <ele>381.3</ele>
        <time>2023-03-25T17:42:14.000Z</time>
      </trkpt>
      <trkpt lat="42.97434" lon="1.77301">
        <ele>380.4</ele>
        <time>2023-03-25T17:42:15.000Z</time>
      </trkpt>
      <trkpt lat="42.97442" lon="1.77301">
        <ele>379.5</ele>
        <time>2023-03-25T17:42:16.000Z</time>
      </trkpt>
      <trkpt lat="42.9745" lon="1.77303">
        <ele>378.5</ele>
        <time>2023-03-25T17:42:17.000Z</time>
      </trkpt>
      <trkpt lat="42.97457" lon="1.77306">
        <ele>377.7</ele>
        <time>2023-03-25T17:42:18.000Z</time>
      </trkpt>
      <trkpt lat="42.97464" lon="1.77311">
        <ele>376.8</ele>
        <time>2023-03-25T17:42:19.000Z</time>
      </trkpt>
      <trkpt lat="42.9747" lon="1.77317">
        <ele>376</ele>
        <time>2023-03-25T17:42:20.000Z</time>
      </trkpt>
      <trkpt lat="42.97476" lon="1.77324">
        <ele>375.1</ele>
        <time>2023-03-25T17:42:21.000Z</time>
      </trkpt>
      <trkpt lat="42.97482" lon="1.77332">
        <ele>374.4</ele>
        <time>2023-03-25T17:42:22.000Z</time>
      </trkpt>
      <trkpt lat="42.97485" lon="1.77343">
        <ele>374.4</ele>
        <time>2023-03-25T17:42:23.000Z</time>
      </trkpt>
      <trkpt lat="42.97488" lon="1.77353">
        <ele>374.6</ele>
        <time>2023-03-25T17:42:24.000Z</time>
      </trkpt>
      <trkpt lat="42.97491" lon="1.77364">
        <ele>374.9</ele>
        <time>2023-03-25T17:42:25.000Z</time>
      </trkpt>
      <trkpt lat="42.97493" lon="1.77375">
        <ele>375.2</ele>
        <time>2023-03-25T17:42:26.000Z</time>
      </trkpt>
      <trkpt lat="42.97495" lon="1.77385">
        <ele>375.6</ele>
        <time>2023-03-25T17:42:27.000Z</time>
      </trkpt>
      <trkpt lat="42.97497" lon="1.77395">
        <ele>375.9</ele>
        <time>2023-03-25T17:42:28.000Z</time>
      </trkpt>
      <trkpt lat="42.975" lon="1.77405">
        <ele>376.3</ele>
        <time>2023-03-25T17:42:29.000Z</time>
      </trkpt>
      <trkpt lat="42.97503" lon="1.77415">
        <ele>376.9</ele>
        <time>2023-03-25T17:42:30.000Z</time>
      </trkpt>
      <trkpt lat="42.97505" lon="1.77425">
        <ele>377.1</ele>
        <time>2023-03-25T17:42:31.000Z</time>
      </trkpt>
      <trkpt lat="42.97508" lon="1.77435">
        <ele>377.3</ele>
        <time>2023-03-25T17:42:32.000Z</time>
      </trkpt>
      <trkpt lat="42.97511" lon="1.77445">
        <ele>377.5</ele>
        <time>2023-03-25T17:42:33.000Z</time>
      </trkpt>
      <trkpt lat="42.97513" lon="1.77456">
        <ele>377.7</ele>
        <time>2023-03-25T17:42:34.000Z</time>
      </trkpt>
      <trkpt lat="42.97516" lon="1.77466">
        <ele>377.9</ele>
        <time>2023-03-25T17:42:35.000Z</time>
      </trkpt>
      <trkpt lat="42.97519" lon="1.77476">
        <ele>378</ele>
        <time>2023-03-25T17:42:36.000Z</time>
      </trkpt>
      <trkpt lat="42.97522" lon="1.77486">
        <ele>378.2</ele>
        <time>2023-03-25T17:42:37.000Z</time>
      </trkpt>
      <trkpt lat="42.97524" lon="1.77496">
        <ele>378.3</ele>
        <time>2023-03-25T17:42:38.000Z</time>
      </trkpt>
      <trkpt lat="42.97527" lon="1.77506">
        <ele>378.3</ele>
        <time>2023-03-25T17:42:39.000Z</time>
      </trkpt>
      <trkpt lat="42.97529" lon="1.77516">
        <ele>378.2</ele>
        <time>2023-03-25T17:42:40.000Z</time>
      </trkpt>
      <trkpt lat="42.97532" lon="1.77526">
        <ele>378.1</ele>
        <time>2023-03-25T17:42:41.000Z</time>
      </trkpt>
      <trkpt lat="42.97534" lon="1.77536">
        <ele>378</ele>
        <time>2023-03-25T17:42:42.000Z</time>
      </trkpt>
      <trkpt lat="42.97537" lon="1.77546">
        <ele>377.9</ele>
        <time>2023-03-25T17:42:43.000Z</time>
      </trkpt>
      <trkpt lat="42.9754" lon="1.77556">
        <ele>377.7</ele>
        <time>2023-03-25T17:42:44.000Z</time>
      </trkpt>
      <trkpt lat="42.97542" lon="1.77567">
        <ele>377.6</ele>
        <time>2023-03-25T17:42:45.000Z</time>
      </trkpt>
      <trkpt lat="42.97545" lon="1.77577">
        <ele>377.4</ele>
        <time>2023-03-25T17:42:46.000Z</time>
      </trkpt>
      <trkpt lat="42.97548" lon="1.77588">
        <ele>377.2</ele>
        <time>2023-03-25T17:42:47.000Z</time>
      </trkpt>
      <trkpt lat="42.97551" lon="1.77599">
        <ele>376.9</ele>
        <time>2023-03-25T17:42:48.000Z</time>
      </trkpt>
      <trkpt lat="42.97554" lon="1.77609">
        <ele>376.6</ele>
        <time>2023-03-25T17:42:49.000Z</time>
      </trkpt>
      <trkpt lat="42.97556" lon="1.7762">
        <ele>376.2</ele>
        <time>2023-03-25T17:42:50.000Z</time>
      </trkpt>
      <trkpt lat="42.97559" lon="1.77631">
        <ele>375.9</ele>
        <time>2023-03-25T17:42:51.000Z</time>
      </trkpt>
      <trkpt lat="42.97562" lon="1.77642">
        <ele>375.5</ele>
        <time>2023-03-25T17:42:52.000Z</time>
      </trkpt>
      <trkpt lat="42.97565" lon="1.77653">
        <ele>375.2</ele>
        <time>2023-03-25T17:42:53.000Z</time>
      </trkpt>
      <trkpt lat="42.97568" lon="1.77664">
        <ele>374.8</ele>
        <time>2023-03-25T17:42:54.000Z</time>
      </trkpt>
      <trkpt lat="42.97571" lon="1.77675">
        <ele>374.5</ele>
        <time>2023-03-25T17:42:55.000Z</time>
      </trkpt>
      <trkpt lat="42.97574" lon="1.77687">
        <ele>374.1</ele>
        <time>2023-03-25T17:42:56.000Z</time>
      </trkpt>
      <trkpt lat="42.97577" lon="1.77698">
        <ele>373.7</ele>
        <time>2023-03-25T17:42:57.000Z</time>
      </trkpt>
      <trkpt lat="42.9758" lon="1.77709">
        <ele>373.2</ele>
        <time>2023-03-25T17:42:58.000Z</time>
      </trkpt>
      <trkpt lat="42.97583" lon="1.7772">
        <ele>372.8</ele>
        <time>2023-03-25T17:42:59.000Z</time>
      </trkpt>
      <trkpt lat="42.97585" lon="1.77731">
        <ele>372.4</ele>
        <time>2023-03-25T17:43:00.000Z</time>
      </trkpt>
      <trkpt lat="42.97588" lon="1.77743">
        <ele>372</ele>
        <time>2023-03-25T17:43:01.000Z</time>
      </trkpt>
      <trkpt lat="42.97591" lon="1.77755">
        <ele>371.6</ele>
        <time>2023-03-25T17:43:02.000Z</time>
      </trkpt>
      <trkpt lat="42.97593" lon="1.77767">
        <ele>371.3</ele>
        <time>2023-03-25T17:43:03.000Z</time>
      </trkpt>
      <trkpt lat="42.97596" lon="1.77779">
        <ele>371</ele>
        <time>2023-03-25T17:43:04.000Z</time>
      </trkpt>
      <trkpt lat="42.97598" lon="1.77791">
        <ele>370.7</ele>
        <time>2023-03-25T17:43:05.000Z</time>
      </trkpt>
      <trkpt lat="42.97599" lon="1.77804">
        <ele>370.4</ele>
        <time>2023-03-25T17:43:06.000Z</time>
      </trkpt>
      <trkpt lat="42.976" lon="1.77817">
        <ele>370.1</ele>
        <time>2023-03-25T17:43:07.000Z</time>
      </trkpt>
      <trkpt lat="42.97602" lon="1.7783">
        <ele>369.9</ele>
        <time>2023-03-25T17:43:08.000Z</time>
      </trkpt>
      <trkpt lat="42.97603" lon="1.77843">
        <ele>369.7</ele>
        <time>2023-03-25T17:43:09.000Z</time>
      </trkpt>
      <trkpt lat="42.97604" lon="1.77856">
        <ele>369.5</ele>
        <time>2023-03-25T17:43:10.000Z</time>
      </trkpt>
      <trkpt lat="42.97605" lon="1.77869">
        <ele>369.3</ele>
        <time>2023-03-25T17:43:11.000Z</time>
      </trkpt>
      <trkpt lat="42.97607" lon="1.77883">
        <ele>369.1</ele>
        <time>2023-03-25T17:43:12.000Z</time>
      </trkpt>
      <trkpt lat="42.97608" lon="1.77896">
        <ele>368.9</ele>
        <time>2023-03-25T17:43:13.000Z</time>
      </trkpt>
      <trkpt lat="42.9761" lon="1.7791">
        <ele>368.8</ele>
        <time>2023-03-25T17:43:14.000Z</time>
      </trkpt>
      <trkpt lat="42.97611" lon="1.77923">
        <ele>368.7</ele>
        <time>2023-03-25T17:43:15.000Z</time>
      </trkpt>
      <trkpt lat="42.97613" lon="1.77937">
        <ele>368.9</ele>
        <time>2023-03-25T17:43:16.000Z</time>
      </trkpt>
      <trkpt lat="42.97615" lon="1.7795">
        <ele>368.9</ele>
        <time>2023-03-25T17:43:17.000Z</time>
      </trkpt>
      <trkpt lat="42.97619" lon="1.77963">
        <ele>369</ele>
        <time>2023-03-25T17:43:18.000Z</time>
      </trkpt>
      <trkpt lat="42.97623" lon="1.77975">
        <ele>368.9</ele>
        <time>2023-03-25T17:43:19.000Z</time>
      </trkpt>
      <trkpt lat="42.97628" lon="1.77986">
        <ele>368.8</ele>
        <time>2023-03-25T17:43:20.000Z</time>
      </trkpt>
      <trkpt lat="42.97634" lon="1.77997">
        <ele>368.6</ele>
        <time>2023-03-25T17:43:21.000Z</time>
      </trkpt>
      <trkpt lat="42.9764" lon="1.78007">
        <ele>368.4</ele>
        <time>2023-03-25T17:43:22.000Z</time>
      </trkpt>
      <trkpt lat="42.97646" lon="1.78018">
        <ele>368.3</ele>
        <time>2023-03-25T17:43:23.000Z</time>
      </trkpt>
      <trkpt lat="42.97651" lon="1.78028">
        <ele>368</ele>
        <time>2023-03-25T17:43:24.000Z</time>
      </trkpt>
      <trkpt lat="42.97657" lon="1.78038">
        <ele>367.7</ele>
        <time>2023-03-25T17:43:25.000Z</time>
      </trkpt>
      <trkpt lat="42.97663" lon="1.78048">
        <ele>367.3</ele>
        <time>2023-03-25T17:43:26.000Z</time>
      </trkpt>
      <trkpt lat="42.97668" lon="1.78058">
        <ele>367</ele>
        <time>2023-03-25T17:43:27.000Z</time>
      </trkpt>
      <trkpt lat="42.97673" lon="1.78068">
        <ele>367.1</ele>
        <time>2023-03-25T17:43:28.000Z</time>
      </trkpt>
      <trkpt lat="42.97679" lon="1.78078">
        <ele>367.2</ele>
        <time>2023-03-25T17:43:29.000Z</time>
      </trkpt>
      <trkpt lat="42.97684" lon="1.78088">
        <ele>367.2</ele>
        <time>2023-03-25T17:43:30.000Z</time>
      </trkpt>
      <trkpt lat="42.97689" lon="1.78098">
        <ele>367.3</ele>
        <time>2023-03-25T17:43:31.000Z</time>
      </trkpt>
      <trkpt lat="42.97694" lon="1.78108">
        <ele>367.3</ele>
        <time>2023-03-25T17:43:32.000Z</time>
      </trkpt>
      <trkpt lat="42.97699" lon="1.78118">
        <ele>367.3</ele>
        <time>2023-03-25T17:43:33.000Z</time>
      </trkpt>
      <trkpt lat="42.97704" lon="1.78128">
        <ele>367.3</ele>
        <time>2023-03-25T17:43:34.000Z</time>
      </trkpt>
      <trkpt lat="42.97709" lon="1.78139">
        <ele>367.2</ele>
        <time>2023-03-25T17:43:35.000Z</time>
      </trkpt>
      <trkpt lat="42.97713" lon="1.7815">
        <ele>367</ele>
        <time>2023-03-25T17:43:36.000Z</time>
      </trkpt>
      <trkpt lat="42.97717" lon="1.78162">
        <ele>366.8</ele>
        <time>2023-03-25T17:43:37.000Z</time>
      </trkpt>
      <trkpt lat="42.97721" lon="1.78174">
        <ele>366.7</ele>
        <time>2023-03-25T17:43:38.000Z</time>
      </trkpt>
      <trkpt lat="42.97724" lon="1.78185">
        <ele>366.7</ele>
        <time>2023-03-25T17:43:39.000Z</time>
      </trkpt>
      <trkpt lat="42.97727" lon="1.78197">
        <ele>366.6</ele>
        <time>2023-03-25T17:43:40.000Z</time>
      </trkpt>
      <trkpt lat="42.97731" lon="1.78209">
        <ele>366.4</ele>
        <time>2023-03-25T17:43:41.000Z</time>
      </trkpt>
      <trkpt lat="42.97734" lon="1.78222">
        <ele>366.2</ele>
        <time>2023-03-25T17:43:42.000Z</time>
      </trkpt>
      <trkpt lat="42.97737" lon="1.78234">
        <ele>366</ele>
        <time>2023-03-25T17:43:43.000Z</time>
      </trkpt>
      <trkpt lat="42.97741" lon="1.78246">
        <ele>365.7</ele>
        <time>2023-03-25T17:43:44.000Z</time>
      </trkpt>
      <trkpt lat="42.97745" lon="1.78258">
        <ele>365.5</ele>
        <time>2023-03-25T17:43:45.000Z</time>
      </trkpt>
      <trkpt lat="42.97748" lon="1.7827">
        <ele>365.4</ele>
        <time>2023-03-25T17:43:46.000Z</time>
      </trkpt>
      <trkpt lat="42.97752" lon="1.78283">
        <ele>365.4</ele>
        <time>2023-03-25T17:43:47.000Z</time>
      </trkpt>
      <trkpt lat="42.97755" lon="1.78295">
        <ele>365.5</ele>
        <time>2023-03-25T17:43:48.000Z</time>
      </trkpt>
      <trkpt lat="42.97759" lon="1.78307">
        <ele>365.6</ele>
        <time>2023-03-25T17:43:49.000Z</time>
      </trkpt>
      <trkpt lat="42.97762" lon="1.78319">
        <ele>365.7</ele>
        <time>2023-03-25T17:43:50.000Z</time>
      </trkpt>
      <trkpt lat="42.97766" lon="1.78331">
        <ele>365.8</ele>
        <time>2023-03-25T17:43:51.000Z</time>
      </trkpt>
      <trkpt lat="42.97769" lon="1.78343">
        <ele>365.7</ele>
        <time>2023-03-25T17:43:52.000Z</time>
      </trkpt>
      <trkpt lat="42.97772" lon="1.78354">
        <ele>365.5</ele>
        <time>2023-03-25T17:43:53.000Z</time>
      </trkpt>
      <trkpt lat="42.97776" lon="1.78366">
        <ele>365.3</ele>
        <time>2023-03-25T17:43:54.000Z</time>
      </trkpt>
      <trkpt lat="42.97779" lon="1.78377">
        <ele>365.1</ele>
        <time>2023-03-25T17:43:55.000Z</time>
      </trkpt>
      <trkpt lat="42.97782" lon="1.78389">
        <ele>365</ele>
        <time>2023-03-25T17:43:56.000Z</time>
      </trkpt>
      <trkpt lat="42.97785" lon="1.784">
        <ele>364.8</ele>
        <time>2023-03-25T17:43:57.000Z</time>
      </trkpt>
      <trkpt lat="42.97788" lon="1.78411">
        <ele>364.6</ele>
        <time>2023-03-25T17:43:58.000Z</time>
      </trkpt>
      <trkpt lat="42.97791" lon="1.78422">
        <ele>364.6</ele>
        <time>2023-03-25T17:43:59.000Z</time>
      </trkpt>
      <trkpt lat="42.97794" lon="1.78432">
        <ele>364.7</ele>
        <time>2023-03-25T17:44:00.000Z</time>
      </trkpt>
      <trkpt lat="42.97797" lon="1.78443">
        <ele>364.7</ele>
        <time>2023-03-25T17:44:01.000Z</time>
      </trkpt>
      <trkpt lat="42.978" lon="1.78453">
        <ele>364.8</ele>
        <time>2023-03-25T17:44:02.000Z</time>
      </trkpt>
      <trkpt lat="42.97803" lon="1.78464">
        <ele>364.9</ele>
        <time>2023-03-25T17:44:03.000Z</time>
      </trkpt>
      <trkpt lat="42.97806" lon="1.78474">
        <ele>365</ele>
        <time>2023-03-25T17:44:04.000Z</time>
      </trkpt>
      <trkpt lat="42.97809" lon="1.78484">
        <ele>365.1</ele>
        <time>2023-03-25T17:44:05.000Z</time>
      </trkpt>
      <trkpt lat="42.97812" lon="1.78494">
        <ele>365.2</ele>
        <time>2023-03-25T17:44:06.000Z</time>
      </trkpt>
      <trkpt lat="42.97815" lon="1.78504">
        <ele>365.2</ele>
        <time>2023-03-25T17:44:07.000Z</time>
      </trkpt>
      <trkpt lat="42.97817" lon="1.78514">
        <ele>365.2</ele>
        <time>2023-03-25T17:44:08.000Z</time>
      </trkpt>
      <trkpt lat="42.9782" lon="1.78524">
        <ele>365.2</ele>
        <time>2023-03-25T17:44:09.000Z</time>
      </trkpt>
      <trkpt lat="42.97822" lon="1.78534">
        <ele>365.1</ele>
        <time>2023-03-25T17:44:10.000Z</time>
      </trkpt>
      <trkpt lat="42.97825" lon="1.78543">
        <ele>365.1</ele>
        <time>2023-03-25T17:44:11.000Z</time>
      </trkpt>
      <trkpt lat="42.97828" lon="1.78553">
        <ele>365.1</ele>
        <time>2023-03-25T17:44:12.000Z</time>
      </trkpt>
      <trkpt lat="42.97831" lon="1.78562">
        <ele>365</ele>
        <time>2023-03-25T17:44:13.000Z</time>
      </trkpt>
      <trkpt lat="42.97834" lon="1.78572">
        <ele>365</ele>
        <time>2023-03-25T17:44:14.000Z</time>
      </trkpt>
      <trkpt lat="42.97838" lon="1.7858">
        <ele>364.9</ele>
        <time>2023-03-25T17:44:15.000Z</time>
      </trkpt>
      <trkpt lat="42.97842" lon="1.78589">
        <ele>364.9</ele>
        <time>2023-03-25T17:44:16.000Z</time>
      </trkpt>
      <trkpt lat="42.97847" lon="1.78597">
        <ele>364.9</ele>
        <time>2023-03-25T17:44:17.000Z</time>
      </trkpt>
      <trkpt lat="42.97852" lon="1.78605">
        <ele>364.9</ele>
        <time>2023-03-25T17:44:18.000Z</time>
      </trkpt>
      <trkpt lat="42.97857" lon="1.78612">
        <ele>364.9</ele>
        <time>2023-03-25T17:44:19.000Z</time>
      </trkpt>
      <trkpt lat="42.97863" lon="1.7862">
        <ele>365</ele>
        <time>2023-03-25T17:44:20.000Z</time>
      </trkpt>
      <trkpt lat="42.97868" lon="1.78627">
        <ele>365</ele>
        <time>2023-03-25T17:44:21.000Z</time>
      </trkpt>
      <trkpt lat="42.97874" lon="1.78634">
        <ele>365.1</ele>
        <time>2023-03-25T17:44:22.000Z</time>
      </trkpt>
      <trkpt lat="42.97879" lon="1.78641">
        <ele>365.2</ele>
        <time>2023-03-25T17:44:23.000Z</time>
      </trkpt>
      <trkpt lat="42.97885" lon="1.78648">
        <ele>365.3</ele>
        <time>2023-03-25T17:44:24.000Z</time>
      </trkpt>
      <trkpt lat="42.9789" lon="1.78654">
        <ele>365.5</ele>
        <time>2023-03-25T17:44:25.000Z</time>
      </trkpt>
      <trkpt lat="42.97896" lon="1.78661">
        <ele>365.6</ele>
        <time>2023-03-25T17:44:26.000Z</time>
      </trkpt>
      <trkpt lat="42.97901" lon="1.78668">
        <ele>365.8</ele>
        <time>2023-03-25T17:44:27.000Z</time>
      </trkpt>
      <trkpt lat="42.97907" lon="1.78675">
        <ele>365.8</ele>
        <time>2023-03-25T17:44:28.000Z</time>
      </trkpt>
      <trkpt lat="42.97912" lon="1.78682">
        <ele>365.8</ele>
        <time>2023-03-25T17:44:29.000Z</time>
      </trkpt>
      <trkpt lat="42.97918" lon="1.78688">
        <ele>365.7</ele>
        <time>2023-03-25T17:44:30.000Z</time>
      </trkpt>
      <trkpt lat="42.97923" lon="1.78695">
        <ele>365.6</ele>
        <time>2023-03-25T17:44:31.000Z</time>
      </trkpt>
      <trkpt lat="42.97928" lon="1.78702">
        <ele>365.4</ele>
        <time>2023-03-25T17:44:32.000Z</time>
      </trkpt>
      <trkpt lat="42.97934" lon="1.78708">
        <ele>365.3</ele>
        <time>2023-03-25T17:44:33.000Z</time>
      </trkpt>
      <trkpt lat="42.97939" lon="1.78715">
        <ele>365.2</ele>
        <time>2023-03-25T17:44:34.000Z</time>
      </trkpt>
      <trkpt lat="42.97944" lon="1.78721">
        <ele>365</ele>
        <time>2023-03-25T17:44:35.000Z</time>
      </trkpt>
      <trkpt lat="42.97949" lon="1.78727">
        <ele>364.9</ele>
        <time>2023-03-25T17:44:36.000Z</time>
      </trkpt>
      <trkpt lat="42.97954" lon="1.78734">
        <ele>364.8</ele>
        <time>2023-03-25T17:44:37.000Z</time>
      </trkpt>
      <trkpt lat="42.97959" lon="1.7874">
        <ele>364.6</ele>
        <time>2023-03-25T17:44:38.000Z</time>
      </trkpt>
      <trkpt lat="42.97964" lon="1.78747">
        <ele>364.5</ele>
        <time>2023-03-25T17:44:39.000Z</time>
      </trkpt>
      <trkpt lat="42.97969" lon="1.78753">
        <ele>364.5</ele>
        <time>2023-03-25T17:44:40.000Z</time>
      </trkpt>
      <trkpt lat="42.97974" lon="1.7876">
        <ele>364.6</ele>
        <time>2023-03-25T17:44:41.000Z</time>
      </trkpt>
      <trkpt lat="42.9798" lon="1.78766">
        <ele>364.8</ele>
        <time>2023-03-25T17:44:42.000Z</time>
      </trkpt>
      <trkpt lat="42.97985" lon="1.78772">
        <ele>365</ele>
        <time>2023-03-25T17:44:43.000Z</time>
      </trkpt>
      <trkpt lat="42.9799" lon="1.78778">
        <ele>365.1</ele>
        <time>2023-03-25T17:44:44.000Z</time>
      </trkpt>
      <trkpt lat="42.97995" lon="1.78785">
        <ele>365.3</ele>
        <time>2023-03-25T17:44:45.000Z</time>
      </trkpt>
      <trkpt lat="42.97999" lon="1.78791">
        <ele>365.5</ele>
        <time>2023-03-25T17:44:46.000Z</time>
      </trkpt>
      <trkpt lat="42.98004" lon="1.78797">
        <ele>365.9</ele>
        <time>2023-03-25T17:44:47.000Z</time>
      </trkpt>
      <trkpt lat="42.98009" lon="1.78803">
        <ele>366.4</ele>
        <time>2023-03-25T17:44:48.000Z</time>
      </trkpt>
      <trkpt lat="42.98014" lon="1.78808">
        <ele>366.8</ele>
        <time>2023-03-25T17:44:49.000Z</time>
      </trkpt>
      <trkpt lat="42.98018" lon="1.78814">
        <ele>367.3</ele>
        <time>2023-03-25T17:44:50.000Z</time>
      </trkpt>
      <trkpt lat="42.98023" lon="1.7882">
        <ele>367.7</ele>
        <time>2023-03-25T17:44:51.000Z</time>
      </trkpt>
      <trkpt lat="42.98028" lon="1.78825">
        <ele>368.1</ele>
        <time>2023-03-25T17:44:52.000Z</time>
      </trkpt>
      <trkpt lat="42.98032" lon="1.78831">
        <ele>368.5</ele>
        <time>2023-03-25T17:44:53.000Z</time>
      </trkpt>
      <trkpt lat="42.98037" lon="1.78837">
        <ele>368.7</ele>
        <time>2023-03-25T17:44:54.000Z</time>
      </trkpt>
      <trkpt lat="42.98041" lon="1.78842">
        <ele>368.9</ele>
        <time>2023-03-25T17:44:55.000Z</time>
      </trkpt>
      <trkpt lat="42.98045" lon="1.78848">
        <ele>369.1</ele>
        <time>2023-03-25T17:44:56.000Z</time>
      </trkpt>
      <trkpt lat="42.9805" lon="1.78853">
        <ele>369.2</ele>
        <time>2023-03-25T17:44:57.000Z</time>
      </trkpt>
      <trkpt lat="42.98054" lon="1.78858">
        <ele>369.3</ele>
        <time>2023-03-25T17:44:58.000Z</time>
      </trkpt>
      <trkpt lat="42.98059" lon="1.78864">
        <ele>369.4</ele>
        <time>2023-03-25T17:44:59.000Z</time>
      </trkpt>
      <trkpt lat="42.98063" lon="1.78869">
        <ele>369.5</ele>
        <time>2023-03-25T17:45:00.000Z</time>
      </trkpt>
      <trkpt lat="42.98068" lon="1.78875">
        <ele>369.6</ele>
        <time>2023-03-25T17:45:01.000Z</time>
      </trkpt>
      <trkpt lat="42.98073" lon="1.7888">
        <ele>369.6</ele>
        <time>2023-03-25T17:45:02.000Z</time>
      </trkpt>
      <trkpt lat="42.98077" lon="1.78886">
        <ele>369.6</ele>
        <time>2023-03-25T17:45:03.000Z</time>
      </trkpt>
      <trkpt lat="42.98081" lon="1.78892">
        <ele>369.6</ele>
        <time>2023-03-25T17:45:04.000Z</time>
      </trkpt>
      <trkpt lat="42.98085" lon="1.78897">
        <ele>369.6</ele>
        <time>2023-03-25T17:45:05.000Z</time>
      </trkpt>
      <trkpt lat="42.98089" lon="1.78903">
        <ele>369.7</ele>
        <time>2023-03-25T17:45:06.000Z</time>
      </trkpt>
      <trkpt lat="42.98093" lon="1.78908">
        <ele>369.8</ele>
        <time>2023-03-25T17:45:07.000Z</time>
      </trkpt>
      <trkpt lat="42.98096" lon="1.78914">
        <ele>369.7</ele>
        <time>2023-03-25T17:45:08.000Z</time>
      </trkpt>
      <trkpt lat="42.98099" lon="1.7892">
        <ele>369.6</ele>
        <time>2023-03-25T17:45:09.000Z</time>
      </trkpt>
      <trkpt lat="42.98101" lon="1.78927">
        <ele>369.5</ele>
        <time>2023-03-25T17:45:10.000Z</time>
      </trkpt>
      <trkpt lat="42.98103" lon="1.78933">
        <ele>369.3</ele>
        <time>2023-03-25T17:45:11.000Z</time>
      </trkpt>
      <trkpt lat="42.98105" lon="1.7894">
        <ele>369</ele>
        <time>2023-03-25T17:45:12.000Z</time>
      </trkpt>
      <trkpt lat="42.98106" lon="1.78946">
        <ele>368.7</ele>
        <time>2023-03-25T17:45:13.000Z</time>
      </trkpt>
      <trkpt lat="42.98106" lon="1.78953">
        <ele>368.4</ele>
        <time>2023-03-25T17:45:14.000Z</time>
      </trkpt>
      <trkpt lat="42.98105" lon="1.78959">
        <ele>368.1</ele>
        <time>2023-03-25T17:45:15.000Z</time>
      </trkpt>
      <trkpt lat="42.98104" lon="1.78966">
        <ele>367.8</ele>
        <time>2023-03-25T17:45:16.000Z</time>
      </trkpt>
      <trkpt lat="42.98102" lon="1.78972">
        <ele>367.6</ele>
        <time>2023-03-25T17:45:17.000Z</time>
      </trkpt>
      <trkpt lat="42.981" lon="1.78979">
        <ele>367.3</ele>
        <time>2023-03-25T17:45:18.000Z</time>
      </trkpt>
      <trkpt lat="42.98098" lon="1.78985">
        <ele>367.1</ele>
        <time>2023-03-25T17:45:19.000Z</time>
      </trkpt>
      <trkpt lat="42.98096" lon="1.78991">
        <ele>366.9</ele>
        <time>2023-03-25T17:45:20.000Z</time>
      </trkpt>
      <trkpt lat="42.98093" lon="1.78996">
        <ele>366.8</ele>
        <time>2023-03-25T17:45:21.000Z</time>
      </trkpt>
      <trkpt lat="42.98091" lon="1.79002">
        <ele>366.7</ele>
        <time>2023-03-25T17:45:22.000Z</time>
      </trkpt>
      <trkpt lat="42.98088" lon="1.79008">
        <ele>366.7</ele>
        <time>2023-03-25T17:45:23.000Z</time>
      </trkpt>
      <trkpt lat="42.98086" lon="1.79014">
        <ele>366.8</ele>
        <time>2023-03-25T17:45:24.000Z</time>
      </trkpt>
      <trkpt lat="42.98084" lon="1.7902">
        <ele>366.8</ele>
        <time>2023-03-25T17:45:25.000Z</time>
      </trkpt>
      <trkpt lat="42.98081" lon="1.79026">
        <ele>366.8</ele>
        <time>2023-03-25T17:45:26.000Z</time>
      </trkpt>
      <trkpt lat="42.98079" lon="1.79032">
        <ele>366.8</ele>
        <time>2023-03-25T17:45:27.000Z</time>
      </trkpt>
      <trkpt lat="42.98076" lon="1.79038">
        <ele>366.8</ele>
        <time>2023-03-25T17:45:28.000Z</time>
      </trkpt>
      <trkpt lat="42.98073" lon="1.79044">
        <ele>366.8</ele>
        <time>2023-03-25T17:45:29.000Z</time>
      </trkpt>
      <trkpt lat="42.98071" lon="1.7905">
        <ele>366.9</ele>
        <time>2023-03-25T17:45:30.000Z</time>
      </trkpt>
      <trkpt lat="42.98068" lon="1.79056">
        <ele>366.9</ele>
        <time>2023-03-25T17:45:31.000Z</time>
      </trkpt>
      <trkpt lat="42.98065" lon="1.79062">
        <ele>366.9</ele>
        <time>2023-03-25T17:45:32.000Z</time>
      </trkpt>
      <trkpt lat="42.98062" lon="1.79069">
        <ele>366.9</ele>
        <time>2023-03-25T17:45:33.000Z</time>
      </trkpt>
      <trkpt lat="42.9806" lon="1.79075">
        <ele>366.9</ele>
        <time>2023-03-25T17:45:34.000Z</time>
      </trkpt>
      <trkpt lat="42.98057" lon="1.79082">
        <ele>367</ele>
        <time>2023-03-25T17:45:35.000Z</time>
      </trkpt>
      <trkpt lat="42.98054" lon="1.79088">
        <ele>367</ele>
        <time>2023-03-25T17:45:36.000Z</time>
      </trkpt>
      <trkpt lat="42.98052" lon="1.79095">
        <ele>366.9</ele>
        <time>2023-03-25T17:45:37.000Z</time>
      </trkpt>
      <trkpt lat="42.98049" lon="1.79101">
        <ele>366.9</ele>
        <time>2023-03-25T17:45:38.000Z</time>
      </trkpt>
      <trkpt lat="42.98046" lon="1.79107">
        <ele>366.8</ele>
        <time>2023-03-25T17:45:39.000Z</time>
      </trkpt>
      <trkpt lat="42.98044" lon="1.79112">
        <ele>366.8</ele>
        <time>2023-03-25T17:45:40.000Z</time>
      </trkpt>
      <trkpt lat="42.98041" lon="1.79118">
        <ele>366.7</ele>
        <time>2023-03-25T17:45:41.000Z</time>
      </trkpt>
      <trkpt lat="42.98039" lon="1.79124">
        <ele>366.6</ele>
        <time>2023-03-25T17:45:42.000Z</time>
      </trkpt>
      <trkpt lat="42.98036" lon="1.7913">
        <ele>366.5</ele>
        <time>2023-03-25T17:45:43.000Z</time>
      </trkpt>
      <trkpt lat="42.98033" lon="1.79136">
        <ele>366.4</ele>
        <time>2023-03-25T17:45:44.000Z</time>
      </trkpt>
      <trkpt lat="42.98031" lon="1.79142">
        <ele>366.3</ele>
        <time>2023-03-25T17:45:45.000Z</time>
      </trkpt>
      <trkpt lat="42.98028" lon="1.79147">
        <ele>366.2</ele>
        <time>2023-03-25T17:45:46.000Z</time>
      </trkpt>
      <trkpt lat="42.98025" lon="1.79153">
        <ele>366.1</ele>
        <time>2023-03-25T17:45:47.000Z</time>
      </trkpt>
      <trkpt lat="42.98023" lon="1.79159">
        <ele>366</ele>
        <time>2023-03-25T17:45:48.000Z</time>
      </trkpt>
      <trkpt lat="42.9802" lon="1.79165">
        <ele>365.8</ele>
        <time>2023-03-25T17:45:49.000Z</time>
      </trkpt>
      <trkpt lat="42.98018" lon="1.79171">
        <ele>365.7</ele>
        <time>2023-03-25T17:45:50.000Z</time>
      </trkpt>
      <trkpt lat="42.98015" lon="1.79177">
        <ele>365.7</ele>
        <time>2023-03-25T17:45:51.000Z</time>
      </trkpt>
      <trkpt lat="42.98012" lon="1.79183">
        <ele>365.7</ele>
        <time>2023-03-25T17:45:52.000Z</time>
      </trkpt>
      <trkpt lat="42.9801" lon="1.79188">
        <ele>365.6</ele>
        <time>2023-03-25T17:45:53.000Z</time>
      </trkpt>
      <trkpt lat="42.98007" lon="1.79194">
        <ele>365.6</ele>
        <time>2023-03-25T17:45:54.000Z</time>
      </trkpt>
      <trkpt lat="42.98005" lon="1.792">
        <ele>365.6</ele>
        <time>2023-03-25T17:45:55.000Z</time>
      </trkpt>
      <trkpt lat="42.98002" lon="1.79206">
        <ele>365.5</ele>
        <time>2023-03-25T17:45:56.000Z</time>
      </trkpt>
      <trkpt lat="42.98" lon="1.79212">
        <ele>365.5</ele>
        <time>2023-03-25T17:45:57.000Z</time>
      </trkpt>
      <trkpt lat="42.97997" lon="1.79218">
        <ele>365.6</ele>
        <time>2023-03-25T17:45:58.000Z</time>
      </trkpt>
      <trkpt lat="42.97994" lon="1.79223">
        <ele>365.7</ele>
        <time>2023-03-25T17:45:59.000Z</time>
      </trkpt>
      <trkpt lat="42.97992" lon="1.79229">
        <ele>365.7</ele>
        <time>2023-03-25T17:46:00.000Z</time>
      </trkpt>
      <trkpt lat="42.97989" lon="1.79235">
        <ele>365.8</ele>
        <time>2023-03-25T17:46:01.000Z</time>
      </trkpt>
      <trkpt lat="42.97987" lon="1.79241">
        <ele>365.9</ele>
        <time>2023-03-25T17:46:02.000Z</time>
      </trkpt>
      <trkpt lat="42.97985" lon="1.79247">
        <ele>366</ele>
        <time>2023-03-25T17:46:03.000Z</time>
      </trkpt>
      <trkpt lat="42.97982" lon="1.79252">
        <ele>366.1</ele>
        <time>2023-03-25T17:46:04.000Z</time>
      </trkpt>
      <trkpt lat="42.9798" lon="1.79258">
        <ele>366.2</ele>
        <time>2023-03-25T17:46:05.000Z</time>
      </trkpt>
      <trkpt lat="42.97978" lon="1.79263">
        <ele>366.3</ele>
        <time>2023-03-25T17:46:06.000Z</time>
      </trkpt>
      <trkpt lat="42.97975" lon="1.79269">
        <ele>366.4</ele>
        <time>2023-03-25T17:46:07.000Z</time>
      </trkpt>
      <trkpt lat="42.97971" lon="1.7928">
        <ele>366.6</ele>
        <time>2023-03-25T17:46:09.000Z</time>
      </trkpt>
      <trkpt lat="42.97969" lon="1.79285">
        <ele>366.7</ele>
        <time>2023-03-25T17:46:10.000Z</time>
      </trkpt>
      <trkpt lat="42.97966" lon="1.7929">
        <ele>366.7</ele>
        <time>2023-03-25T17:46:11.000Z</time>
      </trkpt>
      <trkpt lat="42.97964" lon="1.79296">
        <ele>366.8</ele>
        <time>2023-03-25T17:46:12.000Z</time>
      </trkpt>
      <trkpt lat="42.97959" lon="1.79306">
        <ele>366.8</ele>
        <time>2023-03-25T17:46:14.000Z</time>
      </trkpt>
      <trkpt lat="42.97954" lon="1.79316">
        <ele>366.8</ele>
        <time>2023-03-25T17:46:16.000Z</time>
      </trkpt>
      <trkpt lat="42.97952" lon="1.79322">
        <ele>366.8</ele>
        <time>2023-03-25T17:46:17.000Z</time>
      </trkpt>
      <trkpt lat="42.97949" lon="1.79327">
        <ele>366.7</ele>
        <time>2023-03-25T17:46:18.000Z</time>
      </trkpt>
      <trkpt lat="42.97947" lon="1.79333">
        <ele>366.7</ele>
        <time>2023-03-25T17:46:19.000Z</time>
      </trkpt>
      <trkpt lat="42.97944" lon="1.79338">
        <ele>366.7</ele>
        <time>2023-03-25T17:46:20.000Z</time>
      </trkpt>
      <trkpt lat="42.97942" lon="1.79343">
        <ele>366.8</ele>
        <time>2023-03-25T17:46:21.000Z</time>
      </trkpt>
      <trkpt lat="42.9794" lon="1.79349">
        <ele>366.9</ele>
        <time>2023-03-25T17:46:22.000Z</time>
      </trkpt>
      <trkpt lat="42.97937" lon="1.79354">
        <ele>367</ele>
        <time>2023-03-25T17:46:23.000Z</time>
      </trkpt>
      <trkpt lat="42.97935" lon="1.7936">
        <ele>367.1</ele>
        <time>2023-03-25T17:46:24.000Z</time>
      </trkpt>
      <trkpt lat="42.97932" lon="1.79365">
        <ele>367.2</ele>
        <time>2023-03-25T17:46:25.000Z</time>
      </trkpt>
      <trkpt lat="42.9793" lon="1.7937">
        <ele>367.3</ele>
        <time>2023-03-25T17:46:26.000Z</time>
      </trkpt>
      <trkpt lat="42.97927" lon="1.79376">
        <ele>367.4</ele>
        <time>2023-03-25T17:46:27.000Z</time>
      </trkpt>
      <trkpt lat="42.97925" lon="1.79381">
        <ele>367.5</ele>
        <time>2023-03-25T17:46:28.000Z</time>
      </trkpt>
      <trkpt lat="42.97922" lon="1.79386">
        <ele>367.6</ele>
        <time>2023-03-25T17:46:29.000Z</time>
      </trkpt>
      <trkpt lat="42.97917" lon="1.79396">
        <ele>367.7</ele>
        <time>2023-03-25T17:46:31.000Z</time>
      </trkpt>
      <trkpt lat="42.97913" lon="1.79406">
        <ele>368</ele>
        <time>2023-03-25T17:46:33.000Z</time>
      </trkpt>
      <trkpt lat="42.97909" lon="1.79415">
        <ele>368.4</ele>
        <time>2023-03-25T17:46:35.000Z</time>
      </trkpt>
      <trkpt lat="42.97904" lon="1.79425">
        <ele>368.6</ele>
        <time>2023-03-25T17:46:37.000Z</time>
      </trkpt>
      <trkpt lat="42.979" lon="1.79434">
        <ele>368.8</ele>
        <time>2023-03-25T17:46:39.000Z</time>
      </trkpt>
      <trkpt lat="42.97895" lon="1.79443">
        <ele>368.9</ele>
        <time>2023-03-25T17:46:41.000Z</time>
      </trkpt>
      <trkpt lat="42.97891" lon="1.79453">
        <ele>369.1</ele>
        <time>2023-03-25T17:46:43.000Z</time>
      </trkpt>
      <trkpt lat="42.97887" lon="1.79462">
        <ele>369.2</ele>
        <time>2023-03-25T17:46:45.000Z</time>
      </trkpt>
      <trkpt lat="42.97883" lon="1.79471">
        <ele>369.4</ele>
        <time>2023-03-25T17:46:47.000Z</time>
      </trkpt>
      <trkpt lat="42.97879" lon="1.7948">
        <ele>369.5</ele>
        <time>2023-03-25T17:46:49.000Z</time>
      </trkpt>
      <trkpt lat="42.97875" lon="1.79488">
        <ele>369.6</ele>
        <time>2023-03-25T17:46:51.000Z</time>
      </trkpt>
      <trkpt lat="42.97872" lon="1.79496">
        <ele>369.6</ele>
        <time>2023-03-25T17:46:53.000Z</time>
      </trkpt>
      <trkpt lat="42.97868" lon="1.79505">
        <ele>369.8</ele>
        <time>2023-03-25T17:46:55.000Z</time>
      </trkpt>
      <trkpt lat="42.97864" lon="1.79514">
        <ele>369.9</ele>
        <time>2023-03-25T17:46:57.000Z</time>
      </trkpt>
      <trkpt lat="42.9786" lon="1.79523">
        <ele>370</ele>
        <time>2023-03-25T17:46:59.000Z</time>
      </trkpt>
      <trkpt lat="42.97856" lon="1.79532">
        <ele>370.1</ele>
        <time>2023-03-25T17:47:01.000Z</time>
      </trkpt>
      <trkpt lat="42.97851" lon="1.79543">
        <ele>370.2</ele>
        <time>2023-03-25T17:47:03.000Z</time>
      </trkpt>
      <trkpt lat="42.97849" lon="1.79548">
        <ele>370.2</ele>
        <time>2023-03-25T17:47:04.000Z</time>
      </trkpt>
      <trkpt lat="42.97846" lon="1.79554">
        <ele>370.2</ele>
        <time>2023-03-25T17:47:05.000Z</time>
      </trkpt>
      <trkpt lat="42.97843" lon="1.79559">
        <ele>370.2</ele>
        <time>2023-03-25T17:47:06.000Z</time>
      </trkpt>
      <trkpt lat="42.97841" lon="1.79564">
        <ele>370.2</ele>
        <time>2023-03-25T17:47:07.000Z</time>
      </trkpt>
      <trkpt lat="42.97839" lon="1.7957">
        <ele>370.1</ele>
        <time>2023-03-25T17:47:08.000Z</time>
      </trkpt>
      <trkpt lat="42.97836" lon="1.79575">
        <ele>370.1</ele>
        <time>2023-03-25T17:47:09.000Z</time>
      </trkpt>
      <trkpt lat="42.97831" lon="1.79585">
        <ele>370.2</ele>
        <time>2023-03-25T17:47:11.000Z</time>
      </trkpt>
      <trkpt lat="42.97827" lon="1.79595">
        <ele>370.7</ele>
        <time>2023-03-25T17:47:13.000Z</time>
      </trkpt>
      <trkpt lat="42.97822" lon="1.79605">
        <ele>371.2</ele>
        <time>2023-03-25T17:47:15.000Z</time>
      </trkpt>
      <trkpt lat="42.9782" lon="1.79611">
        <ele>371.5</ele>
        <time>2023-03-25T17:47:16.000Z</time>
      </trkpt>
      <trkpt lat="42.97815" lon="1.79621">
        <ele>371.9</ele>
        <time>2023-03-25T17:47:18.000Z</time>
      </trkpt>
      <trkpt lat="42.97811" lon="1.79631">
        <ele>372.3</ele>
        <time>2023-03-25T17:47:20.000Z</time>
      </trkpt>
      <trkpt lat="42.97807" lon="1.79641">
        <ele>372.6</ele>
        <time>2023-03-25T17:47:22.000Z</time>
      </trkpt>
      <trkpt lat="42.97802" lon="1.79651">
        <ele>373</ele>
        <time>2023-03-25T17:47:24.000Z</time>
      </trkpt>
      <trkpt lat="42.97798" lon="1.79661">
        <ele>373.2</ele>
        <time>2023-03-25T17:47:26.000Z</time>
      </trkpt>
      <trkpt lat="42.97793" lon="1.79671">
        <ele>373.5</ele>
        <time>2023-03-25T17:47:28.000Z</time>
      </trkpt>
      <trkpt lat="42.97789" lon="1.79681">
        <ele>373.7</ele>
        <time>2023-03-25T17:47:30.000Z</time>
      </trkpt>
      <trkpt lat="42.97784" lon="1.79691">
        <ele>373.9</ele>
        <time>2023-03-25T17:47:32.000Z</time>
      </trkpt>
      <trkpt lat="42.9778" lon="1.797">
        <ele>374.1</ele>
        <time>2023-03-25T17:47:34.000Z</time>
      </trkpt>
      <trkpt lat="42.97775" lon="1.7971">
        <ele>374.2</ele>
        <time>2023-03-25T17:47:36.000Z</time>
      </trkpt>
      <trkpt lat="42.97771" lon="1.7972">
        <ele>374.4</ele>
        <time>2023-03-25T17:47:38.000Z</time>
      </trkpt>
      <trkpt lat="42.97766" lon="1.79731">
        <ele>374.6</ele>
        <time>2023-03-25T17:47:40.000Z</time>
      </trkpt>
      <trkpt lat="42.97762" lon="1.79741">
        <ele>374.7</ele>
        <time>2023-03-25T17:47:42.000Z</time>
      </trkpt>
      <trkpt lat="42.97758" lon="1.79751">
        <ele>374.8</ele>
        <time>2023-03-25T17:47:44.000Z</time>
      </trkpt>
      <trkpt lat="42.97753" lon="1.79761">
        <ele>374.9</ele>
        <time>2023-03-25T17:47:46.000Z</time>
      </trkpt>
      <trkpt lat="42.97748" lon="1.79771">
        <ele>375.1</ele>
        <time>2023-03-25T17:47:48.000Z</time>
      </trkpt>
      <trkpt lat="42.97746" lon="1.79777">
        <ele>375.2</ele>
        <time>2023-03-25T17:47:49.000Z</time>
      </trkpt>
      <trkpt lat="42.97743" lon="1.79782">
        <ele>375.2</ele>
        <time>2023-03-25T17:47:50.000Z</time>
      </trkpt>
      <trkpt lat="42.97739" lon="1.79792">
        <ele>375.4</ele>
        <time>2023-03-25T17:47:52.000Z</time>
      </trkpt>
      <trkpt lat="42.97736" lon="1.79798">
        <ele>375.5</ele>
        <time>2023-03-25T17:47:53.000Z</time>
      </trkpt>
      <trkpt lat="42.97734" lon="1.79803">
        <ele>375.6</ele>
        <time>2023-03-25T17:47:54.000Z</time>
      </trkpt>
      <trkpt lat="42.97729" lon="1.79814">
        <ele>375.8</ele>
        <time>2023-03-25T17:47:56.000Z</time>
      </trkpt>
      <trkpt lat="42.97727" lon="1.79819">
        <ele>375.8</ele>
        <time>2023-03-25T17:47:57.000Z</time>
      </trkpt>
      <trkpt lat="42.97724" lon="1.79824">
        <ele>375.9</ele>
        <time>2023-03-25T17:47:58.000Z</time>
      </trkpt>
      <trkpt lat="42.97722" lon="1.79829">
        <ele>376</ele>
        <time>2023-03-25T17:47:59.000Z</time>
      </trkpt>
      <trkpt lat="42.97719" lon="1.79835">
        <ele>376.1</ele>
        <time>2023-03-25T17:48:00.000Z</time>
      </trkpt>
      <trkpt lat="42.97717" lon="1.7984">
        <ele>376.2</ele>
        <time>2023-03-25T17:48:01.000Z</time>
      </trkpt>
      <trkpt lat="42.97714" lon="1.79846">
        <ele>376.3</ele>
        <time>2023-03-25T17:48:02.000Z</time>
      </trkpt>
      <trkpt lat="42.97712" lon="1.79851">
        <ele>376.5</ele>
        <time>2023-03-25T17:48:03.000Z</time>
      </trkpt>
      <trkpt lat="42.97709" lon="1.79857">
        <ele>376.6</ele>
        <time>2023-03-25T17:48:04.000Z</time>
      </trkpt>
      <trkpt lat="42.97706" lon="1.79863">
        <ele>376.8</ele>
        <time>2023-03-25T17:48:05.000Z</time>
      </trkpt>
      <trkpt lat="42.97704" lon="1.79869">
        <ele>376.9</ele>
        <time>2023-03-25T17:48:06.000Z</time>
      </trkpt>
      <trkpt lat="42.97701" lon="1.79874">
        <ele>377</ele>
        <time>2023-03-25T17:48:07.000Z</time>
      </trkpt>
      <trkpt lat="42.97699" lon="1.7988">
        <ele>377.2</ele>
        <time>2023-03-25T17:48:08.000Z</time>
      </trkpt>
      <trkpt lat="42.97696" lon="1.79886">
        <ele>377.4</ele>
        <time>2023-03-25T17:48:09.000Z</time>
      </trkpt>
      <trkpt lat="42.97693" lon="1.79892">
        <ele>377.5</ele>
        <time>2023-03-25T17:48:10.000Z</time>
      </trkpt>
      <trkpt lat="42.97691" lon="1.79898">
        <ele>377.7</ele>
        <time>2023-03-25T17:48:11.000Z</time>
      </trkpt>
      <trkpt lat="42.97688" lon="1.79904">
        <ele>377.9</ele>
        <time>2023-03-25T17:48:12.000Z</time>
      </trkpt>
      <trkpt lat="42.97685" lon="1.7991">
        <ele>378</ele>
        <time>2023-03-25T17:48:13.000Z</time>
      </trkpt>
      <trkpt lat="42.97683" lon="1.79917">
        <ele>378.2</ele>
        <time>2023-03-25T17:48:14.000Z</time>
      </trkpt>
      <trkpt lat="42.97681" lon="1.79923">
        <ele>378.2</ele>
        <time>2023-03-25T17:48:15.000Z</time>
      </trkpt>
      <trkpt lat="42.97679" lon="1.79929">
        <ele>378.2</ele>
        <time>2023-03-25T17:48:16.000Z</time>
      </trkpt>
      <trkpt lat="42.97677" lon="1.79936">
        <ele>378.1</ele>
        <time>2023-03-25T17:48:17.000Z</time>
      </trkpt>
      <trkpt lat="42.97676" lon="1.79943">
        <ele>378</ele>
        <time>2023-03-25T17:48:18.000Z</time>
      </trkpt>
      <trkpt lat="42.97674" lon="1.79949">
        <ele>377.9</ele>
        <time>2023-03-25T17:48:19.000Z</time>
      </trkpt>
      <trkpt lat="42.97673" lon="1.79956">
        <ele>377.8</ele>
        <time>2023-03-25T17:48:20.000Z</time>
      </trkpt>
      <trkpt lat="42.97672" lon="1.79963">
        <ele>377.7</ele>
        <time>2023-03-25T17:48:21.000Z</time>
      </trkpt>
      <trkpt lat="42.97672" lon="1.7997">
        <ele>377.6</ele>
        <time>2023-03-25T17:48:22.000Z</time>
      </trkpt>
      <trkpt lat="42.97671" lon="1.79977">
        <ele>377.4</ele>
        <time>2023-03-25T17:48:23.000Z</time>
      </trkpt>
      <trkpt lat="42.9767" lon="1.79983">
        <ele>377.3</ele>
        <time>2023-03-25T17:48:24.000Z</time>
      </trkpt>
      <trkpt lat="42.9767" lon="1.7999">
        <ele>377.2</ele>
        <time>2023-03-25T17:48:25.000Z</time>
      </trkpt>
      <trkpt lat="42.97669" lon="1.79997">
        <ele>377</ele>
        <time>2023-03-25T17:48:26.000Z</time>
      </trkpt>
      <trkpt lat="42.97669" lon="1.80004">
        <ele>377</ele>
        <time>2023-03-25T17:48:27.000Z</time>
      </trkpt>
      <trkpt lat="42.97668" lon="1.80011">
        <ele>377.1</ele>
        <time>2023-03-25T17:48:28.000Z</time>
      </trkpt>
      <trkpt lat="42.97668" lon="1.80017">
        <ele>377.2</ele>
        <time>2023-03-25T17:48:29.000Z</time>
      </trkpt>
      <trkpt lat="42.97668" lon="1.80024">
        <ele>377.3</ele>
        <time>2023-03-25T17:48:30.000Z</time>
      </trkpt>
      <trkpt lat="42.97667" lon="1.80031">
        <ele>377.4</ele>
        <time>2023-03-25T17:48:31.000Z</time>
      </trkpt>
      <trkpt lat="42.97667" lon="1.80037">
        <ele>377.4</ele>
        <time>2023-03-25T17:48:32.000Z</time>
      </trkpt>
      <trkpt lat="42.97666" lon="1.80044">
        <ele>377.5</ele>
        <time>2023-03-25T17:48:33.000Z</time>
      </trkpt>
      <trkpt lat="42.97666" lon="1.8005">
        <ele>377.7</ele>
        <time>2023-03-25T17:48:34.000Z</time>
      </trkpt>
      <trkpt lat="42.97665" lon="1.80056">
        <ele>377.8</ele>
        <time>2023-03-25T17:48:35.000Z</time>
      </trkpt>
      <trkpt lat="42.97665" lon="1.80063">
        <ele>377.9</ele>
        <time>2023-03-25T17:48:36.000Z</time>
      </trkpt>
      <trkpt lat="42.97665" lon="1.80069">
        <ele>377.9</ele>
        <time>2023-03-25T17:48:37.000Z</time>
      </trkpt>
      <trkpt lat="42.97664" lon="1.80076">
        <ele>378</ele>
        <time>2023-03-25T17:48:38.000Z</time>
      </trkpt>
      <trkpt lat="42.97664" lon="1.80082">
        <ele>378.1</ele>
        <time>2023-03-25T17:48:39.000Z</time>
      </trkpt>
      <trkpt lat="42.97663" lon="1.80094">
        <ele>378.6</ele>
        <time>2023-03-25T17:48:41.000Z</time>
      </trkpt>
      <trkpt lat="42.97663" lon="1.801">
        <ele>378.8</ele>
        <time>2023-03-25T17:48:42.000Z</time>
      </trkpt>
      <trkpt lat="42.97662" lon="1.80112">
        <ele>379.3</ele>
        <time>2023-03-25T17:48:44.000Z</time>
      </trkpt>
      <trkpt lat="42.97661" lon="1.80125">
        <ele>379.8</ele>
        <time>2023-03-25T17:48:46.000Z</time>
      </trkpt>
      <trkpt lat="42.9766" lon="1.80131">
        <ele>380.1</ele>
        <time>2023-03-25T17:48:47.000Z</time>
      </trkpt>
      <trkpt lat="42.9766" lon="1.80137">
        <ele>380.3</ele>
        <time>2023-03-25T17:48:48.000Z</time>
      </trkpt>
      <trkpt lat="42.9766" lon="1.80144">
        <ele>380.6</ele>
        <time>2023-03-25T17:48:49.000Z</time>
      </trkpt>
      <trkpt lat="42.97659" lon="1.80151">
        <ele>380.9</ele>
        <time>2023-03-25T17:48:50.000Z</time>
      </trkpt>
      <trkpt lat="42.97658" lon="1.80157">
        <ele>381.1</ele>
        <time>2023-03-25T17:48:51.000Z</time>
      </trkpt>
      <trkpt lat="42.97658" lon="1.80163">
        <ele>381.4</ele>
        <time>2023-03-25T17:48:52.000Z</time>
      </trkpt>
      <trkpt lat="42.97658" lon="1.80169">
        <ele>381.6</ele>
        <time>2023-03-25T17:48:53.000Z</time>
      </trkpt>
      <trkpt lat="42.97657" lon="1.80176">
        <ele>381.6</ele>
        <time>2023-03-25T17:48:54.000Z</time>
      </trkpt>
      <trkpt lat="42.97656" lon="1.80188">
        <ele>381.7</ele>
        <time>2023-03-25T17:48:56.000Z</time>
      </trkpt>
      <trkpt lat="42.97656" lon="1.80194">
        <ele>381.7</ele>
        <time>2023-03-25T17:48:57.000Z</time>
      </trkpt>
      <trkpt lat="42.97655" lon="1.80201">
        <ele>381.7</ele>
        <time>2023-03-25T17:48:58.000Z</time>
      </trkpt>
      <trkpt lat="42.97655" lon="1.80207">
        <ele>381.8</ele>
        <time>2023-03-25T17:48:59.000Z</time>
      </trkpt>
      <trkpt lat="42.97655" lon="1.80214">
        <ele>381.8</ele>
        <time>2023-03-25T17:49:00.000Z</time>
      </trkpt>
      <trkpt lat="42.97654" lon="1.8022">
        <ele>381.9</ele>
        <time>2023-03-25T17:49:01.000Z</time>
      </trkpt>
      <trkpt lat="42.97654" lon="1.80227">
        <ele>381.9</ele>
        <time>2023-03-25T17:49:02.000Z</time>
      </trkpt>
      <trkpt lat="42.97654" lon="1.80233">
        <ele>381.9</ele>
        <time>2023-03-25T17:49:03.000Z</time>
      </trkpt>
      <trkpt lat="42.97653" lon="1.8024">
        <ele>381.9</ele>
        <time>2023-03-25T17:49:04.000Z</time>
      </trkpt>
      <trkpt lat="42.97653" lon="1.80247">
        <ele>382</ele>
        <time>2023-03-25T17:49:05.000Z</time>
      </trkpt>
      <trkpt lat="42.97652" lon="1.80254">
        <ele>382</ele>
        <time>2023-03-25T17:49:06.000Z</time>
      </trkpt>
      <trkpt lat="42.97652" lon="1.8026">
        <ele>382</ele>
        <time>2023-03-25T17:49:07.000Z</time>
      </trkpt>
      <trkpt lat="42.97652" lon="1.80267">
        <ele>382</ele>
        <time>2023-03-25T17:49:08.000Z</time>
      </trkpt>
      <trkpt lat="42.97652" lon="1.80274">
        <ele>382</ele>
        <time>2023-03-25T17:49:09.000Z</time>
      </trkpt>
      <trkpt lat="42.97651" lon="1.80281">
        <ele>382</ele>
        <time>2023-03-25T17:49:10.000Z</time>
      </trkpt>
      <trkpt lat="42.97651" lon="1.80288">
        <ele>382</ele>
        <time>2023-03-25T17:49:11.000Z</time>
      </trkpt>
      <trkpt lat="42.97651" lon="1.80295">
        <ele>381.9</ele>
        <time>2023-03-25T17:49:12.000Z</time>
      </trkpt>
      <trkpt lat="42.9765" lon="1.80302">
        <ele>381.9</ele>
        <time>2023-03-25T17:49:13.000Z</time>
      </trkpt>
      <trkpt lat="42.9765" lon="1.80309">
        <ele>381.9</ele>
        <time>2023-03-25T17:49:14.000Z</time>
      </trkpt>
      <trkpt lat="42.9765" lon="1.80317">
        <ele>381.9</ele>
        <time>2023-03-25T17:49:15.000Z</time>
      </trkpt>
      <trkpt lat="42.97649" lon="1.80325">
        <ele>381.9</ele>
        <time>2023-03-25T17:49:16.000Z</time>
      </trkpt>
      <trkpt lat="42.97649" lon="1.80332">
        <ele>381.9</ele>
        <time>2023-03-25T17:49:17.000Z</time>
      </trkpt>
      <trkpt lat="42.97648" lon="1.80339">
        <ele>382.1</ele>
        <time>2023-03-25T17:49:18.000Z</time>
      </trkpt>
      <trkpt lat="42.97648" lon="1.80347">
        <ele>382.3</ele>
        <time>2023-03-25T17:49:19.000Z</time>
      </trkpt>
      <trkpt lat="42.97647" lon="1.80354">
        <ele>382.6</ele>
        <time>2023-03-25T17:49:20.000Z</time>
      </trkpt>
      <trkpt lat="42.97647" lon="1.80361">
        <ele>382.8</ele>
        <time>2023-03-25T17:49:21.000Z</time>
      </trkpt>
      <trkpt lat="42.97646" lon="1.80369">
        <ele>383</ele>
        <time>2023-03-25T17:49:22.000Z</time>
      </trkpt>
      <trkpt lat="42.97646" lon="1.80376">
        <ele>383.3</ele>
        <time>2023-03-25T17:49:23.000Z</time>
      </trkpt>
      <trkpt lat="42.97645" lon="1.80383">
        <ele>383.5</ele>
        <time>2023-03-25T17:49:24.000Z</time>
      </trkpt>
      <trkpt lat="42.97645" lon="1.80391">
        <ele>383.8</ele>
        <time>2023-03-25T17:49:25.000Z</time>
      </trkpt>
      <trkpt lat="42.97644" lon="1.80398">
        <ele>384</ele>
        <time>2023-03-25T17:49:26.000Z</time>
      </trkpt>
      <trkpt lat="42.97644" lon="1.80406">
        <ele>384.2</ele>
        <time>2023-03-25T17:49:27.000Z</time>
      </trkpt>
      <trkpt lat="42.97643" lon="1.80413">
        <ele>384.4</ele>
        <time>2023-03-25T17:49:28.000Z</time>
      </trkpt>
      <trkpt lat="42.97643" lon="1.80421">
        <ele>384.6</ele>
        <time>2023-03-25T17:49:29.000Z</time>
      </trkpt>
      <trkpt lat="42.97642" lon="1.80428">
        <ele>384.8</ele>
        <time>2023-03-25T17:49:30.000Z</time>
      </trkpt>
      <trkpt lat="42.97642" lon="1.80435">
        <ele>384.9</ele>
        <time>2023-03-25T17:49:31.000Z</time>
      </trkpt>
      <trkpt lat="42.97641" lon="1.80442">
        <ele>385</ele>
        <time>2023-03-25T17:49:32.000Z</time>
      </trkpt>
      <trkpt lat="42.97641" lon="1.80449">
        <ele>385.2</ele>
        <time>2023-03-25T17:49:33.000Z</time>
      </trkpt>
      <trkpt lat="42.97641" lon="1.80456">
        <ele>385.3</ele>
        <time>2023-03-25T17:49:34.000Z</time>
      </trkpt>
      <trkpt lat="42.9764" lon="1.80463">
        <ele>385.4</ele>
        <time>2023-03-25T17:49:35.000Z</time>
      </trkpt>
      <trkpt lat="42.97639" lon="1.8047">
        <ele>385.5</ele>
        <time>2023-03-25T17:49:36.000Z</time>
      </trkpt>
      <trkpt lat="42.97639" lon="1.80476">
        <ele>385.6</ele>
        <time>2023-03-25T17:49:37.000Z</time>
      </trkpt>
      <trkpt lat="42.97638" lon="1.80483">
        <ele>385.7</ele>
        <time>2023-03-25T17:49:38.000Z</time>
      </trkpt>
      <trkpt lat="42.97638" lon="1.80489">
        <ele>385.8</ele>
        <time>2023-03-25T17:49:39.000Z</time>
      </trkpt>
      <trkpt lat="42.97637" lon="1.80496">
        <ele>385.9</ele>
        <time>2023-03-25T17:49:40.000Z</time>
      </trkpt>
      <trkpt lat="42.97637" lon="1.80502">
        <ele>386</ele>
        <time>2023-03-25T17:49:41.000Z</time>
      </trkpt>
      <trkpt lat="42.97637" lon="1.80509">
        <ele>386</ele>
        <time>2023-03-25T17:49:42.000Z</time>
      </trkpt>
      <trkpt lat="42.97636" lon="1.80515">
        <ele>386.1</ele>
        <time>2023-03-25T17:49:43.000Z</time>
      </trkpt>
      <trkpt lat="42.97636" lon="1.80521">
        <ele>386.1</ele>
        <time>2023-03-25T17:49:44.000Z</time>
      </trkpt>
      <trkpt lat="42.97635" lon="1.80534">
        <ele>386.2</ele>
        <time>2023-03-25T17:49:46.000Z</time>
      </trkpt>
      <trkpt lat="42.97635" lon="1.8054">
        <ele>386.2</ele>
        <time>2023-03-25T17:49:47.000Z</time>
      </trkpt>
      <trkpt lat="42.97634" lon="1.80546">
        <ele>386.2</ele>
        <time>2023-03-25T17:49:48.000Z</time>
      </trkpt>
      <trkpt lat="42.97634" lon="1.80553">
        <ele>386.2</ele>
        <time>2023-03-25T17:49:49.000Z</time>
      </trkpt>
      <trkpt lat="42.97633" lon="1.80559">
        <ele>386.3</ele>
        <time>2023-03-25T17:49:50.000Z</time>
      </trkpt>
      <trkpt lat="42.97633" lon="1.80566">
        <ele>386.3</ele>
        <time>2023-03-25T17:49:51.000Z</time>
      </trkpt>
      <trkpt lat="42.97632" lon="1.80572">
        <ele>386.4</ele>
        <time>2023-03-25T17:49:52.000Z</time>
      </trkpt>
      <trkpt lat="42.97632" lon="1.80579">
        <ele>386.4</ele>
        <time>2023-03-25T17:49:53.000Z</time>
      </trkpt>
      <trkpt lat="42.97632" lon="1.80585">
        <ele>386.4</ele>
        <time>2023-03-25T17:49:54.000Z</time>
      </trkpt>
      <trkpt lat="42.97631" lon="1.80591">
        <ele>386.6</ele>
        <time>2023-03-25T17:49:55.000Z</time>
      </trkpt>
      <trkpt lat="42.97631" lon="1.80598">
        <ele>386.7</ele>
        <time>2023-03-25T17:49:56.000Z</time>
      </trkpt>
      <trkpt lat="42.97631" lon="1.80604">
        <ele>386.8</ele>
        <time>2023-03-25T17:49:57.000Z</time>
      </trkpt>
      <trkpt lat="42.9763" lon="1.8061">
        <ele>386.9</ele>
        <time>2023-03-25T17:49:58.000Z</time>
      </trkpt>
      <trkpt lat="42.9763" lon="1.80617">
        <ele>387</ele>
        <time>2023-03-25T17:49:59.000Z</time>
      </trkpt>
      <trkpt lat="42.9763" lon="1.80623">
        <ele>387.1</ele>
        <time>2023-03-25T17:50:00.000Z</time>
      </trkpt>
      <trkpt lat="42.97629" lon="1.80629">
        <ele>387.2</ele>
        <time>2023-03-25T17:50:01.000Z</time>
      </trkpt>
      <trkpt lat="42.97629" lon="1.80635">
        <ele>387.4</ele>
        <time>2023-03-25T17:50:02.000Z</time>
      </trkpt>
      <trkpt lat="42.97628" lon="1.80642">
        <ele>387.5</ele>
        <time>2023-03-25T17:50:03.000Z</time>
      </trkpt>
      <trkpt lat="42.97628" lon="1.80648">
        <ele>387.6</ele>
        <time>2023-03-25T17:50:04.000Z</time>
      </trkpt>
      <trkpt lat="42.97628" lon="1.80654">
        <ele>387.7</ele>
        <time>2023-03-25T17:50:05.000Z</time>
      </trkpt>
      <trkpt lat="42.97627" lon="1.80661">
        <ele>387.8</ele>
        <time>2023-03-25T17:50:06.000Z</time>
      </trkpt>
      <trkpt lat="42.97627" lon="1.80667">
        <ele>388</ele>
        <time>2023-03-25T17:50:07.000Z</time>
      </trkpt>
      <trkpt lat="42.97626" lon="1.80673">
        <ele>388.1</ele>
        <time>2023-03-25T17:50:08.000Z</time>
      </trkpt>
      <trkpt lat="42.97626" lon="1.8068">
        <ele>388.2</ele>
        <time>2023-03-25T17:50:09.000Z</time>
      </trkpt>
      <trkpt lat="42.97626" lon="1.80686">
        <ele>388.3</ele>
        <time>2023-03-25T17:50:10.000Z</time>
      </trkpt>
      <trkpt lat="42.97625" lon="1.80693">
        <ele>388.5</ele>
        <time>2023-03-25T17:50:11.000Z</time>
      </trkpt>
      <trkpt lat="42.97625" lon="1.80699">
        <ele>388.6</ele>
        <time>2023-03-25T17:50:12.000Z</time>
      </trkpt>
      <trkpt lat="42.97625" lon="1.80706">
        <ele>388.7</ele>
        <time>2023-03-25T17:50:13.000Z</time>
      </trkpt>
      <trkpt lat="42.97624" lon="1.80712">
        <ele>388.8</ele>
        <time>2023-03-25T17:50:14.000Z</time>
      </trkpt>
      <trkpt lat="42.97624" lon="1.80719">
        <ele>389</ele>
        <time>2023-03-25T17:50:15.000Z</time>
      </trkpt>
      <trkpt lat="42.97624" lon="1.80725">
        <ele>389.1</ele>
        <time>2023-03-25T17:50:16.000Z</time>
      </trkpt>
      <trkpt lat="42.97623" lon="1.80732">
        <ele>389.2</ele>
        <time>2023-03-25T17:50:17.000Z</time>
      </trkpt>
      <trkpt lat="42.97623" lon="1.80738">
        <ele>389.3</ele>
        <time>2023-03-25T17:50:18.000Z</time>
      </trkpt>
      <trkpt lat="42.97623" lon="1.80744">
        <ele>389.4</ele>
        <time>2023-03-25T17:50:19.000Z</time>
      </trkpt>
      <trkpt lat="42.97622" lon="1.8075">
        <ele>389.5</ele>
        <time>2023-03-25T17:50:20.000Z</time>
      </trkpt>
      <trkpt lat="42.97622" lon="1.80757">
        <ele>389.7</ele>
        <time>2023-03-25T17:50:21.000Z</time>
      </trkpt>
      <trkpt lat="42.97621" lon="1.80763">
        <ele>389.9</ele>
        <time>2023-03-25T17:50:22.000Z</time>
      </trkpt>
      <trkpt lat="42.97621" lon="1.80769">
        <ele>390</ele>
        <time>2023-03-25T17:50:23.000Z</time>
      </trkpt>
      <trkpt lat="42.9762" lon="1.80781">
        <ele>390.3</ele>
        <time>2023-03-25T17:50:25.000Z</time>
      </trkpt>
      <trkpt lat="42.9762" lon="1.80793">
        <ele>390.6</ele>
        <time>2023-03-25T17:50:27.000Z</time>
      </trkpt>
      <trkpt lat="42.97619" lon="1.80806">
        <ele>390.9</ele>
        <time>2023-03-25T17:50:29.000Z</time>
      </trkpt>
      <trkpt lat="42.97619" lon="1.80818">
        <ele>391.2</ele>
        <time>2023-03-25T17:50:31.000Z</time>
      </trkpt>
      <trkpt lat="42.97619" lon="1.80829">
        <ele>391.4</ele>
        <time>2023-03-25T17:50:33.000Z</time>
      </trkpt>
      <trkpt lat="42.97617" lon="1.8084">
        <ele>391.7</ele>
        <time>2023-03-25T17:50:35.000Z</time>
      </trkpt>
      <trkpt lat="42.97616" lon="1.80851">
        <ele>391.9</ele>
        <time>2023-03-25T17:50:37.000Z</time>
      </trkpt>
      <trkpt lat="42.97615" lon="1.80862">
        <ele>392.1</ele>
        <time>2023-03-25T17:50:39.000Z</time>
      </trkpt>
      <trkpt lat="42.97615" lon="1.80871">
        <ele>392.2</ele>
        <time>2023-03-25T17:50:41.000Z</time>
      </trkpt>
      <trkpt lat="42.97614" lon="1.80881">
        <ele>392.4</ele>
        <time>2023-03-25T17:50:43.000Z</time>
      </trkpt>
      <trkpt lat="42.97613" lon="1.8089">
        <ele>392.6</ele>
        <time>2023-03-25T17:50:45.000Z</time>
      </trkpt>
      <trkpt lat="42.97614" lon="1.80899">
        <ele>392.7</ele>
        <time>2023-03-25T17:50:47.000Z</time>
      </trkpt>
      <trkpt lat="42.97614" lon="1.80907">
        <ele>392.8</ele>
        <time>2023-03-25T17:50:49.000Z</time>
      </trkpt>
      <trkpt lat="42.97613" lon="1.80915">
        <ele>393</ele>
        <time>2023-03-25T17:50:51.000Z</time>
      </trkpt>
      <trkpt lat="42.97612" lon="1.80923">
        <ele>393</ele>
        <time>2023-03-25T17:50:53.000Z</time>
      </trkpt>
      <trkpt lat="42.97611" lon="1.8093">
        <ele>393.1</ele>
        <time>2023-03-25T17:50:55.000Z</time>
      </trkpt>
      <trkpt lat="42.9761" lon="1.80937">
        <ele>393.1</ele>
        <time>2023-03-25T17:50:57.000Z</time>
      </trkpt>
      <trkpt lat="42.97609" lon="1.80943">
        <ele>393.2</ele>
        <time>2023-03-25T17:50:59.000Z</time>
      </trkpt>
      <trkpt lat="42.97607" lon="1.80952">
        <ele>393.2</ele>
        <time>2023-03-25T17:51:01.000Z</time>
      </trkpt>
      <trkpt lat="42.97606" lon="1.80961">
        <ele>393.2</ele>
        <time>2023-03-25T17:51:03.000Z</time>
      </trkpt>
      <trkpt lat="42.97604" lon="1.8097">
        <ele>393.2</ele>
        <time>2023-03-25T17:51:05.000Z</time>
      </trkpt>
      <trkpt lat="42.97602" lon="1.80978">
        <ele>393.1</ele>
        <time>2023-03-25T17:51:07.000Z</time>
      </trkpt>
      <trkpt lat="42.97601" lon="1.80986">
        <ele>393</ele>
        <time>2023-03-25T17:51:09.000Z</time>
      </trkpt>
      <trkpt lat="42.97599" lon="1.80994">
        <ele>393</ele>
        <time>2023-03-25T17:51:11.000Z</time>
      </trkpt>
      <trkpt lat="42.97597" lon="1.81">
        <ele>392.8</ele>
        <time>2023-03-25T17:51:13.000Z</time>
      </trkpt>
      <trkpt lat="42.97597" lon="1.81008">
        <ele>393.1</ele>
        <time>2023-03-25T17:51:15.000Z</time>
      </trkpt>
      <trkpt lat="42.97596" lon="1.81014">
        <ele>393.4</ele>
        <time>2023-03-25T17:51:17.000Z</time>
      </trkpt>
      <trkpt lat="42.97594" lon="1.81021">
        <ele>393.4</ele>
        <time>2023-03-25T17:51:19.000Z</time>
      </trkpt>
      <trkpt lat="42.97591" lon="1.81026">
        <ele>393.4</ele>
        <time>2023-03-25T17:51:21.000Z</time>
      </trkpt>
      <trkpt lat="42.97585" lon="1.81029">
        <ele>393.1</ele>
        <time>2023-03-25T17:51:24.000Z</time>
      </trkpt>
      <trkpt lat="42.9758" lon="1.81034">
        <ele>393.6</ele>
        <time>2023-03-25T17:51:27.000Z</time>
      </trkpt>
      <trkpt lat="42.97577" lon="1.8104">
        <ele>394</ele>
        <time>2023-03-25T17:51:30.000Z</time>
      </trkpt>
      <trkpt lat="42.97574" lon="1.81046">
        <ele>394.6</ele>
        <time>2023-03-25T17:51:34.000Z</time>
      </trkpt>
      <trkpt lat="42.97569" lon="1.8105">
        <ele>395.2</ele>
        <time>2023-03-25T17:51:38.000Z</time>
      </trkpt>
      <trkpt lat="42.97565" lon="1.81054">
        <ele>395.7</ele>
        <time>2023-03-25T17:51:42.000Z</time>
      </trkpt>
      <trkpt lat="42.97561" lon="1.81057">
        <ele>396.1</ele>
        <time>2023-03-25T17:51:45.000Z</time>
      </trkpt>
      <trkpt lat="42.97556" lon="1.81062">
        <ele>396.6</ele>
        <time>2023-03-25T17:51:49.000Z</time>
      </trkpt>
      <trkpt lat="42.97552" lon="1.81066">
        <ele>397</ele>
        <time>2023-03-25T17:51:54.000Z</time>
      </trkpt>
      <trkpt lat="42.97548" lon="1.8107">
        <ele>397.4</ele>
        <time>2023-03-25T17:51:58.000Z</time>
      </trkpt>
      <trkpt lat="42.97543" lon="1.81074">
        <ele>397.8</ele>
        <time>2023-03-25T17:52:02.000Z</time>
      </trkpt>
      <trkpt lat="42.9754" lon="1.81079">
        <ele>398.1</ele>
        <time>2023-03-25T17:52:07.000Z</time>
      </trkpt>
      <trkpt lat="42.97537" lon="1.81084">
        <ele>398.4</ele>
        <time>2023-03-25T17:52:12.000Z</time>
      </trkpt>
      <trkpt lat="42.97535" lon="1.81091">
        <ele>398.5</ele>
        <time>2023-03-25T17:52:17.000Z</time>
      </trkpt>
      <trkpt lat="42.97533" lon="1.81098">
        <ele>398.7</ele>
        <time>2023-03-25T17:52:21.000Z</time>
      </trkpt>
      <trkpt lat="42.9753" lon="1.81103">
        <ele>398.9</ele>
        <time>2023-03-25T17:52:25.000Z</time>
      </trkpt>
      <trkpt lat="42.97529" lon="1.8111">
        <ele>398.9</ele>
        <time>2023-03-25T17:52:30.000Z</time>
      </trkpt>
      <trkpt lat="42.97528" lon="1.81116">
        <ele>399</ele>
        <time>2023-03-25T17:52:35.000Z</time>
      </trkpt>
      <trkpt lat="42.97526" lon="1.81122">
        <ele>399.1</ele>
        <time>2023-03-25T17:53:04.000Z</time>
      </trkpt>
      <trkpt lat="42.97524" lon="1.81128">
        <ele>399.1</ele>
        <time>2023-03-25T17:53:14.000Z</time>
      </trkpt>
      <trkpt lat="42.97522" lon="1.81134">
        <ele>399.2</ele>
        <time>2023-03-25T17:53:21.000Z</time>
      </trkpt>
      <trkpt lat="42.97519" lon="1.81139">
        <ele>399.2</ele>
        <time>2023-03-25T17:53:32.000Z</time>
      </trkpt>
      <trkpt lat="42.97493" lon="1.81183">
        <ele>401.3</ele>
        <time>2023-03-25T17:55:43.000Z</time>
      </trkpt>
      <trkpt lat="42.9749" lon="1.8119">
        <ele>402.3</ele>
        <time>2023-03-25T17:55:48.000Z</time>
      </trkpt>
      <trkpt lat="42.97488" lon="1.81196">
        <ele>403.1</ele>
        <time>2023-03-25T17:55:53.000Z</time>
      </trkpt>
      <trkpt lat="42.97485" lon="1.81203">
        <ele>403.9</ele>
        <time>2023-03-25T17:55:57.000Z</time>
      </trkpt>
      <trkpt lat="42.97482" lon="1.81209">
        <ele>404.8</ele>
        <time>2023-03-25T17:56:01.000Z</time>
      </trkpt>
      <trkpt lat="42.97479" lon="1.81215">
        <ele>405.6</ele>
        <time>2023-03-25T17:56:05.000Z</time>
      </trkpt>
      <trkpt lat="42.97477" lon="1.81221">
        <ele>406.1</ele>
        <time>2023-03-25T17:56:08.000Z</time>
      </trkpt>
      <trkpt lat="42.97475" lon="1.81228">
        <ele>406.6</ele>
        <time>2023-03-25T17:56:12.000Z</time>
      </trkpt>
      <trkpt lat="42.97472" lon="1.81234">
        <ele>407.3</ele>
        <time>2023-03-25T17:56:16.000Z</time>
      </trkpt>
      <trkpt lat="42.97471" lon="1.8124">
        <ele>407.7</ele>
        <time>2023-03-25T17:56:19.000Z</time>
      </trkpt>
      <trkpt lat="42.97468" lon="1.81247">
        <ele>408.2</ele>
        <time>2023-03-25T17:56:23.000Z</time>
      </trkpt>
      <trkpt lat="42.97465" lon="1.81253">
        <ele>409.1</ele>
        <time>2023-03-25T17:56:27.000Z</time>
      </trkpt>
      <trkpt lat="42.97462" lon="1.8126">
        <ele>409.8</ele>
        <time>2023-03-25T17:56:31.000Z</time>
      </trkpt>
      <trkpt lat="42.9746" lon="1.81266">
        <ele>410.5</ele>
        <time>2023-03-25T17:56:34.000Z</time>
      </trkpt>
      <trkpt lat="42.97457" lon="1.81272">
        <ele>411.3</ele>
        <time>2023-03-25T17:56:38.000Z</time>
      </trkpt>
      <trkpt lat="42.97455" lon="1.81278">
        <ele>411.9</ele>
        <time>2023-03-25T17:56:42.000Z</time>
      </trkpt>
      <trkpt lat="42.97452" lon="1.81284">
        <ele>412.6</ele>
        <time>2023-03-25T17:56:47.000Z</time>
      </trkpt>
      <trkpt lat="42.9745" lon="1.8129">
        <ele>413.1</ele>
        <time>2023-03-25T17:56:51.000Z</time>
      </trkpt>
      <trkpt lat="42.97447" lon="1.81296">
        <ele>413.5</ele>
        <time>2023-03-25T17:56:56.000Z</time>
      </trkpt>
      <trkpt lat="42.97444" lon="1.81302">
        <ele>414.3</ele>
        <time>2023-03-25T17:57:00.000Z</time>
      </trkpt>
      <trkpt lat="42.97441" lon="1.81307">
        <ele>414.9</ele>
        <time>2023-03-25T17:57:04.000Z</time>
      </trkpt>
      <trkpt lat="42.97438" lon="1.81314">
        <ele>415.4</ele>
        <time>2023-03-25T17:57:09.000Z</time>
      </trkpt>
      <trkpt lat="42.97435" lon="1.81319">
        <ele>415.9</ele>
        <time>2023-03-25T17:57:14.000Z</time>
      </trkpt>
      <trkpt lat="42.97432" lon="1.81324">
        <ele>416.4</ele>
        <time>2023-03-25T17:57:20.000Z</time>
      </trkpt>
      <trkpt lat="42.97428" lon="1.8132">
        <ele>417.3</ele>
        <time>2023-03-25T17:57:30.000Z</time>
      </trkpt>
      <trkpt lat="42.97428" lon="1.81312">
        <ele>417.5</ele>
        <time>2023-03-25T17:57:34.000Z</time>
      </trkpt>
      <trkpt lat="42.9743" lon="1.81305">
        <ele>417.3</ele>
        <time>2023-03-25T17:57:37.000Z</time>
      </trkpt>
      <trkpt lat="42.97431" lon="1.81298">
        <ele>417.4</ele>
        <time>2023-03-25T17:57:40.000Z</time>
      </trkpt>
      <trkpt lat="42.97431" lon="1.81292">
        <ele>417.6</ele>
        <time>2023-03-25T17:57:43.000Z</time>
      </trkpt>
      <trkpt lat="42.9743" lon="1.81284">
        <ele>418.1</ele>
        <time>2023-03-25T17:57:47.000Z</time>
      </trkpt>
      <trkpt lat="42.97426" lon="1.81282">
        <ele>419.3</ele>
        <time>2023-03-25T17:57:50.000Z</time>
      </trkpt>
      <trkpt lat="42.97422" lon="1.81285">
        <ele>420</ele>
        <time>2023-03-25T17:57:53.000Z</time>
      </trkpt>
      <trkpt lat="42.97419" lon="1.81292">
        <ele>420.3</ele>
        <time>2023-03-25T17:58:16.000Z</time>
      </trkpt>
      <trkpt lat="42.97417" lon="1.81298">
        <ele>420.8</ele>
        <time>2023-03-25T17:58:22.000Z</time>
      </trkpt>
      <trkpt lat="42.97414" lon="1.81303">
        <ele>421.5</ele>
        <time>2023-03-25T17:58:29.000Z</time>
      </trkpt>
      <trkpt lat="42.9741" lon="1.81308">
        <ele>422.9</ele>
        <time>2023-03-25T17:58:36.000Z</time>
      </trkpt>
      <trkpt lat="42.97407" lon="1.81311">
        <ele>424.2</ele>
        <time>2023-03-25T17:58:42.000Z</time>
      </trkpt>
      <trkpt lat="42.97402" lon="1.81314">
        <ele>425.9</ele>
        <time>2023-03-25T17:58:48.000Z</time>
      </trkpt>
      <trkpt lat="42.97399" lon="1.81318">
        <ele>427.2</ele>
        <time>2023-03-25T17:58:55.000Z</time>
      </trkpt>
      <trkpt lat="42.97395" lon="1.81323">
        <ele>428.3</ele>
        <time>2023-03-25T17:59:02.000Z</time>
      </trkpt>
      <trkpt lat="42.97395" lon="1.81329">
        <ele>428.2</ele>
        <time>2023-03-25T17:59:41.000Z</time>
      </trkpt>
      <trkpt lat="42.97393" lon="1.81336">
        <ele>428.7</ele>
        <time>2023-03-25T18:00:33.000Z</time>
      </trkpt>
      <trkpt lat="42.9739" lon="1.81341">
        <ele>430.1</ele>
        <time>2023-03-25T18:01:03.000Z</time>
      </trkpt>
      <trkpt lat="42.97387" lon="1.81346">
        <ele>431.5</ele>
        <time>2023-03-25T18:01:09.000Z</time>
      </trkpt>
      <trkpt lat="42.97382" lon="1.81352">
        <ele>433.3</ele>
        <time>2023-03-25T18:01:18.000Z</time>
      </trkpt>
      <trkpt lat="42.97378" lon="1.81357">
        <ele>434.8</ele>
        <time>2023-03-25T18:01:23.000Z</time>
      </trkpt>
      <trkpt lat="42.97374" lon="1.8136">
        <ele>436.5</ele>
        <time>2023-03-25T18:01:29.000Z</time>
      </trkpt>
      <trkpt lat="42.9737" lon="1.81365">
        <ele>438</ele>
        <time>2023-03-25T18:01:35.000Z</time>
      </trkpt>
      <trkpt lat="42.97367" lon="1.8137">
        <ele>439</ele>
        <time>2023-03-25T18:01:40.000Z</time>
      </trkpt>
      <trkpt lat="42.97364" lon="1.81375">
        <ele>439.8</ele>
        <time>2023-03-25T18:01:47.000Z</time>
      </trkpt>
      <trkpt lat="42.9736" lon="1.81379">
        <ele>441</ele>
        <time>2023-03-25T18:01:54.000Z</time>
      </trkpt>
      <trkpt lat="42.97357" lon="1.81384">
        <ele>442.2</ele>
        <time>2023-03-25T18:02:01.000Z</time>
      </trkpt>
      <trkpt lat="42.97353" lon="1.81388">
        <ele>443.2</ele>
        <time>2023-03-25T18:02:07.000Z</time>
      </trkpt>
      <trkpt lat="42.9735" lon="1.81393">
        <ele>444.1</ele>
        <time>2023-03-25T18:02:13.000Z</time>
      </trkpt>
      <trkpt lat="42.97347" lon="1.81398">
        <ele>444.9</ele>
        <time>2023-03-25T18:02:20.000Z</time>
      </trkpt>
      <trkpt lat="42.97344" lon="1.81403">
        <ele>445.6</ele>
        <time>2023-03-25T18:02:38.000Z</time>
      </trkpt>
      <trkpt lat="42.97339" lon="1.81406">
        <ele>447</ele>
        <time>2023-03-25T18:02:45.000Z</time>
      </trkpt>
      <trkpt lat="42.97334" lon="1.8141">
        <ele>448.2</ele>
        <time>2023-03-25T18:02:52.000Z</time>
      </trkpt>
      <trkpt lat="42.9733" lon="1.81413">
        <ele>449.9</ele>
        <time>2023-03-25T18:02:59.000Z</time>
      </trkpt>
      <trkpt lat="42.97327" lon="1.81418">
        <ele>450.7</ele>
        <time>2023-03-25T18:03:06.000Z</time>
      </trkpt>
      <trkpt lat="42.97323" lon="1.81421">
        <ele>452.1</ele>
        <time>2023-03-25T18:03:12.000Z</time>
      </trkpt>
      <trkpt lat="42.9732" lon="1.81425">
        <ele>453.3</ele>
        <time>2023-03-25T18:03:19.000Z</time>
      </trkpt>
      <trkpt lat="42.97316" lon="1.8143">
        <ele>454.4</ele>
        <time>2023-03-25T18:03:27.000Z</time>
      </trkpt>
      <trkpt lat="42.97313" lon="1.81435">
        <ele>455.6</ele>
        <time>2023-03-25T18:03:35.000Z</time>
      </trkpt>
      <trkpt lat="42.9731" lon="1.81441">
        <ele>456.4</ele>
        <time>2023-03-25T18:03:42.000Z</time>
      </trkpt>
      <trkpt lat="42.97307" lon="1.81446">
        <ele>457.3</ele>
        <time>2023-03-25T18:03:49.000Z</time>
      </trkpt>
      <trkpt lat="42.97305" lon="1.81452">
        <ele>457.9</ele>
        <time>2023-03-25T18:03:55.000Z</time>
      </trkpt>
      <trkpt lat="42.97302" lon="1.81458">
        <ele>458.7</ele>
        <time>2023-03-25T18:04:01.000Z</time>
      </trkpt>
      <trkpt lat="42.97299" lon="1.81462">
        <ele>460.1</ele>
        <time>2023-03-25T18:04:07.000Z</time>
      </trkpt>
      <trkpt lat="42.97296" lon="1.81468">
        <ele>460.8</ele>
        <time>2023-03-25T18:04:17.000Z</time>
      </trkpt>
      <trkpt lat="42.97292" lon="1.81473">
        <ele>462.3</ele>
        <time>2023-03-25T18:04:20.000Z</time>
      </trkpt>
      <trkpt lat="42.9729" lon="1.81479">
        <ele>463</ele>
        <time>2023-03-25T18:04:23.000Z</time>
      </trkpt>
      <trkpt lat="42.97287" lon="1.81484">
        <ele>464.2</ele>
        <time>2023-03-25T18:04:26.000Z</time>
      </trkpt>
      <trkpt lat="42.97283" lon="1.81489">
        <ele>465.4</ele>
        <time>2023-03-25T18:04:29.000Z</time>
      </trkpt>
      <trkpt lat="42.9728" lon="1.81495">
        <ele>466.3</ele>
        <time>2023-03-25T18:04:32.000Z</time>
      </trkpt>
      <trkpt lat="42.97277" lon="1.81502">
        <ele>467.1</ele>
        <time>2023-03-25T18:04:35.000Z</time>
      </trkpt>
      <trkpt lat="42.97274" lon="1.81506">
        <ele>468.2</ele>
        <time>2023-03-25T18:04:38.000Z</time>
      </trkpt>
      <trkpt lat="42.97271" lon="1.81512">
        <ele>469.1</ele>
        <time>2023-03-25T18:04:42.000Z</time>
      </trkpt>
      <trkpt lat="42.97268" lon="1.81519">
        <ele>469.6</ele>
        <time>2023-03-25T18:04:46.000Z</time>
      </trkpt>
      <trkpt lat="42.97266" lon="1.81525">
        <ele>470.1</ele>
        <time>2023-03-25T18:04:50.000Z</time>
      </trkpt>
      <trkpt lat="42.97264" lon="1.81532">
        <ele>470.5</ele>
        <time>2023-03-25T18:04:54.000Z</time>
      </trkpt>
      <trkpt lat="42.97263" lon="1.81539">
        <ele>470.4</ele>
        <time>2023-03-25T18:04:58.000Z</time>
      </trkpt>
      <trkpt lat="42.97261" lon="1.81546">
        <ele>470.4</ele>
        <time>2023-03-25T18:05:02.000Z</time>
      </trkpt>
      <trkpt lat="42.97259" lon="1.81553">
        <ele>470.4</ele>
        <time>2023-03-25T18:05:06.000Z</time>
      </trkpt>
      <trkpt lat="42.97257" lon="1.8156">
        <ele>470.6</ele>
        <time>2023-03-25T18:05:10.000Z</time>
      </trkpt>
      <trkpt lat="42.97256" lon="1.81567">
        <ele>470.5</ele>
        <time>2023-03-25T18:05:14.000Z</time>
      </trkpt>
      <trkpt lat="42.97252" lon="1.81573">
        <ele>471.2</ele>
        <time>2023-03-25T18:05:18.000Z</time>
      </trkpt>
      <trkpt lat="42.9725" lon="1.81578">
        <ele>471.5</ele>
        <time>2023-03-25T18:05:22.000Z</time>
      </trkpt>
      <trkpt lat="42.97248" lon="1.81584">
        <ele>471.8</ele>
        <time>2023-03-25T18:05:26.000Z</time>
      </trkpt>
      <trkpt lat="42.97245" lon="1.81591">
        <ele>472</ele>
        <time>2023-03-25T18:05:30.000Z</time>
      </trkpt>
      <trkpt lat="42.97244" lon="1.81598">
        <ele>471.8</ele>
        <time>2023-03-25T18:05:34.000Z</time>
      </trkpt>
      <trkpt lat="42.97243" lon="1.81606">
        <ele>471.7</ele>
        <time>2023-03-25T18:05:38.000Z</time>
      </trkpt>
      <trkpt lat="42.97241" lon="1.81613">
        <ele>472</ele>
        <time>2023-03-25T18:05:42.000Z</time>
      </trkpt>
      <trkpt lat="42.97238" lon="1.81619">
        <ele>472.3</ele>
        <time>2023-03-25T18:05:46.000Z</time>
      </trkpt>
      <trkpt lat="42.97236" lon="1.81626">
        <ele>472.7</ele>
        <time>2023-03-25T18:05:50.000Z</time>
      </trkpt>
      <trkpt lat="42.97234" lon="1.81633">
        <ele>473</ele>
        <time>2023-03-25T18:05:54.000Z</time>
      </trkpt>
      <trkpt lat="42.97231" lon="1.81638">
        <ele>473.9</ele>
        <time>2023-03-25T18:05:57.000Z</time>
      </trkpt>
      <trkpt lat="42.97228" lon="1.81645">
        <ele>474.6</ele>
        <time>2023-03-25T18:06:01.000Z</time>
      </trkpt>
      <trkpt lat="42.97225" lon="1.8165">
        <ele>475.3</ele>
        <time>2023-03-25T18:06:04.000Z</time>
      </trkpt>
      <trkpt lat="42.97222" lon="1.81656">
        <ele>476.1</ele>
        <time>2023-03-25T18:06:07.000Z</time>
      </trkpt>
      <trkpt lat="42.97219" lon="1.81661">
        <ele>477</ele>
        <time>2023-03-25T18:06:10.000Z</time>
      </trkpt>
      <trkpt lat="42.97215" lon="1.81666">
        <ele>478.3</ele>
        <time>2023-03-25T18:06:13.000Z</time>
      </trkpt>
      <trkpt lat="42.97212" lon="1.81671">
        <ele>479.1</ele>
        <time>2023-03-25T18:06:16.000Z</time>
      </trkpt>
      <trkpt lat="42.97209" lon="1.81676">
        <ele>479.9</ele>
        <time>2023-03-25T18:06:19.000Z</time>
      </trkpt>
      <trkpt lat="42.97207" lon="1.81682">
        <ele>480.6</ele>
        <time>2023-03-25T18:06:22.000Z</time>
      </trkpt>
      <trkpt lat="42.97204" lon="1.81687">
        <ele>481.6</ele>
        <time>2023-03-25T18:06:25.000Z</time>
      </trkpt>
      <trkpt lat="42.972" lon="1.81692">
        <ele>482.5</ele>
        <time>2023-03-25T18:06:28.000Z</time>
      </trkpt>
      <trkpt lat="42.97197" lon="1.81699">
        <ele>483.4</ele>
        <time>2023-03-25T18:06:31.000Z</time>
      </trkpt>
      <trkpt lat="42.97193" lon="1.81705">
        <ele>484.5</ele>
        <time>2023-03-25T18:06:34.000Z</time>
      </trkpt>
      <trkpt lat="42.9719" lon="1.81711">
        <ele>485.2</ele>
        <time>2023-03-25T18:06:37.000Z</time>
      </trkpt>
      <trkpt lat="42.97188" lon="1.81717">
        <ele>485.5</ele>
        <time>2023-03-25T18:06:40.000Z</time>
      </trkpt>
      <trkpt lat="42.97186" lon="1.81722">
        <ele>486</ele>
        <time>2023-03-25T18:06:43.000Z</time>
      </trkpt>
      <trkpt lat="42.97184" lon="1.81729">
        <ele>486.6</ele>
        <time>2023-03-25T18:06:46.000Z</time>
      </trkpt>
      <trkpt lat="42.9718" lon="1.81735">
        <ele>487.5</ele>
        <time>2023-03-25T18:06:49.000Z</time>
      </trkpt>
      <trkpt lat="42.97177" lon="1.8174">
        <ele>488.4</ele>
        <time>2023-03-25T18:06:51.000Z</time>
      </trkpt>
      <trkpt lat="42.97175" lon="1.81746">
        <ele>489.1</ele>
        <time>2023-03-25T18:06:53.000Z</time>
      </trkpt>
      <trkpt lat="42.97171" lon="1.81753">
        <ele>489.9</ele>
        <time>2023-03-25T18:06:56.000Z</time>
      </trkpt>
      <trkpt lat="42.97168" lon="1.8176">
        <ele>490.8</ele>
        <time>2023-03-25T18:06:59.000Z</time>
      </trkpt>
      <trkpt lat="42.97164" lon="1.81767">
        <ele>491.2</ele>
        <time>2023-03-25T18:07:02.000Z</time>
      </trkpt>
      <trkpt lat="42.97161" lon="1.81774">
        <ele>491.5</ele>
        <time>2023-03-25T18:07:05.000Z</time>
      </trkpt>
      <trkpt lat="42.97158" lon="1.81782">
        <ele>491.7</ele>
        <time>2023-03-25T18:07:08.000Z</time>
      </trkpt>
      <trkpt lat="42.97155" lon="1.81789">
        <ele>491.7</ele>
        <time>2023-03-25T18:07:11.000Z</time>
      </trkpt>
      <trkpt lat="42.97153" lon="1.81798">
        <ele>491.5</ele>
        <time>2023-03-25T18:07:14.000Z</time>
      </trkpt>
      <trkpt lat="42.97153" lon="1.81805">
        <ele>491.1</ele>
        <time>2023-03-25T18:07:16.000Z</time>
      </trkpt>
      <trkpt lat="42.97153" lon="1.81812">
        <ele>490.5</ele>
        <time>2023-03-25T18:07:18.000Z</time>
      </trkpt>
      <trkpt lat="42.97155" lon="1.8182">
        <ele>489.4</ele>
        <time>2023-03-25T18:07:20.000Z</time>
      </trkpt>
      <trkpt lat="42.97158" lon="1.8183">
        <ele>487.7</ele>
        <time>2023-03-25T18:07:22.000Z</time>
      </trkpt>
      <trkpt lat="42.97161" lon="1.81839">
        <ele>486.2</ele>
        <time>2023-03-25T18:07:24.000Z</time>
      </trkpt>
      <trkpt lat="42.97164" lon="1.81849">
        <ele>484.3</ele>
        <time>2023-03-25T18:07:26.000Z</time>
      </trkpt>
      <trkpt lat="42.97168" lon="1.81861">
        <ele>482</ele>
        <time>2023-03-25T18:07:28.000Z</time>
      </trkpt>
      <trkpt lat="42.9717" lon="1.81867">
        <ele>480.6</ele>
        <time>2023-03-25T18:07:29.000Z</time>
      </trkpt>
      <trkpt lat="42.97172" lon="1.81874">
        <ele>479.2</ele>
        <time>2023-03-25T18:07:30.000Z</time>
      </trkpt>
      <trkpt lat="42.97174" lon="1.81881">
        <ele>477.9</ele>
        <time>2023-03-25T18:07:31.000Z</time>
      </trkpt>
      <trkpt lat="42.97176" lon="1.81888">
        <ele>476.5</ele>
        <time>2023-03-25T18:07:32.000Z</time>
      </trkpt>
      <trkpt lat="42.97177" lon="1.81897">
        <ele>475.4</ele>
        <time>2023-03-25T18:07:33.000Z</time>
      </trkpt>
      <trkpt lat="42.97178" lon="1.81905">
        <ele>474.4</ele>
        <time>2023-03-25T18:07:34.000Z</time>
      </trkpt>
      <trkpt lat="42.97178" lon="1.81914">
        <ele>473.7</ele>
        <time>2023-03-25T18:07:35.000Z</time>
      </trkpt>
      <trkpt lat="42.97178" lon="1.81922">
        <ele>473.1</ele>
        <time>2023-03-25T18:07:36.000Z</time>
      </trkpt>
      <trkpt lat="42.97177" lon="1.81929">
        <ele>473.1</ele>
        <time>2023-03-25T18:07:37.000Z</time>
      </trkpt>
      <trkpt lat="42.97176" lon="1.81937">
        <ele>473</ele>
        <time>2023-03-25T18:07:38.000Z</time>
      </trkpt>
      <trkpt lat="42.97174" lon="1.81945">
        <ele>472.9</ele>
        <time>2023-03-25T18:07:39.000Z</time>
      </trkpt>
      <trkpt lat="42.97173" lon="1.81953">
        <ele>472.8</ele>
        <time>2023-03-25T18:07:40.000Z</time>
      </trkpt>
      <trkpt lat="42.97172" lon="1.8196">
        <ele>472.9</ele>
        <time>2023-03-25T18:07:41.000Z</time>
      </trkpt>
      <trkpt lat="42.9717" lon="1.81967">
        <ele>473</ele>
        <time>2023-03-25T18:07:42.000Z</time>
      </trkpt>
      <trkpt lat="42.97168" lon="1.81973">
        <ele>473.2</ele>
        <time>2023-03-25T18:07:43.000Z</time>
      </trkpt>
      <trkpt lat="42.97165" lon="1.81984">
        <ele>473.5</ele>
        <time>2023-03-25T18:07:45.000Z</time>
      </trkpt>
      <trkpt lat="42.97163" lon="1.81993">
        <ele>473.7</ele>
        <time>2023-03-25T18:07:47.000Z</time>
      </trkpt>
      <trkpt lat="42.97161" lon="1.82002">
        <ele>473.7</ele>
        <time>2023-03-25T18:07:49.000Z</time>
      </trkpt>
      <trkpt lat="42.9716" lon="1.82009">
        <ele>474.1</ele>
        <time>2023-03-25T18:07:51.000Z</time>
      </trkpt>
      <trkpt lat="42.97158" lon="1.82018">
        <ele>474.3</ele>
        <time>2023-03-25T18:07:53.000Z</time>
      </trkpt>
      <trkpt lat="42.97156" lon="1.82028">
        <ele>474.5</ele>
        <time>2023-03-25T18:07:55.000Z</time>
      </trkpt>
      <trkpt lat="42.97155" lon="1.82038">
        <ele>474.7</ele>
        <time>2023-03-25T18:07:57.000Z</time>
      </trkpt>
      <trkpt lat="42.97154" lon="1.82049">
        <ele>474.6</ele>
        <time>2023-03-25T18:07:59.000Z</time>
      </trkpt>
      <trkpt lat="42.97153" lon="1.82061">
        <ele>474.5</ele>
        <time>2023-03-25T18:08:01.000Z</time>
      </trkpt>
      <trkpt lat="42.97153" lon="1.82068">
        <ele>474.5</ele>
        <time>2023-03-25T18:08:02.000Z</time>
      </trkpt>
      <trkpt lat="42.97152" lon="1.82074">
        <ele>474.4</ele>
        <time>2023-03-25T18:08:03.000Z</time>
      </trkpt>
      <trkpt lat="42.97152" lon="1.82081">
        <ele>474.5</ele>
        <time>2023-03-25T18:08:04.000Z</time>
      </trkpt>
      <trkpt lat="42.97151" lon="1.82087">
        <ele>474.6</ele>
        <time>2023-03-25T18:08:05.000Z</time>
      </trkpt>
      <trkpt lat="42.97151" lon="1.82094">
        <ele>474.8</ele>
        <time>2023-03-25T18:08:06.000Z</time>
      </trkpt>
      <trkpt lat="42.9715" lon="1.82101">
        <ele>475.1</ele>
        <time>2023-03-25T18:08:07.000Z</time>
      </trkpt>
      <trkpt lat="42.9715" lon="1.82108">
        <ele>475.2</ele>
        <time>2023-03-25T18:08:08.000Z</time>
      </trkpt>
      <trkpt lat="42.97149" lon="1.82116">
        <ele>475.5</ele>
        <time>2023-03-25T18:08:09.000Z</time>
      </trkpt>
      <trkpt lat="42.97148" lon="1.82124">
        <ele>475.7</ele>
        <time>2023-03-25T18:08:10.000Z</time>
      </trkpt>
      <trkpt lat="42.97148" lon="1.82131">
        <ele>476.1</ele>
        <time>2023-03-25T18:08:11.000Z</time>
      </trkpt>
      <trkpt lat="42.97147" lon="1.82139">
        <ele>476.3</ele>
        <time>2023-03-25T18:08:12.000Z</time>
      </trkpt>
      <trkpt lat="42.97146" lon="1.82146">
        <ele>476.7</ele>
        <time>2023-03-25T18:08:13.000Z</time>
      </trkpt>
      <trkpt lat="42.97145" lon="1.82154">
        <ele>476.9</ele>
        <time>2023-03-25T18:08:14.000Z</time>
      </trkpt>
      <trkpt lat="42.97144" lon="1.82161">
        <ele>477.3</ele>
        <time>2023-03-25T18:08:15.000Z</time>
      </trkpt>
      <trkpt lat="42.97143" lon="1.82168">
        <ele>477.5</ele>
        <time>2023-03-25T18:08:16.000Z</time>
      </trkpt>
      <trkpt lat="42.97142" lon="1.82175">
        <ele>477.4</ele>
        <time>2023-03-25T18:08:17.000Z</time>
      </trkpt>
      <trkpt lat="42.97141" lon="1.82183">
        <ele>477.5</ele>
        <time>2023-03-25T18:08:18.000Z</time>
      </trkpt>
      <trkpt lat="42.9714" lon="1.8219">
        <ele>477.4</ele>
        <time>2023-03-25T18:08:19.000Z</time>
      </trkpt>
      <trkpt lat="42.97138" lon="1.82196">
        <ele>477.6</ele>
        <time>2023-03-25T18:08:20.000Z</time>
      </trkpt>
      <trkpt lat="42.97137" lon="1.82202">
        <ele>477.6</ele>
        <time>2023-03-25T18:08:21.000Z</time>
      </trkpt>
      <trkpt lat="42.97135" lon="1.82208">
        <ele>477.8</ele>
        <time>2023-03-25T18:08:22.000Z</time>
      </trkpt>
      <trkpt lat="42.97133" lon="1.82215">
        <ele>478.1</ele>
        <time>2023-03-25T18:08:23.000Z</time>
      </trkpt>
      <trkpt lat="42.97132" lon="1.82221">
        <ele>478.1</ele>
        <time>2023-03-25T18:08:24.000Z</time>
      </trkpt>
      <trkpt lat="42.9713" lon="1.82226">
        <ele>478.4</ele>
        <time>2023-03-25T18:08:25.000Z</time>
      </trkpt>
      <trkpt lat="42.97127" lon="1.82237">
        <ele>478.6</ele>
        <time>2023-03-25T18:08:27.000Z</time>
      </trkpt>
      <trkpt lat="42.97124" lon="1.82248">
        <ele>478.9</ele>
        <time>2023-03-25T18:08:29.000Z</time>
      </trkpt>
      <trkpt lat="42.97122" lon="1.82258">
        <ele>479.3</ele>
        <time>2023-03-25T18:08:31.000Z</time>
      </trkpt>
      <trkpt lat="42.97119" lon="1.82269">
        <ele>480</ele>
        <time>2023-03-25T18:08:33.000Z</time>
      </trkpt>
      <trkpt lat="42.97117" lon="1.8228">
        <ele>480.4</ele>
        <time>2023-03-25T18:08:35.000Z</time>
      </trkpt>
      <trkpt lat="42.97115" lon="1.8229">
        <ele>480.8</ele>
        <time>2023-03-25T18:08:37.000Z</time>
      </trkpt>
      <trkpt lat="42.97113" lon="1.823">
        <ele>481.1</ele>
        <time>2023-03-25T18:08:39.000Z</time>
      </trkpt>
      <trkpt lat="42.9711" lon="1.82311">
        <ele>481.5</ele>
        <time>2023-03-25T18:08:41.000Z</time>
      </trkpt>
      <trkpt lat="42.97108" lon="1.8232">
        <ele>481.7</ele>
        <time>2023-03-25T18:08:43.000Z</time>
      </trkpt>
      <trkpt lat="42.97106" lon="1.8233">
        <ele>482</ele>
        <time>2023-03-25T18:08:45.000Z</time>
      </trkpt>
      <trkpt lat="42.97103" lon="1.8234">
        <ele>482.1</ele>
        <time>2023-03-25T18:08:47.000Z</time>
      </trkpt>
      <trkpt lat="42.97101" lon="1.82349">
        <ele>482</ele>
        <time>2023-03-25T18:08:49.000Z</time>
      </trkpt>
      <trkpt lat="42.97098" lon="1.82358">
        <ele>482</ele>
        <time>2023-03-25T18:08:51.000Z</time>
      </trkpt>
      <trkpt lat="42.97095" lon="1.82367">
        <ele>481.9</ele>
        <time>2023-03-25T18:08:53.000Z</time>
      </trkpt>
      <trkpt lat="42.97091" lon="1.82376">
        <ele>482.2</ele>
        <time>2023-03-25T18:08:55.000Z</time>
      </trkpt>
      <trkpt lat="42.97086" lon="1.82384">
        <ele>482.3</ele>
        <time>2023-03-25T18:08:57.000Z</time>
      </trkpt>
      <trkpt lat="42.97081" lon="1.82393">
        <ele>482.7</ele>
        <time>2023-03-25T18:08:59.000Z</time>
      </trkpt>
      <trkpt lat="42.97076" lon="1.82401">
        <ele>483.3</ele>
        <time>2023-03-25T18:09:01.000Z</time>
      </trkpt>
      <trkpt lat="42.97072" lon="1.82409">
        <ele>483.9</ele>
        <time>2023-03-25T18:09:03.000Z</time>
      </trkpt>
      <trkpt lat="42.97068" lon="1.82416">
        <ele>484.4</ele>
        <time>2023-03-25T18:09:05.000Z</time>
      </trkpt>
      <trkpt lat="42.97063" lon="1.82423">
        <ele>485.2</ele>
        <time>2023-03-25T18:09:07.000Z</time>
      </trkpt>
      <trkpt lat="42.97058" lon="1.82429">
        <ele>486</ele>
        <time>2023-03-25T18:09:09.000Z</time>
      </trkpt>
      <trkpt lat="42.97053" lon="1.82436">
        <ele>486.7</ele>
        <time>2023-03-25T18:09:11.000Z</time>
      </trkpt>
      <trkpt lat="42.97047" lon="1.82443">
        <ele>487.6</ele>
        <time>2023-03-25T18:09:13.000Z</time>
      </trkpt>
      <trkpt lat="42.97042" lon="1.8245">
        <ele>488.5</ele>
        <time>2023-03-25T18:09:15.000Z</time>
      </trkpt>
      <trkpt lat="42.97036" lon="1.82457">
        <ele>489.4</ele>
        <time>2023-03-25T18:09:17.000Z</time>
      </trkpt>
      <trkpt lat="42.9703" lon="1.82464">
        <ele>490.4</ele>
        <time>2023-03-25T18:09:19.000Z</time>
      </trkpt>
      <trkpt lat="42.97024" lon="1.82473">
        <ele>491.1</ele>
        <time>2023-03-25T18:09:21.000Z</time>
      </trkpt>
      <trkpt lat="42.97021" lon="1.82482">
        <ele>491.2</ele>
        <time>2023-03-25T18:09:23.000Z</time>
      </trkpt>
      <trkpt lat="42.97019" lon="1.82492">
        <ele>491</ele>
        <time>2023-03-25T18:09:25.000Z</time>
      </trkpt>
      <trkpt lat="42.97017" lon="1.82502">
        <ele>490.5</ele>
        <time>2023-03-25T18:09:27.000Z</time>
      </trkpt>
      <trkpt lat="42.97014" lon="1.82513">
        <ele>489.8</ele>
        <time>2023-03-25T18:09:29.000Z</time>
      </trkpt>
      <trkpt lat="42.97011" lon="1.82523">
        <ele>489.3</ele>
        <time>2023-03-25T18:09:31.000Z</time>
      </trkpt>
      <trkpt lat="42.97006" lon="1.82533">
        <ele>489.3</ele>
        <time>2023-03-25T18:09:33.000Z</time>
      </trkpt>
      <trkpt lat="42.97" lon="1.82541">
        <ele>489.7</ele>
        <time>2023-03-25T18:09:35.000Z</time>
      </trkpt>
      <trkpt lat="42.96996" lon="1.82545">
        <ele>489.8</ele>
        <time>2023-03-25T18:09:36.000Z</time>
      </trkpt>
      <trkpt lat="42.96993" lon="1.82549">
        <ele>490</ele>
        <time>2023-03-25T18:09:37.000Z</time>
      </trkpt>
      <trkpt lat="42.96989" lon="1.82554">
        <ele>489.9</ele>
        <time>2023-03-25T18:09:38.000Z</time>
      </trkpt>
      <trkpt lat="42.96986" lon="1.82558">
        <ele>490.1</ele>
        <time>2023-03-25T18:09:39.000Z</time>
      </trkpt>
      <trkpt lat="42.96983" lon="1.82564">
        <ele>490</ele>
        <time>2023-03-25T18:09:40.000Z</time>
      </trkpt>
      <trkpt lat="42.96981" lon="1.82569">
        <ele>489.8</ele>
        <time>2023-03-25T18:09:41.000Z</time>
      </trkpt>
      <trkpt lat="42.96979" lon="1.82575">
        <ele>489.5</ele>
        <time>2023-03-25T18:09:42.000Z</time>
      </trkpt>
      <trkpt lat="42.96975" lon="1.82585">
        <ele>489</ele>
        <time>2023-03-25T18:09:44.000Z</time>
      </trkpt>
      <trkpt lat="42.96973" lon="1.82591">
        <ele>489</ele>
        <time>2023-03-25T18:09:45.000Z</time>
      </trkpt>
      <trkpt lat="42.96971" lon="1.82597">
        <ele>488.9</ele>
        <time>2023-03-25T18:09:46.000Z</time>
      </trkpt>
      <trkpt lat="42.96969" lon="1.82603">
        <ele>488.8</ele>
        <time>2023-03-25T18:09:47.000Z</time>
      </trkpt>
      <trkpt lat="42.96967" lon="1.8261">
        <ele>488.7</ele>
        <time>2023-03-25T18:09:48.000Z</time>
      </trkpt>
      <trkpt lat="42.96965" lon="1.82616">
        <ele>488.5</ele>
        <time>2023-03-25T18:09:49.000Z</time>
      </trkpt>
      <trkpt lat="42.96964" lon="1.82622">
        <ele>488.4</ele>
        <time>2023-03-25T18:09:50.000Z</time>
      </trkpt>
      <trkpt lat="42.96963" lon="1.82628">
        <ele>488.2</ele>
        <time>2023-03-25T18:09:51.000Z</time>
      </trkpt>
      <trkpt lat="42.96961" lon="1.82634">
        <ele>488</ele>
        <time>2023-03-25T18:09:52.000Z</time>
      </trkpt>
      <trkpt lat="42.9696" lon="1.8264">
        <ele>487.9</ele>
        <time>2023-03-25T18:09:53.000Z</time>
      </trkpt>
      <trkpt lat="42.96958" lon="1.82646">
        <ele>487.6</ele>
        <time>2023-03-25T18:09:54.000Z</time>
      </trkpt>
      <trkpt lat="42.96957" lon="1.82652">
        <ele>487.4</ele>
        <time>2023-03-25T18:09:55.000Z</time>
      </trkpt>
      <trkpt lat="42.96955" lon="1.82659">
        <ele>487.3</ele>
        <time>2023-03-25T18:09:56.000Z</time>
      </trkpt>
      <trkpt lat="42.96954" lon="1.82665">
        <ele>487.2</ele>
        <time>2023-03-25T18:09:57.000Z</time>
      </trkpt>
      <trkpt lat="42.96952" lon="1.82671">
        <ele>487</ele>
        <time>2023-03-25T18:09:58.000Z</time>
      </trkpt>
      <trkpt lat="42.96951" lon="1.82677">
        <ele>486.8</ele>
        <time>2023-03-25T18:09:59.000Z</time>
      </trkpt>
      <trkpt lat="42.96949" lon="1.82684">
        <ele>486.7</ele>
        <time>2023-03-25T18:10:00.000Z</time>
      </trkpt>
      <trkpt lat="42.96947" lon="1.8269">
        <ele>486.5</ele>
        <time>2023-03-25T18:10:01.000Z</time>
      </trkpt>
      <trkpt lat="42.96946" lon="1.82696">
        <ele>486.5</ele>
        <time>2023-03-25T18:10:02.000Z</time>
      </trkpt>
      <trkpt lat="42.96944" lon="1.82703">
        <ele>486.2</ele>
        <time>2023-03-25T18:10:03.000Z</time>
      </trkpt>
      <trkpt lat="42.96943" lon="1.82709">
        <ele>486</ele>
        <time>2023-03-25T18:10:04.000Z</time>
      </trkpt>
      <trkpt lat="42.96941" lon="1.82715">
        <ele>485.8</ele>
        <time>2023-03-25T18:10:05.000Z</time>
      </trkpt>
      <trkpt lat="42.9694" lon="1.82722">
        <ele>485.7</ele>
        <time>2023-03-25T18:10:06.000Z</time>
      </trkpt>
      <trkpt lat="42.96938" lon="1.82728">
        <ele>485.3</ele>
        <time>2023-03-25T18:10:07.000Z</time>
      </trkpt>
      <trkpt lat="42.96937" lon="1.82734">
        <ele>485.1</ele>
        <time>2023-03-25T18:10:08.000Z</time>
      </trkpt>
      <trkpt lat="42.96935" lon="1.8274">
        <ele>485.1</ele>
        <time>2023-03-25T18:10:09.000Z</time>
      </trkpt>
      <trkpt lat="42.96934" lon="1.82747">
        <ele>484.8</ele>
        <time>2023-03-25T18:10:10.000Z</time>
      </trkpt>
      <trkpt lat="42.96933" lon="1.82753">
        <ele>484.6</ele>
        <time>2023-03-25T18:10:11.000Z</time>
      </trkpt>
      <trkpt lat="42.96932" lon="1.82759">
        <ele>484.5</ele>
        <time>2023-03-25T18:10:12.000Z</time>
      </trkpt>
      <trkpt lat="42.96931" lon="1.82765">
        <ele>484.5</ele>
        <time>2023-03-25T18:10:13.000Z</time>
      </trkpt>
      <trkpt lat="42.96929" lon="1.82772">
        <ele>484.5</ele>
        <time>2023-03-25T18:10:14.000Z</time>
      </trkpt>
      <trkpt lat="42.96928" lon="1.82778">
        <ele>484.5</ele>
        <time>2023-03-25T18:10:15.000Z</time>
      </trkpt>
      <trkpt lat="42.96927" lon="1.82785">
        <ele>484.5</ele>
        <time>2023-03-25T18:10:16.000Z</time>
      </trkpt>
      <trkpt lat="42.96925" lon="1.82792">
        <ele>484.5</ele>
        <time>2023-03-25T18:10:17.000Z</time>
      </trkpt>
      <trkpt lat="42.96924" lon="1.82799">
        <ele>484.6</ele>
        <time>2023-03-25T18:10:18.000Z</time>
      </trkpt>
      <trkpt lat="42.96922" lon="1.82806">
        <ele>484.7</ele>
        <time>2023-03-25T18:10:19.000Z</time>
      </trkpt>
      <trkpt lat="42.96921" lon="1.82813">
        <ele>484.7</ele>
        <time>2023-03-25T18:10:20.000Z</time>
      </trkpt>
      <trkpt lat="42.96918" lon="1.82826">
        <ele>484.9</ele>
        <time>2023-03-25T18:10:22.000Z</time>
      </trkpt>
      <trkpt lat="42.96916" lon="1.82833">
        <ele>485.1</ele>
        <time>2023-03-25T18:10:23.000Z</time>
      </trkpt>
      <trkpt lat="42.96914" lon="1.8284">
        <ele>485.3</ele>
        <time>2023-03-25T18:10:24.000Z</time>
      </trkpt>
      <trkpt lat="42.96913" lon="1.82847">
        <ele>485.3</ele>
        <time>2023-03-25T18:10:25.000Z</time>
      </trkpt>
      <trkpt lat="42.96912" lon="1.82853">
        <ele>485.5</ele>
        <time>2023-03-25T18:10:26.000Z</time>
      </trkpt>
      <trkpt lat="42.9691" lon="1.8286">
        <ele>485.5</ele>
        <time>2023-03-25T18:10:27.000Z</time>
      </trkpt>
      <trkpt lat="42.96909" lon="1.82867">
        <ele>485.4</ele>
        <time>2023-03-25T18:10:28.000Z</time>
      </trkpt>
      <trkpt lat="42.96908" lon="1.82875">
        <ele>485.5</ele>
        <time>2023-03-25T18:10:29.000Z</time>
      </trkpt>
      <trkpt lat="42.96906" lon="1.82881">
        <ele>485.4</ele>
        <time>2023-03-25T18:10:30.000Z</time>
      </trkpt>
      <trkpt lat="42.96905" lon="1.82888">
        <ele>485.5</ele>
        <time>2023-03-25T18:10:31.000Z</time>
      </trkpt>
      <trkpt lat="42.96903" lon="1.82896">
        <ele>485.5</ele>
        <time>2023-03-25T18:10:32.000Z</time>
      </trkpt>
      <trkpt lat="42.96902" lon="1.82903">
        <ele>485.4</ele>
        <time>2023-03-25T18:10:33.000Z</time>
      </trkpt>
      <trkpt lat="42.969" lon="1.82911">
        <ele>485.4</ele>
        <time>2023-03-25T18:10:34.000Z</time>
      </trkpt>
      <trkpt lat="42.96899" lon="1.82919">
        <ele>485.3</ele>
        <time>2023-03-25T18:10:35.000Z</time>
      </trkpt>
      <trkpt lat="42.96897" lon="1.82927">
        <ele>485.2</ele>
        <time>2023-03-25T18:10:36.000Z</time>
      </trkpt>
      <trkpt lat="42.96896" lon="1.82934">
        <ele>485.1</ele>
        <time>2023-03-25T18:10:37.000Z</time>
      </trkpt>
      <trkpt lat="42.96894" lon="1.82943">
        <ele>484.9</ele>
        <time>2023-03-25T18:10:38.000Z</time>
      </trkpt>
      <trkpt lat="42.96892" lon="1.8295">
        <ele>484.8</ele>
        <time>2023-03-25T18:10:39.000Z</time>
      </trkpt>
      <trkpt lat="42.9689" lon="1.82958">
        <ele>484.8</ele>
        <time>2023-03-25T18:10:40.000Z</time>
      </trkpt>
      <trkpt lat="42.96889" lon="1.82967">
        <ele>484.7</ele>
        <time>2023-03-25T18:10:41.000Z</time>
      </trkpt>
      <trkpt lat="42.96887" lon="1.82974">
        <ele>484.7</ele>
        <time>2023-03-25T18:10:42.000Z</time>
      </trkpt>
      <trkpt lat="42.96885" lon="1.82982">
        <ele>484.7</ele>
        <time>2023-03-25T18:10:43.000Z</time>
      </trkpt>
      <trkpt lat="42.96882" lon="1.8299">
        <ele>484.7</ele>
        <time>2023-03-25T18:10:44.000Z</time>
      </trkpt>
      <trkpt lat="42.96881" lon="1.82999">
        <ele>484.6</ele>
        <time>2023-03-25T18:10:45.000Z</time>
      </trkpt>
      <trkpt lat="42.96878" lon="1.83007">
        <ele>484.6</ele>
        <time>2023-03-25T18:10:46.000Z</time>
      </trkpt>
      <trkpt lat="42.96876" lon="1.83015">
        <ele>484.6</ele>
        <time>2023-03-25T18:10:47.000Z</time>
      </trkpt>
      <trkpt lat="42.96874" lon="1.83023">
        <ele>484.6</ele>
        <time>2023-03-25T18:10:48.000Z</time>
      </trkpt>
      <trkpt lat="42.96872" lon="1.83031">
        <ele>484.6</ele>
        <time>2023-03-25T18:10:49.000Z</time>
      </trkpt>
      <trkpt lat="42.96869" lon="1.83037">
        <ele>485.1</ele>
        <time>2023-03-25T18:10:50.000Z</time>
      </trkpt>
      <trkpt lat="42.96866" lon="1.83045">
        <ele>485.3</ele>
        <time>2023-03-25T18:10:51.000Z</time>
      </trkpt>
      <trkpt lat="42.96862" lon="1.83053">
        <ele>485.8</ele>
        <time>2023-03-25T18:10:52.000Z</time>
      </trkpt>
      <trkpt lat="42.96859" lon="1.83061">
        <ele>486.2</ele>
        <time>2023-03-25T18:10:53.000Z</time>
      </trkpt>
      <trkpt lat="42.96856" lon="1.83068">
        <ele>486.5</ele>
        <time>2023-03-25T18:10:54.000Z</time>
      </trkpt>
      <trkpt lat="42.96853" lon="1.83075">
        <ele>486.9</ele>
        <time>2023-03-25T18:10:55.000Z</time>
      </trkpt>
      <trkpt lat="42.9685" lon="1.83083">
        <ele>487.4</ele>
        <time>2023-03-25T18:10:56.000Z</time>
      </trkpt>
      <trkpt lat="42.96847" lon="1.83091">
        <ele>488.1</ele>
        <time>2023-03-25T18:10:57.000Z</time>
      </trkpt>
      <trkpt lat="42.96845" lon="1.83099">
        <ele>488.6</ele>
        <time>2023-03-25T18:10:58.000Z</time>
      </trkpt>
      <trkpt lat="42.96843" lon="1.83107">
        <ele>489</ele>
        <time>2023-03-25T18:10:59.000Z</time>
      </trkpt>
      <trkpt lat="42.96841" lon="1.83115">
        <ele>489.4</ele>
        <time>2023-03-25T18:11:00.000Z</time>
      </trkpt>
      <trkpt lat="42.9684" lon="1.83123">
        <ele>489.7</ele>
        <time>2023-03-25T18:11:01.000Z</time>
      </trkpt>
      <trkpt lat="42.96839" lon="1.83131">
        <ele>489.9</ele>
        <time>2023-03-25T18:11:02.000Z</time>
      </trkpt>
      <trkpt lat="42.96838" lon="1.83139">
        <ele>490.2</ele>
        <time>2023-03-25T18:11:03.000Z</time>
      </trkpt>
      <trkpt lat="42.96836" lon="1.83148">
        <ele>490.4</ele>
        <time>2023-03-25T18:11:04.000Z</time>
      </trkpt>
      <trkpt lat="42.96835" lon="1.83156">
        <ele>490.7</ele>
        <time>2023-03-25T18:11:05.000Z</time>
      </trkpt>
      <trkpt lat="42.96833" lon="1.83164">
        <ele>491</ele>
        <time>2023-03-25T18:11:06.000Z</time>
      </trkpt>
      <trkpt lat="42.96832" lon="1.83173">
        <ele>491</ele>
        <time>2023-03-25T18:11:07.000Z</time>
      </trkpt>
      <trkpt lat="42.9683" lon="1.83181">
        <ele>490.8</ele>
        <time>2023-03-25T18:11:08.000Z</time>
      </trkpt>
      <trkpt lat="42.96828" lon="1.83189">
        <ele>490.7</ele>
        <time>2023-03-25T18:11:09.000Z</time>
      </trkpt>
      <trkpt lat="42.96827" lon="1.83198">
        <ele>490.5</ele>
        <time>2023-03-25T18:11:10.000Z</time>
      </trkpt>
      <trkpt lat="42.96825" lon="1.83206">
        <ele>490.4</ele>
        <time>2023-03-25T18:11:11.000Z</time>
      </trkpt>
      <trkpt lat="42.96823" lon="1.83215">
        <ele>490.2</ele>
        <time>2023-03-25T18:11:12.000Z</time>
      </trkpt>
      <trkpt lat="42.96821" lon="1.83223">
        <ele>490.1</ele>
        <time>2023-03-25T18:11:13.000Z</time>
      </trkpt>
      <trkpt lat="42.96819" lon="1.83232">
        <ele>489.9</ele>
        <time>2023-03-25T18:11:14.000Z</time>
      </trkpt>
      <trkpt lat="42.96817" lon="1.8324">
        <ele>489.9</ele>
        <time>2023-03-25T18:11:15.000Z</time>
      </trkpt>
      <trkpt lat="42.96815" lon="1.83248">
        <ele>489.8</ele>
        <time>2023-03-25T18:11:16.000Z</time>
      </trkpt>
      <trkpt lat="42.96813" lon="1.83257">
        <ele>489.7</ele>
        <time>2023-03-25T18:11:17.000Z</time>
      </trkpt>
      <trkpt lat="42.96812" lon="1.83265">
        <ele>489.5</ele>
        <time>2023-03-25T18:11:18.000Z</time>
      </trkpt>
      <trkpt lat="42.9681" lon="1.83274">
        <ele>489.4</ele>
        <time>2023-03-25T18:11:19.000Z</time>
      </trkpt>
      <trkpt lat="42.96808" lon="1.83283">
        <ele>489.2</ele>
        <time>2023-03-25T18:11:20.000Z</time>
      </trkpt>
      <trkpt lat="42.96806" lon="1.83293">
        <ele>489</ele>
        <time>2023-03-25T18:11:21.000Z</time>
      </trkpt>
      <trkpt lat="42.96805" lon="1.83302">
        <ele>488.8</ele>
        <time>2023-03-25T18:11:22.000Z</time>
      </trkpt>
      <trkpt lat="42.96803" lon="1.8331">
        <ele>488.6</ele>
        <time>2023-03-25T18:11:23.000Z</time>
      </trkpt>
      <trkpt lat="42.96801" lon="1.83319">
        <ele>488.4</ele>
        <time>2023-03-25T18:11:24.000Z</time>
      </trkpt>
      <trkpt lat="42.96799" lon="1.83327">
        <ele>488.4</ele>
        <time>2023-03-25T18:11:25.000Z</time>
      </trkpt>
      <trkpt lat="42.96797" lon="1.83335">
        <ele>488.4</ele>
        <time>2023-03-25T18:11:26.000Z</time>
      </trkpt>
      <trkpt lat="42.96795" lon="1.83343">
        <ele>488.5</ele>
        <time>2023-03-25T18:11:27.000Z</time>
      </trkpt>
      <trkpt lat="42.96792" lon="1.83351">
        <ele>488.6</ele>
        <time>2023-03-25T18:11:28.000Z</time>
      </trkpt>
      <trkpt lat="42.9679" lon="1.83359">
        <ele>488.7</ele>
        <time>2023-03-25T18:11:29.000Z</time>
      </trkpt>
      <trkpt lat="42.96787" lon="1.83367">
        <ele>489</ele>
        <time>2023-03-25T18:11:30.000Z</time>
      </trkpt>
      <trkpt lat="42.96784" lon="1.83375">
        <ele>489.2</ele>
        <time>2023-03-25T18:11:31.000Z</time>
      </trkpt>
      <trkpt lat="42.96781" lon="1.83383">
        <ele>489.4</ele>
        <time>2023-03-25T18:11:32.000Z</time>
      </trkpt>
      <trkpt lat="42.96779" lon="1.83391">
        <ele>489.6</ele>
        <time>2023-03-25T18:11:33.000Z</time>
      </trkpt>
      <trkpt lat="42.96776" lon="1.83399">
        <ele>489.9</ele>
        <time>2023-03-25T18:11:34.000Z</time>
      </trkpt>
      <trkpt lat="42.96773" lon="1.83407">
        <ele>490.1</ele>
        <time>2023-03-25T18:11:35.000Z</time>
      </trkpt>
      <trkpt lat="42.9677" lon="1.83414">
        <ele>490.4</ele>
        <time>2023-03-25T18:11:36.000Z</time>
      </trkpt>
      <trkpt lat="42.96768" lon="1.83422">
        <ele>490.7</ele>
        <time>2023-03-25T18:11:37.000Z</time>
      </trkpt>
      <trkpt lat="42.96765" lon="1.8343">
        <ele>491</ele>
        <time>2023-03-25T18:11:38.000Z</time>
      </trkpt>
      <trkpt lat="42.96762" lon="1.83437">
        <ele>491.3</ele>
        <time>2023-03-25T18:11:39.000Z</time>
      </trkpt>
      <trkpt lat="42.96759" lon="1.83444">
        <ele>491.6</ele>
        <time>2023-03-25T18:11:40.000Z</time>
      </trkpt>
      <trkpt lat="42.96757" lon="1.83452">
        <ele>491.8</ele>
        <time>2023-03-25T18:11:41.000Z</time>
      </trkpt>
      <trkpt lat="42.96754" lon="1.8346">
        <ele>492</ele>
        <time>2023-03-25T18:11:42.000Z</time>
      </trkpt>
      <trkpt lat="42.96752" lon="1.83468">
        <ele>492.2</ele>
        <time>2023-03-25T18:11:43.000Z</time>
      </trkpt>
      <trkpt lat="42.96749" lon="1.83476">
        <ele>492.4</ele>
        <time>2023-03-25T18:11:44.000Z</time>
      </trkpt>
      <trkpt lat="42.96746" lon="1.83483">
        <ele>492.5</ele>
        <time>2023-03-25T18:11:45.000Z</time>
      </trkpt>
      <trkpt lat="42.96743" lon="1.83491">
        <ele>492.6</ele>
        <time>2023-03-25T18:11:46.000Z</time>
      </trkpt>
      <trkpt lat="42.9674" lon="1.83499">
        <ele>492.6</ele>
        <time>2023-03-25T18:11:47.000Z</time>
      </trkpt>
      <trkpt lat="42.96738" lon="1.83508">
        <ele>492.5</ele>
        <time>2023-03-25T18:11:48.000Z</time>
      </trkpt>
      <trkpt lat="42.96735" lon="1.83516">
        <ele>492.4</ele>
        <time>2023-03-25T18:11:49.000Z</time>
      </trkpt>
      <trkpt lat="42.96733" lon="1.83524">
        <ele>492.3</ele>
        <time>2023-03-25T18:11:50.000Z</time>
      </trkpt>
      <trkpt lat="42.9673" lon="1.83533">
        <ele>492.2</ele>
        <time>2023-03-25T18:11:51.000Z</time>
      </trkpt>
      <trkpt lat="42.96728" lon="1.83541">
        <ele>492.1</ele>
        <time>2023-03-25T18:11:52.000Z</time>
      </trkpt>
      <trkpt lat="42.96726" lon="1.8355">
        <ele>491.9</ele>
        <time>2023-03-25T18:11:53.000Z</time>
      </trkpt>
      <trkpt lat="42.96724" lon="1.83559">
        <ele>491.8</ele>
        <time>2023-03-25T18:11:54.000Z</time>
      </trkpt>
      <trkpt lat="42.96721" lon="1.83568">
        <ele>491.7</ele>
        <time>2023-03-25T18:11:55.000Z</time>
      </trkpt>
      <trkpt lat="42.96719" lon="1.83576">
        <ele>491.6</ele>
        <time>2023-03-25T18:11:56.000Z</time>
      </trkpt>
      <trkpt lat="42.96717" lon="1.83584">
        <ele>491.6</ele>
        <time>2023-03-25T18:11:57.000Z</time>
      </trkpt>
      <trkpt lat="42.96715" lon="1.83592">
        <ele>491.4</ele>
        <time>2023-03-25T18:11:58.000Z</time>
      </trkpt>
      <trkpt lat="42.96712" lon="1.836">
        <ele>491.1</ele>
        <time>2023-03-25T18:11:59.000Z</time>
      </trkpt>
      <trkpt lat="42.9671" lon="1.83608">
        <ele>490.9</ele>
        <time>2023-03-25T18:12:00.000Z</time>
      </trkpt>
      <trkpt lat="42.96708" lon="1.83616">
        <ele>490.7</ele>
        <time>2023-03-25T18:12:01.000Z</time>
      </trkpt>
      <trkpt lat="42.96706" lon="1.83625">
        <ele>490.4</ele>
        <time>2023-03-25T18:12:02.000Z</time>
      </trkpt>
      <trkpt lat="42.96705" lon="1.83634">
        <ele>490</ele>
        <time>2023-03-25T18:12:03.000Z</time>
      </trkpt>
      <trkpt lat="42.96703" lon="1.83643">
        <ele>489.7</ele>
        <time>2023-03-25T18:12:04.000Z</time>
      </trkpt>
      <trkpt lat="42.96701" lon="1.83652">
        <ele>489.3</ele>
        <time>2023-03-25T18:12:05.000Z</time>
      </trkpt>
      <trkpt lat="42.967" lon="1.83661">
        <ele>488.9</ele>
        <time>2023-03-25T18:12:06.000Z</time>
      </trkpt>
      <trkpt lat="42.96698" lon="1.83669">
        <ele>488.6</ele>
        <time>2023-03-25T18:12:07.000Z</time>
      </trkpt>
      <trkpt lat="42.96696" lon="1.83678">
        <ele>488.4</ele>
        <time>2023-03-25T18:12:08.000Z</time>
      </trkpt>
      <trkpt lat="42.96695" lon="1.83686">
        <ele>488.2</ele>
        <time>2023-03-25T18:12:09.000Z</time>
      </trkpt>
      <trkpt lat="42.96693" lon="1.83694">
        <ele>488</ele>
        <time>2023-03-25T18:12:10.000Z</time>
      </trkpt>
      <trkpt lat="42.96691" lon="1.83702">
        <ele>487.8</ele>
        <time>2023-03-25T18:12:11.000Z</time>
      </trkpt>
      <trkpt lat="42.96689" lon="1.8371">
        <ele>487.6</ele>
        <time>2023-03-25T18:12:12.000Z</time>
      </trkpt>
      <trkpt lat="42.96687" lon="1.83717">
        <ele>487.5</ele>
        <time>2023-03-25T18:12:13.000Z</time>
      </trkpt>
      <trkpt lat="42.96686" lon="1.83725">
        <ele>487.4</ele>
        <time>2023-03-25T18:12:14.000Z</time>
      </trkpt>
      <trkpt lat="42.96684" lon="1.83733">
        <ele>487.2</ele>
        <time>2023-03-25T18:12:15.000Z</time>
      </trkpt>
      <trkpt lat="42.96682" lon="1.83741">
        <ele>487.1</ele>
        <time>2023-03-25T18:12:16.000Z</time>
      </trkpt>
      <trkpt lat="42.9668" lon="1.83749">
        <ele>486.8</ele>
        <time>2023-03-25T18:12:17.000Z</time>
      </trkpt>
      <trkpt lat="42.96678" lon="1.83757">
        <ele>486.7</ele>
        <time>2023-03-25T18:12:18.000Z</time>
      </trkpt>
      <trkpt lat="42.96676" lon="1.83765">
        <ele>486.7</ele>
        <time>2023-03-25T18:12:19.000Z</time>
      </trkpt>
      <trkpt lat="42.96674" lon="1.83773">
        <ele>486.6</ele>
        <time>2023-03-25T18:12:20.000Z</time>
      </trkpt>
      <trkpt lat="42.96672" lon="1.83781">
        <ele>486.5</ele>
        <time>2023-03-25T18:12:21.000Z</time>
      </trkpt>
      <trkpt lat="42.9667" lon="1.83789">
        <ele>486.5</ele>
        <time>2023-03-25T18:12:22.000Z</time>
      </trkpt>
      <trkpt lat="42.96668" lon="1.83798">
        <ele>486.4</ele>
        <time>2023-03-25T18:12:23.000Z</time>
      </trkpt>
      <trkpt lat="42.96666" lon="1.83806">
        <ele>486.4</ele>
        <time>2023-03-25T18:12:24.000Z</time>
      </trkpt>
      <trkpt lat="42.96664" lon="1.83814">
        <ele>486.5</ele>
        <time>2023-03-25T18:12:25.000Z</time>
      </trkpt>
      <trkpt lat="42.96662" lon="1.83822">
        <ele>486.6</ele>
        <time>2023-03-25T18:12:26.000Z</time>
      </trkpt>
      <trkpt lat="42.9666" lon="1.8383">
        <ele>486.6</ele>
        <time>2023-03-25T18:12:27.000Z</time>
      </trkpt>
      <trkpt lat="42.96657" lon="1.83838">
        <ele>486.8</ele>
        <time>2023-03-25T18:12:28.000Z</time>
      </trkpt>
      <trkpt lat="42.96655" lon="1.83847">
        <ele>486.7</ele>
        <time>2023-03-25T18:12:29.000Z</time>
      </trkpt>
      <trkpt lat="42.96653" lon="1.83855">
        <ele>486.7</ele>
        <time>2023-03-25T18:12:30.000Z</time>
      </trkpt>
      <trkpt lat="42.96651" lon="1.83864">
        <ele>486.7</ele>
        <time>2023-03-25T18:12:31.000Z</time>
      </trkpt>
      <trkpt lat="42.96649" lon="1.83873">
        <ele>486.6</ele>
        <time>2023-03-25T18:12:32.000Z</time>
      </trkpt>
      <trkpt lat="42.96647" lon="1.83882">
        <ele>486.5</ele>
        <time>2023-03-25T18:12:33.000Z</time>
      </trkpt>
      <trkpt lat="42.96645" lon="1.8389">
        <ele>486.5</ele>
        <time>2023-03-25T18:12:34.000Z</time>
      </trkpt>
      <trkpt lat="42.96642" lon="1.83898">
        <ele>486.6</ele>
        <time>2023-03-25T18:12:35.000Z</time>
      </trkpt>
      <trkpt lat="42.96639" lon="1.83906">
        <ele>486.5</ele>
        <time>2023-03-25T18:12:36.000Z</time>
      </trkpt>
      <trkpt lat="42.96636" lon="1.83914">
        <ele>486.6</ele>
        <time>2023-03-25T18:12:37.000Z</time>
      </trkpt>
      <trkpt lat="42.96633" lon="1.83922">
        <ele>486.7</ele>
        <time>2023-03-25T18:12:38.000Z</time>
      </trkpt>
      <trkpt lat="42.96629" lon="1.83929">
        <ele>486.9</ele>
        <time>2023-03-25T18:12:39.000Z</time>
      </trkpt>
      <trkpt lat="42.96625" lon="1.83935">
        <ele>487.2</ele>
        <time>2023-03-25T18:12:40.000Z</time>
      </trkpt>
      <trkpt lat="42.96622" lon="1.83943">
        <ele>487.3</ele>
        <time>2023-03-25T18:12:41.000Z</time>
      </trkpt>
      <trkpt lat="42.9662" lon="1.83951">
        <ele>487.4</ele>
        <time>2023-03-25T18:12:42.000Z</time>
      </trkpt>
      <trkpt lat="42.96618" lon="1.83958">
        <ele>487.4</ele>
        <time>2023-03-25T18:12:43.000Z</time>
      </trkpt>
      <trkpt lat="42.96617" lon="1.83965">
        <ele>487.2</ele>
        <time>2023-03-25T18:12:44.000Z</time>
      </trkpt>
      <trkpt lat="42.96616" lon="1.83971">
        <ele>487.1</ele>
        <time>2023-03-25T18:12:45.000Z</time>
      </trkpt>
      <trkpt lat="42.96614" lon="1.83978">
        <ele>487</ele>
        <time>2023-03-25T18:12:46.000Z</time>
      </trkpt>
      <trkpt lat="42.96613" lon="1.83986">
        <ele>487</ele>
        <time>2023-03-25T18:12:47.000Z</time>
      </trkpt>
      <trkpt lat="42.96612" lon="1.83994">
        <ele>486.8</ele>
        <time>2023-03-25T18:12:48.000Z</time>
      </trkpt>
      <trkpt lat="42.9661" lon="1.84002">
        <ele>486.8</ele>
        <time>2023-03-25T18:12:49.000Z</time>
      </trkpt>
      <trkpt lat="42.96606" lon="1.84007">
        <ele>487</ele>
        <time>2023-03-25T18:12:50.000Z</time>
      </trkpt>
      <trkpt lat="42.96601" lon="1.84006">
        <ele>487.8</ele>
        <time>2023-03-25T18:12:51.000Z</time>
      </trkpt>
      <trkpt lat="42.96596" lon="1.84004">
        <ele>488.8</ele>
        <time>2023-03-25T18:12:52.000Z</time>
      </trkpt>
      <trkpt lat="42.96591" lon="1.84001">
        <ele>489.9</ele>
        <time>2023-03-25T18:12:53.000Z</time>
      </trkpt>
      <trkpt lat="42.96586" lon="1.83998">
        <ele>490.7</ele>
        <time>2023-03-25T18:12:54.000Z</time>
      </trkpt>
      <trkpt lat="42.96581" lon="1.83995">
        <ele>491.2</ele>
        <time>2023-03-25T18:12:55.000Z</time>
      </trkpt>
      <trkpt lat="42.96577" lon="1.83994">
        <ele>491.4</ele>
        <time>2023-03-25T18:12:56.000Z</time>
      </trkpt>
      <trkpt lat="42.96572" lon="1.83992">
        <ele>491.5</ele>
        <time>2023-03-25T18:12:57.000Z</time>
      </trkpt>
      <trkpt lat="42.96567" lon="1.83991">
        <ele>491.8</ele>
        <time>2023-03-25T18:12:58.000Z</time>
      </trkpt>
      <trkpt lat="42.96562" lon="1.83989">
        <ele>492.1</ele>
        <time>2023-03-25T18:12:59.000Z</time>
      </trkpt>
      <trkpt lat="42.96556" lon="1.83987">
        <ele>492.3</ele>
        <time>2023-03-25T18:13:00.000Z</time>
      </trkpt>
      <trkpt lat="42.96552" lon="1.83983">
        <ele>492.9</ele>
        <time>2023-03-25T18:13:01.000Z</time>
      </trkpt>
      <trkpt lat="42.96547" lon="1.8398">
        <ele>493.3</ele>
        <time>2023-03-25T18:13:02.000Z</time>
      </trkpt>
      <trkpt lat="42.96542" lon="1.83978">
        <ele>493.6</ele>
        <time>2023-03-25T18:13:03.000Z</time>
      </trkpt>
      <trkpt lat="42.96536" lon="1.83977">
        <ele>494</ele>
        <time>2023-03-25T18:13:04.000Z</time>
      </trkpt>
      <trkpt lat="42.9653" lon="1.83977">
        <ele>494.3</ele>
        <time>2023-03-25T18:13:05.000Z</time>
      </trkpt>
      <trkpt lat="42.96524" lon="1.83976">
        <ele>494.7</ele>
        <time>2023-03-25T18:13:06.000Z</time>
      </trkpt>
      <trkpt lat="42.96519" lon="1.83976">
        <ele>495</ele>
        <time>2023-03-25T18:13:07.000Z</time>
      </trkpt>
      <trkpt lat="42.96513" lon="1.83975">
        <ele>495.4</ele>
        <time>2023-03-25T18:13:08.000Z</time>
      </trkpt>
      <trkpt lat="42.96507" lon="1.83974">
        <ele>495.9</ele>
        <time>2023-03-25T18:13:09.000Z</time>
      </trkpt>
      <trkpt lat="42.96502" lon="1.83972">
        <ele>496.3</ele>
        <time>2023-03-25T18:13:10.000Z</time>
      </trkpt>
      <trkpt lat="42.96497" lon="1.8397">
        <ele>496.7</ele>
        <time>2023-03-25T18:13:11.000Z</time>
      </trkpt>
      <trkpt lat="42.96492" lon="1.83968">
        <ele>496.7</ele>
        <time>2023-03-25T18:13:12.000Z</time>
      </trkpt>
      <trkpt lat="42.96487" lon="1.83969">
        <ele>496.2</ele>
        <time>2023-03-25T18:13:13.000Z</time>
      </trkpt>
      <trkpt lat="42.96483" lon="1.83972">
        <ele>495.7</ele>
        <time>2023-03-25T18:13:14.000Z</time>
      </trkpt>
      <trkpt lat="42.96479" lon="1.83978">
        <ele>494.7</ele>
        <time>2023-03-25T18:13:15.000Z</time>
      </trkpt>
      <trkpt lat="42.96476" lon="1.83985">
        <ele>493.8</ele>
        <time>2023-03-25T18:13:16.000Z</time>
      </trkpt>
      <trkpt lat="42.96473" lon="1.83994">
        <ele>492.7</ele>
        <time>2023-03-25T18:13:17.000Z</time>
      </trkpt>
      <trkpt lat="42.9647" lon="1.84003">
        <ele>491.7</ele>
        <time>2023-03-25T18:13:18.000Z</time>
      </trkpt>
      <trkpt lat="42.96467" lon="1.84014">
        <ele>490.4</ele>
        <time>2023-03-25T18:13:19.000Z</time>
      </trkpt>
      <trkpt lat="42.96463" lon="1.84026">
        <ele>488.9</ele>
        <time>2023-03-25T18:13:20.000Z</time>
      </trkpt>
      <trkpt lat="42.96458" lon="1.84039">
        <ele>487.3</ele>
        <time>2023-03-25T18:13:21.000Z</time>
      </trkpt>
      <trkpt lat="42.96454" lon="1.84052">
        <ele>485.8</ele>
        <time>2023-03-25T18:13:22.000Z</time>
      </trkpt>
      <trkpt lat="42.96449" lon="1.84065">
        <ele>484.2</ele>
        <time>2023-03-25T18:13:23.000Z</time>
      </trkpt>
      <trkpt lat="42.96445" lon="1.84079">
        <ele>482.6</ele>
        <time>2023-03-25T18:13:24.000Z</time>
      </trkpt>
      <trkpt lat="42.96442" lon="1.84094">
        <ele>481.4</ele>
        <time>2023-03-25T18:13:25.000Z</time>
      </trkpt>
      <trkpt lat="42.96439" lon="1.84112">
        <ele>480.3</ele>
        <time>2023-03-25T18:13:26.000Z</time>
      </trkpt>
      <trkpt lat="42.96436" lon="1.8413">
        <ele>479</ele>
        <time>2023-03-25T18:13:27.000Z</time>
      </trkpt>
      <trkpt lat="42.96433" lon="1.84149">
        <ele>477.8</ele>
        <time>2023-03-25T18:13:28.000Z</time>
      </trkpt>
      <trkpt lat="42.96427" lon="1.84166">
        <ele>476.5</ele>
        <time>2023-03-25T18:13:29.000Z</time>
      </trkpt>
      <trkpt lat="42.96421" lon="1.84182">
        <ele>478.2</ele>
        <time>2023-03-25T18:13:30.000Z</time>
      </trkpt>
      <trkpt lat="42.96414" lon="1.84198">
        <ele>479.9</ele>
        <time>2023-03-25T18:13:31.000Z</time>
      </trkpt>
      <trkpt lat="42.96408" lon="1.84212">
        <ele>481.6</ele>
        <time>2023-03-25T18:13:32.000Z</time>
      </trkpt>
      <trkpt lat="42.96402" lon="1.84224">
        <ele>482.9</ele>
        <time>2023-03-25T18:13:33.000Z</time>
      </trkpt>
      <trkpt lat="42.96396" lon="1.84233">
        <ele>483.4</ele>
        <time>2023-03-25T18:13:34.000Z</time>
      </trkpt>
      <trkpt lat="42.96391" lon="1.84241">
        <ele>484</ele>
        <time>2023-03-25T18:13:35.000Z</time>
      </trkpt>
      <trkpt lat="42.96387" lon="1.84251">
        <ele>484.5</ele>
        <time>2023-03-25T18:13:36.000Z</time>
      </trkpt>
      <trkpt lat="42.96384" lon="1.84259">
        <ele>484.7</ele>
        <time>2023-03-25T18:13:37.000Z</time>
      </trkpt>
      <trkpt lat="42.96381" lon="1.84266">
        <ele>484.9</ele>
        <time>2023-03-25T18:13:38.000Z</time>
      </trkpt>
      <trkpt lat="42.96378" lon="1.84273">
        <ele>485.1</ele>
        <time>2023-03-25T18:13:39.000Z</time>
      </trkpt>
      <trkpt lat="42.96376" lon="1.84278">
        <ele>485.2</ele>
        <time>2023-03-25T18:13:40.000Z</time>
      </trkpt>
      <trkpt lat="42.96372" lon="1.84287">
        <ele>485.4</ele>
        <time>2023-03-25T18:13:42.000Z</time>
      </trkpt>
      <trkpt lat="42.96369" lon="1.84294">
        <ele>485.6</ele>
        <time>2023-03-25T18:13:44.000Z</time>
      </trkpt>
      <trkpt lat="42.96366" lon="1.84302">
        <ele>485.8</ele>
        <time>2023-03-25T18:13:46.000Z</time>
      </trkpt>
      <trkpt lat="42.96362" lon="1.84309">
        <ele>485.9</ele>
        <time>2023-03-25T18:13:48.000Z</time>
      </trkpt>
      <trkpt lat="42.9636" lon="1.84316">
        <ele>486.1</ele>
        <time>2023-03-25T18:13:50.000Z</time>
      </trkpt>
      <trkpt lat="42.96356" lon="1.84322">
        <ele>486.2</ele>
        <time>2023-03-25T18:13:52.000Z</time>
      </trkpt>
      <trkpt lat="42.96353" lon="1.84328">
        <ele>486.3</ele>
        <time>2023-03-25T18:13:54.000Z</time>
      </trkpt>
      <trkpt lat="42.96349" lon="1.84333">
        <ele>486.3</ele>
        <time>2023-03-25T18:13:56.000Z</time>
      </trkpt>
      <trkpt lat="42.96346" lon="1.84339">
        <ele>486.3</ele>
        <time>2023-03-25T18:13:58.000Z</time>
      </trkpt>
      <trkpt lat="42.96342" lon="1.84345">
        <ele>486.3</ele>
        <time>2023-03-25T18:14:01.000Z</time>
      </trkpt>
      <trkpt lat="42.96339" lon="1.84351">
        <ele>486.3</ele>
        <time>2023-03-25T18:14:03.000Z</time>
      </trkpt>
      <trkpt lat="42.96336" lon="1.84357">
        <ele>486.5</ele>
        <time>2023-03-25T18:14:05.000Z</time>
      </trkpt>
      <trkpt lat="42.96332" lon="1.84362">
        <ele>486.7</ele>
        <time>2023-03-25T18:14:07.000Z</time>
      </trkpt>
      <trkpt lat="42.96328" lon="1.84368">
        <ele>487.2</ele>
        <time>2023-03-25T18:14:10.000Z</time>
      </trkpt>
      <trkpt lat="42.96325" lon="1.84374">
        <ele>487.6</ele>
        <time>2023-03-25T18:14:13.000Z</time>
      </trkpt>
      <trkpt lat="42.96322" lon="1.84381">
        <ele>488</ele>
        <time>2023-03-25T18:14:16.000Z</time>
      </trkpt>
      <trkpt lat="42.96322" lon="1.84388">
        <ele>488.4</ele>
        <time>2023-03-25T18:14:19.000Z</time>
      </trkpt>
      <trkpt lat="42.96323" lon="1.84396">
        <ele>488.8</ele>
        <time>2023-03-25T18:14:22.000Z</time>
      </trkpt>
      <trkpt lat="42.96325" lon="1.84404">
        <ele>489.3</ele>
        <time>2023-03-25T18:14:25.000Z</time>
      </trkpt>
      <trkpt lat="42.96327" lon="1.84413">
        <ele>489.8</ele>
        <time>2023-03-25T18:14:28.000Z</time>
      </trkpt>
      <trkpt lat="42.96328" lon="1.84419">
        <ele>490</ele>
        <time>2023-03-25T18:14:30.000Z</time>
      </trkpt>
      <trkpt lat="42.96329" lon="1.84425">
        <ele>489.9</ele>
        <time>2023-03-25T18:14:32.000Z</time>
      </trkpt>
      <trkpt lat="42.9633" lon="1.84432">
        <ele>489.8</ele>
        <time>2023-03-25T18:14:34.000Z</time>
      </trkpt>
      <trkpt lat="42.96332" lon="1.84438">
        <ele>489.8</ele>
        <time>2023-03-25T18:14:36.000Z</time>
      </trkpt>
      <trkpt lat="42.96333" lon="1.84444">
        <ele>489.7</ele>
        <time>2023-03-25T18:14:38.000Z</time>
      </trkpt>
      <trkpt lat="42.96335" lon="1.8445">
        <ele>489.5</ele>
        <time>2023-03-25T18:14:40.000Z</time>
      </trkpt>
      <trkpt lat="42.96337" lon="1.84457">
        <ele>489.2</ele>
        <time>2023-03-25T18:14:42.000Z</time>
      </trkpt>
      <trkpt lat="42.96339" lon="1.84463">
        <ele>489</ele>
        <time>2023-03-25T18:14:44.000Z</time>
      </trkpt>
      <trkpt lat="42.96341" lon="1.84471">
        <ele>488.7</ele>
        <time>2023-03-25T18:14:47.000Z</time>
      </trkpt>
      <trkpt lat="42.96342" lon="1.8448">
        <ele>488.4</ele>
        <time>2023-03-25T18:14:50.000Z</time>
      </trkpt>
      <trkpt lat="42.96344" lon="1.84486">
        <ele>488.2</ele>
        <time>2023-03-25T18:14:52.000Z</time>
      </trkpt>
      <trkpt lat="42.96345" lon="1.84493">
        <ele>487.9</ele>
        <time>2023-03-25T18:14:54.000Z</time>
      </trkpt>
      <trkpt lat="42.96347" lon="1.84499">
        <ele>487.5</ele>
        <time>2023-03-25T18:14:56.000Z</time>
      </trkpt>
      <trkpt lat="42.9635" lon="1.84508">
        <ele>486.8</ele>
        <time>2023-03-25T18:14:58.000Z</time>
      </trkpt>
      <trkpt lat="42.96352" lon="1.84517">
        <ele>485.9</ele>
        <time>2023-03-25T18:15:00.000Z</time>
      </trkpt>
      <trkpt lat="42.96355" lon="1.84527">
        <ele>485</ele>
        <time>2023-03-25T18:15:02.000Z</time>
      </trkpt>
      <trkpt lat="42.96358" lon="1.84538">
        <ele>484.2</ele>
        <time>2023-03-25T18:15:04.000Z</time>
      </trkpt>
      <trkpt lat="42.9636" lon="1.84544">
        <ele>483.7</ele>
        <time>2023-03-25T18:15:05.000Z</time>
      </trkpt>
      <trkpt lat="42.96363" lon="1.8455">
        <ele>483.1</ele>
        <time>2023-03-25T18:15:06.000Z</time>
      </trkpt>
      <trkpt lat="42.96366" lon="1.84558">
        <ele>482.5</ele>
        <time>2023-03-25T18:15:07.000Z</time>
      </trkpt>
      <trkpt lat="42.96369" lon="1.84567">
        <ele>481.8</ele>
        <time>2023-03-25T18:15:08.000Z</time>
      </trkpt>
      <trkpt lat="42.96372" lon="1.84577">
        <ele>481</ele>
        <time>2023-03-25T18:15:09.000Z</time>
      </trkpt>
      <trkpt lat="42.96376" lon="1.84588">
        <ele>480.4</ele>
        <time>2023-03-25T18:15:10.000Z</time>
      </trkpt>
      <trkpt lat="42.9638" lon="1.84601">
        <ele>480.2</ele>
        <time>2023-03-25T18:15:11.000Z</time>
      </trkpt>
      <trkpt lat="42.96385" lon="1.84614">
        <ele>480</ele>
        <time>2023-03-25T18:15:12.000Z</time>
      </trkpt>
      <trkpt lat="42.96389" lon="1.84628">
        <ele>479.8</ele>
        <time>2023-03-25T18:15:13.000Z</time>
      </trkpt>
      <trkpt lat="42.96394" lon="1.84643">
        <ele>479.7</ele>
        <time>2023-03-25T18:15:14.000Z</time>
      </trkpt>
      <trkpt lat="42.96399" lon="1.84658">
        <ele>479.6</ele>
        <time>2023-03-25T18:15:15.000Z</time>
      </trkpt>
      <trkpt lat="42.96404" lon="1.84672">
        <ele>479.4</ele>
        <time>2023-03-25T18:15:16.000Z</time>
      </trkpt>
      <trkpt lat="42.96409" lon="1.84687">
        <ele>479.1</ele>
        <time>2023-03-25T18:15:17.000Z</time>
      </trkpt>
      <trkpt lat="42.96413" lon="1.84701">
        <ele>478.7</ele>
        <time>2023-03-25T18:15:18.000Z</time>
      </trkpt>
      <trkpt lat="42.96418" lon="1.84714">
        <ele>478.4</ele>
        <time>2023-03-25T18:15:19.000Z</time>
      </trkpt>
      <trkpt lat="42.96422" lon="1.84727">
        <ele>478.2</ele>
        <time>2023-03-25T18:15:20.000Z</time>
      </trkpt>
      <trkpt lat="42.96426" lon="1.84739">
        <ele>477.9</ele>
        <time>2023-03-25T18:15:21.000Z</time>
      </trkpt>
      <trkpt lat="42.96429" lon="1.84748">
        <ele>477.7</ele>
        <time>2023-03-25T18:15:22.000Z</time>
      </trkpt>
      <trkpt lat="42.96432" lon="1.84758">
        <ele>477.6</ele>
        <time>2023-03-25T18:15:23.000Z</time>
      </trkpt>
      <trkpt lat="42.96435" lon="1.84767">
        <ele>477.4</ele>
        <time>2023-03-25T18:15:24.000Z</time>
      </trkpt>
      <trkpt lat="42.96438" lon="1.84775">
        <ele>477.3</ele>
        <time>2023-03-25T18:15:25.000Z</time>
      </trkpt>
      <trkpt lat="42.96441" lon="1.84784">
        <ele>477.1</ele>
        <time>2023-03-25T18:15:26.000Z</time>
      </trkpt>
      <trkpt lat="42.96444" lon="1.84793">
        <ele>476.8</ele>
        <time>2023-03-25T18:15:27.000Z</time>
      </trkpt>
      <trkpt lat="42.96447" lon="1.84803">
        <ele>476.6</ele>
        <time>2023-03-25T18:15:28.000Z</time>
      </trkpt>
      <trkpt lat="42.96451" lon="1.84813">
        <ele>476.3</ele>
        <time>2023-03-25T18:15:29.000Z</time>
      </trkpt>
      <trkpt lat="42.96454" lon="1.84824">
        <ele>475.9</ele>
        <time>2023-03-25T18:15:30.000Z</time>
      </trkpt>
      <trkpt lat="42.96458" lon="1.84836">
        <ele>475.5</ele>
        <time>2023-03-25T18:15:31.000Z</time>
      </trkpt>
      <trkpt lat="42.96462" lon="1.84849">
        <ele>475.1</ele>
        <time>2023-03-25T18:15:32.000Z</time>
      </trkpt>
      <trkpt lat="42.96466" lon="1.84862">
        <ele>474.7</ele>
        <time>2023-03-25T18:15:33.000Z</time>
      </trkpt>
      <trkpt lat="42.9647" lon="1.84875">
        <ele>474.3</ele>
        <time>2023-03-25T18:15:34.000Z</time>
      </trkpt>
      <trkpt lat="42.96475" lon="1.84886">
        <ele>473.9</ele>
        <time>2023-03-25T18:15:35.000Z</time>
      </trkpt>
      <trkpt lat="42.96481" lon="1.84895">
        <ele>473.4</ele>
        <time>2023-03-25T18:15:36.000Z</time>
      </trkpt>
      <trkpt lat="42.96489" lon="1.84903">
        <ele>472.8</ele>
        <time>2023-03-25T18:15:37.000Z</time>
      </trkpt>
      <trkpt lat="42.96497" lon="1.8491">
        <ele>472.3</ele>
        <time>2023-03-25T18:15:38.000Z</time>
      </trkpt>
      <trkpt lat="42.96505" lon="1.84917">
        <ele>472</ele>
        <time>2023-03-25T18:15:39.000Z</time>
      </trkpt>
      <trkpt lat="42.96513" lon="1.84924">
        <ele>472.1</ele>
        <time>2023-03-25T18:15:40.000Z</time>
      </trkpt>
      <trkpt lat="42.96521" lon="1.8493">
        <ele>472.1</ele>
        <time>2023-03-25T18:15:41.000Z</time>
      </trkpt>
      <trkpt lat="42.96529" lon="1.84937">
        <ele>472.1</ele>
        <time>2023-03-25T18:15:42.000Z</time>
      </trkpt>
      <trkpt lat="42.96535" lon="1.84944">
        <ele>472.1</ele>
        <time>2023-03-25T18:15:43.000Z</time>
      </trkpt>
      <trkpt lat="42.96538" lon="1.84954">
        <ele>472</ele>
        <time>2023-03-25T18:15:44.000Z</time>
      </trkpt>
      <trkpt lat="42.9654" lon="1.84966">
        <ele>472</ele>
        <time>2023-03-25T18:15:45.000Z</time>
      </trkpt>
      <trkpt lat="42.96539" lon="1.84977">
        <ele>472.1</ele>
        <time>2023-03-25T18:15:46.000Z</time>
      </trkpt>
      <trkpt lat="42.96536" lon="1.84988">
        <ele>472.1</ele>
        <time>2023-03-25T18:15:47.000Z</time>
      </trkpt>
      <trkpt lat="42.96533" lon="1.84999">
        <ele>472.2</ele>
        <time>2023-03-25T18:15:48.000Z</time>
      </trkpt>
      <trkpt lat="42.96531" lon="1.85011">
        <ele>472</ele>
        <time>2023-03-25T18:15:49.000Z</time>
      </trkpt>
      <trkpt lat="42.9653" lon="1.85022">
        <ele>471.8</ele>
        <time>2023-03-25T18:15:50.000Z</time>
      </trkpt>
      <trkpt lat="42.9653" lon="1.85034">
        <ele>471.5</ele>
        <time>2023-03-25T18:15:51.000Z</time>
      </trkpt>
      <trkpt lat="42.9653" lon="1.85045">
        <ele>471.3</ele>
        <time>2023-03-25T18:15:52.000Z</time>
      </trkpt>
      <trkpt lat="42.96531" lon="1.85057">
        <ele>471</ele>
        <time>2023-03-25T18:15:53.000Z</time>
      </trkpt>
      <trkpt lat="42.96532" lon="1.85068">
        <ele>470.7</ele>
        <time>2023-03-25T18:15:54.000Z</time>
      </trkpt>
      <trkpt lat="42.96532" lon="1.85079">
        <ele>470.5</ele>
        <time>2023-03-25T18:15:55.000Z</time>
      </trkpt>
      <trkpt lat="42.96532" lon="1.85091">
        <ele>470.3</ele>
        <time>2023-03-25T18:15:56.000Z</time>
      </trkpt>
      <trkpt lat="42.96531" lon="1.85102">
        <ele>470.1</ele>
        <time>2023-03-25T18:15:57.000Z</time>
      </trkpt>
      <trkpt lat="42.9653" lon="1.85114">
        <ele>469.9</ele>
        <time>2023-03-25T18:15:58.000Z</time>
      </trkpt>
      <trkpt lat="42.96529" lon="1.85125">
        <ele>469.7</ele>
        <time>2023-03-25T18:15:59.000Z</time>
      </trkpt>
      <trkpt lat="42.96528" lon="1.85136">
        <ele>469.5</ele>
        <time>2023-03-25T18:16:00.000Z</time>
      </trkpt>
      <trkpt lat="42.96528" lon="1.85146">
        <ele>469.3</ele>
        <time>2023-03-25T18:16:01.000Z</time>
      </trkpt>
      <trkpt lat="42.96528" lon="1.85156">
        <ele>469.2</ele>
        <time>2023-03-25T18:16:02.000Z</time>
      </trkpt>
      <trkpt lat="42.96528" lon="1.85166">
        <ele>469</ele>
        <time>2023-03-25T18:16:03.000Z</time>
      </trkpt>
      <trkpt lat="42.96528" lon="1.85175">
        <ele>468.5</ele>
        <time>2023-03-25T18:16:04.000Z</time>
      </trkpt>
      <trkpt lat="42.96528" lon="1.85184">
        <ele>468</ele>
        <time>2023-03-25T18:16:05.000Z</time>
      </trkpt>
      <trkpt lat="42.96527" lon="1.85192">
        <ele>467.5</ele>
        <time>2023-03-25T18:16:06.000Z</time>
      </trkpt>
      <trkpt lat="42.96526" lon="1.852">
        <ele>467</ele>
        <time>2023-03-25T18:16:07.000Z</time>
      </trkpt>
      <trkpt lat="42.96525" lon="1.85209">
        <ele>466.6</ele>
        <time>2023-03-25T18:16:08.000Z</time>
      </trkpt>
      <trkpt lat="42.96523" lon="1.85218">
        <ele>466.1</ele>
        <time>2023-03-25T18:16:09.000Z</time>
      </trkpt>
      <trkpt lat="42.96521" lon="1.85226">
        <ele>465.7</ele>
        <time>2023-03-25T18:16:10.000Z</time>
      </trkpt>
      <trkpt lat="42.96519" lon="1.85234">
        <ele>465.2</ele>
        <time>2023-03-25T18:16:11.000Z</time>
      </trkpt>
      <trkpt lat="42.96516" lon="1.85242">
        <ele>464.8</ele>
        <time>2023-03-25T18:16:12.000Z</time>
      </trkpt>
      <trkpt lat="42.96515" lon="1.85251">
        <ele>464.5</ele>
        <time>2023-03-25T18:16:13.000Z</time>
      </trkpt>
      <trkpt lat="42.96513" lon="1.85259">
        <ele>464.6</ele>
        <time>2023-03-25T18:16:14.000Z</time>
      </trkpt>
      <trkpt lat="42.96511" lon="1.85267">
        <ele>464.7</ele>
        <time>2023-03-25T18:16:15.000Z</time>
      </trkpt>
      <trkpt lat="42.9651" lon="1.85276">
        <ele>464.8</ele>
        <time>2023-03-25T18:16:16.000Z</time>
      </trkpt>
      <trkpt lat="42.96509" lon="1.85284">
        <ele>465</ele>
        <time>2023-03-25T18:16:17.000Z</time>
      </trkpt>
      <trkpt lat="42.96508" lon="1.85293">
        <ele>465.1</ele>
        <time>2023-03-25T18:16:18.000Z</time>
      </trkpt>
      <trkpt lat="42.96507" lon="1.85302">
        <ele>465.2</ele>
        <time>2023-03-25T18:16:19.000Z</time>
      </trkpt>
      <trkpt lat="42.96506" lon="1.85311">
        <ele>465.4</ele>
        <time>2023-03-25T18:16:20.000Z</time>
      </trkpt>
      <trkpt lat="42.96505" lon="1.8532">
        <ele>465.5</ele>
        <time>2023-03-25T18:16:21.000Z</time>
      </trkpt>
      <trkpt lat="42.96504" lon="1.8533">
        <ele>465.7</ele>
        <time>2023-03-25T18:16:22.000Z</time>
      </trkpt>
      <trkpt lat="42.96503" lon="1.85339">
        <ele>465.8</ele>
        <time>2023-03-25T18:16:23.000Z</time>
      </trkpt>
      <trkpt lat="42.96503" lon="1.85349">
        <ele>465.8</ele>
        <time>2023-03-25T18:16:24.000Z</time>
      </trkpt>
      <trkpt lat="42.96503" lon="1.85359">
        <ele>465.8</ele>
        <time>2023-03-25T18:16:25.000Z</time>
      </trkpt>
      <trkpt lat="42.96503" lon="1.85369">
        <ele>465.8</ele>
        <time>2023-03-25T18:16:26.000Z</time>
      </trkpt>
      <trkpt lat="42.96503" lon="1.85379">
        <ele>465.8</ele>
        <time>2023-03-25T18:16:27.000Z</time>
      </trkpt>
      <trkpt lat="42.96503" lon="1.85389">
        <ele>465.8</ele>
        <time>2023-03-25T18:16:28.000Z</time>
      </trkpt>
      <trkpt lat="42.96504" lon="1.85399">
        <ele>465.8</ele>
        <time>2023-03-25T18:16:29.000Z</time>
      </trkpt>
      <trkpt lat="42.96504" lon="1.85409">
        <ele>465.7</ele>
        <time>2023-03-25T18:16:30.000Z</time>
      </trkpt>
      <trkpt lat="42.96504" lon="1.85418">
        <ele>465.7</ele>
        <time>2023-03-25T18:16:31.000Z</time>
      </trkpt>
      <trkpt lat="42.96504" lon="1.85428">
        <ele>465.5</ele>
        <time>2023-03-25T18:16:32.000Z</time>
      </trkpt>
      <trkpt lat="42.96504" lon="1.85437">
        <ele>465.3</ele>
        <time>2023-03-25T18:16:33.000Z</time>
      </trkpt>
      <trkpt lat="42.96504" lon="1.85447">
        <ele>465</ele>
        <time>2023-03-25T18:16:34.000Z</time>
      </trkpt>
      <trkpt lat="42.96505" lon="1.85456">
        <ele>464.8</ele>
        <time>2023-03-25T18:16:35.000Z</time>
      </trkpt>
      <trkpt lat="42.96506" lon="1.85467">
        <ele>464.5</ele>
        <time>2023-03-25T18:16:36.000Z</time>
      </trkpt>
      <trkpt lat="42.96506" lon="1.85477">
        <ele>464.3</ele>
        <time>2023-03-25T18:16:37.000Z</time>
      </trkpt>
      <trkpt lat="42.96506" lon="1.85487">
        <ele>464</ele>
        <time>2023-03-25T18:16:38.000Z</time>
      </trkpt>
      <trkpt lat="42.96507" lon="1.85497">
        <ele>463.8</ele>
        <time>2023-03-25T18:16:39.000Z</time>
      </trkpt>
      <trkpt lat="42.96507" lon="1.85507">
        <ele>463.5</ele>
        <time>2023-03-25T18:16:40.000Z</time>
      </trkpt>
      <trkpt lat="42.96508" lon="1.85518">
        <ele>463.3</ele>
        <time>2023-03-25T18:16:41.000Z</time>
      </trkpt>
      <trkpt lat="42.96509" lon="1.85528">
        <ele>463</ele>
        <time>2023-03-25T18:16:42.000Z</time>
      </trkpt>
      <trkpt lat="42.9651" lon="1.85538">
        <ele>462.8</ele>
        <time>2023-03-25T18:16:43.000Z</time>
      </trkpt>
      <trkpt lat="42.96511" lon="1.85549">
        <ele>462.5</ele>
        <time>2023-03-25T18:16:44.000Z</time>
      </trkpt>
      <trkpt lat="42.96512" lon="1.8556">
        <ele>462.3</ele>
        <time>2023-03-25T18:16:45.000Z</time>
      </trkpt>
      <trkpt lat="42.96513" lon="1.8557">
        <ele>462.1</ele>
        <time>2023-03-25T18:16:46.000Z</time>
      </trkpt>
      <trkpt lat="42.96514" lon="1.85581">
        <ele>461.9</ele>
        <time>2023-03-25T18:16:47.000Z</time>
      </trkpt>
      <trkpt lat="42.96516" lon="1.85592">
        <ele>461.9</ele>
        <time>2023-03-25T18:16:48.000Z</time>
      </trkpt>
      <trkpt lat="42.96517" lon="1.85603">
        <ele>462.1</ele>
        <time>2023-03-25T18:16:49.000Z</time>
      </trkpt>
      <trkpt lat="42.96518" lon="1.85614">
        <ele>462.3</ele>
        <time>2023-03-25T18:16:50.000Z</time>
      </trkpt>
      <trkpt lat="42.96519" lon="1.85624">
        <ele>462.5</ele>
        <time>2023-03-25T18:16:51.000Z</time>
      </trkpt>
      <trkpt lat="42.9652" lon="1.85635">
        <ele>462.7</ele>
        <time>2023-03-25T18:16:52.000Z</time>
      </trkpt>
      <trkpt lat="42.96521" lon="1.85645">
        <ele>462.9</ele>
        <time>2023-03-25T18:16:53.000Z</time>
      </trkpt>
      <trkpt lat="42.96522" lon="1.85655">
        <ele>463.1</ele>
        <time>2023-03-25T18:16:54.000Z</time>
      </trkpt>
      <trkpt lat="42.96523" lon="1.85665">
        <ele>463.2</ele>
        <time>2023-03-25T18:16:55.000Z</time>
      </trkpt>
      <trkpt lat="42.96525" lon="1.85675">
        <ele>463.5</ele>
        <time>2023-03-25T18:16:56.000Z</time>
      </trkpt>
      <trkpt lat="42.96527" lon="1.85684">
        <ele>463.7</ele>
        <time>2023-03-25T18:16:57.000Z</time>
      </trkpt>
      <trkpt lat="42.96529" lon="1.85694">
        <ele>464</ele>
        <time>2023-03-25T18:16:58.000Z</time>
      </trkpt>
      <trkpt lat="42.96531" lon="1.85703">
        <ele>464.3</ele>
        <time>2023-03-25T18:16:59.000Z</time>
      </trkpt>
      <trkpt lat="42.96533" lon="1.85713">
        <ele>464.6</ele>
        <time>2023-03-25T18:17:00.000Z</time>
      </trkpt>
      <trkpt lat="42.96534" lon="1.85722">
        <ele>464.9</ele>
        <time>2023-03-25T18:17:01.000Z</time>
      </trkpt>
      <trkpt lat="42.96536" lon="1.85731">
        <ele>465.2</ele>
        <time>2023-03-25T18:17:02.000Z</time>
      </trkpt>
      <trkpt lat="42.96537" lon="1.85741">
        <ele>465.5</ele>
        <time>2023-03-25T18:17:03.000Z</time>
      </trkpt>
      <trkpt lat="42.96539" lon="1.8575">
        <ele>465.9</ele>
        <time>2023-03-25T18:17:04.000Z</time>
      </trkpt>
      <trkpt lat="42.96541" lon="1.85759">
        <ele>466.4</ele>
        <time>2023-03-25T18:17:05.000Z</time>
      </trkpt>
      <trkpt lat="42.96543" lon="1.85767">
        <ele>467</ele>
        <time>2023-03-25T18:17:06.000Z</time>
      </trkpt>
      <trkpt lat="42.96545" lon="1.85776">
        <ele>467.6</ele>
        <time>2023-03-25T18:17:07.000Z</time>
      </trkpt>
      <trkpt lat="42.96546" lon="1.85785">
        <ele>468.1</ele>
        <time>2023-03-25T18:17:08.000Z</time>
      </trkpt>
      <trkpt lat="42.96548" lon="1.85794">
        <ele>468.8</ele>
        <time>2023-03-25T18:17:09.000Z</time>
      </trkpt>
      <trkpt lat="42.9655" lon="1.85802">
        <ele>469.4</ele>
        <time>2023-03-25T18:17:10.000Z</time>
      </trkpt>
      <trkpt lat="42.96551" lon="1.85811">
        <ele>470</ele>
        <time>2023-03-25T18:17:11.000Z</time>
      </trkpt>
      <trkpt lat="42.96553" lon="1.8582">
        <ele>470.6</ele>
        <time>2023-03-25T18:17:12.000Z</time>
      </trkpt>
      <trkpt lat="42.96554" lon="1.85829">
        <ele>471.2</ele>
        <time>2023-03-25T18:17:13.000Z</time>
      </trkpt>
      <trkpt lat="42.96555" lon="1.85838">
        <ele>471.7</ele>
        <time>2023-03-25T18:17:14.000Z</time>
      </trkpt>
      <trkpt lat="42.96555" lon="1.85847">
        <ele>471.9</ele>
        <time>2023-03-25T18:17:15.000Z</time>
      </trkpt>
      <trkpt lat="42.96555" lon="1.85855">
        <ele>472.1</ele>
        <time>2023-03-25T18:17:16.000Z</time>
      </trkpt>
      <trkpt lat="42.96555" lon="1.85864">
        <ele>472.2</ele>
        <time>2023-03-25T18:17:17.000Z</time>
      </trkpt>
      <trkpt lat="42.96555" lon="1.85873">
        <ele>472.4</ele>
        <time>2023-03-25T18:17:18.000Z</time>
      </trkpt>
      <trkpt lat="42.96555" lon="1.85881">
        <ele>472.6</ele>
        <time>2023-03-25T18:17:19.000Z</time>
      </trkpt>
      <trkpt lat="42.96556" lon="1.8589">
        <ele>472.8</ele>
        <time>2023-03-25T18:17:20.000Z</time>
      </trkpt>
      <trkpt lat="42.96556" lon="1.85898">
        <ele>473</ele>
        <time>2023-03-25T18:17:21.000Z</time>
      </trkpt>
      <trkpt lat="42.96556" lon="1.85907">
        <ele>473.2</ele>
        <time>2023-03-25T18:17:22.000Z</time>
      </trkpt>
      <trkpt lat="42.96556" lon="1.85915">
        <ele>473.3</ele>
        <time>2023-03-25T18:17:23.000Z</time>
      </trkpt>
      <trkpt lat="42.96556" lon="1.85923">
        <ele>473.3</ele>
        <time>2023-03-25T18:17:24.000Z</time>
      </trkpt>
      <trkpt lat="42.96556" lon="1.8593">
        <ele>473.1</ele>
        <time>2023-03-25T18:17:25.000Z</time>
      </trkpt>
      <trkpt lat="42.96557" lon="1.85938">
        <ele>473</ele>
        <time>2023-03-25T18:17:26.000Z</time>
      </trkpt>
      <trkpt lat="42.96557" lon="1.85945">
        <ele>472.9</ele>
        <time>2023-03-25T18:17:27.000Z</time>
      </trkpt>
      <trkpt lat="42.96557" lon="1.85953">
        <ele>472.8</ele>
        <time>2023-03-25T18:17:28.000Z</time>
      </trkpt>
      <trkpt lat="42.96557" lon="1.85961">
        <ele>472.6</ele>
        <time>2023-03-25T18:17:29.000Z</time>
      </trkpt>
      <trkpt lat="42.96557" lon="1.85968">
        <ele>472.5</ele>
        <time>2023-03-25T18:17:30.000Z</time>
      </trkpt>
      <trkpt lat="42.96557" lon="1.85976">
        <ele>472.3</ele>
        <time>2023-03-25T18:17:31.000Z</time>
      </trkpt>
      <trkpt lat="42.96557" lon="1.85983">
        <ele>472.2</ele>
        <time>2023-03-25T18:17:32.000Z</time>
      </trkpt>
      <trkpt lat="42.96557" lon="1.8599">
        <ele>472</ele>
        <time>2023-03-25T18:17:33.000Z</time>
      </trkpt>
      <trkpt lat="42.96557" lon="1.85997">
        <ele>471.9</ele>
        <time>2023-03-25T18:17:34.000Z</time>
      </trkpt>
      <trkpt lat="42.96558" lon="1.86005">
        <ele>471.5</ele>
        <time>2023-03-25T18:17:35.000Z</time>
      </trkpt>
      <trkpt lat="42.96558" lon="1.86012">
        <ele>471.1</ele>
        <time>2023-03-25T18:17:36.000Z</time>
      </trkpt>
      <trkpt lat="42.96558" lon="1.8602">
        <ele>470.6</ele>
        <time>2023-03-25T18:17:37.000Z</time>
      </trkpt>
      <trkpt lat="42.96559" lon="1.86028">
        <ele>470.1</ele>
        <time>2023-03-25T18:17:38.000Z</time>
      </trkpt>
      <trkpt lat="42.96559" lon="1.86036">
        <ele>469.7</ele>
        <time>2023-03-25T18:17:39.000Z</time>
      </trkpt>
      <trkpt lat="42.9656" lon="1.86044">
        <ele>469.2</ele>
        <time>2023-03-25T18:17:40.000Z</time>
      </trkpt>
      <trkpt lat="42.96561" lon="1.86052">
        <ele>468.7</ele>
        <time>2023-03-25T18:17:41.000Z</time>
      </trkpt>
      <trkpt lat="42.96562" lon="1.8606">
        <ele>468.1</ele>
        <time>2023-03-25T18:17:42.000Z</time>
      </trkpt>
      <trkpt lat="42.96563" lon="1.86068">
        <ele>467.6</ele>
        <time>2023-03-25T18:17:43.000Z</time>
      </trkpt>
      <trkpt lat="42.96564" lon="1.86076">
        <ele>467.1</ele>
        <time>2023-03-25T18:17:44.000Z</time>
      </trkpt>
      <trkpt lat="42.96565" lon="1.86084">
        <ele>466.6</ele>
        <time>2023-03-25T18:17:45.000Z</time>
      </trkpt>
      <trkpt lat="42.96566" lon="1.86092">
        <ele>466.1</ele>
        <time>2023-03-25T18:17:46.000Z</time>
      </trkpt>
      <trkpt lat="42.96567" lon="1.861">
        <ele>465.8</ele>
        <time>2023-03-25T18:17:47.000Z</time>
      </trkpt>
      <trkpt lat="42.96568" lon="1.86109">
        <ele>465.4</ele>
        <time>2023-03-25T18:17:48.000Z</time>
      </trkpt>
      <trkpt lat="42.96569" lon="1.86117">
        <ele>465</ele>
        <time>2023-03-25T18:17:49.000Z</time>
      </trkpt>
      <trkpt lat="42.9657" lon="1.86125">
        <ele>464.6</ele>
        <time>2023-03-25T18:17:50.000Z</time>
      </trkpt>
      <trkpt lat="42.9657" lon="1.86133">
        <ele>464.1</ele>
        <time>2023-03-25T18:17:51.000Z</time>
      </trkpt>
      <trkpt lat="42.9657" lon="1.8614">
        <ele>463.8</ele>
        <time>2023-03-25T18:17:52.000Z</time>
      </trkpt>
      <trkpt lat="42.96569" lon="1.86147">
        <ele>463.4</ele>
        <time>2023-03-25T18:17:53.000Z</time>
      </trkpt>
      <trkpt lat="42.96566" lon="1.86154">
        <ele>463.1</ele>
        <time>2023-03-25T18:17:54.000Z</time>
      </trkpt>
      <trkpt lat="42.96563" lon="1.86159">
        <ele>462.9</ele>
        <time>2023-03-25T18:17:55.000Z</time>
      </trkpt>
      <trkpt lat="42.96558" lon="1.86163">
        <ele>462.8</ele>
        <time>2023-03-25T18:17:56.000Z</time>
      </trkpt>
      <trkpt lat="42.96554" lon="1.86167">
        <ele>462.7</ele>
        <time>2023-03-25T18:17:57.000Z</time>
      </trkpt>
      <trkpt lat="42.9655" lon="1.86171">
        <ele>462.7</ele>
        <time>2023-03-25T18:17:58.000Z</time>
      </trkpt>
      <trkpt lat="42.96546" lon="1.86174">
        <ele>462.7</ele>
        <time>2023-03-25T18:17:59.000Z</time>
      </trkpt>
      <trkpt lat="42.96539" lon="1.8618">
        <ele>462.7</ele>
        <time>2023-03-25T18:18:01.000Z</time>
      </trkpt>
      <trkpt lat="42.96532" lon="1.86184">
        <ele>462.7</ele>
        <time>2023-03-25T18:18:03.000Z</time>
      </trkpt>
      <trkpt lat="42.96524" lon="1.86187">
        <ele>462.9</ele>
        <time>2023-03-25T18:18:05.000Z</time>
      </trkpt>
      <trkpt lat="42.96517" lon="1.86189">
        <ele>463</ele>
        <time>2023-03-25T18:18:07.000Z</time>
      </trkpt>
      <trkpt lat="42.9651" lon="1.86189">
        <ele>463.2</ele>
        <time>2023-03-25T18:18:09.000Z</time>
      </trkpt>
      <trkpt lat="42.96504" lon="1.86188">
        <ele>463.4</ele>
        <time>2023-03-25T18:18:11.000Z</time>
      </trkpt>
      <trkpt lat="42.96498" lon="1.86187">
        <ele>463.6</ele>
        <time>2023-03-25T18:18:13.000Z</time>
      </trkpt>
      <trkpt lat="42.96492" lon="1.86186">
        <ele>463.7</ele>
        <time>2023-03-25T18:18:15.000Z</time>
      </trkpt>
      <trkpt lat="42.96486" lon="1.86185">
        <ele>463.8</ele>
        <time>2023-03-25T18:18:17.000Z</time>
      </trkpt>
      <trkpt lat="42.96479" lon="1.86185">
        <ele>463.9</ele>
        <time>2023-03-25T18:18:19.000Z</time>
      </trkpt>
      <trkpt lat="42.96473" lon="1.86184">
        <ele>464</ele>
        <time>2023-03-25T18:18:21.000Z</time>
      </trkpt>
      <trkpt lat="42.96466" lon="1.86184">
        <ele>464.1</ele>
        <time>2023-03-25T18:18:23.000Z</time>
      </trkpt>
      <trkpt lat="42.96459" lon="1.86184">
        <ele>464.2</ele>
        <time>2023-03-25T18:18:25.000Z</time>
      </trkpt>
      <trkpt lat="42.96452" lon="1.86185">
        <ele>464.3</ele>
        <time>2023-03-25T18:18:27.000Z</time>
      </trkpt>
      <trkpt lat="42.96446" lon="1.86186">
        <ele>464.4</ele>
        <time>2023-03-25T18:18:29.000Z</time>
      </trkpt>
      <trkpt lat="42.96441" lon="1.86185">
        <ele>464.4</ele>
        <time>2023-03-25T18:18:31.000Z</time>
      </trkpt>
      <trkpt lat="42.96437" lon="1.86186">
        <ele>464.5</ele>
        <time>2023-03-25T18:18:33.000Z</time>
      </trkpt>
      <trkpt lat="42.96432" lon="1.86186">
        <ele>464.5</ele>
        <time>2023-03-25T18:18:35.000Z</time>
      </trkpt>
      <trkpt lat="42.96428" lon="1.86186">
        <ele>464.6</ele>
        <time>2023-03-25T18:18:37.000Z</time>
      </trkpt>
      <trkpt lat="42.96422" lon="1.86188">
        <ele>464.7</ele>
        <time>2023-03-25T18:18:39.000Z</time>
      </trkpt>
      <trkpt lat="42.96416" lon="1.8619">
        <ele>464.7</ele>
        <time>2023-03-25T18:18:41.000Z</time>
      </trkpt>
      <trkpt lat="42.96409" lon="1.86192">
        <ele>464.9</ele>
        <time>2023-03-25T18:18:43.000Z</time>
      </trkpt>
      <trkpt lat="42.96402" lon="1.86194">
        <ele>465</ele>
        <time>2023-03-25T18:18:45.000Z</time>
      </trkpt>
      <trkpt lat="42.96395" lon="1.86196">
        <ele>465.1</ele>
        <time>2023-03-25T18:18:47.000Z</time>
      </trkpt>
      <trkpt lat="42.96387" lon="1.86198">
        <ele>465.2</ele>
        <time>2023-03-25T18:18:49.000Z</time>
      </trkpt>
      <trkpt lat="42.9638" lon="1.86201">
        <ele>465.3</ele>
        <time>2023-03-25T18:18:51.000Z</time>
      </trkpt>
      <trkpt lat="42.96371" lon="1.86203">
        <ele>465.4</ele>
        <time>2023-03-25T18:18:53.000Z</time>
      </trkpt>
      <trkpt lat="42.96362" lon="1.86206">
        <ele>465.5</ele>
        <time>2023-03-25T18:18:55.000Z</time>
      </trkpt>
      <trkpt lat="42.96358" lon="1.86208">
        <ele>465.6</ele>
        <time>2023-03-25T18:18:56.000Z</time>
      </trkpt>
      <trkpt lat="42.96353" lon="1.86211">
        <ele>465.6</ele>
        <time>2023-03-25T18:18:57.000Z</time>
      </trkpt>
      <trkpt lat="42.96348" lon="1.86215">
        <ele>465.6</ele>
        <time>2023-03-25T18:18:58.000Z</time>
      </trkpt>
      <trkpt lat="42.96343" lon="1.86218">
        <ele>465.6</ele>
        <time>2023-03-25T18:18:59.000Z</time>
      </trkpt>
      <trkpt lat="42.96339" lon="1.86222">
        <ele>465.6</ele>
        <time>2023-03-25T18:19:00.000Z</time>
      </trkpt>
      <trkpt lat="42.96334" lon="1.86225">
        <ele>465.6</ele>
        <time>2023-03-25T18:19:01.000Z</time>
      </trkpt>
      <trkpt lat="42.9633" lon="1.86229">
        <ele>465.6</ele>
        <time>2023-03-25T18:19:02.000Z</time>
      </trkpt>
      <trkpt lat="42.96326" lon="1.86232">
        <ele>465.7</ele>
        <time>2023-03-25T18:19:03.000Z</time>
      </trkpt>
      <trkpt lat="42.96322" lon="1.86236">
        <ele>465.7</ele>
        <time>2023-03-25T18:19:04.000Z</time>
      </trkpt>
      <trkpt lat="42.96318" lon="1.86239">
        <ele>465.8</ele>
        <time>2023-03-25T18:19:05.000Z</time>
      </trkpt>
      <trkpt lat="42.96313" lon="1.86241">
        <ele>465.9</ele>
        <time>2023-03-25T18:19:06.000Z</time>
      </trkpt>
      <trkpt lat="42.96309" lon="1.86244">
        <ele>466</ele>
        <time>2023-03-25T18:19:07.000Z</time>
      </trkpt>
      <trkpt lat="42.96305" lon="1.86247">
        <ele>466.1</ele>
        <time>2023-03-25T18:19:08.000Z</time>
      </trkpt>
      <trkpt lat="42.96301" lon="1.8625">
        <ele>466.2</ele>
        <time>2023-03-25T18:19:09.000Z</time>
      </trkpt>
      <trkpt lat="42.96296" lon="1.86253">
        <ele>466.2</ele>
        <time>2023-03-25T18:19:10.000Z</time>
      </trkpt>
      <trkpt lat="42.96292" lon="1.86257">
        <ele>466.2</ele>
        <time>2023-03-25T18:19:11.000Z</time>
      </trkpt>
      <trkpt lat="42.96288" lon="1.8626">
        <ele>466.2</ele>
        <time>2023-03-25T18:19:12.000Z</time>
      </trkpt>
      <trkpt lat="42.96283" lon="1.86264">
        <ele>466.1</ele>
        <time>2023-03-25T18:19:13.000Z</time>
      </trkpt>
      <trkpt lat="42.96279" lon="1.86268">
        <ele>466.1</ele>
        <time>2023-03-25T18:19:14.000Z</time>
      </trkpt>
      <trkpt lat="42.96275" lon="1.86272">
        <ele>466.1</ele>
        <time>2023-03-25T18:19:15.000Z</time>
      </trkpt>
      <trkpt lat="42.96268" lon="1.86279">
        <ele>465.8</ele>
        <time>2023-03-25T18:19:17.000Z</time>
      </trkpt>
      <trkpt lat="42.96263" lon="1.86285">
        <ele>465.6</ele>
        <time>2023-03-25T18:19:19.000Z</time>
      </trkpt>
      <trkpt lat="42.9626" lon="1.86295">
        <ele>465.2</ele>
        <time>2023-03-25T18:19:21.000Z</time>
      </trkpt>
      <trkpt lat="42.9626" lon="1.86302">
        <ele>464.8</ele>
        <time>2023-03-25T18:19:22.000Z</time>
      </trkpt>
      <trkpt lat="42.96261" lon="1.86308">
        <ele>464.4</ele>
        <time>2023-03-25T18:19:23.000Z</time>
      </trkpt>
      <trkpt lat="42.96264" lon="1.86314">
        <ele>464.1</ele>
        <time>2023-03-25T18:19:24.000Z</time>
      </trkpt>
      <trkpt lat="42.96266" lon="1.8632">
        <ele>463.8</ele>
        <time>2023-03-25T18:19:25.000Z</time>
      </trkpt>
      <trkpt lat="42.96269" lon="1.86326">
        <ele>463.4</ele>
        <time>2023-03-25T18:19:26.000Z</time>
      </trkpt>
      <trkpt lat="42.96272" lon="1.86331">
        <ele>463.1</ele>
        <time>2023-03-25T18:19:27.000Z</time>
      </trkpt>
      <trkpt lat="42.96275" lon="1.86337">
        <ele>463</ele>
        <time>2023-03-25T18:19:28.000Z</time>
      </trkpt>
      <trkpt lat="42.96278" lon="1.86343">
        <ele>462.9</ele>
        <time>2023-03-25T18:19:29.000Z</time>
      </trkpt>
      <trkpt lat="42.96281" lon="1.86349">
        <ele>462.9</ele>
        <time>2023-03-25T18:19:30.000Z</time>
      </trkpt>
      <trkpt lat="42.96284" lon="1.86356">
        <ele>462.8</ele>
        <time>2023-03-25T18:19:31.000Z</time>
      </trkpt>
      <trkpt lat="42.96287" lon="1.86362">
        <ele>462.8</ele>
        <time>2023-03-25T18:19:32.000Z</time>
      </trkpt>
      <trkpt lat="42.96291" lon="1.86368">
        <ele>462.8</ele>
        <time>2023-03-25T18:19:33.000Z</time>
      </trkpt>
      <trkpt lat="42.96294" lon="1.86374">
        <ele>462.8</ele>
        <time>2023-03-25T18:19:34.000Z</time>
      </trkpt>
      <trkpt lat="42.96297" lon="1.86379">
        <ele>462.8</ele>
        <time>2023-03-25T18:19:35.000Z</time>
      </trkpt>
      <trkpt lat="42.96301" lon="1.86384">
        <ele>462.8</ele>
        <time>2023-03-25T18:19:36.000Z</time>
      </trkpt>
      <trkpt lat="42.96304" lon="1.86388">
        <ele>462.8</ele>
        <time>2023-03-25T18:19:37.000Z</time>
      </trkpt>
      <trkpt lat="42.96308" lon="1.86392">
        <ele>462.8</ele>
        <time>2023-03-25T18:19:38.000Z</time>
      </trkpt>
      <trkpt lat="42.96313" lon="1.86402">
        <ele>462.8</ele>
        <time>2023-03-25T18:19:40.000Z</time>
      </trkpt>
      <trkpt lat="42.96315" lon="1.86407">
        <ele>462.8</ele>
        <time>2023-03-25T18:19:41.000Z</time>
      </trkpt>
      <trkpt lat="42.96316" lon="1.86414">
        <ele>462.8</ele>
        <time>2023-03-25T18:19:42.000Z</time>
      </trkpt>
      <trkpt lat="42.96313" lon="1.86426">
        <ele>462.8</ele>
        <time>2023-03-25T18:19:44.000Z</time>
      </trkpt>
      <trkpt lat="42.9631" lon="1.8643">
        <ele>462.8</ele>
        <time>2023-03-25T18:19:45.000Z</time>
      </trkpt>
      <trkpt lat="42.96305" lon="1.86433">
        <ele>462.7</ele>
        <time>2023-03-25T18:19:46.000Z</time>
      </trkpt>
      <trkpt lat="42.963" lon="1.86434">
        <ele>462.7</ele>
        <time>2023-03-25T18:19:47.000Z</time>
      </trkpt>
      <trkpt lat="42.96295" lon="1.86434">
        <ele>462.6</ele>
        <time>2023-03-25T18:19:48.000Z</time>
      </trkpt>
      <trkpt lat="42.96289" lon="1.86433">
        <ele>462.6</ele>
        <time>2023-03-25T18:19:49.000Z</time>
      </trkpt>
      <trkpt lat="42.96284" lon="1.86432">
        <ele>462.5</ele>
        <time>2023-03-25T18:19:50.000Z</time>
      </trkpt>
      <trkpt lat="42.96279" lon="1.86431">
        <ele>462.5</ele>
        <time>2023-03-25T18:19:51.000Z</time>
      </trkpt>
      <trkpt lat="42.96274" lon="1.8643">
        <ele>462.4</ele>
        <time>2023-03-25T18:19:52.000Z</time>
      </trkpt>
      <trkpt lat="42.96269" lon="1.86429">
        <ele>462.3</ele>
        <time>2023-03-25T18:19:53.000Z</time>
      </trkpt>
      <trkpt lat="42.96264" lon="1.86429">
        <ele>462.3</ele>
        <time>2023-03-25T18:19:54.000Z</time>
      </trkpt>
      <trkpt lat="42.96259" lon="1.86428">
        <ele>462.2</ele>
        <time>2023-03-25T18:19:55.000Z</time>
      </trkpt>
      <trkpt lat="42.96254" lon="1.86427">
        <ele>462.2</ele>
        <time>2023-03-25T18:19:56.000Z</time>
      </trkpt>
      <trkpt lat="42.96249" lon="1.86426">
        <ele>462.1</ele>
        <time>2023-03-25T18:19:57.000Z</time>
      </trkpt>
      <trkpt lat="42.96244" lon="1.86426">
        <ele>462.4</ele>
        <time>2023-03-25T18:19:58.000Z</time>
      </trkpt>
      <trkpt lat="42.96239" lon="1.86424">
        <ele>462.6</ele>
        <time>2023-03-25T18:19:59.000Z</time>
      </trkpt>
      <trkpt lat="42.96234" lon="1.86423">
        <ele>462.9</ele>
        <time>2023-03-25T18:20:00.000Z</time>
      </trkpt>
      <trkpt lat="42.96229" lon="1.86422">
        <ele>463.1</ele>
        <time>2023-03-25T18:20:01.000Z</time>
      </trkpt>
      <trkpt lat="42.96224" lon="1.8642">
        <ele>463.3</ele>
        <time>2023-03-25T18:20:02.000Z</time>
      </trkpt>
      <trkpt lat="42.96219" lon="1.86419">
        <ele>463.5</ele>
        <time>2023-03-25T18:20:03.000Z</time>
      </trkpt>
      <trkpt lat="42.96213" lon="1.86417">
        <ele>463.8</ele>
        <time>2023-03-25T18:20:04.000Z</time>
      </trkpt>
      <trkpt lat="42.96208" lon="1.86416">
        <ele>464</ele>
        <time>2023-03-25T18:20:05.000Z</time>
      </trkpt>
      <trkpt lat="42.96203" lon="1.86415">
        <ele>464.3</ele>
        <time>2023-03-25T18:20:06.000Z</time>
      </trkpt>
      <trkpt lat="42.96197" lon="1.86414">
        <ele>464.6</ele>
        <time>2023-03-25T18:20:07.000Z</time>
      </trkpt>
      <trkpt lat="42.96192" lon="1.86412">
        <ele>464.9</ele>
        <time>2023-03-25T18:20:08.000Z</time>
      </trkpt>
      <trkpt lat="42.96187" lon="1.86411">
        <ele>465.2</ele>
        <time>2023-03-25T18:20:09.000Z</time>
      </trkpt>
      <trkpt lat="42.96182" lon="1.8641">
        <ele>465.4</ele>
        <time>2023-03-25T18:20:10.000Z</time>
      </trkpt>
      <trkpt lat="42.96177" lon="1.86409">
        <ele>465.7</ele>
        <time>2023-03-25T18:20:11.000Z</time>
      </trkpt>
      <trkpt lat="42.96172" lon="1.86408">
        <ele>466</ele>
        <time>2023-03-25T18:20:12.000Z</time>
      </trkpt>
      <trkpt lat="42.96167" lon="1.86407">
        <ele>466.2</ele>
        <time>2023-03-25T18:20:13.000Z</time>
      </trkpt>
      <trkpt lat="42.96159" lon="1.86405">
        <ele>466.7</ele>
        <time>2023-03-25T18:20:15.000Z</time>
      </trkpt>
      <trkpt lat="42.96154" lon="1.86404">
        <ele>466.9</ele>
        <time>2023-03-25T18:20:16.000Z</time>
      </trkpt>
      <trkpt lat="42.96149" lon="1.86403">
        <ele>467.2</ele>
        <time>2023-03-25T18:20:17.000Z</time>
      </trkpt>
      <trkpt lat="42.96144" lon="1.86402">
        <ele>467.5</ele>
        <time>2023-03-25T18:20:18.000Z</time>
      </trkpt>
      <trkpt lat="42.96139" lon="1.864">
        <ele>467.7</ele>
        <time>2023-03-25T18:20:19.000Z</time>
      </trkpt>
      <trkpt lat="42.96134" lon="1.86399">
        <ele>468</ele>
        <time>2023-03-25T18:20:20.000Z</time>
      </trkpt>
      <trkpt lat="42.96129" lon="1.86397">
        <ele>468.3</ele>
        <time>2023-03-25T18:20:21.000Z</time>
      </trkpt>
      <trkpt lat="42.96124" lon="1.86396">
        <ele>468.5</ele>
        <time>2023-03-25T18:20:22.000Z</time>
      </trkpt>
      <trkpt lat="42.96119" lon="1.86395">
        <ele>468.8</ele>
        <time>2023-03-25T18:20:23.000Z</time>
      </trkpt>
      <trkpt lat="42.96114" lon="1.86394">
        <ele>469.1</ele>
        <time>2023-03-25T18:20:24.000Z</time>
      </trkpt>
      <trkpt lat="42.96109" lon="1.86392">
        <ele>469.3</ele>
        <time>2023-03-25T18:20:25.000Z</time>
      </trkpt>
      <trkpt lat="42.96104" lon="1.86391">
        <ele>469.6</ele>
        <time>2023-03-25T18:20:26.000Z</time>
      </trkpt>
      <trkpt lat="42.961" lon="1.8639">
        <ele>469.9</ele>
        <time>2023-03-25T18:20:27.000Z</time>
      </trkpt>
      <trkpt lat="42.96094" lon="1.86388">
        <ele>470.2</ele>
        <time>2023-03-25T18:20:28.000Z</time>
      </trkpt>
      <trkpt lat="42.96089" lon="1.86387">
        <ele>470.4</ele>
        <time>2023-03-25T18:20:29.000Z</time>
      </trkpt>
      <trkpt lat="42.96084" lon="1.86386">
        <ele>470.7</ele>
        <time>2023-03-25T18:20:30.000Z</time>
      </trkpt>
      <trkpt lat="42.9608" lon="1.86384">
        <ele>470.7</ele>
        <time>2023-03-25T18:20:31.000Z</time>
      </trkpt>
      <trkpt lat="42.96075" lon="1.86383">
        <ele>470.6</ele>
        <time>2023-03-25T18:20:32.000Z</time>
      </trkpt>
      <trkpt lat="42.9607" lon="1.86382">
        <ele>470.5</ele>
        <time>2023-03-25T18:20:33.000Z</time>
      </trkpt>
      <trkpt lat="42.96065" lon="1.86381">
        <ele>470.4</ele>
        <time>2023-03-25T18:20:34.000Z</time>
      </trkpt>
      <trkpt lat="42.9606" lon="1.86379">
        <ele>470.3</ele>
        <time>2023-03-25T18:20:35.000Z</time>
      </trkpt>
      <trkpt lat="42.96055" lon="1.86378">
        <ele>470.3</ele>
        <time>2023-03-25T18:20:36.000Z</time>
      </trkpt>
      <trkpt lat="42.96049" lon="1.86376">
        <ele>470.2</ele>
        <time>2023-03-25T18:20:37.000Z</time>
      </trkpt>
      <trkpt lat="42.96044" lon="1.86375">
        <ele>470.1</ele>
        <time>2023-03-25T18:20:38.000Z</time>
      </trkpt>
      <trkpt lat="42.9604" lon="1.86374">
        <ele>470</ele>
        <time>2023-03-25T18:20:39.000Z</time>
      </trkpt>
      <trkpt lat="42.96035" lon="1.86373">
        <ele>469.9</ele>
        <time>2023-03-25T18:20:40.000Z</time>
      </trkpt>
      <trkpt lat="42.96026" lon="1.8637">
        <ele>469.8</ele>
        <time>2023-03-25T18:20:42.000Z</time>
      </trkpt>
      <trkpt lat="42.96017" lon="1.86368">
        <ele>469.6</ele>
        <time>2023-03-25T18:20:44.000Z</time>
      </trkpt>
      <trkpt lat="42.96012" lon="1.86367">
        <ele>469.5</ele>
        <time>2023-03-25T18:20:45.000Z</time>
      </trkpt>
      <trkpt lat="42.96008" lon="1.86365">
        <ele>469.4</ele>
        <time>2023-03-25T18:20:46.000Z</time>
      </trkpt>
      <trkpt lat="42.96003" lon="1.86364">
        <ele>469.4</ele>
        <time>2023-03-25T18:20:47.000Z</time>
      </trkpt>
      <trkpt lat="42.95998" lon="1.86363">
        <ele>469.3</ele>
        <time>2023-03-25T18:20:48.000Z</time>
      </trkpt>
      <trkpt lat="42.95993" lon="1.86362">
        <ele>469.2</ele>
        <time>2023-03-25T18:20:49.000Z</time>
      </trkpt>
      <trkpt lat="42.95988" lon="1.8636">
        <ele>469.1</ele>
        <time>2023-03-25T18:20:50.000Z</time>
      </trkpt>
      <trkpt lat="42.95983" lon="1.86359">
        <ele>469</ele>
        <time>2023-03-25T18:20:51.000Z</time>
      </trkpt>
      <trkpt lat="42.95978" lon="1.86358">
        <ele>468.9</ele>
        <time>2023-03-25T18:20:52.000Z</time>
      </trkpt>
      <trkpt lat="42.95974" lon="1.86356">
        <ele>468.8</ele>
        <time>2023-03-25T18:20:53.000Z</time>
      </trkpt>
      <trkpt lat="42.95969" lon="1.86355">
        <ele>468.8</ele>
        <time>2023-03-25T18:20:54.000Z</time>
      </trkpt>
      <trkpt lat="42.95964" lon="1.86354">
        <ele>468.7</ele>
        <time>2023-03-25T18:20:55.000Z</time>
      </trkpt>
      <trkpt lat="42.95959" lon="1.86352">
        <ele>468.6</ele>
        <time>2023-03-25T18:20:56.000Z</time>
      </trkpt>
      <trkpt lat="42.95954" lon="1.86351">
        <ele>468.5</ele>
        <time>2023-03-25T18:20:57.000Z</time>
      </trkpt>
      <trkpt lat="42.95949" lon="1.86349">
        <ele>468.4</ele>
        <time>2023-03-25T18:20:58.000Z</time>
      </trkpt>
      <trkpt lat="42.95943" lon="1.86348">
        <ele>468.3</ele>
        <time>2023-03-25T18:20:59.000Z</time>
      </trkpt>
      <trkpt lat="42.95938" lon="1.86346">
        <ele>468.2</ele>
        <time>2023-03-25T18:21:00.000Z</time>
      </trkpt>
      <trkpt lat="42.95933" lon="1.86345">
        <ele>468.1</ele>
        <time>2023-03-25T18:21:01.000Z</time>
      </trkpt>
      <trkpt lat="42.95927" lon="1.86343">
        <ele>468</ele>
        <time>2023-03-25T18:21:02.000Z</time>
      </trkpt>
      <trkpt lat="42.95922" lon="1.86342">
        <ele>467.9</ele>
        <time>2023-03-25T18:21:03.000Z</time>
      </trkpt>
      <trkpt lat="42.95917" lon="1.86341">
        <ele>467.9</ele>
        <time>2023-03-25T18:21:04.000Z</time>
      </trkpt>
      <trkpt lat="42.95912" lon="1.86339">
        <ele>467.9</ele>
        <time>2023-03-25T18:21:05.000Z</time>
      </trkpt>
      <trkpt lat="42.95907" lon="1.86338">
        <ele>467.9</ele>
        <time>2023-03-25T18:21:06.000Z</time>
      </trkpt>
      <trkpt lat="42.95902" lon="1.86337">
        <ele>467.9</ele>
        <time>2023-03-25T18:21:07.000Z</time>
      </trkpt>
      <trkpt lat="42.95897" lon="1.86336">
        <ele>467.9</ele>
        <time>2023-03-25T18:21:08.000Z</time>
      </trkpt>
      <trkpt lat="42.95891" lon="1.86335">
        <ele>468</ele>
        <time>2023-03-25T18:21:09.000Z</time>
      </trkpt>
      <trkpt lat="42.95886" lon="1.86334">
        <ele>468</ele>
        <time>2023-03-25T18:21:10.000Z</time>
      </trkpt>
      <trkpt lat="42.95881" lon="1.86333">
        <ele>468</ele>
        <time>2023-03-25T18:21:11.000Z</time>
      </trkpt>
      <trkpt lat="42.95877" lon="1.86332">
        <ele>468</ele>
        <time>2023-03-25T18:21:12.000Z</time>
      </trkpt>
      <trkpt lat="42.95872" lon="1.86331">
        <ele>468</ele>
        <time>2023-03-25T18:21:13.000Z</time>
      </trkpt>
      <trkpt lat="42.95868" lon="1.8633">
        <ele>468</ele>
        <time>2023-03-25T18:21:14.000Z</time>
      </trkpt>
      <trkpt lat="42.95863" lon="1.86329">
        <ele>468.1</ele>
        <time>2023-03-25T18:21:15.000Z</time>
      </trkpt>
      <trkpt lat="42.95858" lon="1.86329">
        <ele>468.1</ele>
        <time>2023-03-25T18:21:16.000Z</time>
      </trkpt>
      <trkpt lat="42.95853" lon="1.86328">
        <ele>468.1</ele>
        <time>2023-03-25T18:21:17.000Z</time>
      </trkpt>
      <trkpt lat="42.95848" lon="1.86327">
        <ele>468.1</ele>
        <time>2023-03-25T18:21:18.000Z</time>
      </trkpt>
      <trkpt lat="42.95843" lon="1.86326">
        <ele>468.1</ele>
        <time>2023-03-25T18:21:19.000Z</time>
      </trkpt>
      <trkpt lat="42.95838" lon="1.86325">
        <ele>468.1</ele>
        <time>2023-03-25T18:21:20.000Z</time>
      </trkpt>
      <trkpt lat="42.95832" lon="1.86324">
        <ele>468.2</ele>
        <time>2023-03-25T18:21:21.000Z</time>
      </trkpt>
      <trkpt lat="42.95827" lon="1.86323">
        <ele>468.5</ele>
        <time>2023-03-25T18:21:22.000Z</time>
      </trkpt>
      <trkpt lat="42.95822" lon="1.86323">
        <ele>468.9</ele>
        <time>2023-03-25T18:21:23.000Z</time>
      </trkpt>
      <trkpt lat="42.95817" lon="1.86322">
        <ele>469.3</ele>
        <time>2023-03-25T18:21:24.000Z</time>
      </trkpt>
      <trkpt lat="42.95813" lon="1.86321">
        <ele>469.7</ele>
        <time>2023-03-25T18:21:25.000Z</time>
      </trkpt>
      <trkpt lat="42.95808" lon="1.8632">
        <ele>470.1</ele>
        <time>2023-03-25T18:21:26.000Z</time>
      </trkpt>
      <trkpt lat="42.95803" lon="1.86319">
        <ele>470.5</ele>
        <time>2023-03-25T18:21:27.000Z</time>
      </trkpt>
      <trkpt lat="42.95798" lon="1.86318">
        <ele>470.9</ele>
        <time>2023-03-25T18:21:28.000Z</time>
      </trkpt>
      <trkpt lat="42.95793" lon="1.86317">
        <ele>471.4</ele>
        <time>2023-03-25T18:21:29.000Z</time>
      </trkpt>
      <trkpt lat="42.95789" lon="1.86316">
        <ele>471.9</ele>
        <time>2023-03-25T18:21:30.000Z</time>
      </trkpt>
      <trkpt lat="42.95784" lon="1.86315">
        <ele>472.4</ele>
        <time>2023-03-25T18:21:31.000Z</time>
      </trkpt>
      <trkpt lat="42.95779" lon="1.86313">
        <ele>473</ele>
        <time>2023-03-25T18:21:32.000Z</time>
      </trkpt>
      <trkpt lat="42.95771" lon="1.86311">
        <ele>473.9</ele>
        <time>2023-03-25T18:21:34.000Z</time>
      </trkpt>
      <trkpt lat="42.95762" lon="1.86309">
        <ele>475</ele>
        <time>2023-03-25T18:21:36.000Z</time>
      </trkpt>
      <trkpt lat="42.95754" lon="1.86307">
        <ele>476.2</ele>
        <time>2023-03-25T18:21:38.000Z</time>
      </trkpt>
      <trkpt lat="42.9575" lon="1.86305">
        <ele>476.8</ele>
        <time>2023-03-25T18:21:39.000Z</time>
      </trkpt>
      <trkpt lat="42.95745" lon="1.86303">
        <ele>477.3</ele>
        <time>2023-03-25T18:21:40.000Z</time>
      </trkpt>
      <trkpt lat="42.95741" lon="1.863">
        <ele>477.8</ele>
        <time>2023-03-25T18:21:41.000Z</time>
      </trkpt>
      <trkpt lat="42.95736" lon="1.86298">
        <ele>478.3</ele>
        <time>2023-03-25T18:21:42.000Z</time>
      </trkpt>
      <trkpt lat="42.95731" lon="1.86295">
        <ele>478.9</ele>
        <time>2023-03-25T18:21:43.000Z</time>
      </trkpt>
      <trkpt lat="42.95726" lon="1.86292">
        <ele>479.4</ele>
        <time>2023-03-25T18:21:44.000Z</time>
      </trkpt>
      <trkpt lat="42.95722" lon="1.86288">
        <ele>480.3</ele>
        <time>2023-03-25T18:21:45.000Z</time>
      </trkpt>
      <trkpt lat="42.95718" lon="1.86285">
        <ele>481.2</ele>
        <time>2023-03-25T18:21:46.000Z</time>
      </trkpt>
      <trkpt lat="42.95713" lon="1.86281">
        <ele>481.8</ele>
        <time>2023-03-25T18:21:47.000Z</time>
      </trkpt>
      <trkpt lat="42.95709" lon="1.86277">
        <ele>482.7</ele>
        <time>2023-03-25T18:21:48.000Z</time>
      </trkpt>
      <trkpt lat="42.95705" lon="1.86273">
        <ele>484</ele>
        <time>2023-03-25T18:21:49.000Z</time>
      </trkpt>
      <trkpt lat="42.95701" lon="1.86269">
        <ele>485</ele>
        <time>2023-03-25T18:21:50.000Z</time>
      </trkpt>
      <trkpt lat="42.95698" lon="1.86265">
        <ele>486</ele>
        <time>2023-03-25T18:21:51.000Z</time>
      </trkpt>
      <trkpt lat="42.95695" lon="1.8626">
        <ele>487.3</ele>
        <time>2023-03-25T18:21:52.000Z</time>
      </trkpt>
      <trkpt lat="42.95691" lon="1.86255">
        <ele>488.3</ele>
        <time>2023-03-25T18:21:53.000Z</time>
      </trkpt>
      <trkpt lat="42.95688" lon="1.86251">
        <ele>489.7</ele>
        <time>2023-03-25T18:21:54.000Z</time>
      </trkpt>
      <trkpt lat="42.95685" lon="1.86246">
        <ele>491.7</ele>
        <time>2023-03-25T18:21:55.000Z</time>
      </trkpt>
      <trkpt lat="42.95682" lon="1.86241">
        <ele>493.2</ele>
        <time>2023-03-25T18:21:56.000Z</time>
      </trkpt>
      <trkpt lat="42.95677" lon="1.86231">
        <ele>497.4</ele>
        <time>2023-03-25T18:21:58.000Z</time>
      </trkpt>
      <trkpt lat="42.95674" lon="1.86226">
        <ele>499.6</ele>
        <time>2023-03-25T18:21:59.000Z</time>
      </trkpt>
      <trkpt lat="42.95671" lon="1.8622">
        <ele>502.4</ele>
        <time>2023-03-25T18:22:00.000Z</time>
      </trkpt>
      <trkpt lat="42.95668" lon="1.86214">
        <ele>504.8</ele>
        <time>2023-03-25T18:22:01.000Z</time>
      </trkpt>
      <trkpt lat="42.95665" lon="1.86208">
        <ele>506.7</ele>
        <time>2023-03-25T18:22:02.000Z</time>
      </trkpt>
      <trkpt lat="42.95663" lon="1.86203">
        <ele>508.6</ele>
        <time>2023-03-25T18:22:03.000Z</time>
      </trkpt>
      <trkpt lat="42.9566" lon="1.86197">
        <ele>509.8</ele>
        <time>2023-03-25T18:22:04.000Z</time>
      </trkpt>
      <trkpt lat="42.95656" lon="1.86191">
        <ele>511.5</ele>
        <time>2023-03-25T18:22:05.000Z</time>
      </trkpt>
      <trkpt lat="42.95653" lon="1.86185">
        <ele>513.1</ele>
        <time>2023-03-25T18:22:06.000Z</time>
      </trkpt>
      <trkpt lat="42.9565" lon="1.86179">
        <ele>514.1</ele>
        <time>2023-03-25T18:22:07.000Z</time>
      </trkpt>
      <trkpt lat="42.95647" lon="1.86173">
        <ele>515.6</ele>
        <time>2023-03-25T18:22:08.000Z</time>
      </trkpt>
      <trkpt lat="42.95644" lon="1.86167">
        <ele>516.3</ele>
        <time>2023-03-25T18:22:09.000Z</time>
      </trkpt>
      <trkpt lat="42.9564" lon="1.86162">
        <ele>517.2</ele>
        <time>2023-03-25T18:22:10.000Z</time>
      </trkpt>
      <trkpt lat="42.95637" lon="1.86156">
        <ele>518.2</ele>
        <time>2023-03-25T18:22:11.000Z</time>
      </trkpt>
      <trkpt lat="42.95635" lon="1.86151">
        <ele>519.3</ele>
        <time>2023-03-25T18:22:12.000Z</time>
      </trkpt>
      <trkpt lat="42.95632" lon="1.86146">
        <ele>520.3</ele>
        <time>2023-03-25T18:22:13.000Z</time>
      </trkpt>
      <trkpt lat="42.95629" lon="1.8614">
        <ele>521.9</ele>
        <time>2023-03-25T18:22:14.000Z</time>
      </trkpt>
      <trkpt lat="42.95626" lon="1.86135">
        <ele>522.8</ele>
        <time>2023-03-25T18:22:15.000Z</time>
      </trkpt>
      <trkpt lat="42.95622" lon="1.8613">
        <ele>523.7</ele>
        <time>2023-03-25T18:22:16.000Z</time>
      </trkpt>
      <trkpt lat="42.95618" lon="1.86125">
        <ele>523.9</ele>
        <time>2023-03-25T18:22:17.000Z</time>
      </trkpt>
      <trkpt lat="42.95615" lon="1.8612">
        <ele>524.8</ele>
        <time>2023-03-25T18:22:18.000Z</time>
      </trkpt>
      <trkpt lat="42.95611" lon="1.86116">
        <ele>525.2</ele>
        <time>2023-03-25T18:22:19.000Z</time>
      </trkpt>
      <trkpt lat="42.95606" lon="1.86112">
        <ele>525.5</ele>
        <time>2023-03-25T18:22:20.000Z</time>
      </trkpt>
      <trkpt lat="42.95602" lon="1.86108">
        <ele>525.7</ele>
        <time>2023-03-25T18:22:21.000Z</time>
      </trkpt>
      <trkpt lat="42.95598" lon="1.86105">
        <ele>526</ele>
        <time>2023-03-25T18:22:22.000Z</time>
      </trkpt>
      <trkpt lat="42.95593" lon="1.86102">
        <ele>525.8</ele>
        <time>2023-03-25T18:22:23.000Z</time>
      </trkpt>
      <trkpt lat="42.95589" lon="1.86099">
        <ele>525.6</ele>
        <time>2023-03-25T18:22:24.000Z</time>
      </trkpt>
      <trkpt lat="42.95585" lon="1.86097">
        <ele>525.5</ele>
        <time>2023-03-25T18:22:25.000Z</time>
      </trkpt>
      <trkpt lat="42.9558" lon="1.86095">
        <ele>524.4</ele>
        <time>2023-03-25T18:22:26.000Z</time>
      </trkpt>
      <trkpt lat="42.95576" lon="1.86093">
        <ele>523.5</ele>
        <time>2023-03-25T18:22:27.000Z</time>
      </trkpt>
      <trkpt lat="42.95571" lon="1.86092">
        <ele>522</ele>
        <time>2023-03-25T18:22:28.000Z</time>
      </trkpt>
      <trkpt lat="42.95567" lon="1.8609">
        <ele>520.6</ele>
        <time>2023-03-25T18:22:29.000Z</time>
      </trkpt>
      <trkpt lat="42.95558" lon="1.86089">
        <ele>517.4</ele>
        <time>2023-03-25T18:22:31.000Z</time>
      </trkpt>
      <trkpt lat="42.95553" lon="1.86089">
        <ele>515.5</ele>
        <time>2023-03-25T18:22:32.000Z</time>
      </trkpt>
      <trkpt lat="42.95549" lon="1.86088">
        <ele>513.8</ele>
        <time>2023-03-25T18:22:33.000Z</time>
      </trkpt>
      <trkpt lat="42.95544" lon="1.86088">
        <ele>511.9</ele>
        <time>2023-03-25T18:22:34.000Z</time>
      </trkpt>
      <trkpt lat="42.95539" lon="1.86088">
        <ele>509.8</ele>
        <time>2023-03-25T18:22:35.000Z</time>
      </trkpt>
      <trkpt lat="42.95534" lon="1.86088">
        <ele>507.7</ele>
        <time>2023-03-25T18:22:36.000Z</time>
      </trkpt>
      <trkpt lat="42.95529" lon="1.86088">
        <ele>505.7</ele>
        <time>2023-03-25T18:22:37.000Z</time>
      </trkpt>
      <trkpt lat="42.95524" lon="1.86088">
        <ele>503.6</ele>
        <time>2023-03-25T18:22:38.000Z</time>
      </trkpt>
      <trkpt lat="42.9552" lon="1.86088">
        <ele>501.4</ele>
        <time>2023-03-25T18:22:39.000Z</time>
      </trkpt>
      <trkpt lat="42.95515" lon="1.86088">
        <ele>499.4</ele>
        <time>2023-03-25T18:22:40.000Z</time>
      </trkpt>
      <trkpt lat="42.95507" lon="1.86089">
        <ele>495.9</ele>
        <time>2023-03-25T18:22:42.000Z</time>
      </trkpt>
      <trkpt lat="42.95498" lon="1.86089">
        <ele>492.8</ele>
        <time>2023-03-25T18:22:44.000Z</time>
      </trkpt>
      <trkpt lat="42.95494" lon="1.86089">
        <ele>492.2</ele>
        <time>2023-03-25T18:22:45.000Z</time>
      </trkpt>
      <trkpt lat="42.95489" lon="1.86088">
        <ele>491.9</ele>
        <time>2023-03-25T18:22:46.000Z</time>
      </trkpt>
      <trkpt lat="42.95484" lon="1.86087">
        <ele>491.3</ele>
        <time>2023-03-25T18:22:47.000Z</time>
      </trkpt>
      <trkpt lat="42.95479" lon="1.86086">
        <ele>490.8</ele>
        <time>2023-03-25T18:22:48.000Z</time>
      </trkpt>
      <trkpt lat="42.95474" lon="1.86086">
        <ele>490.4</ele>
        <time>2023-03-25T18:22:49.000Z</time>
      </trkpt>
      <trkpt lat="42.95469" lon="1.86085">
        <ele>489.8</ele>
        <time>2023-03-25T18:22:50.000Z</time>
      </trkpt>
      <trkpt lat="42.95465" lon="1.86084">
        <ele>489.4</ele>
        <time>2023-03-25T18:22:51.000Z</time>
      </trkpt>
      <trkpt lat="42.9546" lon="1.86083">
        <ele>489</ele>
        <time>2023-03-25T18:22:52.000Z</time>
      </trkpt>
      <trkpt lat="42.95452" lon="1.8608">
        <ele>488.3</ele>
        <time>2023-03-25T18:22:54.000Z</time>
      </trkpt>
      <trkpt lat="42.95444" lon="1.86077">
        <ele>487.5</ele>
        <time>2023-03-25T18:22:56.000Z</time>
      </trkpt>
      <trkpt lat="42.95435" lon="1.86074">
        <ele>486.5</ele>
        <time>2023-03-25T18:22:58.000Z</time>
      </trkpt>
      <trkpt lat="42.95431" lon="1.86073">
        <ele>486.1</ele>
        <time>2023-03-25T18:22:59.000Z</time>
      </trkpt>
      <trkpt lat="42.95422" lon="1.86069">
        <ele>485</ele>
        <time>2023-03-25T18:23:01.000Z</time>
      </trkpt>
      <trkpt lat="42.95414" lon="1.86067">
        <ele>484.1</ele>
        <time>2023-03-25T18:23:03.000Z</time>
      </trkpt>
      <trkpt lat="42.95405" lon="1.86065">
        <ele>483.9</ele>
        <time>2023-03-25T18:23:05.000Z</time>
      </trkpt>
      <trkpt lat="42.95401" lon="1.86064">
        <ele>483.8</ele>
        <time>2023-03-25T18:23:06.000Z</time>
      </trkpt>
      <trkpt lat="42.95393" lon="1.86061">
        <ele>483.6</ele>
        <time>2023-03-25T18:23:08.000Z</time>
      </trkpt>
      <trkpt lat="42.95388" lon="1.86059">
        <ele>483.5</ele>
        <time>2023-03-25T18:23:09.000Z</time>
      </trkpt>
      <trkpt lat="42.95384" lon="1.86058">
        <ele>483.3</ele>
        <time>2023-03-25T18:23:10.000Z</time>
      </trkpt>
      <trkpt lat="42.95375" lon="1.86055">
        <ele>483</ele>
        <time>2023-03-25T18:23:12.000Z</time>
      </trkpt>
      <trkpt lat="42.95371" lon="1.86054">
        <ele>482.9</ele>
        <time>2023-03-25T18:23:13.000Z</time>
      </trkpt>
      <trkpt lat="42.95366" lon="1.86052">
        <ele>482.7</ele>
        <time>2023-03-25T18:23:14.000Z</time>
      </trkpt>
      <trkpt lat="42.95359" lon="1.8605">
        <ele>482.4</ele>
        <time>2023-03-25T18:23:16.000Z</time>
      </trkpt>
      <trkpt lat="42.9535" lon="1.86047">
        <ele>481.9</ele>
        <time>2023-03-25T18:23:18.000Z</time>
      </trkpt>
      <trkpt lat="42.95346" lon="1.86045">
        <ele>481.7</ele>
        <time>2023-03-25T18:23:19.000Z</time>
      </trkpt>
      <trkpt lat="42.95337" lon="1.86041">
        <ele>481.2</ele>
        <time>2023-03-25T18:23:21.000Z</time>
      </trkpt>
      <trkpt lat="42.95332" lon="1.8604">
        <ele>481</ele>
        <time>2023-03-25T18:23:22.000Z</time>
      </trkpt>
      <trkpt lat="42.95327" lon="1.86039">
        <ele>480.9</ele>
        <time>2023-03-25T18:23:23.000Z</time>
      </trkpt>
      <trkpt lat="42.95322" lon="1.86038">
        <ele>480.9</ele>
        <time>2023-03-25T18:23:24.000Z</time>
      </trkpt>
      <trkpt lat="42.95318" lon="1.86037">
        <ele>480.8</ele>
        <time>2023-03-25T18:23:25.000Z</time>
      </trkpt>
      <trkpt lat="42.95313" lon="1.86036">
        <ele>480.8</ele>
        <time>2023-03-25T18:23:26.000Z</time>
      </trkpt>
      <trkpt lat="42.95308" lon="1.86035">
        <ele>480.8</ele>
        <time>2023-03-25T18:23:27.000Z</time>
      </trkpt>
      <trkpt lat="42.95304" lon="1.86033">
        <ele>480.7</ele>
        <time>2023-03-25T18:23:28.000Z</time>
      </trkpt>
      <trkpt lat="42.95299" lon="1.86031">
        <ele>480.7</ele>
        <time>2023-03-25T18:23:29.000Z</time>
      </trkpt>
      <trkpt lat="42.95294" lon="1.86029">
        <ele>480.7</ele>
        <time>2023-03-25T18:23:30.000Z</time>
      </trkpt>
      <trkpt lat="42.9529" lon="1.86028">
        <ele>480.7</ele>
        <time>2023-03-25T18:23:31.000Z</time>
      </trkpt>
      <trkpt lat="42.95285" lon="1.86026">
        <ele>480.6</ele>
        <time>2023-03-25T18:23:32.000Z</time>
      </trkpt>
      <trkpt lat="42.9528" lon="1.86025">
        <ele>480.6</ele>
        <time>2023-03-25T18:23:33.000Z</time>
      </trkpt>
      <trkpt lat="42.95276" lon="1.86023">
        <ele>480.6</ele>
        <time>2023-03-25T18:23:34.000Z</time>
      </trkpt>
      <trkpt lat="42.95271" lon="1.86022">
        <ele>480.6</ele>
        <time>2023-03-25T18:23:35.000Z</time>
      </trkpt>
      <trkpt lat="42.95266" lon="1.8602">
        <ele>480.6</ele>
        <time>2023-03-25T18:23:36.000Z</time>
      </trkpt>
      <trkpt lat="42.95262" lon="1.86018">
        <ele>480.6</ele>
        <time>2023-03-25T18:23:37.000Z</time>
      </trkpt>
      <trkpt lat="42.95257" lon="1.86017">
        <ele>480.6</ele>
        <time>2023-03-25T18:23:38.000Z</time>
      </trkpt>
      <trkpt lat="42.95253" lon="1.86015">
        <ele>480.7</ele>
        <time>2023-03-25T18:23:39.000Z</time>
      </trkpt>
      <trkpt lat="42.95244" lon="1.86013">
        <ele>480.9</ele>
        <time>2023-03-25T18:23:41.000Z</time>
      </trkpt>
      <trkpt lat="42.95236" lon="1.8601">
        <ele>481.4</ele>
        <time>2023-03-25T18:23:43.000Z</time>
      </trkpt>
      <trkpt lat="42.95227" lon="1.86007">
        <ele>481.9</ele>
        <time>2023-03-25T18:23:45.000Z</time>
      </trkpt>
      <trkpt lat="42.95219" lon="1.86004">
        <ele>482.4</ele>
        <time>2023-03-25T18:23:47.000Z</time>
      </trkpt>
      <trkpt lat="42.95215" lon="1.86002">
        <ele>482.6</ele>
        <time>2023-03-25T18:23:48.000Z</time>
      </trkpt>
      <trkpt lat="42.95207" lon="1.85999">
        <ele>483.1</ele>
        <time>2023-03-25T18:23:50.000Z</time>
      </trkpt>
      <trkpt lat="42.95202" lon="1.85998">
        <ele>483.3</ele>
        <time>2023-03-25T18:23:51.000Z</time>
      </trkpt>
      <trkpt lat="42.95198" lon="1.85996">
        <ele>483.6</ele>
        <time>2023-03-25T18:23:52.000Z</time>
      </trkpt>
      <trkpt lat="42.95193" lon="1.85994">
        <ele>483.8</ele>
        <time>2023-03-25T18:23:53.000Z</time>
      </trkpt>
      <trkpt lat="42.95189" lon="1.85993">
        <ele>484.1</ele>
        <time>2023-03-25T18:23:54.000Z</time>
      </trkpt>
      <trkpt lat="42.95184" lon="1.85991">
        <ele>484.3</ele>
        <time>2023-03-25T18:23:55.000Z</time>
      </trkpt>
      <trkpt lat="42.95179" lon="1.8599">
        <ele>484.6</ele>
        <time>2023-03-25T18:23:56.000Z</time>
      </trkpt>
      <trkpt lat="42.95171" lon="1.85987">
        <ele>485.1</ele>
        <time>2023-03-25T18:23:58.000Z</time>
      </trkpt>
      <trkpt lat="42.95162" lon="1.85985">
        <ele>485.5</ele>
        <time>2023-03-25T18:24:00.000Z</time>
      </trkpt>
      <trkpt lat="42.95154" lon="1.85982">
        <ele>485.8</ele>
        <time>2023-03-25T18:24:02.000Z</time>
      </trkpt>
      <trkpt lat="42.95149" lon="1.85981">
        <ele>486</ele>
        <time>2023-03-25T18:24:03.000Z</time>
      </trkpt>
      <trkpt lat="42.95145" lon="1.8598">
        <ele>486.2</ele>
        <time>2023-03-25T18:24:04.000Z</time>
      </trkpt>
      <trkpt lat="42.9514" lon="1.85978">
        <ele>486.4</ele>
        <time>2023-03-25T18:24:05.000Z</time>
      </trkpt>
      <trkpt lat="42.95133" lon="1.85976">
        <ele>486.7</ele>
        <time>2023-03-25T18:24:07.000Z</time>
      </trkpt>
      <trkpt lat="42.95125" lon="1.85973">
        <ele>487.1</ele>
        <time>2023-03-25T18:24:09.000Z</time>
      </trkpt>
      <trkpt lat="42.95116" lon="1.8597">
        <ele>487.6</ele>
        <time>2023-03-25T18:24:11.000Z</time>
      </trkpt>
      <trkpt lat="42.95108" lon="1.85967">
        <ele>488.1</ele>
        <time>2023-03-25T18:24:13.000Z</time>
      </trkpt>
      <trkpt lat="42.95099" lon="1.85964">
        <ele>488.8</ele>
        <time>2023-03-25T18:24:15.000Z</time>
      </trkpt>
      <trkpt lat="42.9509" lon="1.85961">
        <ele>489.4</ele>
        <time>2023-03-25T18:24:17.000Z</time>
      </trkpt>
      <trkpt lat="42.95084" lon="1.85959">
        <ele>490</ele>
        <time>2023-03-25T18:24:18.000Z</time>
      </trkpt>
      <trkpt lat="42.95079" lon="1.85957">
        <ele>490.3</ele>
        <time>2023-03-25T18:24:19.000Z</time>
      </trkpt>
      <trkpt lat="42.95074" lon="1.85955">
        <ele>490.4</ele>
        <time>2023-03-25T18:24:20.000Z</time>
      </trkpt>
      <trkpt lat="42.95069" lon="1.85953">
        <ele>490.5</ele>
        <time>2023-03-25T18:24:21.000Z</time>
      </trkpt>
      <trkpt lat="42.95065" lon="1.85951">
        <ele>490.8</ele>
        <time>2023-03-25T18:24:22.000Z</time>
      </trkpt>
      <trkpt lat="42.95056" lon="1.85949">
        <ele>491.1</ele>
        <time>2023-03-25T18:24:24.000Z</time>
      </trkpt>
      <trkpt lat="42.95051" lon="1.85947">
        <ele>491.2</ele>
        <time>2023-03-25T18:24:25.000Z</time>
      </trkpt>
      <trkpt lat="42.95047" lon="1.85945">
        <ele>491.5</ele>
        <time>2023-03-25T18:24:26.000Z</time>
      </trkpt>
      <trkpt lat="42.95039" lon="1.85942">
        <ele>491.8</ele>
        <time>2023-03-25T18:24:28.000Z</time>
      </trkpt>
      <trkpt lat="42.95034" lon="1.8594">
        <ele>492</ele>
        <time>2023-03-25T18:24:29.000Z</time>
      </trkpt>
      <trkpt lat="42.9503" lon="1.85939">
        <ele>492.2</ele>
        <time>2023-03-25T18:24:30.000Z</time>
      </trkpt>
      <trkpt lat="42.95021" lon="1.85936">
        <ele>492.5</ele>
        <time>2023-03-25T18:24:32.000Z</time>
      </trkpt>
      <trkpt lat="42.95013" lon="1.85933">
        <ele>493</ele>
        <time>2023-03-25T18:24:34.000Z</time>
      </trkpt>
      <trkpt lat="42.95005" lon="1.8593">
        <ele>493.4</ele>
        <time>2023-03-25T18:24:36.000Z</time>
      </trkpt>
      <trkpt lat="42.94997" lon="1.85927">
        <ele>493.8</ele>
        <time>2023-03-25T18:24:38.000Z</time>
      </trkpt>
      <trkpt lat="42.94989" lon="1.85924">
        <ele>494.3</ele>
        <time>2023-03-25T18:24:40.000Z</time>
      </trkpt>
      <trkpt lat="42.94982" lon="1.85921">
        <ele>495</ele>
        <time>2023-03-25T18:24:42.000Z</time>
      </trkpt>
      <trkpt lat="42.94975" lon="1.85918">
        <ele>495.4</ele>
        <time>2023-03-25T18:24:44.000Z</time>
      </trkpt>
      <trkpt lat="42.94968" lon="1.85916">
        <ele>496</ele>
        <time>2023-03-25T18:24:46.000Z</time>
      </trkpt>
      <trkpt lat="42.94961" lon="1.85914">
        <ele>496.6</ele>
        <time>2023-03-25T18:24:48.000Z</time>
      </trkpt>
      <trkpt lat="42.94952" lon="1.85912">
        <ele>497</ele>
        <time>2023-03-25T18:24:50.000Z</time>
      </trkpt>
      <trkpt lat="42.94945" lon="1.85912">
        <ele>497.2</ele>
        <time>2023-03-25T18:24:52.000Z</time>
      </trkpt>
      <trkpt lat="42.94937" lon="1.85911">
        <ele>497.6</ele>
        <time>2023-03-25T18:24:54.000Z</time>
      </trkpt>
      <trkpt lat="42.9493" lon="1.85911">
        <ele>497.8</ele>
        <time>2023-03-25T18:24:56.000Z</time>
      </trkpt>
      <trkpt lat="42.94923" lon="1.85911">
        <ele>498</ele>
        <time>2023-03-25T18:24:58.000Z</time>
      </trkpt>
      <trkpt lat="42.94915" lon="1.85912">
        <ele>497.9</ele>
        <time>2023-03-25T18:25:00.000Z</time>
      </trkpt>
      <trkpt lat="42.94907" lon="1.85912">
        <ele>497.7</ele>
        <time>2023-03-25T18:25:02.000Z</time>
      </trkpt>
      <trkpt lat="42.94899" lon="1.85913">
        <ele>497.3</ele>
        <time>2023-03-25T18:25:04.000Z</time>
      </trkpt>
      <trkpt lat="42.94892" lon="1.85915">
        <ele>496.8</ele>
        <time>2023-03-25T18:25:06.000Z</time>
      </trkpt>
      <trkpt lat="42.94885" lon="1.85916">
        <ele>496.5</ele>
        <time>2023-03-25T18:25:08.000Z</time>
      </trkpt>
      <trkpt lat="42.94877" lon="1.85918">
        <ele>495.9</ele>
        <time>2023-03-25T18:25:10.000Z</time>
      </trkpt>
      <trkpt lat="42.94869" lon="1.85921">
        <ele>495.5</ele>
        <time>2023-03-25T18:25:12.000Z</time>
      </trkpt>
      <trkpt lat="42.94862" lon="1.85923">
        <ele>495.2</ele>
        <time>2023-03-25T18:25:14.000Z</time>
      </trkpt>
      <trkpt lat="42.94854" lon="1.85925">
        <ele>494.8</ele>
        <time>2023-03-25T18:25:16.000Z</time>
      </trkpt>
      <trkpt lat="42.94846" lon="1.85927">
        <ele>494.5</ele>
        <time>2023-03-25T18:25:18.000Z</time>
      </trkpt>
      <trkpt lat="42.94837" lon="1.85928">
        <ele>494.2</ele>
        <time>2023-03-25T18:25:20.000Z</time>
      </trkpt>
      <trkpt lat="42.94833" lon="1.85928">
        <ele>494.1</ele>
        <time>2023-03-25T18:25:21.000Z</time>
      </trkpt>
      <trkpt lat="42.94828" lon="1.85929">
        <ele>493.9</ele>
        <time>2023-03-25T18:25:22.000Z</time>
      </trkpt>
      <trkpt lat="42.94823" lon="1.85929">
        <ele>493.8</ele>
        <time>2023-03-25T18:25:23.000Z</time>
      </trkpt>
      <trkpt lat="42.94818" lon="1.85929">
        <ele>493.7</ele>
        <time>2023-03-25T18:25:24.000Z</time>
      </trkpt>
      <trkpt lat="42.94813" lon="1.8593">
        <ele>493.6</ele>
        <time>2023-03-25T18:25:25.000Z</time>
      </trkpt>
      <trkpt lat="42.94807" lon="1.8593">
        <ele>493.5</ele>
        <time>2023-03-25T18:25:26.000Z</time>
      </trkpt>
      <trkpt lat="42.94802" lon="1.8593">
        <ele>493.4</ele>
        <time>2023-03-25T18:25:27.000Z</time>
      </trkpt>
      <trkpt lat="42.94797" lon="1.85929">
        <ele>493.4</ele>
        <time>2023-03-25T18:25:28.000Z</time>
      </trkpt>
      <trkpt lat="42.94792" lon="1.85928">
        <ele>493.4</ele>
        <time>2023-03-25T18:25:29.000Z</time>
      </trkpt>
      <trkpt lat="42.94786" lon="1.85926">
        <ele>493.4</ele>
        <time>2023-03-25T18:25:30.000Z</time>
      </trkpt>
      <trkpt lat="42.94781" lon="1.85926">
        <ele>493.3</ele>
        <time>2023-03-25T18:25:31.000Z</time>
      </trkpt>
      <trkpt lat="42.94775" lon="1.85924">
        <ele>493.3</ele>
        <time>2023-03-25T18:25:32.000Z</time>
      </trkpt>
      <trkpt lat="42.9477" lon="1.85922">
        <ele>493.2</ele>
        <time>2023-03-25T18:25:33.000Z</time>
      </trkpt>
      <trkpt lat="42.94765" lon="1.8592">
        <ele>493.2</ele>
        <time>2023-03-25T18:25:34.000Z</time>
      </trkpt>
      <trkpt lat="42.94759" lon="1.85917">
        <ele>493.2</ele>
        <time>2023-03-25T18:25:35.000Z</time>
      </trkpt>
      <trkpt lat="42.94752" lon="1.85914">
        <ele>493.2</ele>
        <time>2023-03-25T18:25:36.000Z</time>
      </trkpt>
      <trkpt lat="42.94746" lon="1.85911">
        <ele>493.4</ele>
        <time>2023-03-25T18:25:37.000Z</time>
      </trkpt>
      <trkpt lat="42.94741" lon="1.85908">
        <ele>493.5</ele>
        <time>2023-03-25T18:25:38.000Z</time>
      </trkpt>
      <trkpt lat="42.94735" lon="1.85905">
        <ele>493.6</ele>
        <time>2023-03-25T18:25:39.000Z</time>
      </trkpt>
      <trkpt lat="42.9473" lon="1.85903">
        <ele>493.7</ele>
        <time>2023-03-25T18:25:40.000Z</time>
      </trkpt>
      <trkpt lat="42.94725" lon="1.85901">
        <ele>493.9</ele>
        <time>2023-03-25T18:25:41.000Z</time>
      </trkpt>
      <trkpt lat="42.94721" lon="1.85898">
        <ele>494</ele>
        <time>2023-03-25T18:25:42.000Z</time>
      </trkpt>
      <trkpt lat="42.94714" lon="1.85893">
        <ele>494.2</ele>
        <time>2023-03-25T18:25:44.000Z</time>
      </trkpt>
      <trkpt lat="42.94707" lon="1.85889">
        <ele>494.3</ele>
        <time>2023-03-25T18:25:46.000Z</time>
      </trkpt>
      <trkpt lat="42.94699" lon="1.85885">
        <ele>494.5</ele>
        <time>2023-03-25T18:25:48.000Z</time>
      </trkpt>
      <trkpt lat="42.94695" lon="1.85883">
        <ele>494.5</ele>
        <time>2023-03-25T18:25:49.000Z</time>
      </trkpt>
      <trkpt lat="42.9469" lon="1.85881">
        <ele>494.6</ele>
        <time>2023-03-25T18:25:50.000Z</time>
      </trkpt>
      <trkpt lat="42.94684" lon="1.85879">
        <ele>494.7</ele>
        <time>2023-03-25T18:25:51.000Z</time>
      </trkpt>
      <trkpt lat="42.9468" lon="1.85876">
        <ele>494.7</ele>
        <time>2023-03-25T18:25:52.000Z</time>
      </trkpt>
      <trkpt lat="42.94671" lon="1.85872">
        <ele>494.8</ele>
        <time>2023-03-25T18:25:54.000Z</time>
      </trkpt>
      <trkpt lat="42.94667" lon="1.85869">
        <ele>494.9</ele>
        <time>2023-03-25T18:25:55.000Z</time>
      </trkpt>
      <trkpt lat="42.94662" lon="1.85867">
        <ele>494.9</ele>
        <time>2023-03-25T18:25:56.000Z</time>
      </trkpt>
      <trkpt lat="42.94658" lon="1.85865">
        <ele>495.1</ele>
        <time>2023-03-25T18:25:57.000Z</time>
      </trkpt>
      <trkpt lat="42.94653" lon="1.85863">
        <ele>495.2</ele>
        <time>2023-03-25T18:25:58.000Z</time>
      </trkpt>
      <trkpt lat="42.94648" lon="1.8586">
        <ele>495.3</ele>
        <time>2023-03-25T18:25:59.000Z</time>
      </trkpt>
      <trkpt lat="42.94643" lon="1.85858">
        <ele>495.4</ele>
        <time>2023-03-25T18:26:00.000Z</time>
      </trkpt>
      <trkpt lat="42.94639" lon="1.85855">
        <ele>495.5</ele>
        <time>2023-03-25T18:26:01.000Z</time>
      </trkpt>
      <trkpt lat="42.94634" lon="1.85852">
        <ele>495.6</ele>
        <time>2023-03-25T18:26:02.000Z</time>
      </trkpt>
      <trkpt lat="42.9463" lon="1.8585">
        <ele>495.7</ele>
        <time>2023-03-25T18:26:03.000Z</time>
      </trkpt>
      <trkpt lat="42.94625" lon="1.85847">
        <ele>495.8</ele>
        <time>2023-03-25T18:26:04.000Z</time>
      </trkpt>
      <trkpt lat="42.9462" lon="1.85844">
        <ele>495.9</ele>
        <time>2023-03-25T18:26:05.000Z</time>
      </trkpt>
      <trkpt lat="42.94615" lon="1.85841">
        <ele>496</ele>
        <time>2023-03-25T18:26:06.000Z</time>
      </trkpt>
      <trkpt lat="42.9461" lon="1.85838">
        <ele>496.1</ele>
        <time>2023-03-25T18:26:07.000Z</time>
      </trkpt>
      <trkpt lat="42.94605" lon="1.85835">
        <ele>496.2</ele>
        <time>2023-03-25T18:26:08.000Z</time>
      </trkpt>
      <trkpt lat="42.94601" lon="1.85832">
        <ele>496.4</ele>
        <time>2023-03-25T18:26:09.000Z</time>
      </trkpt>
      <trkpt lat="42.94596" lon="1.8583">
        <ele>496.6</ele>
        <time>2023-03-25T18:26:10.000Z</time>
      </trkpt>
      <trkpt lat="42.94591" lon="1.85827">
        <ele>496.8</ele>
        <time>2023-03-25T18:26:11.000Z</time>
      </trkpt>
      <trkpt lat="42.94587" lon="1.85824">
        <ele>497</ele>
        <time>2023-03-25T18:26:12.000Z</time>
      </trkpt>
      <trkpt lat="42.94583" lon="1.85822">
        <ele>497.2</ele>
        <time>2023-03-25T18:26:13.000Z</time>
      </trkpt>
      <trkpt lat="42.94578" lon="1.85819">
        <ele>497.3</ele>
        <time>2023-03-25T18:26:14.000Z</time>
      </trkpt>
      <trkpt lat="42.94573" lon="1.85817">
        <ele>497.4</ele>
        <time>2023-03-25T18:26:15.000Z</time>
      </trkpt>
      <trkpt lat="42.94569" lon="1.85814">
        <ele>497.4</ele>
        <time>2023-03-25T18:26:16.000Z</time>
      </trkpt>
      <trkpt lat="42.94565" lon="1.85812">
        <ele>497.4</ele>
        <time>2023-03-25T18:26:17.000Z</time>
      </trkpt>
      <trkpt lat="42.9456" lon="1.8581">
        <ele>497.4</ele>
        <time>2023-03-25T18:26:18.000Z</time>
      </trkpt>
      <trkpt lat="42.94552" lon="1.85805">
        <ele>497.3</ele>
        <time>2023-03-25T18:26:20.000Z</time>
      </trkpt>
      <trkpt lat="42.94543" lon="1.85801">
        <ele>497.1</ele>
        <time>2023-03-25T18:26:22.000Z</time>
      </trkpt>
      <trkpt lat="42.94539" lon="1.85798">
        <ele>497.1</ele>
        <time>2023-03-25T18:26:23.000Z</time>
      </trkpt>
      <trkpt lat="42.94531" lon="1.85795">
        <ele>496.8</ele>
        <time>2023-03-25T18:26:25.000Z</time>
      </trkpt>
      <trkpt lat="42.94523" lon="1.85791">
        <ele>496.6</ele>
        <time>2023-03-25T18:26:27.000Z</time>
      </trkpt>
      <trkpt lat="42.94515" lon="1.85786">
        <ele>496.4</ele>
        <time>2023-03-25T18:26:29.000Z</time>
      </trkpt>
      <trkpt lat="42.94507" lon="1.85781">
        <ele>496.1</ele>
        <time>2023-03-25T18:26:31.000Z</time>
      </trkpt>
      <trkpt lat="42.94499" lon="1.85777">
        <ele>495.7</ele>
        <time>2023-03-25T18:26:33.000Z</time>
      </trkpt>
      <trkpt lat="42.94491" lon="1.85773">
        <ele>495.9</ele>
        <time>2023-03-25T18:26:35.000Z</time>
      </trkpt>
      <trkpt lat="42.94487" lon="1.85771">
        <ele>496</ele>
        <time>2023-03-25T18:26:36.000Z</time>
      </trkpt>
      <trkpt lat="42.94482" lon="1.85769">
        <ele>496.1</ele>
        <time>2023-03-25T18:26:37.000Z</time>
      </trkpt>
      <trkpt lat="42.94474" lon="1.85764">
        <ele>496.2</ele>
        <time>2023-03-25T18:26:39.000Z</time>
      </trkpt>
      <trkpt lat="42.94469" lon="1.85762">
        <ele>496.2</ele>
        <time>2023-03-25T18:26:40.000Z</time>
      </trkpt>
      <trkpt lat="42.94465" lon="1.85759">
        <ele>496.3</ele>
        <time>2023-03-25T18:26:41.000Z</time>
      </trkpt>
      <trkpt lat="42.94461" lon="1.85757">
        <ele>496.3</ele>
        <time>2023-03-25T18:26:42.000Z</time>
      </trkpt>
      <trkpt lat="42.94456" lon="1.85754">
        <ele>496.4</ele>
        <time>2023-03-25T18:26:43.000Z</time>
      </trkpt>
      <trkpt lat="42.94452" lon="1.85752">
        <ele>496.4</ele>
        <time>2023-03-25T18:26:44.000Z</time>
      </trkpt>
      <trkpt lat="42.94444" lon="1.85748">
        <ele>496.4</ele>
        <time>2023-03-25T18:26:46.000Z</time>
      </trkpt>
      <trkpt lat="42.94436" lon="1.85743">
        <ele>496.5</ele>
        <time>2023-03-25T18:26:48.000Z</time>
      </trkpt>
      <trkpt lat="42.94428" lon="1.85739">
        <ele>496.4</ele>
        <time>2023-03-25T18:26:50.000Z</time>
      </trkpt>
      <trkpt lat="42.9442" lon="1.85735">
        <ele>496.3</ele>
        <time>2023-03-25T18:26:52.000Z</time>
      </trkpt>
      <trkpt lat="42.94412" lon="1.8573">
        <ele>496.3</ele>
        <time>2023-03-25T18:26:54.000Z</time>
      </trkpt>
      <trkpt lat="42.94405" lon="1.85726">
        <ele>496.5</ele>
        <time>2023-03-25T18:26:56.000Z</time>
      </trkpt>
      <trkpt lat="42.94398" lon="1.85722">
        <ele>496.6</ele>
        <time>2023-03-25T18:26:58.000Z</time>
      </trkpt>
      <trkpt lat="42.9439" lon="1.85719">
        <ele>496.7</ele>
        <time>2023-03-25T18:27:00.000Z</time>
      </trkpt>
      <trkpt lat="42.94383" lon="1.85715">
        <ele>496.7</ele>
        <time>2023-03-25T18:27:02.000Z</time>
      </trkpt>
      <trkpt lat="42.94375" lon="1.8571">
        <ele>496.8</ele>
        <time>2023-03-25T18:27:04.000Z</time>
      </trkpt>
      <trkpt lat="42.94367" lon="1.85706">
        <ele>496.8</ele>
        <time>2023-03-25T18:27:06.000Z</time>
      </trkpt>
      <trkpt lat="42.94359" lon="1.85702">
        <ele>496.8</ele>
        <time>2023-03-25T18:27:08.000Z</time>
      </trkpt>
      <trkpt lat="42.94351" lon="1.85698">
        <ele>496.7</ele>
        <time>2023-03-25T18:27:10.000Z</time>
      </trkpt>
      <trkpt lat="42.94343" lon="1.85693">
        <ele>496.6</ele>
        <time>2023-03-25T18:27:12.000Z</time>
      </trkpt>
      <trkpt lat="42.94339" lon="1.85691">
        <ele>496.6</ele>
        <time>2023-03-25T18:27:13.000Z</time>
      </trkpt>
      <trkpt lat="42.94331" lon="1.85686">
        <ele>496.5</ele>
        <time>2023-03-25T18:27:15.000Z</time>
      </trkpt>
      <trkpt lat="42.94323" lon="1.85681">
        <ele>496.7</ele>
        <time>2023-03-25T18:27:17.000Z</time>
      </trkpt>
      <trkpt lat="42.94319" lon="1.85679">
        <ele>496.8</ele>
        <time>2023-03-25T18:27:18.000Z</time>
      </trkpt>
      <trkpt lat="42.94315" lon="1.85676">
        <ele>496.9</ele>
        <time>2023-03-25T18:27:19.000Z</time>
      </trkpt>
      <trkpt lat="42.9431" lon="1.85673">
        <ele>497</ele>
        <time>2023-03-25T18:27:20.000Z</time>
      </trkpt>
      <trkpt lat="42.94303" lon="1.85667">
        <ele>497.1</ele>
        <time>2023-03-25T18:27:22.000Z</time>
      </trkpt>
      <trkpt lat="42.94296" lon="1.85661">
        <ele>497.9</ele>
        <time>2023-03-25T18:27:24.000Z</time>
      </trkpt>
      <trkpt lat="42.94289" lon="1.85655">
        <ele>498.6</ele>
        <time>2023-03-25T18:27:26.000Z</time>
      </trkpt>
      <trkpt lat="42.94281" lon="1.85649">
        <ele>499.2</ele>
        <time>2023-03-25T18:27:28.000Z</time>
      </trkpt>
      <trkpt lat="42.94274" lon="1.85642">
        <ele>499.7</ele>
        <time>2023-03-25T18:27:30.000Z</time>
      </trkpt>
      <trkpt lat="42.94267" lon="1.85636">
        <ele>500.3</ele>
        <time>2023-03-25T18:27:32.000Z</time>
      </trkpt>
      <trkpt lat="42.94261" lon="1.85631">
        <ele>500.6</ele>
        <time>2023-03-25T18:27:34.000Z</time>
      </trkpt>
      <trkpt lat="42.94254" lon="1.85625">
        <ele>501</ele>
        <time>2023-03-25T18:27:36.000Z</time>
      </trkpt>
      <trkpt lat="42.94247" lon="1.85619">
        <ele>501.4</ele>
        <time>2023-03-25T18:27:38.000Z</time>
      </trkpt>
      <trkpt lat="42.9424" lon="1.85613">
        <ele>501.9</ele>
        <time>2023-03-25T18:27:40.000Z</time>
      </trkpt>
      <trkpt lat="42.94232" lon="1.85607">
        <ele>502.3</ele>
        <time>2023-03-25T18:27:42.000Z</time>
      </trkpt>
      <trkpt lat="42.94225" lon="1.85602">
        <ele>502.7</ele>
        <time>2023-03-25T18:27:44.000Z</time>
      </trkpt>
      <trkpt lat="42.94217" lon="1.85596">
        <ele>503</ele>
        <time>2023-03-25T18:27:46.000Z</time>
      </trkpt>
      <trkpt lat="42.9421" lon="1.8559">
        <ele>503.3</ele>
        <time>2023-03-25T18:27:48.000Z</time>
      </trkpt>
      <trkpt lat="42.94203" lon="1.85584">
        <ele>503.6</ele>
        <time>2023-03-25T18:27:50.000Z</time>
      </trkpt>
      <trkpt lat="42.94196" lon="1.85578">
        <ele>503.9</ele>
        <time>2023-03-25T18:27:52.000Z</time>
      </trkpt>
      <trkpt lat="42.94189" lon="1.85572">
        <ele>504.2</ele>
        <time>2023-03-25T18:27:54.000Z</time>
      </trkpt>
      <trkpt lat="42.94182" lon="1.85566">
        <ele>504.4</ele>
        <time>2023-03-25T18:27:56.000Z</time>
      </trkpt>
      <trkpt lat="42.94175" lon="1.8556">
        <ele>504.4</ele>
        <time>2023-03-25T18:27:58.000Z</time>
      </trkpt>
      <trkpt lat="42.94168" lon="1.85554">
        <ele>504.4</ele>
        <time>2023-03-25T18:28:00.000Z</time>
      </trkpt>
      <trkpt lat="42.94161" lon="1.85549">
        <ele>504.4</ele>
        <time>2023-03-25T18:28:02.000Z</time>
      </trkpt>
      <trkpt lat="42.94154" lon="1.85543">
        <ele>504.5</ele>
        <time>2023-03-25T18:28:04.000Z</time>
      </trkpt>
      <trkpt lat="42.94146" lon="1.85537">
        <ele>504.6</ele>
        <time>2023-03-25T18:28:06.000Z</time>
      </trkpt>
      <trkpt lat="42.94139" lon="1.85531">
        <ele>504.6</ele>
        <time>2023-03-25T18:28:08.000Z</time>
      </trkpt>
      <trkpt lat="42.94132" lon="1.85525">
        <ele>504.7</ele>
        <time>2023-03-25T18:28:10.000Z</time>
      </trkpt>
      <trkpt lat="42.94125" lon="1.8552">
        <ele>504.8</ele>
        <time>2023-03-25T18:28:12.000Z</time>
      </trkpt>
      <trkpt lat="42.94118" lon="1.85514">
        <ele>504.8</ele>
        <time>2023-03-25T18:28:14.000Z</time>
      </trkpt>
      <trkpt lat="42.94111" lon="1.85508">
        <ele>504.9</ele>
        <time>2023-03-25T18:28:16.000Z</time>
      </trkpt>
      <trkpt lat="42.94104" lon="1.85502">
        <ele>505</ele>
        <time>2023-03-25T18:28:18.000Z</time>
      </trkpt>
      <trkpt lat="42.94097" lon="1.85497">
        <ele>505</ele>
        <time>2023-03-25T18:28:20.000Z</time>
      </trkpt>
      <trkpt lat="42.94091" lon="1.85492">
        <ele>505</ele>
        <time>2023-03-25T18:28:22.000Z</time>
      </trkpt>
      <trkpt lat="42.94085" lon="1.85487">
        <ele>504.9</ele>
        <time>2023-03-25T18:28:24.000Z</time>
      </trkpt>
      <trkpt lat="42.94079" lon="1.85482">
        <ele>504.9</ele>
        <time>2023-03-25T18:28:26.000Z</time>
      </trkpt>
      <trkpt lat="42.94074" lon="1.85476">
        <ele>505</ele>
        <time>2023-03-25T18:28:28.000Z</time>
      </trkpt>
      <trkpt lat="42.9407" lon="1.85472">
        <ele>505</ele>
        <time>2023-03-25T18:28:30.000Z</time>
      </trkpt>
      <trkpt lat="42.94066" lon="1.85467">
        <ele>505.1</ele>
        <time>2023-03-25T18:28:33.000Z</time>
      </trkpt>
      <trkpt lat="42.94062" lon="1.85462">
        <ele>505.2</ele>
        <time>2023-03-25T18:28:35.000Z</time>
      </trkpt>
      <trkpt lat="42.94058" lon="1.85458">
        <ele>505.3</ele>
        <time>2023-03-25T18:28:37.000Z</time>
      </trkpt>
      <trkpt lat="42.94054" lon="1.85454">
        <ele>505.4</ele>
        <time>2023-03-25T18:28:39.000Z</time>
      </trkpt>
      <trkpt lat="42.94049" lon="1.85451">
        <ele>505.5</ele>
        <time>2023-03-25T18:28:41.000Z</time>
      </trkpt>
      <trkpt lat="42.94045" lon="1.85448">
        <ele>505.6</ele>
        <time>2023-03-25T18:28:43.000Z</time>
      </trkpt>
      <trkpt lat="42.9404" lon="1.85444">
        <ele>505.7</ele>
        <time>2023-03-25T18:28:45.000Z</time>
      </trkpt>
      <trkpt lat="42.94036" lon="1.8544">
        <ele>505.8</ele>
        <time>2023-03-25T18:28:47.000Z</time>
      </trkpt>
      <trkpt lat="42.94031" lon="1.85436">
        <ele>506</ele>
        <time>2023-03-25T18:28:49.000Z</time>
      </trkpt>
      <trkpt lat="42.94025" lon="1.85431">
        <ele>506.1</ele>
        <time>2023-03-25T18:28:51.000Z</time>
      </trkpt>
      <trkpt lat="42.94019" lon="1.85426">
        <ele>506.3</ele>
        <time>2023-03-25T18:28:53.000Z</time>
      </trkpt>
      <trkpt lat="42.94013" lon="1.85421">
        <ele>506.5</ele>
        <time>2023-03-25T18:28:55.000Z</time>
      </trkpt>
      <trkpt lat="42.94007" lon="1.85416">
        <ele>506.7</ele>
        <time>2023-03-25T18:28:57.000Z</time>
      </trkpt>
      <trkpt lat="42.94" lon="1.8541">
        <ele>506.9</ele>
        <time>2023-03-25T18:28:59.000Z</time>
      </trkpt>
      <trkpt lat="42.93993" lon="1.85404">
        <ele>506.9</ele>
        <time>2023-03-25T18:29:01.000Z</time>
      </trkpt>
      <trkpt lat="42.93987" lon="1.85398">
        <ele>506.9</ele>
        <time>2023-03-25T18:29:03.000Z</time>
      </trkpt>
      <trkpt lat="42.9398" lon="1.85393">
        <ele>506.9</ele>
        <time>2023-03-25T18:29:05.000Z</time>
      </trkpt>
      <trkpt lat="42.93974" lon="1.85387">
        <ele>507</ele>
        <time>2023-03-25T18:29:07.000Z</time>
      </trkpt>
      <trkpt lat="42.93967" lon="1.85381">
        <ele>507</ele>
        <time>2023-03-25T18:29:09.000Z</time>
      </trkpt>
      <trkpt lat="42.93959" lon="1.85375">
        <ele>507</ele>
        <time>2023-03-25T18:29:11.000Z</time>
      </trkpt>
      <trkpt lat="42.93952" lon="1.85368">
        <ele>507</ele>
        <time>2023-03-25T18:29:13.000Z</time>
      </trkpt>
      <trkpt lat="42.93945" lon="1.85363">
        <ele>507</ele>
        <time>2023-03-25T18:29:15.000Z</time>
      </trkpt>
      <trkpt lat="42.93939" lon="1.85358">
        <ele>507</ele>
        <time>2023-03-25T18:29:17.000Z</time>
      </trkpt>
      <trkpt lat="42.93933" lon="1.85353">
        <ele>507</ele>
        <time>2023-03-25T18:29:19.000Z</time>
      </trkpt>
      <trkpt lat="42.93926" lon="1.85348">
        <ele>507.1</ele>
        <time>2023-03-25T18:29:21.000Z</time>
      </trkpt>
      <trkpt lat="42.9392" lon="1.85342">
        <ele>507.1</ele>
        <time>2023-03-25T18:29:23.000Z</time>
      </trkpt>
      <trkpt lat="42.93913" lon="1.85337">
        <ele>507.2</ele>
        <time>2023-03-25T18:29:25.000Z</time>
      </trkpt>
      <trkpt lat="42.93907" lon="1.85331">
        <ele>507.5</ele>
        <time>2023-03-25T18:29:27.000Z</time>
      </trkpt>
      <trkpt lat="42.939" lon="1.85326">
        <ele>507.8</ele>
        <time>2023-03-25T18:29:29.000Z</time>
      </trkpt>
      <trkpt lat="42.93894" lon="1.8532">
        <ele>508.1</ele>
        <time>2023-03-25T18:29:31.000Z</time>
      </trkpt>
      <trkpt lat="42.93886" lon="1.85314">
        <ele>508.4</ele>
        <time>2023-03-25T18:29:33.000Z</time>
      </trkpt>
      <trkpt lat="42.93879" lon="1.85309">
        <ele>508.7</ele>
        <time>2023-03-25T18:29:35.000Z</time>
      </trkpt>
      <trkpt lat="42.93875" lon="1.85305">
        <ele>508.8</ele>
        <time>2023-03-25T18:29:36.000Z</time>
      </trkpt>
      <trkpt lat="42.93871" lon="1.85302">
        <ele>509</ele>
        <time>2023-03-25T18:29:37.000Z</time>
      </trkpt>
      <trkpt lat="42.93867" lon="1.853">
        <ele>509.2</ele>
        <time>2023-03-25T18:29:38.000Z</time>
      </trkpt>
      <trkpt lat="42.93862" lon="1.85297">
        <ele>509.3</ele>
        <time>2023-03-25T18:29:39.000Z</time>
      </trkpt>
      <trkpt lat="42.93858" lon="1.85295">
        <ele>509.5</ele>
        <time>2023-03-25T18:29:40.000Z</time>
      </trkpt>
      <trkpt lat="42.9385" lon="1.8529">
        <ele>509.8</ele>
        <time>2023-03-25T18:29:42.000Z</time>
      </trkpt>
      <trkpt lat="42.93842" lon="1.85283">
        <ele>510</ele>
        <time>2023-03-25T18:29:44.000Z</time>
      </trkpt>
      <trkpt lat="42.93834" lon="1.85278">
        <ele>510.3</ele>
        <time>2023-03-25T18:29:46.000Z</time>
      </trkpt>
      <trkpt lat="42.93827" lon="1.85272">
        <ele>510.4</ele>
        <time>2023-03-25T18:29:48.000Z</time>
      </trkpt>
      <trkpt lat="42.93823" lon="1.85269">
        <ele>510.5</ele>
        <time>2023-03-25T18:29:49.000Z</time>
      </trkpt>
      <trkpt lat="42.93819" lon="1.85265">
        <ele>510.5</ele>
        <time>2023-03-25T18:29:50.000Z</time>
      </trkpt>
      <trkpt lat="42.93815" lon="1.85262">
        <ele>510.6</ele>
        <time>2023-03-25T18:29:51.000Z</time>
      </trkpt>
      <trkpt lat="42.93811" lon="1.85259">
        <ele>510.6</ele>
        <time>2023-03-25T18:29:52.000Z</time>
      </trkpt>
      <trkpt lat="42.93807" lon="1.85256">
        <ele>510.7</ele>
        <time>2023-03-25T18:29:53.000Z</time>
      </trkpt>
      <trkpt lat="42.93799" lon="1.85249">
        <ele>510.8</ele>
        <time>2023-03-25T18:29:55.000Z</time>
      </trkpt>
      <trkpt lat="42.93792" lon="1.85243">
        <ele>510.9</ele>
        <time>2023-03-25T18:29:57.000Z</time>
      </trkpt>
      <trkpt lat="42.93785" lon="1.85238">
        <ele>511.1</ele>
        <time>2023-03-25T18:29:59.000Z</time>
      </trkpt>
      <trkpt lat="42.93777" lon="1.85232">
        <ele>511.3</ele>
        <time>2023-03-25T18:30:01.000Z</time>
      </trkpt>
      <trkpt lat="42.9377" lon="1.85225">
        <ele>511.5</ele>
        <time>2023-03-25T18:30:03.000Z</time>
      </trkpt>
      <trkpt lat="42.93766" lon="1.85222">
        <ele>511.6</ele>
        <time>2023-03-25T18:30:04.000Z</time>
      </trkpt>
      <trkpt lat="42.93762" lon="1.85219">
        <ele>511.7</ele>
        <time>2023-03-25T18:30:05.000Z</time>
      </trkpt>
      <trkpt lat="42.93755" lon="1.85212">
        <ele>511.9</ele>
        <time>2023-03-25T18:30:07.000Z</time>
      </trkpt>
      <trkpt lat="42.93747" lon="1.85206">
        <ele>512.1</ele>
        <time>2023-03-25T18:30:09.000Z</time>
      </trkpt>
      <trkpt lat="42.93739" lon="1.852">
        <ele>512.4</ele>
        <time>2023-03-25T18:30:11.000Z</time>
      </trkpt>
      <trkpt lat="42.93731" lon="1.85193">
        <ele>512.7</ele>
        <time>2023-03-25T18:30:13.000Z</time>
      </trkpt>
      <trkpt lat="42.93727" lon="1.8519">
        <ele>512.9</ele>
        <time>2023-03-25T18:30:14.000Z</time>
      </trkpt>
      <trkpt lat="42.93723" lon="1.85187">
        <ele>513</ele>
        <time>2023-03-25T18:30:15.000Z</time>
      </trkpt>
      <trkpt lat="42.93719" lon="1.85183">
        <ele>513.2</ele>
        <time>2023-03-25T18:30:16.000Z</time>
      </trkpt>
      <trkpt lat="42.93715" lon="1.8518">
        <ele>513.3</ele>
        <time>2023-03-25T18:30:17.000Z</time>
      </trkpt>
      <trkpt lat="42.93711" lon="1.85176">
        <ele>513.5</ele>
        <time>2023-03-25T18:30:18.000Z</time>
      </trkpt>
      <trkpt lat="42.93707" lon="1.85173">
        <ele>513.6</ele>
        <time>2023-03-25T18:30:19.000Z</time>
      </trkpt>
      <trkpt lat="42.93703" lon="1.8517">
        <ele>513.7</ele>
        <time>2023-03-25T18:30:20.000Z</time>
      </trkpt>
      <trkpt lat="42.93699" lon="1.85167">
        <ele>513.8</ele>
        <time>2023-03-25T18:30:21.000Z</time>
      </trkpt>
      <trkpt lat="42.93695" lon="1.85163">
        <ele>514</ele>
        <time>2023-03-25T18:30:22.000Z</time>
      </trkpt>
      <trkpt lat="42.93691" lon="1.8516">
        <ele>514.1</ele>
        <time>2023-03-25T18:30:23.000Z</time>
      </trkpt>
      <trkpt lat="42.93687" lon="1.85157">
        <ele>514.3</ele>
        <time>2023-03-25T18:30:24.000Z</time>
      </trkpt>
      <trkpt lat="42.93683" lon="1.85153">
        <ele>514.4</ele>
        <time>2023-03-25T18:30:25.000Z</time>
      </trkpt>
      <trkpt lat="42.93679" lon="1.8515">
        <ele>514.6</ele>
        <time>2023-03-25T18:30:26.000Z</time>
      </trkpt>
      <trkpt lat="42.93675" lon="1.85146">
        <ele>514.7</ele>
        <time>2023-03-25T18:30:27.000Z</time>
      </trkpt>
      <trkpt lat="42.93671" lon="1.85143">
        <ele>514.9</ele>
        <time>2023-03-25T18:30:28.000Z</time>
      </trkpt>
      <trkpt lat="42.93666" lon="1.8514">
        <ele>515</ele>
        <time>2023-03-25T18:30:29.000Z</time>
      </trkpt>
      <trkpt lat="42.93659" lon="1.85134">
        <ele>515.1</ele>
        <time>2023-03-25T18:30:31.000Z</time>
      </trkpt>
      <trkpt lat="42.93652" lon="1.85128">
        <ele>515.3</ele>
        <time>2023-03-25T18:30:33.000Z</time>
      </trkpt>
      <trkpt lat="42.93644" lon="1.85122">
        <ele>515.4</ele>
        <time>2023-03-25T18:30:35.000Z</time>
      </trkpt>
      <trkpt lat="42.93639" lon="1.85119">
        <ele>515.5</ele>
        <time>2023-03-25T18:30:36.000Z</time>
      </trkpt>
      <trkpt lat="42.93635" lon="1.85115">
        <ele>515.5</ele>
        <time>2023-03-25T18:30:37.000Z</time>
      </trkpt>
      <trkpt lat="42.93631" lon="1.85112">
        <ele>515.6</ele>
        <time>2023-03-25T18:30:38.000Z</time>
      </trkpt>
      <trkpt lat="42.93627" lon="1.85109">
        <ele>515.6</ele>
        <time>2023-03-25T18:30:39.000Z</time>
      </trkpt>
      <trkpt lat="42.93623" lon="1.85105">
        <ele>515.7</ele>
        <time>2023-03-25T18:30:40.000Z</time>
      </trkpt>
      <trkpt lat="42.93618" lon="1.85102">
        <ele>515.7</ele>
        <time>2023-03-25T18:30:41.000Z</time>
      </trkpt>
      <trkpt lat="42.93614" lon="1.85099">
        <ele>515.7</ele>
        <time>2023-03-25T18:30:42.000Z</time>
      </trkpt>
      <trkpt lat="42.9361" lon="1.85096">
        <ele>515.8</ele>
        <time>2023-03-25T18:30:43.000Z</time>
      </trkpt>
      <trkpt lat="42.93606" lon="1.85093">
        <ele>515.8</ele>
        <time>2023-03-25T18:30:44.000Z</time>
      </trkpt>
      <trkpt lat="42.93602" lon="1.85089">
        <ele>515.8</ele>
        <time>2023-03-25T18:30:45.000Z</time>
      </trkpt>
      <trkpt lat="42.93598" lon="1.85086">
        <ele>515.8</ele>
        <time>2023-03-25T18:30:46.000Z</time>
      </trkpt>
      <trkpt lat="42.93593" lon="1.85082">
        <ele>515.9</ele>
        <time>2023-03-25T18:30:47.000Z</time>
      </trkpt>
      <trkpt lat="42.93589" lon="1.85079">
        <ele>515.9</ele>
        <time>2023-03-25T18:30:48.000Z</time>
      </trkpt>
      <trkpt lat="42.93585" lon="1.85076">
        <ele>515.9</ele>
        <time>2023-03-25T18:30:49.000Z</time>
      </trkpt>
      <trkpt lat="42.93581" lon="1.85073">
        <ele>516</ele>
        <time>2023-03-25T18:30:50.000Z</time>
      </trkpt>
      <trkpt lat="42.93577" lon="1.85069">
        <ele>516.3</ele>
        <time>2023-03-25T18:30:51.000Z</time>
      </trkpt>
      <trkpt lat="42.93572" lon="1.85066">
        <ele>516.5</ele>
        <time>2023-03-25T18:30:52.000Z</time>
      </trkpt>
      <trkpt lat="42.93568" lon="1.85063">
        <ele>516.8</ele>
        <time>2023-03-25T18:30:53.000Z</time>
      </trkpt>
      <trkpt lat="42.93564" lon="1.8506">
        <ele>517</ele>
        <time>2023-03-25T18:30:54.000Z</time>
      </trkpt>
      <trkpt lat="42.9356" lon="1.85057">
        <ele>517.3</ele>
        <time>2023-03-25T18:30:55.000Z</time>
      </trkpt>
      <trkpt lat="42.93556" lon="1.85054">
        <ele>517.5</ele>
        <time>2023-03-25T18:30:56.000Z</time>
      </trkpt>
      <trkpt lat="42.93552" lon="1.85051">
        <ele>517.7</ele>
        <time>2023-03-25T18:30:57.000Z</time>
      </trkpt>
      <trkpt lat="42.93548" lon="1.85047">
        <ele>517.9</ele>
        <time>2023-03-25T18:30:58.000Z</time>
      </trkpt>
      <trkpt lat="42.93544" lon="1.85044">
        <ele>518.1</ele>
        <time>2023-03-25T18:30:59.000Z</time>
      </trkpt>
      <trkpt lat="42.93541" lon="1.8504">
        <ele>518.3</ele>
        <time>2023-03-25T18:31:00.000Z</time>
      </trkpt>
      <trkpt lat="42.93534" lon="1.85033">
        <ele>518.6</ele>
        <time>2023-03-25T18:31:02.000Z</time>
      </trkpt>
      <trkpt lat="42.9353" lon="1.85029">
        <ele>518.8</ele>
        <time>2023-03-25T18:31:03.000Z</time>
      </trkpt>
      <trkpt lat="42.93522" lon="1.85022">
        <ele>519.1</ele>
        <time>2023-03-25T18:31:05.000Z</time>
      </trkpt>
      <trkpt lat="42.93515" lon="1.85015">
        <ele>519.4</ele>
        <time>2023-03-25T18:31:07.000Z</time>
      </trkpt>
      <trkpt lat="42.93511" lon="1.85012">
        <ele>519.6</ele>
        <time>2023-03-25T18:31:08.000Z</time>
      </trkpt>
      <trkpt lat="42.93507" lon="1.85008">
        <ele>519.7</ele>
        <time>2023-03-25T18:31:09.000Z</time>
      </trkpt>
      <trkpt lat="42.93503" lon="1.85005">
        <ele>519.9</ele>
        <time>2023-03-25T18:31:10.000Z</time>
      </trkpt>
      <trkpt lat="42.93497" lon="1.84997">
        <ele>520.3</ele>
        <time>2023-03-25T18:31:12.000Z</time>
      </trkpt>
      <trkpt lat="42.93491" lon="1.84989">
        <ele>521.3</ele>
        <time>2023-03-25T18:31:14.000Z</time>
      </trkpt>
      <trkpt lat="42.93484" lon="1.84982">
        <ele>522.1</ele>
        <time>2023-03-25T18:31:16.000Z</time>
      </trkpt>
      <trkpt lat="42.93478" lon="1.84975">
        <ele>523</ele>
        <time>2023-03-25T18:31:18.000Z</time>
      </trkpt>
      <trkpt lat="42.9347" lon="1.84969">
        <ele>523.8</ele>
        <time>2023-03-25T18:31:20.000Z</time>
      </trkpt>
      <trkpt lat="42.93466" lon="1.84965">
        <ele>524.2</ele>
        <time>2023-03-25T18:31:21.000Z</time>
      </trkpt>
      <trkpt lat="42.93462" lon="1.84963">
        <ele>524.5</ele>
        <time>2023-03-25T18:31:22.000Z</time>
      </trkpt>
      <trkpt lat="42.93458" lon="1.8496">
        <ele>524.8</ele>
        <time>2023-03-25T18:31:23.000Z</time>
      </trkpt>
      <trkpt lat="42.93454" lon="1.84957">
        <ele>525.2</ele>
        <time>2023-03-25T18:31:24.000Z</time>
      </trkpt>
      <trkpt lat="42.93445" lon="1.84951">
        <ele>526.1</ele>
        <time>2023-03-25T18:31:26.000Z</time>
      </trkpt>
      <trkpt lat="42.93441" lon="1.84948">
        <ele>526.4</ele>
        <time>2023-03-25T18:31:27.000Z</time>
      </trkpt>
      <trkpt lat="42.93437" lon="1.84945">
        <ele>526.8</ele>
        <time>2023-03-25T18:31:28.000Z</time>
      </trkpt>
      <trkpt lat="42.93432" lon="1.84942">
        <ele>527.4</ele>
        <time>2023-03-25T18:31:29.000Z</time>
      </trkpt>
      <trkpt lat="42.93428" lon="1.84939">
        <ele>527.7</ele>
        <time>2023-03-25T18:31:30.000Z</time>
      </trkpt>
      <trkpt lat="42.93424" lon="1.84936">
        <ele>528.3</ele>
        <time>2023-03-25T18:31:31.000Z</time>
      </trkpt>
      <trkpt lat="42.93419" lon="1.84933">
        <ele>528.7</ele>
        <time>2023-03-25T18:31:32.000Z</time>
      </trkpt>
      <trkpt lat="42.93415" lon="1.84929">
        <ele>529.2</ele>
        <time>2023-03-25T18:31:33.000Z</time>
      </trkpt>
      <trkpt lat="42.9341" lon="1.84925">
        <ele>529.5</ele>
        <time>2023-03-25T18:31:34.000Z</time>
      </trkpt>
      <trkpt lat="42.93406" lon="1.84922">
        <ele>529.6</ele>
        <time>2023-03-25T18:31:35.000Z</time>
      </trkpt>
      <trkpt lat="42.93401" lon="1.84918">
        <ele>529.7</ele>
        <time>2023-03-25T18:31:36.000Z</time>
      </trkpt>
      <trkpt lat="42.93397" lon="1.84914">
        <ele>530.7</ele>
        <time>2023-03-25T18:31:37.000Z</time>
      </trkpt>
      <trkpt lat="42.93393" lon="1.84911">
        <ele>531.9</ele>
        <time>2023-03-25T18:31:38.000Z</time>
      </trkpt>
      <trkpt lat="42.93389" lon="1.84908">
        <ele>532.6</ele>
        <time>2023-03-25T18:31:39.000Z</time>
      </trkpt>
      <trkpt lat="42.93384" lon="1.84905">
        <ele>533.6</ele>
        <time>2023-03-25T18:31:40.000Z</time>
      </trkpt>
      <trkpt lat="42.9338" lon="1.84902">
        <ele>534.1</ele>
        <time>2023-03-25T18:31:41.000Z</time>
      </trkpt>
      <trkpt lat="42.93375" lon="1.84899">
        <ele>534.5</ele>
        <time>2023-03-25T18:31:42.000Z</time>
      </trkpt>
      <trkpt lat="42.93371" lon="1.84896">
        <ele>535.4</ele>
        <time>2023-03-25T18:31:43.000Z</time>
      </trkpt>
      <trkpt lat="42.93367" lon="1.84893">
        <ele>535.7</ele>
        <time>2023-03-25T18:31:44.000Z</time>
      </trkpt>
      <trkpt lat="42.93363" lon="1.8489">
        <ele>535.9</ele>
        <time>2023-03-25T18:31:45.000Z</time>
      </trkpt>
      <trkpt lat="42.93355" lon="1.84885">
        <ele>536.2</ele>
        <time>2023-03-25T18:31:47.000Z</time>
      </trkpt>
      <trkpt lat="42.9335" lon="1.84882">
        <ele>536.3</ele>
        <time>2023-03-25T18:31:48.000Z</time>
      </trkpt>
      <trkpt lat="42.93342" lon="1.84877">
        <ele>536.3</ele>
        <time>2023-03-25T18:31:50.000Z</time>
      </trkpt>
      <trkpt lat="42.93338" lon="1.84875">
        <ele>535.8</ele>
        <time>2023-03-25T18:31:51.000Z</time>
      </trkpt>
      <trkpt lat="42.93333" lon="1.84873">
        <ele>535.6</ele>
        <time>2023-03-25T18:31:52.000Z</time>
      </trkpt>
      <trkpt lat="42.93325" lon="1.8487">
        <ele>535.2</ele>
        <time>2023-03-25T18:31:54.000Z</time>
      </trkpt>
      <trkpt lat="42.93318" lon="1.84867">
        <ele>534.8</ele>
        <time>2023-03-25T18:31:56.000Z</time>
      </trkpt>
      <trkpt lat="42.93312" lon="1.84866">
        <ele>534.4</ele>
        <time>2023-03-25T18:31:58.000Z</time>
      </trkpt>
      <trkpt lat="42.93306" lon="1.84864">
        <ele>533.7</ele>
        <time>2023-03-25T18:32:00.000Z</time>
      </trkpt>
      <trkpt lat="42.93302" lon="1.84862">
        <ele>533.5</ele>
        <time>2023-03-25T18:32:02.000Z</time>
      </trkpt>
      <trkpt lat="42.93296" lon="1.8486">
        <ele>532.7</ele>
        <time>2023-03-25T18:32:05.000Z</time>
      </trkpt>
      <trkpt lat="42.93292" lon="1.84857">
        <ele>532.4</ele>
        <time>2023-03-25T18:32:08.000Z</time>
      </trkpt>
      <trkpt lat="42.93288" lon="1.84851">
        <ele>532.6</ele>
        <time>2023-03-25T18:33:46.000Z</time>
      </trkpt>
      <trkpt lat="42.93284" lon="1.84847">
        <ele>532.2</ele>
        <time>2023-03-25T18:33:48.000Z</time>
      </trkpt>
      <trkpt lat="42.93276" lon="1.84846">
        <ele>530.9</ele>
        <time>2023-03-25T18:33:50.000Z</time>
      </trkpt>
      <trkpt lat="42.9327" lon="1.84843">
        <ele>529.9</ele>
        <time>2023-03-25T18:33:52.000Z</time>
      </trkpt>
      <trkpt lat="42.93268" lon="1.84833">
        <ele>530.2</ele>
        <time>2023-03-25T18:33:54.000Z</time>
      </trkpt>
      <trkpt lat="42.93267" lon="1.84822">
        <ele>531.3</ele>
        <time>2023-03-25T18:33:56.000Z</time>
      </trkpt>
      <trkpt lat="42.93267" lon="1.84811">
        <ele>532.5</ele>
        <time>2023-03-25T18:33:58.000Z</time>
      </trkpt>
      <trkpt lat="42.9327" lon="1.848">
        <ele>534.7</ele>
        <time>2023-03-25T18:34:00.000Z</time>
      </trkpt>
      <trkpt lat="42.93273" lon="1.84795">
        <ele>536.2</ele>
        <time>2023-03-25T18:34:01.000Z</time>
      </trkpt>
      <trkpt lat="42.93276" lon="1.8479">
        <ele>537.6</ele>
        <time>2023-03-25T18:34:02.000Z</time>
      </trkpt>
      <trkpt lat="42.93277" lon="1.84783">
        <ele>538.9</ele>
        <time>2023-03-25T18:34:03.000Z</time>
      </trkpt>
      <trkpt lat="42.93277" lon="1.84772">
        <ele>540.2</ele>
        <time>2023-03-25T18:34:05.000Z</time>
      </trkpt>
      <trkpt lat="42.93274" lon="1.84767">
        <ele>539.9</ele>
        <time>2023-03-25T18:34:06.000Z</time>
      </trkpt>
      <trkpt lat="42.93272" lon="1.84762">
        <ele>539.7</ele>
        <time>2023-03-25T18:34:07.000Z</time>
      </trkpt>
      <trkpt lat="42.93269" lon="1.84756">
        <ele>539.4</ele>
        <time>2023-03-25T18:34:08.000Z</time>
      </trkpt>
      <trkpt lat="42.93266" lon="1.8475">
        <ele>539.1</ele>
        <time>2023-03-25T18:34:09.000Z</time>
      </trkpt>
      <trkpt lat="42.93263" lon="1.84745">
        <ele>538.1</ele>
        <time>2023-03-25T18:34:10.000Z</time>
      </trkpt>
      <trkpt lat="42.93259" lon="1.84735">
        <ele>537</ele>
        <time>2023-03-25T18:34:12.000Z</time>
      </trkpt>
      <trkpt lat="42.93258" lon="1.84726">
        <ele>536.6</ele>
        <time>2023-03-25T18:34:14.000Z</time>
      </trkpt>
      <trkpt lat="42.93257" lon="1.84713">
        <ele>536.6</ele>
        <time>2023-03-25T18:34:16.000Z</time>
      </trkpt>
      <trkpt lat="42.93256" lon="1.84706">
        <ele>536.7</ele>
        <time>2023-03-25T18:34:17.000Z</time>
      </trkpt>
      <trkpt lat="42.93256" lon="1.84699">
        <ele>536.5</ele>
        <time>2023-03-25T18:34:18.000Z</time>
      </trkpt>
      <trkpt lat="42.93255" lon="1.84693">
        <ele>536.5</ele>
        <time>2023-03-25T18:34:19.000Z</time>
      </trkpt>
      <trkpt lat="42.93255" lon="1.84682">
        <ele>536.7</ele>
        <time>2023-03-25T18:34:21.000Z</time>
      </trkpt>
      <trkpt lat="42.93256" lon="1.84671">
        <ele>537.3</ele>
        <time>2023-03-25T18:34:23.000Z</time>
      </trkpt>
      <trkpt lat="42.93256" lon="1.84661">
        <ele>537.8</ele>
        <time>2023-03-25T18:34:25.000Z</time>
      </trkpt>
      <trkpt lat="42.93255" lon="1.84652">
        <ele>537.7</ele>
        <time>2023-03-25T18:34:27.000Z</time>
      </trkpt>
      <trkpt lat="42.93254" lon="1.84644">
        <ele>537.6</ele>
        <time>2023-03-25T18:34:29.000Z</time>
      </trkpt>
      <trkpt lat="42.93254" lon="1.84634">
        <ele>538.1</ele>
        <time>2023-03-25T18:34:31.000Z</time>
      </trkpt>
      <trkpt lat="42.93254" lon="1.84627">
        <ele>538</ele>
        <time>2023-03-25T18:34:32.000Z</time>
      </trkpt>
      <trkpt lat="42.93253" lon="1.84617">
        <ele>538.2</ele>
        <time>2023-03-25T18:34:34.000Z</time>
      </trkpt>
      <trkpt lat="42.93254" lon="1.84607">
        <ele>538.8</ele>
        <time>2023-03-25T18:34:36.000Z</time>
      </trkpt>
      <trkpt lat="42.93253" lon="1.84596">
        <ele>538.9</ele>
        <time>2023-03-25T18:34:38.000Z</time>
      </trkpt>
      <trkpt lat="42.93252" lon="1.84585">
        <ele>538.9</ele>
        <time>2023-03-25T18:34:40.000Z</time>
      </trkpt>
      <trkpt lat="42.93251" lon="1.84573">
        <ele>538.4</ele>
        <time>2023-03-25T18:34:42.000Z</time>
      </trkpt>
      <trkpt lat="42.9325" lon="1.84562">
        <ele>537.9</ele>
        <time>2023-03-25T18:34:44.000Z</time>
      </trkpt>
      <trkpt lat="42.9325" lon="1.84549">
        <ele>537.6</ele>
        <time>2023-03-25T18:34:46.000Z</time>
      </trkpt>
      <trkpt lat="42.93248" lon="1.84536">
        <ele>537.2</ele>
        <time>2023-03-25T18:34:48.000Z</time>
      </trkpt>
      <trkpt lat="42.93247" lon="1.8453">
        <ele>537</ele>
        <time>2023-03-25T18:34:49.000Z</time>
      </trkpt>
      <trkpt lat="42.93246" lon="1.84524">
        <ele>536.8</ele>
        <time>2023-03-25T18:34:50.000Z</time>
      </trkpt>
      <trkpt lat="42.93244" lon="1.84517">
        <ele>536.6</ele>
        <time>2023-03-25T18:34:51.000Z</time>
      </trkpt>
      <trkpt lat="42.93244" lon="1.84506">
        <ele>536.4</ele>
        <time>2023-03-25T18:34:53.000Z</time>
      </trkpt>
      <trkpt lat="42.93242" lon="1.84494">
        <ele>536</ele>
        <time>2023-03-25T18:34:55.000Z</time>
      </trkpt>
      <trkpt lat="42.93241" lon="1.84482">
        <ele>535.7</ele>
        <time>2023-03-25T18:34:57.000Z</time>
      </trkpt>
      <trkpt lat="42.9324" lon="1.8447">
        <ele>535.4</ele>
        <time>2023-03-25T18:34:59.000Z</time>
      </trkpt>
      <trkpt lat="42.93238" lon="1.84463">
        <ele>535.1</ele>
        <time>2023-03-25T18:35:00.000Z</time>
      </trkpt>
      <trkpt lat="42.93236" lon="1.84453">
        <ele>534.7</ele>
        <time>2023-03-25T18:35:02.000Z</time>
      </trkpt>
      <trkpt lat="42.93234" lon="1.84442">
        <ele>534.4</ele>
        <time>2023-03-25T18:35:04.000Z</time>
      </trkpt>
      <trkpt lat="42.93232" lon="1.84432">
        <ele>534.1</ele>
        <time>2023-03-25T18:35:06.000Z</time>
      </trkpt>
      <trkpt lat="42.9323" lon="1.84421">
        <ele>533.9</ele>
        <time>2023-03-25T18:35:08.000Z</time>
      </trkpt>
      <trkpt lat="42.93229" lon="1.8441">
        <ele>533.8</ele>
        <time>2023-03-25T18:35:10.000Z</time>
      </trkpt>
      <trkpt lat="42.9323" lon="1.84401">
        <ele>534</ele>
        <time>2023-03-25T18:35:12.000Z</time>
      </trkpt>
      <trkpt lat="42.93228" lon="1.8439">
        <ele>534</ele>
        <time>2023-03-25T18:35:14.000Z</time>
      </trkpt>
      <trkpt lat="42.93224" lon="1.84379">
        <ele>534</ele>
        <time>2023-03-25T18:35:16.000Z</time>
      </trkpt>
      <trkpt lat="42.93222" lon="1.84373">
        <ele>534</ele>
        <time>2023-03-25T18:35:17.000Z</time>
      </trkpt>
      <trkpt lat="42.93219" lon="1.84367">
        <ele>534</ele>
        <time>2023-03-25T18:35:18.000Z</time>
      </trkpt>
      <trkpt lat="42.93216" lon="1.84363">
        <ele>534</ele>
        <time>2023-03-25T18:35:19.000Z</time>
      </trkpt>
      <trkpt lat="42.93212" lon="1.84358">
        <ele>534</ele>
        <time>2023-03-25T18:35:20.000Z</time>
      </trkpt>
      <trkpt lat="42.93208" lon="1.84353">
        <ele>534</ele>
        <time>2023-03-25T18:35:21.000Z</time>
      </trkpt>
      <trkpt lat="42.93201" lon="1.84346">
        <ele>534</ele>
        <time>2023-03-25T18:35:23.000Z</time>
      </trkpt>
      <trkpt lat="42.93194" lon="1.84339">
        <ele>534.2</ele>
        <time>2023-03-25T18:35:25.000Z</time>
      </trkpt>
      <trkpt lat="42.93188" lon="1.84333">
        <ele>534.2</ele>
        <time>2023-03-25T18:35:27.000Z</time>
      </trkpt>
      <trkpt lat="42.93181" lon="1.84326">
        <ele>534.1</ele>
        <time>2023-03-25T18:35:29.000Z</time>
      </trkpt>
      <trkpt lat="42.93175" lon="1.8432">
        <ele>533.9</ele>
        <time>2023-03-25T18:35:31.000Z</time>
      </trkpt>
      <trkpt lat="42.93168" lon="1.84314">
        <ele>533.8</ele>
        <time>2023-03-25T18:35:33.000Z</time>
      </trkpt>
      <trkpt lat="42.93162" lon="1.84308">
        <ele>533.6</ele>
        <time>2023-03-25T18:35:35.000Z</time>
      </trkpt>
      <trkpt lat="42.93155" lon="1.84301">
        <ele>533.4</ele>
        <time>2023-03-25T18:35:37.000Z</time>
      </trkpt>
      <trkpt lat="42.93149" lon="1.84294">
        <ele>533.3</ele>
        <time>2023-03-25T18:35:39.000Z</time>
      </trkpt>
      <trkpt lat="42.93144" lon="1.84286">
        <ele>533.2</ele>
        <time>2023-03-25T18:35:41.000Z</time>
      </trkpt>
      <trkpt lat="42.9314" lon="1.84278">
        <ele>533.2</ele>
        <time>2023-03-25T18:35:43.000Z</time>
      </trkpt>
      <trkpt lat="42.93136" lon="1.8427">
        <ele>533.3</ele>
        <time>2023-03-25T18:35:45.000Z</time>
      </trkpt>
      <trkpt lat="42.93132" lon="1.84262">
        <ele>533.3</ele>
        <time>2023-03-25T18:35:47.000Z</time>
      </trkpt>
      <trkpt lat="42.93129" lon="1.84254">
        <ele>533.4</ele>
        <time>2023-03-25T18:35:49.000Z</time>
      </trkpt>
      <trkpt lat="42.93126" lon="1.84246">
        <ele>533.5</ele>
        <time>2023-03-25T18:35:51.000Z</time>
      </trkpt>
      <trkpt lat="42.93121" lon="1.84239">
        <ele>533.6</ele>
        <time>2023-03-25T18:35:53.000Z</time>
      </trkpt>
      <trkpt lat="42.93117" lon="1.84232">
        <ele>533.7</ele>
        <time>2023-03-25T18:35:55.000Z</time>
      </trkpt>
      <trkpt lat="42.93113" lon="1.84225">
        <ele>533.8</ele>
        <time>2023-03-25T18:35:57.000Z</time>
      </trkpt>
      <trkpt lat="42.93109" lon="1.84217">
        <ele>534</ele>
        <time>2023-03-25T18:35:59.000Z</time>
      </trkpt>
      <trkpt lat="42.93105" lon="1.84209">
        <ele>534.1</ele>
        <time>2023-03-25T18:36:01.000Z</time>
      </trkpt>
      <trkpt lat="42.931" lon="1.84202">
        <ele>534.3</ele>
        <time>2023-03-25T18:36:03.000Z</time>
      </trkpt>
      <trkpt lat="42.93097" lon="1.84194">
        <ele>534.4</ele>
        <time>2023-03-25T18:36:05.000Z</time>
      </trkpt>
      <trkpt lat="42.93092" lon="1.84186">
        <ele>534.6</ele>
        <time>2023-03-25T18:36:07.000Z</time>
      </trkpt>
      <trkpt lat="42.93089" lon="1.84179">
        <ele>534.7</ele>
        <time>2023-03-25T18:36:09.000Z</time>
      </trkpt>
      <trkpt lat="42.93085" lon="1.84171">
        <ele>534.9</ele>
        <time>2023-03-25T18:36:11.000Z</time>
      </trkpt>
      <trkpt lat="42.9308" lon="1.84165">
        <ele>535.1</ele>
        <time>2023-03-25T18:36:13.000Z</time>
      </trkpt>
      <trkpt lat="42.93074" lon="1.8416">
        <ele>535.3</ele>
        <time>2023-03-25T18:36:15.000Z</time>
      </trkpt>
      <trkpt lat="42.93069" lon="1.84157">
        <ele>535.5</ele>
        <time>2023-03-25T18:36:17.000Z</time>
      </trkpt>
      <trkpt lat="42.93061" lon="1.84154">
        <ele>535.7</ele>
        <time>2023-03-25T18:36:19.000Z</time>
      </trkpt>
      <trkpt lat="42.93057" lon="1.84151">
        <ele>535.9</ele>
        <time>2023-03-25T18:36:20.000Z</time>
      </trkpt>
      <trkpt lat="42.93052" lon="1.84148">
        <ele>536</ele>
        <time>2023-03-25T18:36:21.000Z</time>
      </trkpt>
      <trkpt lat="42.93046" lon="1.84144">
        <ele>536.3</ele>
        <time>2023-03-25T18:36:23.000Z</time>
      </trkpt>
      <trkpt lat="42.93041" lon="1.84139">
        <ele>536.5</ele>
        <time>2023-03-25T18:36:25.000Z</time>
      </trkpt>
      <trkpt lat="42.93035" lon="1.84136">
        <ele>536.8</ele>
        <time>2023-03-25T18:36:27.000Z</time>
      </trkpt>
      <trkpt lat="42.93029" lon="1.84131">
        <ele>537.1</ele>
        <time>2023-03-25T18:36:29.000Z</time>
      </trkpt>
      <trkpt lat="42.93024" lon="1.84126">
        <ele>537.4</ele>
        <time>2023-03-25T18:36:31.000Z</time>
      </trkpt>
      <trkpt lat="42.93018" lon="1.84121">
        <ele>537.7</ele>
        <time>2023-03-25T18:36:33.000Z</time>
      </trkpt>
      <trkpt lat="42.93012" lon="1.84118">
        <ele>538.1</ele>
        <time>2023-03-25T18:36:35.000Z</time>
      </trkpt>
      <trkpt lat="42.93006" lon="1.84115">
        <ele>538.3</ele>
        <time>2023-03-25T18:36:37.000Z</time>
      </trkpt>
      <trkpt lat="42.92999" lon="1.84111">
        <ele>538.7</ele>
        <time>2023-03-25T18:36:39.000Z</time>
      </trkpt>
      <trkpt lat="42.92993" lon="1.84108">
        <ele>538.8</ele>
        <time>2023-03-25T18:36:41.000Z</time>
      </trkpt>
      <trkpt lat="42.92987" lon="1.84105">
        <ele>539</ele>
        <time>2023-03-25T18:36:43.000Z</time>
      </trkpt>
      <trkpt lat="42.92981" lon="1.84101">
        <ele>539.2</ele>
        <time>2023-03-25T18:36:45.000Z</time>
      </trkpt>
      <trkpt lat="42.92973" lon="1.84097">
        <ele>539.4</ele>
        <time>2023-03-25T18:36:47.000Z</time>
      </trkpt>
      <trkpt lat="42.92965" lon="1.84092">
        <ele>539.6</ele>
        <time>2023-03-25T18:36:49.000Z</time>
      </trkpt>
      <trkpt lat="42.92961" lon="1.84091">
        <ele>539.7</ele>
        <time>2023-03-25T18:36:50.000Z</time>
      </trkpt>
      <trkpt lat="42.92954" lon="1.84086">
        <ele>539.9</ele>
        <time>2023-03-25T18:36:52.000Z</time>
      </trkpt>
      <trkpt lat="42.92946" lon="1.84081">
        <ele>540</ele>
        <time>2023-03-25T18:36:54.000Z</time>
      </trkpt>
      <trkpt lat="42.92937" lon="1.84078">
        <ele>540.1</ele>
        <time>2023-03-25T18:36:56.000Z</time>
      </trkpt>
      <trkpt lat="42.9293" lon="1.84075">
        <ele>540.2</ele>
        <time>2023-03-25T18:36:58.000Z</time>
      </trkpt>
      <trkpt lat="42.92922" lon="1.84073">
        <ele>540.2</ele>
        <time>2023-03-25T18:37:00.000Z</time>
      </trkpt>
      <trkpt lat="42.92914" lon="1.84072">
        <ele>540.3</ele>
        <time>2023-03-25T18:37:02.000Z</time>
      </trkpt>
      <trkpt lat="42.92909" lon="1.84071">
        <ele>540.4</ele>
        <time>2023-03-25T18:37:03.000Z</time>
      </trkpt>
      <trkpt lat="42.929" lon="1.84068">
        <ele>540.6</ele>
        <time>2023-03-25T18:37:05.000Z</time>
      </trkpt>
      <trkpt lat="42.92896" lon="1.84067">
        <ele>540.7</ele>
        <time>2023-03-25T18:37:06.000Z</time>
      </trkpt>
      <trkpt lat="42.92891" lon="1.84065">
        <ele>540.7</ele>
        <time>2023-03-25T18:37:07.000Z</time>
      </trkpt>
      <trkpt lat="42.92885" lon="1.84064">
        <ele>540.8</ele>
        <time>2023-03-25T18:37:08.000Z</time>
      </trkpt>
      <trkpt lat="42.9288" lon="1.84063">
        <ele>540.9</ele>
        <time>2023-03-25T18:37:09.000Z</time>
      </trkpt>
      <trkpt lat="42.92875" lon="1.84062">
        <ele>541</ele>
        <time>2023-03-25T18:37:10.000Z</time>
      </trkpt>
      <trkpt lat="42.9287" lon="1.84062">
        <ele>541.1</ele>
        <time>2023-03-25T18:37:11.000Z</time>
      </trkpt>
      <trkpt lat="42.92866" lon="1.84061">
        <ele>541.2</ele>
        <time>2023-03-25T18:37:12.000Z</time>
      </trkpt>
      <trkpt lat="42.92861" lon="1.8406">
        <ele>541.2</ele>
        <time>2023-03-25T18:37:13.000Z</time>
      </trkpt>
      <trkpt lat="42.92857" lon="1.84059">
        <ele>541.3</ele>
        <time>2023-03-25T18:37:14.000Z</time>
      </trkpt>
      <trkpt lat="42.92849" lon="1.84058">
        <ele>541.4</ele>
        <time>2023-03-25T18:37:16.000Z</time>
      </trkpt>
      <trkpt lat="42.92842" lon="1.84056">
        <ele>541.6</ele>
        <time>2023-03-25T18:37:18.000Z</time>
      </trkpt>
      <trkpt lat="42.92836" lon="1.84056">
        <ele>541.7</ele>
        <time>2023-03-25T18:37:20.000Z</time>
      </trkpt>
      <trkpt lat="42.9283" lon="1.84055">
        <ele>541.7</ele>
        <time>2023-03-25T18:37:23.000Z</time>
      </trkpt>
      <trkpt lat="42.92825" lon="1.84053">
        <ele>541.9</ele>
        <time>2023-03-25T18:37:26.000Z</time>
      </trkpt>
      <trkpt lat="42.92819" lon="1.84052">
        <ele>542.1</ele>
        <time>2023-03-25T18:37:29.000Z</time>
      </trkpt>
      <trkpt lat="42.92815" lon="1.8405">
        <ele>542.2</ele>
        <time>2023-03-25T18:37:32.000Z</time>
      </trkpt>
      <trkpt lat="42.92808" lon="1.84048">
        <ele>542.4</ele>
        <time>2023-03-25T18:37:35.000Z</time>
      </trkpt>
      <trkpt lat="42.92804" lon="1.84047">
        <ele>542.6</ele>
        <time>2023-03-25T18:37:37.000Z</time>
      </trkpt>
      <trkpt lat="42.92798" lon="1.84045">
        <ele>542.7</ele>
        <time>2023-03-25T18:37:39.000Z</time>
      </trkpt>
      <trkpt lat="42.92793" lon="1.84044">
        <ele>542.9</ele>
        <time>2023-03-25T18:37:41.000Z</time>
      </trkpt>
      <trkpt lat="42.92787" lon="1.84041">
        <ele>543.2</ele>
        <time>2023-03-25T18:37:43.000Z</time>
      </trkpt>
      <trkpt lat="42.92783" lon="1.84039">
        <ele>543.3</ele>
        <time>2023-03-25T18:37:45.000Z</time>
      </trkpt>
      <trkpt lat="42.92777" lon="1.84038">
        <ele>543.6</ele>
        <time>2023-03-25T18:37:47.000Z</time>
      </trkpt>
      <trkpt lat="42.92772" lon="1.84035">
        <ele>543.7</ele>
        <time>2023-03-25T18:37:49.000Z</time>
      </trkpt>
      <trkpt lat="42.92767" lon="1.84034">
        <ele>543.9</ele>
        <time>2023-03-25T18:37:51.000Z</time>
      </trkpt>
      <trkpt lat="42.92759" lon="1.84032">
        <ele>544.2</ele>
        <time>2023-03-25T18:37:53.000Z</time>
      </trkpt>
      <trkpt lat="42.92753" lon="1.84031">
        <ele>544.5</ele>
        <time>2023-03-25T18:37:55.000Z</time>
      </trkpt>
      <trkpt lat="42.92748" lon="1.84029">
        <ele>544.6</ele>
        <time>2023-03-25T18:37:57.000Z</time>
      </trkpt>
      <trkpt lat="42.92742" lon="1.84027">
        <ele>544.8</ele>
        <time>2023-03-25T18:37:59.000Z</time>
      </trkpt>
      <trkpt lat="42.92736" lon="1.84025">
        <ele>545</ele>
        <time>2023-03-25T18:38:01.000Z</time>
      </trkpt>
      <trkpt lat="42.9273" lon="1.84021">
        <ele>545.1</ele>
        <time>2023-03-25T18:38:03.000Z</time>
      </trkpt>
      <trkpt lat="42.92723" lon="1.84018">
        <ele>545.3</ele>
        <time>2023-03-25T18:38:05.000Z</time>
      </trkpt>
      <trkpt lat="42.92717" lon="1.84015">
        <ele>545.4</ele>
        <time>2023-03-25T18:38:07.000Z</time>
      </trkpt>
      <trkpt lat="42.92711" lon="1.84012">
        <ele>545.6</ele>
        <time>2023-03-25T18:38:09.000Z</time>
      </trkpt>
      <trkpt lat="42.92704" lon="1.84009">
        <ele>545.7</ele>
        <time>2023-03-25T18:38:11.000Z</time>
      </trkpt>
      <trkpt lat="42.92697" lon="1.84009">
        <ele>545.7</ele>
        <time>2023-03-25T18:38:13.000Z</time>
      </trkpt>
      <trkpt lat="42.92688" lon="1.84011">
        <ele>545.7</ele>
        <time>2023-03-25T18:38:15.000Z</time>
      </trkpt>
      <trkpt lat="42.92679" lon="1.84011">
        <ele>545.7</ele>
        <time>2023-03-25T18:38:17.000Z</time>
      </trkpt>
      <trkpt lat="42.92674" lon="1.84009">
        <ele>545.8</ele>
        <time>2023-03-25T18:38:18.000Z</time>
      </trkpt>
      <trkpt lat="42.92669" lon="1.84006">
        <ele>545.9</ele>
        <time>2023-03-25T18:38:19.000Z</time>
      </trkpt>
      <trkpt lat="42.92664" lon="1.84004">
        <ele>546</ele>
        <time>2023-03-25T18:38:20.000Z</time>
      </trkpt>
      <trkpt lat="42.92659" lon="1.84003">
        <ele>546.1</ele>
        <time>2023-03-25T18:38:21.000Z</time>
      </trkpt>
      <trkpt lat="42.92654" lon="1.84003">
        <ele>546.2</ele>
        <time>2023-03-25T18:38:22.000Z</time>
      </trkpt>
      <trkpt lat="42.9265" lon="1.84004">
        <ele>546.3</ele>
        <time>2023-03-25T18:38:23.000Z</time>
      </trkpt>
      <trkpt lat="42.92642" lon="1.84006">
        <ele>546.4</ele>
        <time>2023-03-25T18:38:25.000Z</time>
      </trkpt>
      <trkpt lat="42.92634" lon="1.84007">
        <ele>546.6</ele>
        <time>2023-03-25T18:38:27.000Z</time>
      </trkpt>
      <trkpt lat="42.92626" lon="1.84006">
        <ele>546.8</ele>
        <time>2023-03-25T18:38:29.000Z</time>
      </trkpt>
      <trkpt lat="42.92618" lon="1.84007">
        <ele>546.9</ele>
        <time>2023-03-25T18:38:31.000Z</time>
      </trkpt>
      <trkpt lat="42.92611" lon="1.84008">
        <ele>547</ele>
        <time>2023-03-25T18:38:33.000Z</time>
      </trkpt>
      <trkpt lat="42.92603" lon="1.8401">
        <ele>547.1</ele>
        <time>2023-03-25T18:38:35.000Z</time>
      </trkpt>
      <trkpt lat="42.92596" lon="1.8401">
        <ele>547.3</ele>
        <time>2023-03-25T18:38:37.000Z</time>
      </trkpt>
      <trkpt lat="42.92587" lon="1.8401">
        <ele>547.4</ele>
        <time>2023-03-25T18:38:39.000Z</time>
      </trkpt>
      <trkpt lat="42.92579" lon="1.84012">
        <ele>547.5</ele>
        <time>2023-03-25T18:38:41.000Z</time>
      </trkpt>
      <trkpt lat="42.92571" lon="1.84013">
        <ele>547.7</ele>
        <time>2023-03-25T18:38:43.000Z</time>
      </trkpt>
      <trkpt lat="42.92563" lon="1.84014">
        <ele>547.9</ele>
        <time>2023-03-25T18:38:45.000Z</time>
      </trkpt>
      <trkpt lat="42.92554" lon="1.84014">
        <ele>548.1</ele>
        <time>2023-03-25T18:38:47.000Z</time>
      </trkpt>
      <trkpt lat="42.92545" lon="1.84012">
        <ele>548.3</ele>
        <time>2023-03-25T18:38:49.000Z</time>
      </trkpt>
      <trkpt lat="42.92541" lon="1.84011">
        <ele>548.5</ele>
        <time>2023-03-25T18:38:50.000Z</time>
      </trkpt>
      <trkpt lat="42.92536" lon="1.8401">
        <ele>548.7</ele>
        <time>2023-03-25T18:38:51.000Z</time>
      </trkpt>
      <trkpt lat="42.92528" lon="1.84008">
        <ele>549</ele>
        <time>2023-03-25T18:38:53.000Z</time>
      </trkpt>
      <trkpt lat="42.9252" lon="1.84005">
        <ele>549.3</ele>
        <time>2023-03-25T18:38:55.000Z</time>
      </trkpt>
      <trkpt lat="42.92511" lon="1.84003">
        <ele>549.6</ele>
        <time>2023-03-25T18:38:57.000Z</time>
      </trkpt>
      <trkpt lat="42.92503" lon="1.84001">
        <ele>549.9</ele>
        <time>2023-03-25T18:38:59.000Z</time>
      </trkpt>
      <trkpt lat="42.92496" lon="1.83999">
        <ele>550.1</ele>
        <time>2023-03-25T18:39:01.000Z</time>
      </trkpt>
      <trkpt lat="42.9249" lon="1.83998">
        <ele>550.2</ele>
        <time>2023-03-25T18:39:03.000Z</time>
      </trkpt>
      <trkpt lat="42.92484" lon="1.83996">
        <ele>550.3</ele>
        <time>2023-03-25T18:39:05.000Z</time>
      </trkpt>
      <trkpt lat="42.92478" lon="1.83995">
        <ele>550.4</ele>
        <time>2023-03-25T18:39:07.000Z</time>
      </trkpt>
      <trkpt lat="42.92473" lon="1.83994">
        <ele>550.5</ele>
        <time>2023-03-25T18:39:09.000Z</time>
      </trkpt>
      <trkpt lat="42.92468" lon="1.83992">
        <ele>550.6</ele>
        <time>2023-03-25T18:39:11.000Z</time>
      </trkpt>
      <trkpt lat="42.92463" lon="1.8399">
        <ele>550.7</ele>
        <time>2023-03-25T18:39:13.000Z</time>
      </trkpt>
      <trkpt lat="42.92457" lon="1.83987">
        <ele>550.9</ele>
        <time>2023-03-25T18:39:16.000Z</time>
      </trkpt>
      <trkpt lat="42.92452" lon="1.83982">
        <ele>551.1</ele>
        <time>2023-03-25T18:39:19.000Z</time>
      </trkpt>
      <trkpt lat="42.92448" lon="1.83978">
        <ele>551.3</ele>
        <time>2023-03-25T18:39:21.000Z</time>
      </trkpt>
      <trkpt lat="42.92444" lon="1.83974">
        <ele>551.5</ele>
        <time>2023-03-25T18:39:23.000Z</time>
      </trkpt>
      <trkpt lat="42.92438" lon="1.8397">
        <ele>551.8</ele>
        <time>2023-03-25T18:39:26.000Z</time>
      </trkpt>
      <trkpt lat="42.92433" lon="1.83964">
        <ele>552</ele>
        <time>2023-03-25T18:39:29.000Z</time>
      </trkpt>
      <trkpt lat="42.9243" lon="1.8396">
        <ele>552.2</ele>
        <time>2023-03-25T18:39:31.000Z</time>
      </trkpt>
      <trkpt lat="42.92426" lon="1.83956">
        <ele>552.4</ele>
        <time>2023-03-25T18:39:33.000Z</time>
      </trkpt>
      <trkpt lat="42.92422" lon="1.83952">
        <ele>552.6</ele>
        <time>2023-03-25T18:39:35.000Z</time>
      </trkpt>
      <trkpt lat="42.92418" lon="1.83947">
        <ele>552.9</ele>
        <time>2023-03-25T18:39:37.000Z</time>
      </trkpt>
      <trkpt lat="42.92415" lon="1.83942">
        <ele>553.2</ele>
        <time>2023-03-25T18:39:39.000Z</time>
      </trkpt>
      <trkpt lat="42.92411" lon="1.83938">
        <ele>553.4</ele>
        <time>2023-03-25T18:39:41.000Z</time>
      </trkpt>
      <trkpt lat="42.92408" lon="1.83933">
        <ele>553.6</ele>
        <time>2023-03-25T18:39:43.000Z</time>
      </trkpt>
      <trkpt lat="42.92403" lon="1.83929">
        <ele>553.9</ele>
        <time>2023-03-25T18:39:46.000Z</time>
      </trkpt>
      <trkpt lat="42.92399" lon="1.83926">
        <ele>554.1</ele>
        <time>2023-03-25T18:39:48.000Z</time>
      </trkpt>
      <trkpt lat="42.92394" lon="1.83922">
        <ele>554.3</ele>
        <time>2023-03-25T18:39:50.000Z</time>
      </trkpt>
      <trkpt lat="42.92389" lon="1.83918">
        <ele>554.6</ele>
        <time>2023-03-25T18:39:52.000Z</time>
      </trkpt>
      <trkpt lat="42.92383" lon="1.83914">
        <ele>554.8</ele>
        <time>2023-03-25T18:39:54.000Z</time>
      </trkpt>
      <trkpt lat="42.92377" lon="1.8391">
        <ele>555.1</ele>
        <time>2023-03-25T18:39:56.000Z</time>
      </trkpt>
      <trkpt lat="42.92371" lon="1.83906">
        <ele>555.3</ele>
        <time>2023-03-25T18:39:58.000Z</time>
      </trkpt>
      <trkpt lat="42.92364" lon="1.83901">
        <ele>555.6</ele>
        <time>2023-03-25T18:40:00.000Z</time>
      </trkpt>
      <trkpt lat="42.92358" lon="1.83896">
        <ele>555.8</ele>
        <time>2023-03-25T18:40:02.000Z</time>
      </trkpt>
      <trkpt lat="42.92353" lon="1.83891">
        <ele>556.1</ele>
        <time>2023-03-25T18:40:04.000Z</time>
      </trkpt>
      <trkpt lat="42.92347" lon="1.83887">
        <ele>556.3</ele>
        <time>2023-03-25T18:40:06.000Z</time>
      </trkpt>
      <trkpt lat="42.9234" lon="1.83883">
        <ele>556.6</ele>
        <time>2023-03-25T18:40:08.000Z</time>
      </trkpt>
      <trkpt lat="42.92335" lon="1.83879">
        <ele>556.9</ele>
        <time>2023-03-25T18:40:10.000Z</time>
      </trkpt>
      <trkpt lat="42.92329" lon="1.83875">
        <ele>557.1</ele>
        <time>2023-03-25T18:40:12.000Z</time>
      </trkpt>
      <trkpt lat="42.92323" lon="1.83872">
        <ele>557.4</ele>
        <time>2023-03-25T18:40:14.000Z</time>
      </trkpt>
      <trkpt lat="42.92315" lon="1.83869">
        <ele>557.7</ele>
        <time>2023-03-25T18:40:16.000Z</time>
      </trkpt>
      <trkpt lat="42.92308" lon="1.83866">
        <ele>557.9</ele>
        <time>2023-03-25T18:40:18.000Z</time>
      </trkpt>
      <trkpt lat="42.92302" lon="1.83863">
        <ele>558.2</ele>
        <time>2023-03-25T18:40:20.000Z</time>
      </trkpt>
      <trkpt lat="42.92295" lon="1.8386">
        <ele>558.4</ele>
        <time>2023-03-25T18:40:22.000Z</time>
      </trkpt>
      <trkpt lat="42.92288" lon="1.83856">
        <ele>558.7</ele>
        <time>2023-03-25T18:40:24.000Z</time>
      </trkpt>
      <trkpt lat="42.92281" lon="1.83852">
        <ele>559</ele>
        <time>2023-03-25T18:40:26.000Z</time>
      </trkpt>
      <trkpt lat="42.92274" lon="1.83848">
        <ele>559.2</ele>
        <time>2023-03-25T18:40:28.000Z</time>
      </trkpt>
      <trkpt lat="42.92267" lon="1.83845">
        <ele>559.4</ele>
        <time>2023-03-25T18:40:30.000Z</time>
      </trkpt>
      <trkpt lat="42.9226" lon="1.83841">
        <ele>559.7</ele>
        <time>2023-03-25T18:40:32.000Z</time>
      </trkpt>
      <trkpt lat="42.92254" lon="1.83837">
        <ele>559.9</ele>
        <time>2023-03-25T18:40:34.000Z</time>
      </trkpt>
      <trkpt lat="42.92247" lon="1.83833">
        <ele>560.1</ele>
        <time>2023-03-25T18:40:36.000Z</time>
      </trkpt>
      <trkpt lat="42.9224" lon="1.83831">
        <ele>560.2</ele>
        <time>2023-03-25T18:40:38.000Z</time>
      </trkpt>
      <trkpt lat="42.92233" lon="1.83829">
        <ele>560.3</ele>
        <time>2023-03-25T18:40:40.000Z</time>
      </trkpt>
      <trkpt lat="42.92226" lon="1.83826">
        <ele>560.4</ele>
        <time>2023-03-25T18:40:42.000Z</time>
      </trkpt>
      <trkpt lat="42.92219" lon="1.83823">
        <ele>560.6</ele>
        <time>2023-03-25T18:40:44.000Z</time>
      </trkpt>
      <trkpt lat="42.92213" lon="1.8382">
        <ele>560.7</ele>
        <time>2023-03-25T18:40:46.000Z</time>
      </trkpt>
      <trkpt lat="42.92207" lon="1.83818">
        <ele>560.9</ele>
        <time>2023-03-25T18:40:48.000Z</time>
      </trkpt>
      <trkpt lat="42.922" lon="1.83815">
        <ele>561</ele>
        <time>2023-03-25T18:40:50.000Z</time>
      </trkpt>
      <trkpt lat="42.92194" lon="1.83811">
        <ele>561.2</ele>
        <time>2023-03-25T18:40:52.000Z</time>
      </trkpt>
      <trkpt lat="42.92187" lon="1.83807">
        <ele>561.4</ele>
        <time>2023-03-25T18:40:54.000Z</time>
      </trkpt>
      <trkpt lat="42.92181" lon="1.83804">
        <ele>561.5</ele>
        <time>2023-03-25T18:40:56.000Z</time>
      </trkpt>
      <trkpt lat="42.92174" lon="1.83799">
        <ele>561.7</ele>
        <time>2023-03-25T18:40:58.000Z</time>
      </trkpt>
      <trkpt lat="42.92168" lon="1.83795">
        <ele>561.9</ele>
        <time>2023-03-25T18:41:00.000Z</time>
      </trkpt>
      <trkpt lat="42.92161" lon="1.83792">
        <ele>562.1</ele>
        <time>2023-03-25T18:41:02.000Z</time>
      </trkpt>
      <trkpt lat="42.92155" lon="1.83788">
        <ele>562.1</ele>
        <time>2023-03-25T18:41:04.000Z</time>
      </trkpt>
      <trkpt lat="42.92148" lon="1.83783">
        <ele>562.2</ele>
        <time>2023-03-25T18:41:06.000Z</time>
      </trkpt>
      <trkpt lat="42.92141" lon="1.83778">
        <ele>562.3</ele>
        <time>2023-03-25T18:41:08.000Z</time>
      </trkpt>
      <trkpt lat="42.92134" lon="1.83774">
        <ele>562.4</ele>
        <time>2023-03-25T18:41:10.000Z</time>
      </trkpt>
      <trkpt lat="42.92127" lon="1.83769">
        <ele>562.5</ele>
        <time>2023-03-25T18:41:12.000Z</time>
      </trkpt>
      <trkpt lat="42.9212" lon="1.83764">
        <ele>562.6</ele>
        <time>2023-03-25T18:41:14.000Z</time>
      </trkpt>
      <trkpt lat="42.92113" lon="1.83759">
        <ele>562.6</ele>
        <time>2023-03-25T18:41:16.000Z</time>
      </trkpt>
      <trkpt lat="42.92106" lon="1.83755">
        <ele>562.7</ele>
        <time>2023-03-25T18:41:18.000Z</time>
      </trkpt>
      <trkpt lat="42.921" lon="1.8375">
        <ele>562.8</ele>
        <time>2023-03-25T18:41:20.000Z</time>
      </trkpt>
      <trkpt lat="42.92093" lon="1.83745">
        <ele>563</ele>
        <time>2023-03-25T18:41:22.000Z</time>
      </trkpt>
      <trkpt lat="42.92087" lon="1.83739">
        <ele>563.2</ele>
        <time>2023-03-25T18:41:24.000Z</time>
      </trkpt>
      <trkpt lat="42.92081" lon="1.83734">
        <ele>563.5</ele>
        <time>2023-03-25T18:41:26.000Z</time>
      </trkpt>
      <trkpt lat="42.92074" lon="1.83728">
        <ele>563.7</ele>
        <time>2023-03-25T18:41:28.000Z</time>
      </trkpt>
      <trkpt lat="42.92068" lon="1.83721">
        <ele>564</ele>
        <time>2023-03-25T18:41:30.000Z</time>
      </trkpt>
      <trkpt lat="42.92064" lon="1.83718">
        <ele>564.2</ele>
        <time>2023-03-25T18:41:31.000Z</time>
      </trkpt>
      <trkpt lat="42.92059" lon="1.83714">
        <ele>564.3</ele>
        <time>2023-03-25T18:41:32.000Z</time>
      </trkpt>
      <trkpt lat="42.92055" lon="1.83709">
        <ele>564.5</ele>
        <time>2023-03-25T18:41:33.000Z</time>
      </trkpt>
      <trkpt lat="42.92051" lon="1.83705">
        <ele>564.7</ele>
        <time>2023-03-25T18:41:34.000Z</time>
      </trkpt>
      <trkpt lat="42.92048" lon="1.837">
        <ele>564.8</ele>
        <time>2023-03-25T18:41:35.000Z</time>
      </trkpt>
      <trkpt lat="42.92044" lon="1.83696">
        <ele>564.9</ele>
        <time>2023-03-25T18:41:36.000Z</time>
      </trkpt>
      <trkpt lat="42.92041" lon="1.83691">
        <ele>565.1</ele>
        <time>2023-03-25T18:41:37.000Z</time>
      </trkpt>
      <trkpt lat="42.92035" lon="1.83683">
        <ele>565.3</ele>
        <time>2023-03-25T18:41:39.000Z</time>
      </trkpt>
      <trkpt lat="42.92029" lon="1.83677">
        <ele>565.5</ele>
        <time>2023-03-25T18:41:41.000Z</time>
      </trkpt>
      <trkpt lat="42.92023" lon="1.83673">
        <ele>565.6</ele>
        <time>2023-03-25T18:41:43.000Z</time>
      </trkpt>
      <trkpt lat="42.92018" lon="1.83667">
        <ele>565.8</ele>
        <time>2023-03-25T18:41:45.000Z</time>
      </trkpt>
      <trkpt lat="42.92012" lon="1.83661">
        <ele>566.1</ele>
        <time>2023-03-25T18:41:47.000Z</time>
      </trkpt>
      <trkpt lat="42.92006" lon="1.83655">
        <ele>566.4</ele>
        <time>2023-03-25T18:41:49.000Z</time>
      </trkpt>
      <trkpt lat="42.92" lon="1.83649">
        <ele>566.7</ele>
        <time>2023-03-25T18:41:51.000Z</time>
      </trkpt>
      <trkpt lat="42.91994" lon="1.83643">
        <ele>566.9</ele>
        <time>2023-03-25T18:41:53.000Z</time>
      </trkpt>
      <trkpt lat="42.91988" lon="1.83638">
        <ele>567.1</ele>
        <time>2023-03-25T18:41:55.000Z</time>
      </trkpt>
      <trkpt lat="42.91982" lon="1.83632">
        <ele>567.3</ele>
        <time>2023-03-25T18:41:57.000Z</time>
      </trkpt>
      <trkpt lat="42.91976" lon="1.83626">
        <ele>567.5</ele>
        <time>2023-03-25T18:41:59.000Z</time>
      </trkpt>
      <trkpt lat="42.9197" lon="1.8362">
        <ele>567.6</ele>
        <time>2023-03-25T18:42:01.000Z</time>
      </trkpt>
      <trkpt lat="42.91964" lon="1.83615">
        <ele>567.8</ele>
        <time>2023-03-25T18:42:03.000Z</time>
      </trkpt>
      <trkpt lat="42.91958" lon="1.83608">
        <ele>567.9</ele>
        <time>2023-03-25T18:42:05.000Z</time>
      </trkpt>
      <trkpt lat="42.91952" lon="1.83602">
        <ele>568</ele>
        <time>2023-03-25T18:42:07.000Z</time>
      </trkpt>
      <trkpt lat="42.91947" lon="1.83595">
        <ele>568.1</ele>
        <time>2023-03-25T18:42:09.000Z</time>
      </trkpt>
      <trkpt lat="42.91941" lon="1.83587">
        <ele>568.2</ele>
        <time>2023-03-25T18:42:11.000Z</time>
      </trkpt>
      <trkpt lat="42.91936" lon="1.83581">
        <ele>568.3</ele>
        <time>2023-03-25T18:42:13.000Z</time>
      </trkpt>
      <trkpt lat="42.9193" lon="1.8358">
        <ele>568.3</ele>
        <time>2023-03-25T18:42:15.000Z</time>
      </trkpt>
      <trkpt lat="42.91925" lon="1.83584">
        <ele>568.1</ele>
        <time>2023-03-25T18:42:17.000Z</time>
      </trkpt>
      <trkpt lat="42.91921" lon="1.83591">
        <ele>567.9</ele>
        <time>2023-03-25T18:42:19.000Z</time>
      </trkpt>
      <trkpt lat="42.91917" lon="1.83599">
        <ele>567.8</ele>
        <time>2023-03-25T18:42:21.000Z</time>
      </trkpt>
      <trkpt lat="42.91912" lon="1.83605">
        <ele>567.8</ele>
        <time>2023-03-25T18:42:23.000Z</time>
      </trkpt>
      <trkpt lat="42.91907" lon="1.83609">
        <ele>567.8</ele>
        <time>2023-03-25T18:42:25.000Z</time>
      </trkpt>
      <trkpt lat="42.91901" lon="1.83609">
        <ele>567.8</ele>
        <time>2023-03-25T18:42:27.000Z</time>
      </trkpt>
      <trkpt lat="42.91895" lon="1.83611">
        <ele>567.8</ele>
        <time>2023-03-25T18:42:29.000Z</time>
      </trkpt>
      <trkpt lat="42.9189" lon="1.83615">
        <ele>567.8</ele>
        <time>2023-03-25T18:42:31.000Z</time>
      </trkpt>
      <trkpt lat="42.91886" lon="1.8362">
        <ele>567.8</ele>
        <time>2023-03-25T18:42:33.000Z</time>
      </trkpt>
      <trkpt lat="42.91883" lon="1.83626">
        <ele>567.7</ele>
        <time>2023-03-25T18:42:35.000Z</time>
      </trkpt>
      <trkpt lat="42.9188" lon="1.83631">
        <ele>567.6</ele>
        <time>2023-03-25T18:42:38.000Z</time>
      </trkpt>
      <trkpt lat="42.9188" lon="1.83631">
        <ele>567.6</ele>
        <time>2023-03-25T18:42:48.000Z</time>
      </trkpt>
    </trkseg>
  </trk>
</gpx>